<?xml version="1.0" encoding="UTF-8" standalone="no" ?>
<gpx xmlns="http://www.topografix.com/GPX/1/1" xmlns:xsi="http://www.w3.org/2001/XMLSchema-instance" xsi:schemaLocation="http://www.topografix.com/GPX/1/1 http://www.topografix.com/GPX/1/1/gpx.xsd" version="1.1" creator="VisuGPX - https://www.visugpx.com">
  <metadata>
    <name>Beffia Cyclisme sur route</name>
  </metadata>
  <trk>
    <name><![CDATA[Beffia Cyclisme sur route_1]]></name>
    <trkseg>
      <trkpt lat="46.52661" lon="5.55196">
        <ele>469.6</ele>
        <time>2022-08-27T10:10:09Z</time>
      </trkpt>
      <trkpt lat="46.52661" lon="5.55196">
        <ele>501.4</ele>
        <time>2022-08-27T10:10:10Z</time>
      </trkpt>
      <trkpt lat="46.52662" lon="5.55197">
        <ele>507</ele>
        <time>2022-08-27T10:10:30Z</time>
      </trkpt>
      <trkpt lat="46.52668" lon="5.55203">
        <ele>507.2</ele>
        <time>2022-08-27T10:10:33Z</time>
      </trkpt>
      <trkpt lat="46.52677" lon="5.55206">
        <ele>507.2</ele>
        <time>2022-08-27T10:10:37Z</time>
      </trkpt>
      <trkpt lat="46.52678" lon="5.55208">
        <ele>507.2</ele>
        <time>2022-08-27T10:10:38Z</time>
      </trkpt>
      <trkpt lat="46.52679" lon="5.5522">
        <ele>507.2</ele>
        <time>2022-08-27T10:10:41Z</time>
      </trkpt>
      <trkpt lat="46.52678" lon="5.55231">
        <ele>507</ele>
        <time>2022-08-27T10:10:43Z</time>
      </trkpt>
      <trkpt lat="46.52677" lon="5.55239">
        <ele>507</ele>
        <time>2022-08-27T10:10:44Z</time>
      </trkpt>
      <trkpt lat="46.52675" lon="5.55269">
        <ele>507</ele>
        <time>2022-08-27T10:10:48Z</time>
      </trkpt>
      <trkpt lat="46.52669" lon="5.55339">
        <ele>506.6</ele>
        <time>2022-08-27T10:10:56Z</time>
      </trkpt>
      <trkpt lat="46.52668" lon="5.55356">
        <ele>506.2</ele>
        <time>2022-08-27T10:10:58Z</time>
      </trkpt>
      <trkpt lat="46.52664" lon="5.55418">
        <ele>505.4</ele>
        <time>2022-08-27T10:11:04Z</time>
      </trkpt>
      <trkpt lat="46.52661" lon="5.55452">
        <ele>505.2</ele>
        <time>2022-08-27T10:11:07Z</time>
      </trkpt>
      <trkpt lat="46.52657" lon="5.55503">
        <ele>504.6</ele>
        <time>2022-08-27T10:11:12Z</time>
      </trkpt>
      <trkpt lat="46.52652" lon="5.55567">
        <ele>504.2</ele>
        <time>2022-08-27T10:11:18Z</time>
      </trkpt>
      <trkpt lat="46.5265" lon="5.55588">
        <ele>504.2</ele>
        <time>2022-08-27T10:11:20Z</time>
      </trkpt>
      <trkpt lat="46.52647" lon="5.55629">
        <ele>504</ele>
        <time>2022-08-27T10:11:24Z</time>
      </trkpt>
      <trkpt lat="46.52642" lon="5.55701">
        <ele>504</ele>
        <time>2022-08-27T10:11:31Z</time>
      </trkpt>
      <trkpt lat="46.52636" lon="5.55781">
        <ele>504</ele>
        <time>2022-08-27T10:11:39Z</time>
      </trkpt>
      <trkpt lat="46.5263" lon="5.55862">
        <ele>503.8</ele>
        <time>2022-08-27T10:11:47Z</time>
      </trkpt>
      <trkpt lat="46.52629" lon="5.55874">
        <ele>503.8</ele>
        <time>2022-08-27T10:11:48Z</time>
      </trkpt>
      <trkpt lat="46.52623" lon="5.55954">
        <ele>503.8</ele>
        <time>2022-08-27T10:11:56Z</time>
      </trkpt>
      <trkpt lat="46.52618" lon="5.56015">
        <ele>503.2</ele>
        <time>2022-08-27T10:12:02Z</time>
      </trkpt>
      <trkpt lat="46.5261" lon="5.56097">
        <ele>503.8</ele>
        <time>2022-08-27T10:12:10Z</time>
      </trkpt>
      <trkpt lat="46.52609" lon="5.56116">
        <ele>504</ele>
        <time>2022-08-27T10:12:12Z</time>
      </trkpt>
      <trkpt lat="46.52603" lon="5.56182">
        <ele>504.6</ele>
        <time>2022-08-27T10:12:19Z</time>
      </trkpt>
      <trkpt lat="46.526" lon="5.56237">
        <ele>505</ele>
        <time>2022-08-27T10:12:25Z</time>
      </trkpt>
      <trkpt lat="46.526" lon="5.56246">
        <ele>505.4</ele>
        <time>2022-08-27T10:12:26Z</time>
      </trkpt>
      <trkpt lat="46.52599" lon="5.56264">
        <ele>505.6</ele>
        <time>2022-08-27T10:12:28Z</time>
      </trkpt>
      <trkpt lat="46.52596" lon="5.56308">
        <ele>506.4</ele>
        <time>2022-08-27T10:12:33Z</time>
      </trkpt>
      <trkpt lat="46.52594" lon="5.56336">
        <ele>507.2</ele>
        <time>2022-08-27T10:12:36Z</time>
      </trkpt>
      <trkpt lat="46.52593" lon="5.56343">
        <ele>507.8</ele>
        <time>2022-08-27T10:12:37Z</time>
      </trkpt>
      <trkpt lat="46.52588" lon="5.56388">
        <ele>509</ele>
        <time>2022-08-27T10:12:42Z</time>
      </trkpt>
      <trkpt lat="46.52587" lon="5.56397">
        <ele>509</ele>
        <time>2022-08-27T10:12:43Z</time>
      </trkpt>
      <trkpt lat="46.52583" lon="5.56452">
        <ele>510</ele>
        <time>2022-08-27T10:12:49Z</time>
      </trkpt>
      <trkpt lat="46.52579" lon="5.56508">
        <ele>510.2</ele>
        <time>2022-08-27T10:12:55Z</time>
      </trkpt>
      <trkpt lat="46.52575" lon="5.56562">
        <ele>510.2</ele>
        <time>2022-08-27T10:13:00Z</time>
      </trkpt>
      <trkpt lat="46.52568" lon="5.56646">
        <ele>509.2</ele>
        <time>2022-08-27T10:13:07Z</time>
      </trkpt>
      <trkpt lat="46.52566" lon="5.56671">
        <ele>508.8</ele>
        <time>2022-08-27T10:13:09Z</time>
      </trkpt>
      <trkpt lat="46.52562" lon="5.56723">
        <ele>508</ele>
        <time>2022-08-27T10:13:13Z</time>
      </trkpt>
      <trkpt lat="46.52556" lon="5.56802">
        <ele>507</ele>
        <time>2022-08-27T10:13:19Z</time>
      </trkpt>
      <trkpt lat="46.52555" lon="5.56815">
        <ele>507</ele>
        <time>2022-08-27T10:13:20Z</time>
      </trkpt>
      <trkpt lat="46.52549" lon="5.56894">
        <ele>506.6</ele>
        <time>2022-08-27T10:13:26Z</time>
      </trkpt>
      <trkpt lat="46.52545" lon="5.56945">
        <ele>506.2</ele>
        <time>2022-08-27T10:13:30Z</time>
      </trkpt>
      <trkpt lat="46.52538" lon="5.57034">
        <ele>506.6</ele>
        <time>2022-08-27T10:13:37Z</time>
      </trkpt>
      <trkpt lat="46.52534" lon="5.57084">
        <ele>506.6</ele>
        <time>2022-08-27T10:13:41Z</time>
      </trkpt>
      <trkpt lat="46.52527" lon="5.5717">
        <ele>506.8</ele>
        <time>2022-08-27T10:13:48Z</time>
      </trkpt>
      <trkpt lat="46.52525" lon="5.57207">
        <ele>506.6</ele>
        <time>2022-08-27T10:13:51Z</time>
      </trkpt>
      <trkpt lat="46.52519" lon="5.57292">
        <ele>506.6</ele>
        <time>2022-08-27T10:13:58Z</time>
      </trkpt>
      <trkpt lat="46.52515" lon="5.5734">
        <ele>506.8</ele>
        <time>2022-08-27T10:14:02Z</time>
      </trkpt>
      <trkpt lat="46.52508" lon="5.57423">
        <ele>507</ele>
        <time>2022-08-27T10:14:09Z</time>
      </trkpt>
      <trkpt lat="46.52503" lon="5.57492">
        <ele>507</ele>
        <time>2022-08-27T10:14:15Z</time>
      </trkpt>
      <trkpt lat="46.525" lon="5.57526">
        <ele>506.6</ele>
        <time>2022-08-27T10:14:18Z</time>
      </trkpt>
      <trkpt lat="46.52495" lon="5.57594">
        <ele>506.2</ele>
        <time>2022-08-27T10:14:24Z</time>
      </trkpt>
      <trkpt lat="46.52489" lon="5.57672">
        <ele>506.4</ele>
        <time>2022-08-27T10:14:31Z</time>
      </trkpt>
      <trkpt lat="46.52486" lon="5.57717">
        <ele>506.4</ele>
        <time>2022-08-27T10:14:35Z</time>
      </trkpt>
      <trkpt lat="46.52479" lon="5.57805">
        <ele>506.6</ele>
        <time>2022-08-27T10:14:43Z</time>
      </trkpt>
      <trkpt lat="46.52479" lon="5.57816">
        <ele>506.6</ele>
        <time>2022-08-27T10:14:44Z</time>
      </trkpt>
      <trkpt lat="46.52472" lon="5.57905">
        <ele>507</ele>
        <time>2022-08-27T10:14:52Z</time>
      </trkpt>
      <trkpt lat="46.52469" lon="5.57938">
        <ele>507</ele>
        <time>2022-08-27T10:14:55Z</time>
      </trkpt>
      <trkpt lat="46.52462" lon="5.58027">
        <ele>506.8</ele>
        <time>2022-08-27T10:15:03Z</time>
      </trkpt>
      <trkpt lat="46.52461" lon="5.58038">
        <ele>506.8</ele>
        <time>2022-08-27T10:15:04Z</time>
      </trkpt>
      <trkpt lat="46.52455" lon="5.58124">
        <ele>506.6</ele>
        <time>2022-08-27T10:15:12Z</time>
      </trkpt>
      <trkpt lat="46.52452" lon="5.58155">
        <ele>507.2</ele>
        <time>2022-08-27T10:15:15Z</time>
      </trkpt>
      <trkpt lat="46.52446" lon="5.58239">
        <ele>507.4</ele>
        <time>2022-08-27T10:15:23Z</time>
      </trkpt>
      <trkpt lat="46.52444" lon="5.5826">
        <ele>507</ele>
        <time>2022-08-27T10:15:25Z</time>
      </trkpt>
      <trkpt lat="46.52438" lon="5.58342">
        <ele>507.4</ele>
        <time>2022-08-27T10:15:33Z</time>
      </trkpt>
      <trkpt lat="46.52436" lon="5.58373">
        <ele>507.4</ele>
        <time>2022-08-27T10:15:36Z</time>
      </trkpt>
      <trkpt lat="46.52429" lon="5.58457">
        <ele>507.6</ele>
        <time>2022-08-27T10:15:44Z</time>
      </trkpt>
      <trkpt lat="46.52427" lon="5.58489">
        <ele>507.8</ele>
        <time>2022-08-27T10:15:47Z</time>
      </trkpt>
      <trkpt lat="46.52421" lon="5.58572">
        <ele>507.8</ele>
        <time>2022-08-27T10:15:55Z</time>
      </trkpt>
      <trkpt lat="46.52418" lon="5.58604">
        <ele>507.6</ele>
        <time>2022-08-27T10:15:58Z</time>
      </trkpt>
      <trkpt lat="46.52412" lon="5.58687">
        <ele>507</ele>
        <time>2022-08-27T10:16:06Z</time>
      </trkpt>
      <trkpt lat="46.52408" lon="5.5874">
        <ele>507</ele>
        <time>2022-08-27T10:16:11Z</time>
      </trkpt>
      <trkpt lat="46.52401" lon="5.58824">
        <ele>507.2</ele>
        <time>2022-08-27T10:16:19Z</time>
      </trkpt>
      <trkpt lat="46.52398" lon="5.58865">
        <ele>507.2</ele>
        <time>2022-08-27T10:16:23Z</time>
      </trkpt>
      <trkpt lat="46.52397" lon="5.58875">
        <ele>507.2</ele>
        <time>2022-08-27T10:16:24Z</time>
      </trkpt>
      <trkpt lat="46.52391" lon="5.58955">
        <ele>508</ele>
        <time>2022-08-27T10:16:32Z</time>
      </trkpt>
      <trkpt lat="46.5239" lon="5.58975">
        <ele>507.8</ele>
        <time>2022-08-27T10:16:34Z</time>
      </trkpt>
      <trkpt lat="46.52384" lon="5.59061">
        <ele>507.2</ele>
        <time>2022-08-27T10:16:43Z</time>
      </trkpt>
      <trkpt lat="46.52383" lon="5.5907">
        <ele>507.6</ele>
        <time>2022-08-27T10:16:44Z</time>
      </trkpt>
      <trkpt lat="46.52377" lon="5.59146">
        <ele>508.4</ele>
        <time>2022-08-27T10:16:52Z</time>
      </trkpt>
      <trkpt lat="46.52371" lon="5.59228">
        <ele>509.2</ele>
        <time>2022-08-27T10:17:01Z</time>
      </trkpt>
      <trkpt lat="46.5237" lon="5.59237">
        <ele>509.2</ele>
        <time>2022-08-27T10:17:02Z</time>
      </trkpt>
      <trkpt lat="46.52369" lon="5.59254">
        <ele>509.4</ele>
        <time>2022-08-27T10:17:04Z</time>
      </trkpt>
      <trkpt lat="46.52364" lon="5.59323">
        <ele>510.4</ele>
        <time>2022-08-27T10:17:12Z</time>
      </trkpt>
      <trkpt lat="46.52363" lon="5.59331">
        <ele>510.8</ele>
        <time>2022-08-27T10:17:13Z</time>
      </trkpt>
      <trkpt lat="46.52359" lon="5.59384">
        <ele>511.6</ele>
        <time>2022-08-27T10:17:20Z</time>
      </trkpt>
      <trkpt lat="46.52358" lon="5.59392">
        <ele>511.8</ele>
        <time>2022-08-27T10:17:21Z</time>
      </trkpt>
      <trkpt lat="46.52356" lon="5.59431">
        <ele>512.8</ele>
        <time>2022-08-27T10:17:26Z</time>
      </trkpt>
      <trkpt lat="46.52356" lon="5.59439">
        <ele>513.4</ele>
        <time>2022-08-27T10:17:27Z</time>
      </trkpt>
      <trkpt lat="46.52356" lon="5.59447">
        <ele>513.6</ele>
        <time>2022-08-27T10:17:28Z</time>
      </trkpt>
      <trkpt lat="46.52352" lon="5.59495">
        <ele>514.4</ele>
        <time>2022-08-27T10:17:34Z</time>
      </trkpt>
      <trkpt lat="46.52351" lon="5.59511">
        <ele>515</ele>
        <time>2022-08-27T10:17:36Z</time>
      </trkpt>
      <trkpt lat="46.52348" lon="5.59549">
        <ele>515.8</ele>
        <time>2022-08-27T10:17:41Z</time>
      </trkpt>
      <trkpt lat="46.52346" lon="5.59578">
        <ele>516.4</ele>
        <time>2022-08-27T10:17:45Z</time>
      </trkpt>
      <trkpt lat="46.52344" lon="5.59607">
        <ele>516.8</ele>
        <time>2022-08-27T10:17:49Z</time>
      </trkpt>
      <trkpt lat="46.5234" lon="5.59656">
        <ele>517.4</ele>
        <time>2022-08-27T10:17:55Z</time>
      </trkpt>
      <trkpt lat="46.52335" lon="5.59727">
        <ele>517.8</ele>
        <time>2022-08-27T10:18:03Z</time>
      </trkpt>
      <trkpt lat="46.52333" lon="5.59744">
        <ele>518.2</ele>
        <time>2022-08-27T10:18:05Z</time>
      </trkpt>
      <trkpt lat="46.52327" lon="5.59818">
        <ele>518.6</ele>
        <time>2022-08-27T10:18:13Z</time>
      </trkpt>
      <trkpt lat="46.52322" lon="5.59897">
        <ele>519</ele>
        <time>2022-08-27T10:18:21Z</time>
      </trkpt>
      <trkpt lat="46.52321" lon="5.59916">
        <ele>519</ele>
        <time>2022-08-27T10:18:23Z</time>
      </trkpt>
      <trkpt lat="46.52317" lon="5.59962">
        <ele>519.2</ele>
        <time>2022-08-27T10:18:28Z</time>
      </trkpt>
      <trkpt lat="46.52317" lon="5.59972">
        <ele>519.4</ele>
        <time>2022-08-27T10:18:29Z</time>
      </trkpt>
      <trkpt lat="46.52312" lon="5.60035">
        <ele>520</ele>
        <time>2022-08-27T10:18:36Z</time>
      </trkpt>
      <trkpt lat="46.52309" lon="5.60079">
        <ele>520.6</ele>
        <time>2022-08-27T10:18:41Z</time>
      </trkpt>
      <trkpt lat="46.52306" lon="5.60106">
        <ele>520.8</ele>
        <time>2022-08-27T10:18:44Z</time>
      </trkpt>
      <trkpt lat="46.52303" lon="5.60145">
        <ele>521.6</ele>
        <time>2022-08-27T10:18:48Z</time>
      </trkpt>
      <trkpt lat="46.523" lon="5.60185">
        <ele>522</ele>
        <time>2022-08-27T10:18:52Z</time>
      </trkpt>
      <trkpt lat="46.52295" lon="5.60266">
        <ele>522.6</ele>
        <time>2022-08-27T10:19:00Z</time>
      </trkpt>
      <trkpt lat="46.52291" lon="5.60316">
        <ele>522.8</ele>
        <time>2022-08-27T10:19:05Z</time>
      </trkpt>
      <trkpt lat="46.52289" lon="5.60335">
        <ele>522.8</ele>
        <time>2022-08-27T10:19:07Z</time>
      </trkpt>
      <trkpt lat="46.52282" lon="5.60422">
        <ele>523.8</ele>
        <time>2022-08-27T10:19:16Z</time>
      </trkpt>
      <trkpt lat="46.52275" lon="5.605">
        <ele>523.8</ele>
        <time>2022-08-27T10:19:24Z</time>
      </trkpt>
      <trkpt lat="46.5227" lon="5.60559">
        <ele>523.8</ele>
        <time>2022-08-27T10:19:30Z</time>
      </trkpt>
      <trkpt lat="46.52265" lon="5.60622">
        <ele>524.4</ele>
        <time>2022-08-27T10:19:37Z</time>
      </trkpt>
      <trkpt lat="46.52263" lon="5.60647">
        <ele>524.6</ele>
        <time>2022-08-27T10:19:40Z</time>
      </trkpt>
      <trkpt lat="46.52259" lon="5.6067">
        <ele>525</ele>
        <time>2022-08-27T10:19:43Z</time>
      </trkpt>
      <trkpt lat="46.52253" lon="5.60683">
        <ele>525.2</ele>
        <time>2022-08-27T10:19:45Z</time>
      </trkpt>
      <trkpt lat="46.5225" lon="5.6069">
        <ele>525.6</ele>
        <time>2022-08-27T10:19:46Z</time>
      </trkpt>
      <trkpt lat="46.52246" lon="5.60695">
        <ele>525.6</ele>
        <time>2022-08-27T10:19:47Z</time>
      </trkpt>
      <trkpt lat="46.52238" lon="5.60704">
        <ele>525.8</ele>
        <time>2022-08-27T10:19:49Z</time>
      </trkpt>
      <trkpt lat="46.52229" lon="5.60709">
        <ele>526.4</ele>
        <time>2022-08-27T10:19:51Z</time>
      </trkpt>
      <trkpt lat="46.52224" lon="5.60711">
        <ele>526.6</ele>
        <time>2022-08-27T10:19:52Z</time>
      </trkpt>
      <trkpt lat="46.52219" lon="5.60712">
        <ele>526.8</ele>
        <time>2022-08-27T10:19:53Z</time>
      </trkpt>
      <trkpt lat="46.52199" lon="5.60713">
        <ele>527.6</ele>
        <time>2022-08-27T10:19:57Z</time>
      </trkpt>
      <trkpt lat="46.52184" lon="5.60716">
        <ele>528</ele>
        <time>2022-08-27T10:20:00Z</time>
      </trkpt>
      <trkpt lat="46.52179" lon="5.60717">
        <ele>528.2</ele>
        <time>2022-08-27T10:20:01Z</time>
      </trkpt>
      <trkpt lat="46.52169" lon="5.60722">
        <ele>528.6</ele>
        <time>2022-08-27T10:20:03Z</time>
      </trkpt>
      <trkpt lat="46.52162" lon="5.60729">
        <ele>529</ele>
        <time>2022-08-27T10:20:05Z</time>
      </trkpt>
      <trkpt lat="46.52157" lon="5.6074">
        <ele>529.6</ele>
        <time>2022-08-27T10:20:07Z</time>
      </trkpt>
      <trkpt lat="46.52154" lon="5.60752">
        <ele>529.8</ele>
        <time>2022-08-27T10:20:09Z</time>
      </trkpt>
      <trkpt lat="46.52154" lon="5.60759">
        <ele>530.4</ele>
        <time>2022-08-27T10:20:10Z</time>
      </trkpt>
      <trkpt lat="46.52155" lon="5.60781">
        <ele>531.4</ele>
        <time>2022-08-27T10:20:13Z</time>
      </trkpt>
      <trkpt lat="46.52155" lon="5.60788">
        <ele>531.6</ele>
        <time>2022-08-27T10:20:14Z</time>
      </trkpt>
      <trkpt lat="46.52153" lon="5.6083">
        <ele>532</ele>
        <time>2022-08-27T10:20:19Z</time>
      </trkpt>
      <trkpt lat="46.52144" lon="5.60887">
        <ele>531.6</ele>
        <time>2022-08-27T10:20:25Z</time>
      </trkpt>
      <trkpt lat="46.5214" lon="5.60948">
        <ele>530.4</ele>
        <time>2022-08-27T10:20:31Z</time>
      </trkpt>
      <trkpt lat="46.52133" lon="5.60978">
        <ele>530.2</ele>
        <time>2022-08-27T10:20:34Z</time>
      </trkpt>
      <trkpt lat="46.52129" lon="5.60988">
        <ele>530.2</ele>
        <time>2022-08-27T10:20:35Z</time>
      </trkpt>
      <trkpt lat="46.52124" lon="5.60996">
        <ele>530.2</ele>
        <time>2022-08-27T10:20:36Z</time>
      </trkpt>
      <trkpt lat="46.52108" lon="5.61015">
        <ele>529.8</ele>
        <time>2022-08-27T10:20:39Z</time>
      </trkpt>
      <trkpt lat="46.52098" lon="5.61027">
        <ele>529.2</ele>
        <time>2022-08-27T10:20:42Z</time>
      </trkpt>
      <trkpt lat="46.52095" lon="5.61034">
        <ele>528.6</ele>
        <time>2022-08-27T10:20:45Z</time>
      </trkpt>
      <trkpt lat="46.52094" lon="5.61035">
        <ele>528.6</ele>
        <time>2022-08-27T10:20:46Z</time>
      </trkpt>
      <trkpt lat="46.52092" lon="5.61038">
        <ele>528.4</ele>
        <time>2022-08-27T10:20:51Z</time>
      </trkpt>
      <trkpt lat="46.52089" lon="5.61045">
        <ele>528.2</ele>
        <time>2022-08-27T10:20:56Z</time>
      </trkpt>
      <trkpt lat="46.52085" lon="5.61056">
        <ele>528.2</ele>
        <time>2022-08-27T10:20:58Z</time>
      </trkpt>
      <trkpt lat="46.52084" lon="5.61063">
        <ele>528.2</ele>
        <time>2022-08-27T10:20:59Z</time>
      </trkpt>
      <trkpt lat="46.52084" lon="5.61072">
        <ele>528.2</ele>
        <time>2022-08-27T10:21:00Z</time>
      </trkpt>
      <trkpt lat="46.52086" lon="5.6108">
        <ele>528.2</ele>
        <time>2022-08-27T10:21:01Z</time>
      </trkpt>
      <trkpt lat="46.52089" lon="5.61088">
        <ele>528.2</ele>
        <time>2022-08-27T10:21:02Z</time>
      </trkpt>
      <trkpt lat="46.52091" lon="5.61097">
        <ele>528.2</ele>
        <time>2022-08-27T10:21:03Z</time>
      </trkpt>
      <trkpt lat="46.52091" lon="5.61117">
        <ele>528.2</ele>
        <time>2022-08-27T10:21:05Z</time>
      </trkpt>
      <trkpt lat="46.52093" lon="5.61156">
        <ele>528</ele>
        <time>2022-08-27T10:21:09Z</time>
      </trkpt>
      <trkpt lat="46.52098" lon="5.61213">
        <ele>527.6</ele>
        <time>2022-08-27T10:21:14Z</time>
      </trkpt>
      <trkpt lat="46.52097" lon="5.61237">
        <ele>527.2</ele>
        <time>2022-08-27T10:21:16Z</time>
      </trkpt>
      <trkpt lat="46.52096" lon="5.61286">
        <ele>526.6</ele>
        <time>2022-08-27T10:21:20Z</time>
      </trkpt>
      <trkpt lat="46.52097" lon="5.61299">
        <ele>526.4</ele>
        <time>2022-08-27T10:21:21Z</time>
      </trkpt>
      <trkpt lat="46.52104" lon="5.61352">
        <ele>525.4</ele>
        <time>2022-08-27T10:21:25Z</time>
      </trkpt>
      <trkpt lat="46.52106" lon="5.61364">
        <ele>525.2</ele>
        <time>2022-08-27T10:21:26Z</time>
      </trkpt>
      <trkpt lat="46.52116" lon="5.61401">
        <ele>524.6</ele>
        <time>2022-08-27T10:21:29Z</time>
      </trkpt>
      <trkpt lat="46.5212" lon="5.61412">
        <ele>524.4</ele>
        <time>2022-08-27T10:21:30Z</time>
      </trkpt>
      <trkpt lat="46.52126" lon="5.61422">
        <ele>524</ele>
        <time>2022-08-27T10:21:31Z</time>
      </trkpt>
      <trkpt lat="46.52138" lon="5.61439">
        <ele>523.4</ele>
        <time>2022-08-27T10:21:33Z</time>
      </trkpt>
      <trkpt lat="46.52159" lon="5.61462">
        <ele>522.8</ele>
        <time>2022-08-27T10:21:36Z</time>
      </trkpt>
      <trkpt lat="46.52181" lon="5.61485">
        <ele>522.4</ele>
        <time>2022-08-27T10:21:39Z</time>
      </trkpt>
      <trkpt lat="46.52209" lon="5.61516">
        <ele>522</ele>
        <time>2022-08-27T10:21:43Z</time>
      </trkpt>
      <trkpt lat="46.52257" lon="5.61568">
        <ele>521.6</ele>
        <time>2022-08-27T10:21:50Z</time>
      </trkpt>
      <trkpt lat="46.52303" lon="5.61611">
        <ele>521.6</ele>
        <time>2022-08-27T10:21:57Z</time>
      </trkpt>
      <trkpt lat="46.52342" lon="5.61646">
        <ele>521.4</ele>
        <time>2022-08-27T10:22:03Z</time>
      </trkpt>
      <trkpt lat="46.52347" lon="5.61655">
        <ele>521.2</ele>
        <time>2022-08-27T10:22:04Z</time>
      </trkpt>
      <trkpt lat="46.52352" lon="5.61665">
        <ele>521</ele>
        <time>2022-08-27T10:22:05Z</time>
      </trkpt>
      <trkpt lat="46.52356" lon="5.61676">
        <ele>520.6</ele>
        <time>2022-08-27T10:22:06Z</time>
      </trkpt>
      <trkpt lat="46.52362" lon="5.61702">
        <ele>519.6</ele>
        <time>2022-08-27T10:22:08Z</time>
      </trkpt>
      <trkpt lat="46.52367" lon="5.61729">
        <ele>518.4</ele>
        <time>2022-08-27T10:22:10Z</time>
      </trkpt>
      <trkpt lat="46.5237" lon="5.61743">
        <ele>518</ele>
        <time>2022-08-27T10:22:11Z</time>
      </trkpt>
      <trkpt lat="46.52375" lon="5.61773">
        <ele>517.2</ele>
        <time>2022-08-27T10:22:13Z</time>
      </trkpt>
      <trkpt lat="46.52382" lon="5.61803">
        <ele>516</ele>
        <time>2022-08-27T10:22:15Z</time>
      </trkpt>
      <trkpt lat="46.52386" lon="5.61819">
        <ele>514.6</ele>
        <time>2022-08-27T10:22:16Z</time>
      </trkpt>
      <trkpt lat="46.52392" lon="5.61853">
        <ele>513</ele>
        <time>2022-08-27T10:22:18Z</time>
      </trkpt>
      <trkpt lat="46.52393" lon="5.6187">
        <ele>512.8</ele>
        <time>2022-08-27T10:22:19Z</time>
      </trkpt>
      <trkpt lat="46.52394" lon="5.61887">
        <ele>511.8</ele>
        <time>2022-08-27T10:22:20Z</time>
      </trkpt>
      <trkpt lat="46.52393" lon="5.61904">
        <ele>511</ele>
        <time>2022-08-27T10:22:21Z</time>
      </trkpt>
      <trkpt lat="46.52392" lon="5.6192">
        <ele>510.8</ele>
        <time>2022-08-27T10:22:22Z</time>
      </trkpt>
      <trkpt lat="46.52389" lon="5.6197">
        <ele>509.2</ele>
        <time>2022-08-27T10:22:25Z</time>
      </trkpt>
      <trkpt lat="46.52388" lon="5.61986">
        <ele>508.8</ele>
        <time>2022-08-27T10:22:26Z</time>
      </trkpt>
      <trkpt lat="46.52386" lon="5.62018">
        <ele>507.8</ele>
        <time>2022-08-27T10:22:28Z</time>
      </trkpt>
      <trkpt lat="46.52383" lon="5.62063">
        <ele>506.8</ele>
        <time>2022-08-27T10:22:31Z</time>
      </trkpt>
      <trkpt lat="46.52379" lon="5.62122">
        <ele>506</ele>
        <time>2022-08-27T10:22:35Z</time>
      </trkpt>
      <trkpt lat="46.52377" lon="5.62151">
        <ele>505.8</ele>
        <time>2022-08-27T10:22:37Z</time>
      </trkpt>
      <trkpt lat="46.52373" lon="5.62218">
        <ele>505.4</ele>
        <time>2022-08-27T10:22:42Z</time>
      </trkpt>
      <trkpt lat="46.52368" lon="5.62284">
        <ele>505.8</ele>
        <time>2022-08-27T10:22:48Z</time>
      </trkpt>
      <trkpt lat="46.52367" lon="5.6232">
        <ele>506.8</ele>
        <time>2022-08-27T10:22:52Z</time>
      </trkpt>
      <trkpt lat="46.52367" lon="5.62337">
        <ele>507.4</ele>
        <time>2022-08-27T10:22:54Z</time>
      </trkpt>
      <trkpt lat="46.52367" lon="5.62344">
        <ele>508</ele>
        <time>2022-08-27T10:22:55Z</time>
      </trkpt>
      <trkpt lat="46.52368" lon="5.62359">
        <ele>509.2</ele>
        <time>2022-08-27T10:22:57Z</time>
      </trkpt>
      <trkpt lat="46.52371" lon="5.6238">
        <ele>510.4</ele>
        <time>2022-08-27T10:23:00Z</time>
      </trkpt>
      <trkpt lat="46.52378" lon="5.62413">
        <ele>511.6</ele>
        <time>2022-08-27T10:23:05Z</time>
      </trkpt>
      <trkpt lat="46.52381" lon="5.62424">
        <ele>512.2</ele>
        <time>2022-08-27T10:23:07Z</time>
      </trkpt>
      <trkpt lat="46.52383" lon="5.6243">
        <ele>512.4</ele>
        <time>2022-08-27T10:23:08Z</time>
      </trkpt>
      <trkpt lat="46.52385" lon="5.62435">
        <ele>512.8</ele>
        <time>2022-08-27T10:23:09Z</time>
      </trkpt>
      <trkpt lat="46.52393" lon="5.62455">
        <ele>513.6</ele>
        <time>2022-08-27T10:23:13Z</time>
      </trkpt>
      <trkpt lat="46.52395" lon="5.6246">
        <ele>513.8</ele>
        <time>2022-08-27T10:23:14Z</time>
      </trkpt>
      <trkpt lat="46.52405" lon="5.62478">
        <ele>515</ele>
        <time>2022-08-27T10:23:18Z</time>
      </trkpt>
      <trkpt lat="46.5241" lon="5.62487">
        <ele>516</ele>
        <time>2022-08-27T10:23:20Z</time>
      </trkpt>
      <trkpt lat="46.52412" lon="5.62491">
        <ele>516.6</ele>
        <time>2022-08-27T10:23:21Z</time>
      </trkpt>
      <trkpt lat="46.5242" lon="5.62504">
        <ele>517.8</ele>
        <time>2022-08-27T10:23:24Z</time>
      </trkpt>
      <trkpt lat="46.52426" lon="5.62511">
        <ele>519</ele>
        <time>2022-08-27T10:23:26Z</time>
      </trkpt>
      <trkpt lat="46.52434" lon="5.62523">
        <ele>519.8</ele>
        <time>2022-08-27T10:23:29Z</time>
      </trkpt>
      <trkpt lat="46.52439" lon="5.62531">
        <ele>520.2</ele>
        <time>2022-08-27T10:23:31Z</time>
      </trkpt>
      <trkpt lat="46.52449" lon="5.62546">
        <ele>521.2</ele>
        <time>2022-08-27T10:23:35Z</time>
      </trkpt>
      <trkpt lat="46.52456" lon="5.62558">
        <ele>521.8</ele>
        <time>2022-08-27T10:23:38Z</time>
      </trkpt>
      <trkpt lat="46.52463" lon="5.62569">
        <ele>522.4</ele>
        <time>2022-08-27T10:23:41Z</time>
      </trkpt>
      <trkpt lat="46.5247" lon="5.62584">
        <ele>523.4</ele>
        <time>2022-08-27T10:23:45Z</time>
      </trkpt>
      <trkpt lat="46.52478" lon="5.62601">
        <ele>524.6</ele>
        <time>2022-08-27T10:23:49Z</time>
      </trkpt>
      <trkpt lat="46.52486" lon="5.62623">
        <ele>526</ele>
        <time>2022-08-27T10:23:54Z</time>
      </trkpt>
      <trkpt lat="46.52493" lon="5.62645">
        <ele>527</ele>
        <time>2022-08-27T10:23:59Z</time>
      </trkpt>
      <trkpt lat="46.52501" lon="5.62672">
        <ele>527.8</ele>
        <time>2022-08-27T10:24:05Z</time>
      </trkpt>
      <trkpt lat="46.52505" lon="5.62686">
        <ele>528.4</ele>
        <time>2022-08-27T10:24:08Z</time>
      </trkpt>
      <trkpt lat="46.52514" lon="5.62717">
        <ele>529.4</ele>
        <time>2022-08-27T10:24:15Z</time>
      </trkpt>
      <trkpt lat="46.52515" lon="5.62722">
        <ele>529.4</ele>
        <time>2022-08-27T10:24:16Z</time>
      </trkpt>
      <trkpt lat="46.52526" lon="5.62761">
        <ele>530.6</ele>
        <time>2022-08-27T10:24:24Z</time>
      </trkpt>
      <trkpt lat="46.52527" lon="5.62766">
        <ele>530.6</ele>
        <time>2022-08-27T10:24:25Z</time>
      </trkpt>
      <trkpt lat="46.52533" lon="5.62786">
        <ele>531.6</ele>
        <time>2022-08-27T10:24:29Z</time>
      </trkpt>
      <trkpt lat="46.52544" lon="5.62822">
        <ele>533</ele>
        <time>2022-08-27T10:24:36Z</time>
      </trkpt>
      <trkpt lat="46.5256" lon="5.62873">
        <ele>533.8</ele>
        <time>2022-08-27T10:24:45Z</time>
      </trkpt>
      <trkpt lat="46.52566" lon="5.62891">
        <ele>534.2</ele>
        <time>2022-08-27T10:24:48Z</time>
      </trkpt>
      <trkpt lat="46.52576" lon="5.62929">
        <ele>534.8</ele>
        <time>2022-08-27T10:24:54Z</time>
      </trkpt>
      <trkpt lat="46.52586" lon="5.62967">
        <ele>535.4</ele>
        <time>2022-08-27T10:25:00Z</time>
      </trkpt>
      <trkpt lat="46.5259" lon="5.6298">
        <ele>535.6</ele>
        <time>2022-08-27T10:25:02Z</time>
      </trkpt>
      <trkpt lat="46.52606" lon="5.63043">
        <ele>536.6</ele>
        <time>2022-08-27T10:25:11Z</time>
      </trkpt>
      <trkpt lat="46.52608" lon="5.63051">
        <ele>536.6</ele>
        <time>2022-08-27T10:25:12Z</time>
      </trkpt>
      <trkpt lat="46.52626" lon="5.63126">
        <ele>537</ele>
        <time>2022-08-27T10:25:20Z</time>
      </trkpt>
      <trkpt lat="46.52626" lon="5.63126">
        <ele>537</ele>
        <time>2022-08-27T10:25:21Z</time>
      </trkpt>
      <trkpt lat="46.52644" lon="5.63202">
        <ele>536.8</ele>
        <time>2022-08-27T10:25:28Z</time>
      </trkpt>
      <trkpt lat="46.52644" lon="5.63202">
        <ele>536.8</ele>
        <time>2022-08-27T10:25:29Z</time>
      </trkpt>
      <trkpt lat="46.52659" lon="5.63278">
        <ele>536.4</ele>
        <time>2022-08-27T10:25:35Z</time>
      </trkpt>
      <trkpt lat="46.52661" lon="5.63289">
        <ele>536.2</ele>
        <time>2022-08-27T10:25:36Z</time>
      </trkpt>
      <trkpt lat="46.52672" lon="5.6336">
        <ele>535.6</ele>
        <time>2022-08-27T10:25:43Z</time>
      </trkpt>
      <trkpt lat="46.52677" lon="5.63388">
        <ele>535.6</ele>
        <time>2022-08-27T10:25:46Z</time>
      </trkpt>
      <trkpt lat="46.52684" lon="5.63447">
        <ele>536.6</ele>
        <time>2022-08-27T10:25:53Z</time>
      </trkpt>
      <trkpt lat="46.52685" lon="5.63455">
        <ele>536.8</ele>
        <time>2022-08-27T10:25:54Z</time>
      </trkpt>
      <trkpt lat="46.52686" lon="5.63477">
        <ele>538</ele>
        <time>2022-08-27T10:25:57Z</time>
      </trkpt>
      <trkpt lat="46.52686" lon="5.63492">
        <ele>538.8</ele>
        <time>2022-08-27T10:26:00Z</time>
      </trkpt>
      <trkpt lat="46.52686" lon="5.63507">
        <ele>539</ele>
        <time>2022-08-27T10:26:01Z</time>
      </trkpt>
      <trkpt lat="46.52684" lon="5.63541">
        <ele>540.4</ele>
        <time>2022-08-27T10:26:06Z</time>
      </trkpt>
      <trkpt lat="46.52678" lon="5.63588">
        <ele>541.6</ele>
        <time>2022-08-27T10:26:13Z</time>
      </trkpt>
      <trkpt lat="46.52672" lon="5.63621">
        <ele>543</ele>
        <time>2022-08-27T10:26:18Z</time>
      </trkpt>
      <trkpt lat="46.52671" lon="5.63628">
        <ele>543.2</ele>
        <time>2022-08-27T10:26:19Z</time>
      </trkpt>
      <trkpt lat="46.52663" lon="5.63662">
        <ele>544</ele>
        <time>2022-08-27T10:26:24Z</time>
      </trkpt>
      <trkpt lat="46.52658" lon="5.63682">
        <ele>544.8</ele>
        <time>2022-08-27T10:26:27Z</time>
      </trkpt>
      <trkpt lat="46.52654" lon="5.63695">
        <ele>545.2</ele>
        <time>2022-08-27T10:26:29Z</time>
      </trkpt>
      <trkpt lat="46.52648" lon="5.6373">
        <ele>545.8</ele>
        <time>2022-08-27T10:26:34Z</time>
      </trkpt>
      <trkpt lat="46.52646" lon="5.63745">
        <ele>546</ele>
        <time>2022-08-27T10:26:36Z</time>
      </trkpt>
      <trkpt lat="46.52645" lon="5.63761">
        <ele>546.2</ele>
        <time>2022-08-27T10:26:38Z</time>
      </trkpt>
      <trkpt lat="46.52643" lon="5.6381">
        <ele>547</ele>
        <time>2022-08-27T10:26:44Z</time>
      </trkpt>
      <trkpt lat="46.52643" lon="5.63818">
        <ele>547.2</ele>
        <time>2022-08-27T10:26:45Z</time>
      </trkpt>
      <trkpt lat="46.52644" lon="5.63838">
        <ele>547.4</ele>
        <time>2022-08-27T10:26:47Z</time>
      </trkpt>
      <trkpt lat="46.52644" lon="5.63838">
        <ele>547.4</ele>
        <time>2022-08-27T10:26:48Z</time>
      </trkpt>
      <trkpt lat="46.52643" lon="5.63867">
        <ele>547.4</ele>
        <time>2022-08-27T10:26:50Z</time>
      </trkpt>
      <trkpt lat="46.52643" lon="5.63867">
        <ele>547.4</ele>
        <time>2022-08-27T10:26:51Z</time>
      </trkpt>
      <trkpt lat="46.5267" lon="5.63928">
        <ele>547.6</ele>
        <time>2022-08-27T10:26:57Z</time>
      </trkpt>
      <trkpt lat="46.52691" lon="5.63965">
        <ele>547.6</ele>
        <time>2022-08-27T10:27:02Z</time>
      </trkpt>
      <trkpt lat="46.52724" lon="5.64008">
        <ele>546.2</ele>
        <time>2022-08-27T10:27:09Z</time>
      </trkpt>
      <trkpt lat="46.52734" lon="5.64024">
        <ele>546</ele>
        <time>2022-08-27T10:27:10Z</time>
      </trkpt>
      <trkpt lat="46.52752" lon="5.64047">
        <ele>545.2</ele>
        <time>2022-08-27T10:27:13Z</time>
      </trkpt>
      <trkpt lat="46.52759" lon="5.64053">
        <ele>545.2</ele>
        <time>2022-08-27T10:27:14Z</time>
      </trkpt>
      <trkpt lat="46.52771" lon="5.64043">
        <ele>544.8</ele>
        <time>2022-08-27T10:27:16Z</time>
      </trkpt>
      <trkpt lat="46.52783" lon="5.64035">
        <ele>544.6</ele>
        <time>2022-08-27T10:27:18Z</time>
      </trkpt>
      <trkpt lat="46.52795" lon="5.64033">
        <ele>544.6</ele>
        <time>2022-08-27T10:27:20Z</time>
      </trkpt>
      <trkpt lat="46.52806" lon="5.64035">
        <ele>544.6</ele>
        <time>2022-08-27T10:27:22Z</time>
      </trkpt>
      <trkpt lat="46.52818" lon="5.64041">
        <ele>545.8</ele>
        <time>2022-08-27T10:27:25Z</time>
      </trkpt>
      <trkpt lat="46.52822" lon="5.64043">
        <ele>546.8</ele>
        <time>2022-08-27T10:27:26Z</time>
      </trkpt>
      <trkpt lat="46.52829" lon="5.64048">
        <ele>548</ele>
        <time>2022-08-27T10:27:28Z</time>
      </trkpt>
      <trkpt lat="46.52837" lon="5.64053">
        <ele>548.6</ele>
        <time>2022-08-27T10:27:30Z</time>
      </trkpt>
      <trkpt lat="46.52845" lon="5.64058">
        <ele>549</ele>
        <time>2022-08-27T10:27:32Z</time>
      </trkpt>
      <trkpt lat="46.52861" lon="5.6407">
        <ele>550.8</ele>
        <time>2022-08-27T10:27:37Z</time>
      </trkpt>
      <trkpt lat="46.52872" lon="5.64076">
        <ele>552</ele>
        <time>2022-08-27T10:27:40Z</time>
      </trkpt>
      <trkpt lat="46.52886" lon="5.64084">
        <ele>553</ele>
        <time>2022-08-27T10:27:44Z</time>
      </trkpt>
      <trkpt lat="46.52893" lon="5.64087">
        <ele>553.6</ele>
        <time>2022-08-27T10:27:46Z</time>
      </trkpt>
      <trkpt lat="46.52899" lon="5.6409">
        <ele>554.2</ele>
        <time>2022-08-27T10:27:48Z</time>
      </trkpt>
      <trkpt lat="46.52913" lon="5.64097">
        <ele>555.2</ele>
        <time>2022-08-27T10:27:52Z</time>
      </trkpt>
      <trkpt lat="46.5292" lon="5.64101">
        <ele>556</ele>
        <time>2022-08-27T10:27:55Z</time>
      </trkpt>
      <trkpt lat="46.5293" lon="5.64107">
        <ele>556.2</ele>
        <time>2022-08-27T10:27:57Z</time>
      </trkpt>
      <trkpt lat="46.52948" lon="5.64118">
        <ele>557.4</ele>
        <time>2022-08-27T10:28:02Z</time>
      </trkpt>
      <trkpt lat="46.52959" lon="5.64124">
        <ele>557.8</ele>
        <time>2022-08-27T10:28:05Z</time>
      </trkpt>
      <trkpt lat="46.52993" lon="5.64141">
        <ele>558.4</ele>
        <time>2022-08-27T10:28:13Z</time>
      </trkpt>
      <trkpt lat="46.53001" lon="5.64146">
        <ele>558.6</ele>
        <time>2022-08-27T10:28:15Z</time>
      </trkpt>
      <trkpt lat="46.5305" lon="5.6417">
        <ele>559.4</ele>
        <time>2022-08-27T10:28:25Z</time>
      </trkpt>
      <trkpt lat="46.53068" lon="5.6418">
        <ele>559.8</ele>
        <time>2022-08-27T10:28:29Z</time>
      </trkpt>
      <trkpt lat="46.53102" lon="5.64202">
        <ele>560.8</ele>
        <time>2022-08-27T10:28:37Z</time>
      </trkpt>
      <trkpt lat="46.53131" lon="5.64224">
        <ele>562</ele>
        <time>2022-08-27T10:28:44Z</time>
      </trkpt>
      <trkpt lat="46.53157" lon="5.64245">
        <ele>562.4</ele>
        <time>2022-08-27T10:28:51Z</time>
      </trkpt>
      <trkpt lat="46.53201" lon="5.6428">
        <ele>563.2</ele>
        <time>2022-08-27T10:29:00Z</time>
      </trkpt>
      <trkpt lat="46.5321" lon="5.64288">
        <ele>563.8</ele>
        <time>2022-08-27T10:29:02Z</time>
      </trkpt>
      <trkpt lat="46.53241" lon="5.64313">
        <ele>564</ele>
        <time>2022-08-27T10:29:08Z</time>
      </trkpt>
      <trkpt lat="46.53288" lon="5.6435">
        <ele>563.2</ele>
        <time>2022-08-27T10:29:16Z</time>
      </trkpt>
      <trkpt lat="46.53317" lon="5.64374">
        <ele>562.2</ele>
        <time>2022-08-27T10:29:21Z</time>
      </trkpt>
      <trkpt lat="46.53344" lon="5.64396">
        <ele>561.2</ele>
        <time>2022-08-27T10:29:26Z</time>
      </trkpt>
      <trkpt lat="46.53349" lon="5.644">
        <ele>561.2</ele>
        <time>2022-08-27T10:29:27Z</time>
      </trkpt>
      <trkpt lat="46.53401" lon="5.64443">
        <ele>561.4</ele>
        <time>2022-08-27T10:29:37Z</time>
      </trkpt>
      <trkpt lat="46.53447" lon="5.6448">
        <ele>562</ele>
        <time>2022-08-27T10:29:46Z</time>
      </trkpt>
      <trkpt lat="46.53462" lon="5.64493">
        <ele>562.6</ele>
        <time>2022-08-27T10:29:49Z</time>
      </trkpt>
      <trkpt lat="46.53501" lon="5.64526">
        <ele>563</ele>
        <time>2022-08-27T10:29:57Z</time>
      </trkpt>
      <trkpt lat="46.53546" lon="5.64564">
        <ele>563</ele>
        <time>2022-08-27T10:30:05Z</time>
      </trkpt>
      <trkpt lat="46.53592" lon="5.64605">
        <ele>563</ele>
        <time>2022-08-27T10:30:13Z</time>
      </trkpt>
      <trkpt lat="46.53604" lon="5.64615">
        <ele>562.8</ele>
        <time>2022-08-27T10:30:16Z</time>
      </trkpt>
      <trkpt lat="46.53655" lon="5.6466">
        <ele>562.4</ele>
        <time>2022-08-27T10:30:24Z</time>
      </trkpt>
      <trkpt lat="46.53671" lon="5.64675">
        <ele>562.4</ele>
        <time>2022-08-27T10:30:27Z</time>
      </trkpt>
      <trkpt lat="46.5372" lon="5.64717">
        <ele>562.2</ele>
        <time>2022-08-27T10:30:36Z</time>
      </trkpt>
      <trkpt lat="46.5373" lon="5.64726">
        <ele>562.2</ele>
        <time>2022-08-27T10:30:38Z</time>
      </trkpt>
      <trkpt lat="46.53777" lon="5.64767">
        <ele>563.2</ele>
        <time>2022-08-27T10:30:47Z</time>
      </trkpt>
      <trkpt lat="46.53818" lon="5.64803">
        <ele>563</ele>
        <time>2022-08-27T10:30:54Z</time>
      </trkpt>
      <trkpt lat="46.53857" lon="5.64837">
        <ele>561.8</ele>
        <time>2022-08-27T10:31:00Z</time>
      </trkpt>
      <trkpt lat="46.53862" lon="5.64842">
        <ele>561.4</ele>
        <time>2022-08-27T10:31:01Z</time>
      </trkpt>
      <trkpt lat="46.53891" lon="5.64868">
        <ele>560.4</ele>
        <time>2022-08-27T10:31:05Z</time>
      </trkpt>
      <trkpt lat="46.53918" lon="5.64891">
        <ele>559.8</ele>
        <time>2022-08-27T10:31:09Z</time>
      </trkpt>
      <trkpt lat="46.53952" lon="5.64921">
        <ele>560</ele>
        <time>2022-08-27T10:31:15Z</time>
      </trkpt>
      <trkpt lat="46.53985" lon="5.6495">
        <ele>561.6</ele>
        <time>2022-08-27T10:31:22Z</time>
      </trkpt>
      <trkpt lat="46.54003" lon="5.64964">
        <ele>563</ele>
        <time>2022-08-27T10:31:26Z</time>
      </trkpt>
      <trkpt lat="46.54019" lon="5.64978">
        <ele>564.2</ele>
        <time>2022-08-27T10:31:30Z</time>
      </trkpt>
      <trkpt lat="46.54028" lon="5.64985">
        <ele>564.4</ele>
        <time>2022-08-27T10:31:32Z</time>
      </trkpt>
      <trkpt lat="46.54039" lon="5.64995">
        <ele>565</ele>
        <time>2022-08-27T10:31:35Z</time>
      </trkpt>
      <trkpt lat="46.54043" lon="5.65">
        <ele>565.4</ele>
        <time>2022-08-27T10:31:36Z</time>
      </trkpt>
      <trkpt lat="46.54056" lon="5.65012">
        <ele>565.8</ele>
        <time>2022-08-27T10:31:39Z</time>
      </trkpt>
      <trkpt lat="46.54071" lon="5.65024">
        <ele>566.6</ele>
        <time>2022-08-27T10:31:42Z</time>
      </trkpt>
      <trkpt lat="46.54077" lon="5.65028">
        <ele>566.8</ele>
        <time>2022-08-27T10:31:43Z</time>
      </trkpt>
      <trkpt lat="46.54117" lon="5.6506">
        <ele>567</ele>
        <time>2022-08-27T10:31:50Z</time>
      </trkpt>
      <trkpt lat="46.54155" lon="5.65097">
        <ele>566</ele>
        <time>2022-08-27T10:31:57Z</time>
      </trkpt>
      <trkpt lat="46.54176" lon="5.65125">
        <ele>566.4</ele>
        <time>2022-08-27T10:32:02Z</time>
      </trkpt>
      <trkpt lat="46.54205" lon="5.65163">
        <ele>567.8</ele>
        <time>2022-08-27T10:32:09Z</time>
      </trkpt>
      <trkpt lat="46.54213" lon="5.65175">
        <ele>568</ele>
        <time>2022-08-27T10:32:11Z</time>
      </trkpt>
      <trkpt lat="46.54238" lon="5.65209">
        <ele>569</ele>
        <time>2022-08-27T10:32:17Z</time>
      </trkpt>
      <trkpt lat="46.54251" lon="5.65227">
        <ele>568.6</ele>
        <time>2022-08-27T10:32:20Z</time>
      </trkpt>
      <trkpt lat="46.54283" lon="5.65264">
        <ele>568.2</ele>
        <time>2022-08-27T10:32:26Z</time>
      </trkpt>
      <trkpt lat="46.54296" lon="5.65278">
        <ele>568</ele>
        <time>2022-08-27T10:32:28Z</time>
      </trkpt>
      <trkpt lat="46.54326" lon="5.65312">
        <ele>567.4</ele>
        <time>2022-08-27T10:32:33Z</time>
      </trkpt>
      <trkpt lat="46.54352" lon="5.65343">
        <ele>566.8</ele>
        <time>2022-08-27T10:32:37Z</time>
      </trkpt>
      <trkpt lat="46.54365" lon="5.65358">
        <ele>566.4</ele>
        <time>2022-08-27T10:32:39Z</time>
      </trkpt>
      <trkpt lat="46.5438" lon="5.65374">
        <ele>565.8</ele>
        <time>2022-08-27T10:32:41Z</time>
      </trkpt>
      <trkpt lat="46.54404" lon="5.65395">
        <ele>565.2</ele>
        <time>2022-08-27T10:32:44Z</time>
      </trkpt>
      <trkpt lat="46.54431" lon="5.65414">
        <ele>564.8</ele>
        <time>2022-08-27T10:32:47Z</time>
      </trkpt>
      <trkpt lat="46.5444" lon="5.6542">
        <ele>563.6</ele>
        <time>2022-08-27T10:32:48Z</time>
      </trkpt>
      <trkpt lat="46.54459" lon="5.65434">
        <ele>562.4</ele>
        <time>2022-08-27T10:32:50Z</time>
      </trkpt>
      <trkpt lat="46.54468" lon="5.6544">
        <ele>562.2</ele>
        <time>2022-08-27T10:32:51Z</time>
      </trkpt>
      <trkpt lat="46.54477" lon="5.65446">
        <ele>561.4</ele>
        <time>2022-08-27T10:32:52Z</time>
      </trkpt>
      <trkpt lat="46.54495" lon="5.65459">
        <ele>560.4</ele>
        <time>2022-08-27T10:32:54Z</time>
      </trkpt>
      <trkpt lat="46.54504" lon="5.65466">
        <ele>558.8</ele>
        <time>2022-08-27T10:32:55Z</time>
      </trkpt>
      <trkpt lat="46.54521" lon="5.65478">
        <ele>557.8</ele>
        <time>2022-08-27T10:32:57Z</time>
      </trkpt>
      <trkpt lat="46.54545" lon="5.65496">
        <ele>557.2</ele>
        <time>2022-08-27T10:33:00Z</time>
      </trkpt>
      <trkpt lat="46.54576" lon="5.65517">
        <ele>557</ele>
        <time>2022-08-27T10:33:04Z</time>
      </trkpt>
      <trkpt lat="46.54591" lon="5.65525">
        <ele>557</ele>
        <time>2022-08-27T10:33:06Z</time>
      </trkpt>
      <trkpt lat="46.54621" lon="5.65533">
        <ele>557</ele>
        <time>2022-08-27T10:33:10Z</time>
      </trkpt>
      <trkpt lat="46.54657" lon="5.65525">
        <ele>557.2</ele>
        <time>2022-08-27T10:33:15Z</time>
      </trkpt>
      <trkpt lat="46.54713" lon="5.65509">
        <ele>557.8</ele>
        <time>2022-08-27T10:33:23Z</time>
      </trkpt>
      <trkpt lat="46.54743" lon="5.655">
        <ele>557.8</ele>
        <time>2022-08-27T10:33:27Z</time>
      </trkpt>
      <trkpt lat="46.54801" lon="5.6549">
        <ele>557</ele>
        <time>2022-08-27T10:33:35Z</time>
      </trkpt>
      <trkpt lat="46.54829" lon="5.65489">
        <ele>556.6</ele>
        <time>2022-08-27T10:33:39Z</time>
      </trkpt>
      <trkpt lat="46.54863" lon="5.65488">
        <ele>556.8</ele>
        <time>2022-08-27T10:33:43Z</time>
      </trkpt>
      <trkpt lat="46.54917" lon="5.65487">
        <ele>556.2</ele>
        <time>2022-08-27T10:33:50Z</time>
      </trkpt>
      <trkpt lat="46.54933" lon="5.65486">
        <ele>556</ele>
        <time>2022-08-27T10:33:52Z</time>
      </trkpt>
      <trkpt lat="46.54957" lon="5.65485">
        <ele>555.8</ele>
        <time>2022-08-27T10:33:55Z</time>
      </trkpt>
      <trkpt lat="46.55012" lon="5.6549">
        <ele>554.8</ele>
        <time>2022-08-27T10:34:02Z</time>
      </trkpt>
      <trkpt lat="46.55044" lon="5.65497">
        <ele>553.6</ele>
        <time>2022-08-27T10:34:06Z</time>
      </trkpt>
      <trkpt lat="46.551" lon="5.65508">
        <ele>552.8</ele>
        <time>2022-08-27T10:34:13Z</time>
      </trkpt>
      <trkpt lat="46.55108" lon="5.6551">
        <ele>552.6</ele>
        <time>2022-08-27T10:34:14Z</time>
      </trkpt>
      <trkpt lat="46.55146" lon="5.65517">
        <ele>551.4</ele>
        <time>2022-08-27T10:34:19Z</time>
      </trkpt>
      <trkpt lat="46.55178" lon="5.65527">
        <ele>550.6</ele>
        <time>2022-08-27T10:34:23Z</time>
      </trkpt>
      <trkpt lat="46.55193" lon="5.65534">
        <ele>550.2</ele>
        <time>2022-08-27T10:34:25Z</time>
      </trkpt>
      <trkpt lat="46.55222" lon="5.65553">
        <ele>549.4</ele>
        <time>2022-08-27T10:34:29Z</time>
      </trkpt>
      <trkpt lat="46.55229" lon="5.65558">
        <ele>549</ele>
        <time>2022-08-27T10:34:30Z</time>
      </trkpt>
      <trkpt lat="46.55262" lon="5.65579">
        <ele>548</ele>
        <time>2022-08-27T10:34:34Z</time>
      </trkpt>
      <trkpt lat="46.55278" lon="5.6559">
        <ele>547.6</ele>
        <time>2022-08-27T10:34:36Z</time>
      </trkpt>
      <trkpt lat="46.55294" lon="5.65601">
        <ele>547</ele>
        <time>2022-08-27T10:34:38Z</time>
      </trkpt>
      <trkpt lat="46.55302" lon="5.65606">
        <ele>546.6</ele>
        <time>2022-08-27T10:34:39Z</time>
      </trkpt>
      <trkpt lat="46.55327" lon="5.65622">
        <ele>545.4</ele>
        <time>2022-08-27T10:34:42Z</time>
      </trkpt>
      <trkpt lat="46.5535" lon="5.65637">
        <ele>544.8</ele>
        <time>2022-08-27T10:34:45Z</time>
      </trkpt>
      <trkpt lat="46.55359" lon="5.65648">
        <ele>544.4</ele>
        <time>2022-08-27T10:34:47Z</time>
      </trkpt>
      <trkpt lat="46.55362" lon="5.65653">
        <ele>544.2</ele>
        <time>2022-08-27T10:34:48Z</time>
      </trkpt>
      <trkpt lat="46.55364" lon="5.65657">
        <ele>544.2</ele>
        <time>2022-08-27T10:34:49Z</time>
      </trkpt>
      <trkpt lat="46.55365" lon="5.65662">
        <ele>544</ele>
        <time>2022-08-27T10:34:51Z</time>
      </trkpt>
      <trkpt lat="46.55365" lon="5.65662">
        <ele>544</ele>
        <time>2022-08-27T10:34:53Z</time>
      </trkpt>
      <trkpt lat="46.55368" lon="5.65655">
        <ele>543.8</ele>
        <time>2022-08-27T10:35:41Z</time>
      </trkpt>
      <trkpt lat="46.5537" lon="5.65653">
        <ele>543.8</ele>
        <time>2022-08-27T10:35:42Z</time>
      </trkpt>
      <trkpt lat="46.55374" lon="5.65652">
        <ele>543.8</ele>
        <time>2022-08-27T10:35:43Z</time>
      </trkpt>
      <trkpt lat="46.55384" lon="5.65657">
        <ele>543.6</ele>
        <time>2022-08-27T10:35:45Z</time>
      </trkpt>
      <trkpt lat="46.55411" lon="5.65673">
        <ele>543.2</ele>
        <time>2022-08-27T10:35:49Z</time>
      </trkpt>
      <trkpt lat="46.55425" lon="5.65683">
        <ele>542.6</ele>
        <time>2022-08-27T10:35:51Z</time>
      </trkpt>
      <trkpt lat="46.55458" lon="5.65705">
        <ele>541.6</ele>
        <time>2022-08-27T10:35:55Z</time>
      </trkpt>
      <trkpt lat="46.55467" lon="5.6571">
        <ele>541.2</ele>
        <time>2022-08-27T10:35:56Z</time>
      </trkpt>
      <trkpt lat="46.55494" lon="5.65729">
        <ele>539.6</ele>
        <time>2022-08-27T10:35:59Z</time>
      </trkpt>
      <trkpt lat="46.55512" lon="5.65742">
        <ele>538.4</ele>
        <time>2022-08-27T10:36:01Z</time>
      </trkpt>
      <trkpt lat="46.55521" lon="5.65748">
        <ele>538</ele>
        <time>2022-08-27T10:36:02Z</time>
      </trkpt>
      <trkpt lat="46.55539" lon="5.65761">
        <ele>537</ele>
        <time>2022-08-27T10:36:04Z</time>
      </trkpt>
      <trkpt lat="46.55558" lon="5.65774">
        <ele>535.4</ele>
        <time>2022-08-27T10:36:06Z</time>
      </trkpt>
      <trkpt lat="46.55577" lon="5.65785">
        <ele>533.8</ele>
        <time>2022-08-27T10:36:08Z</time>
      </trkpt>
      <trkpt lat="46.55587" lon="5.65792">
        <ele>533.4</ele>
        <time>2022-08-27T10:36:09Z</time>
      </trkpt>
      <trkpt lat="46.55597" lon="5.65798">
        <ele>532.8</ele>
        <time>2022-08-27T10:36:10Z</time>
      </trkpt>
      <trkpt lat="46.55626" lon="5.65815">
        <ele>531.4</ele>
        <time>2022-08-27T10:36:13Z</time>
      </trkpt>
      <trkpt lat="46.55646" lon="5.65828">
        <ele>530.2</ele>
        <time>2022-08-27T10:36:15Z</time>
      </trkpt>
      <trkpt lat="46.55656" lon="5.65837">
        <ele>529.6</ele>
        <time>2022-08-27T10:36:16Z</time>
      </trkpt>
      <trkpt lat="46.55665" lon="5.65847">
        <ele>529</ele>
        <time>2022-08-27T10:36:17Z</time>
      </trkpt>
      <trkpt lat="46.55673" lon="5.65859">
        <ele>528.6</ele>
        <time>2022-08-27T10:36:18Z</time>
      </trkpt>
      <trkpt lat="46.55678" lon="5.65874">
        <ele>528.2</ele>
        <time>2022-08-27T10:36:19Z</time>
      </trkpt>
      <trkpt lat="46.55681" lon="5.65891">
        <ele>527.8</ele>
        <time>2022-08-27T10:36:20Z</time>
      </trkpt>
      <trkpt lat="46.55681" lon="5.65908">
        <ele>527.2</ele>
        <time>2022-08-27T10:36:21Z</time>
      </trkpt>
      <trkpt lat="46.55678" lon="5.65925">
        <ele>526.2</ele>
        <time>2022-08-27T10:36:22Z</time>
      </trkpt>
      <trkpt lat="46.55667" lon="5.65957">
        <ele>525</ele>
        <time>2022-08-27T10:36:24Z</time>
      </trkpt>
      <trkpt lat="46.55654" lon="5.65987">
        <ele>523.4</ele>
        <time>2022-08-27T10:36:26Z</time>
      </trkpt>
      <trkpt lat="46.5565" lon="5.66">
        <ele>522</ele>
        <time>2022-08-27T10:36:27Z</time>
      </trkpt>
      <trkpt lat="46.55644" lon="5.66019">
        <ele>521.6</ele>
        <time>2022-08-27T10:36:28Z</time>
      </trkpt>
      <trkpt lat="46.55641" lon="5.66037">
        <ele>520.6</ele>
        <time>2022-08-27T10:36:29Z</time>
      </trkpt>
      <trkpt lat="46.5564" lon="5.66055">
        <ele>520</ele>
        <time>2022-08-27T10:36:30Z</time>
      </trkpt>
      <trkpt lat="46.55641" lon="5.66073">
        <ele>519.4</ele>
        <time>2022-08-27T10:36:31Z</time>
      </trkpt>
      <trkpt lat="46.55644" lon="5.66087">
        <ele>519</ele>
        <time>2022-08-27T10:36:32Z</time>
      </trkpt>
      <trkpt lat="46.55649" lon="5.66106">
        <ele>518.2</ele>
        <time>2022-08-27T10:36:33Z</time>
      </trkpt>
      <trkpt lat="46.55655" lon="5.66117">
        <ele>517.8</ele>
        <time>2022-08-27T10:36:34Z</time>
      </trkpt>
      <trkpt lat="46.55675" lon="5.66143">
        <ele>516.4</ele>
        <time>2022-08-27T10:36:36Z</time>
      </trkpt>
      <trkpt lat="46.55684" lon="5.66153">
        <ele>516.2</ele>
        <time>2022-08-27T10:36:37Z</time>
      </trkpt>
      <trkpt lat="46.55693" lon="5.66162">
        <ele>515</ele>
        <time>2022-08-27T10:36:38Z</time>
      </trkpt>
      <trkpt lat="46.55721" lon="5.6619">
        <ele>514</ele>
        <time>2022-08-27T10:36:41Z</time>
      </trkpt>
      <trkpt lat="46.5574" lon="5.66209">
        <ele>513.8</ele>
        <time>2022-08-27T10:36:43Z</time>
      </trkpt>
      <trkpt lat="46.55777" lon="5.66247">
        <ele>512.4</ele>
        <time>2022-08-27T10:36:47Z</time>
      </trkpt>
      <trkpt lat="46.55803" lon="5.66273">
        <ele>511</ele>
        <time>2022-08-27T10:36:50Z</time>
      </trkpt>
      <trkpt lat="46.55839" lon="5.66311">
        <ele>509.6</ele>
        <time>2022-08-27T10:36:54Z</time>
      </trkpt>
      <trkpt lat="46.55862" lon="5.66334">
        <ele>508.8</ele>
        <time>2022-08-27T10:36:57Z</time>
      </trkpt>
      <trkpt lat="46.55907" lon="5.66381">
        <ele>508.8</ele>
        <time>2022-08-27T10:37:03Z</time>
      </trkpt>
      <trkpt lat="46.55915" lon="5.66389">
        <ele>508.8</ele>
        <time>2022-08-27T10:37:04Z</time>
      </trkpt>
      <trkpt lat="46.55941" lon="5.6643">
        <ele>509</ele>
        <time>2022-08-27T10:37:08Z</time>
      </trkpt>
      <trkpt lat="46.55946" lon="5.6644">
        <ele>509.2</ele>
        <time>2022-08-27T10:37:09Z</time>
      </trkpt>
      <trkpt lat="46.55957" lon="5.66475">
        <ele>509.4</ele>
        <time>2022-08-27T10:37:12Z</time>
      </trkpt>
      <trkpt lat="46.55977" lon="5.6653">
        <ele>510</ele>
        <time>2022-08-27T10:37:17Z</time>
      </trkpt>
      <trkpt lat="46.56003" lon="5.66583">
        <ele>510.6</ele>
        <time>2022-08-27T10:37:22Z</time>
      </trkpt>
      <trkpt lat="46.56024" lon="5.66627">
        <ele>510.6</ele>
        <time>2022-08-27T10:37:26Z</time>
      </trkpt>
      <trkpt lat="46.56054" lon="5.66694">
        <ele>510.2</ele>
        <time>2022-08-27T10:37:32Z</time>
      </trkpt>
      <trkpt lat="46.5606" lon="5.66704">
        <ele>510.2</ele>
        <time>2022-08-27T10:37:33Z</time>
      </trkpt>
      <trkpt lat="46.56072" lon="5.66723">
        <ele>510.2</ele>
        <time>2022-08-27T10:37:35Z</time>
      </trkpt>
      <trkpt lat="46.561" lon="5.6675">
        <ele>509.4</ele>
        <time>2022-08-27T10:37:39Z</time>
      </trkpt>
      <trkpt lat="46.5615" lon="5.66785">
        <ele>508.8</ele>
        <time>2022-08-27T10:37:46Z</time>
      </trkpt>
      <trkpt lat="46.56198" lon="5.66808">
        <ele>508.4</ele>
        <time>2022-08-27T10:37:52Z</time>
      </trkpt>
      <trkpt lat="46.56224" lon="5.66821">
        <ele>508</ele>
        <time>2022-08-27T10:37:55Z</time>
      </trkpt>
      <trkpt lat="46.56248" lon="5.66834">
        <ele>507.6</ele>
        <time>2022-08-27T10:37:58Z</time>
      </trkpt>
      <trkpt lat="46.56276" lon="5.66852">
        <ele>507</ele>
        <time>2022-08-27T10:38:01Z</time>
      </trkpt>
      <trkpt lat="46.56292" lon="5.66865">
        <ele>506.6</ele>
        <time>2022-08-27T10:38:03Z</time>
      </trkpt>
      <trkpt lat="46.56313" lon="5.66887">
        <ele>506</ele>
        <time>2022-08-27T10:38:06Z</time>
      </trkpt>
      <trkpt lat="46.56327" lon="5.66904">
        <ele>505.4</ele>
        <time>2022-08-27T10:38:08Z</time>
      </trkpt>
      <trkpt lat="46.56358" lon="5.66947">
        <ele>504.8</ele>
        <time>2022-08-27T10:38:13Z</time>
      </trkpt>
      <trkpt lat="46.56386" lon="5.66986">
        <ele>504.2</ele>
        <time>2022-08-27T10:38:18Z</time>
      </trkpt>
      <trkpt lat="46.56409" lon="5.67017">
        <ele>504.2</ele>
        <time>2022-08-27T10:38:22Z</time>
      </trkpt>
      <trkpt lat="46.56451" lon="5.67076">
        <ele>504</ele>
        <time>2022-08-27T10:38:30Z</time>
      </trkpt>
      <trkpt lat="46.56466" lon="5.67097">
        <ele>503.6</ele>
        <time>2022-08-27T10:38:33Z</time>
      </trkpt>
      <trkpt lat="46.56476" lon="5.67111">
        <ele>503.4</ele>
        <time>2022-08-27T10:38:35Z</time>
      </trkpt>
      <trkpt lat="46.56516" lon="5.67167">
        <ele>503.4</ele>
        <time>2022-08-27T10:38:43Z</time>
      </trkpt>
      <trkpt lat="46.56521" lon="5.67174">
        <ele>503.6</ele>
        <time>2022-08-27T10:38:44Z</time>
      </trkpt>
      <trkpt lat="46.56561" lon="5.6723">
        <ele>504</ele>
        <time>2022-08-27T10:38:52Z</time>
      </trkpt>
      <trkpt lat="46.56586" lon="5.67262">
        <ele>504.4</ele>
        <time>2022-08-27T10:38:57Z</time>
      </trkpt>
      <trkpt lat="46.56591" lon="5.67267">
        <ele>504.4</ele>
        <time>2022-08-27T10:38:58Z</time>
      </trkpt>
      <trkpt lat="46.56634" lon="5.67311">
        <ele>504.4</ele>
        <time>2022-08-27T10:39:05Z</time>
      </trkpt>
      <trkpt lat="46.56681" lon="5.67354">
        <ele>503.4</ele>
        <time>2022-08-27T10:39:12Z</time>
      </trkpt>
      <trkpt lat="46.56687" lon="5.6736">
        <ele>503.4</ele>
        <time>2022-08-27T10:39:13Z</time>
      </trkpt>
      <trkpt lat="46.56729" lon="5.67405">
        <ele>502.6</ele>
        <time>2022-08-27T10:39:20Z</time>
      </trkpt>
      <trkpt lat="46.56771" lon="5.67462">
        <ele>502.4</ele>
        <time>2022-08-27T10:39:28Z</time>
      </trkpt>
      <trkpt lat="46.56786" lon="5.67483">
        <ele>502.6</ele>
        <time>2022-08-27T10:39:31Z</time>
      </trkpt>
      <trkpt lat="46.56826" lon="5.67538">
        <ele>502.6</ele>
        <time>2022-08-27T10:39:39Z</time>
      </trkpt>
      <trkpt lat="46.56836" lon="5.67552">
        <ele>502.6</ele>
        <time>2022-08-27T10:39:41Z</time>
      </trkpt>
      <trkpt lat="46.5688" lon="5.67613">
        <ele>502</ele>
        <time>2022-08-27T10:39:49Z</time>
      </trkpt>
      <trkpt lat="46.56886" lon="5.67621">
        <ele>501.8</ele>
        <time>2022-08-27T10:39:50Z</time>
      </trkpt>
      <trkpt lat="46.56903" lon="5.67644">
        <ele>501.4</ele>
        <time>2022-08-27T10:39:53Z</time>
      </trkpt>
      <trkpt lat="46.56943" lon="5.67699">
        <ele>500.8</ele>
        <time>2022-08-27T10:40:00Z</time>
      </trkpt>
      <trkpt lat="46.56961" lon="5.67723">
        <ele>500.6</ele>
        <time>2022-08-27T10:40:03Z</time>
      </trkpt>
      <trkpt lat="46.56979" lon="5.67747">
        <ele>500.4</ele>
        <time>2022-08-27T10:40:06Z</time>
      </trkpt>
      <trkpt lat="46.57014" lon="5.67794">
        <ele>486.2</ele>
        <time>2022-08-27T10:40:12Z</time>
      </trkpt>
      <trkpt lat="46.57054" lon="5.67848">
        <ele>499.6</ele>
        <time>2022-08-27T10:40:19Z</time>
      </trkpt>
      <trkpt lat="46.57059" lon="5.67856">
        <ele>499.6</ele>
        <time>2022-08-27T10:40:20Z</time>
      </trkpt>
      <trkpt lat="46.57092" lon="5.67901">
        <ele>499.2</ele>
        <time>2022-08-27T10:40:26Z</time>
      </trkpt>
      <trkpt lat="46.57133" lon="5.67956">
        <ele>498.6</ele>
        <time>2022-08-27T10:40:33Z</time>
      </trkpt>
      <trkpt lat="46.57144" lon="5.67971">
        <ele>498.6</ele>
        <time>2022-08-27T10:40:35Z</time>
      </trkpt>
      <trkpt lat="46.57188" lon="5.68031">
        <ele>498.6</ele>
        <time>2022-08-27T10:40:43Z</time>
      </trkpt>
      <trkpt lat="46.5723" lon="5.68087">
        <ele>499.4</ele>
        <time>2022-08-27T10:40:51Z</time>
      </trkpt>
      <trkpt lat="46.57264" lon="5.68134">
        <ele>499.8</ele>
        <time>2022-08-27T10:40:58Z</time>
      </trkpt>
      <trkpt lat="46.57269" lon="5.68141">
        <ele>500</ele>
        <time>2022-08-27T10:40:59Z</time>
      </trkpt>
      <trkpt lat="46.57311" lon="5.68196">
        <ele>500</ele>
        <time>2022-08-27T10:41:07Z</time>
      </trkpt>
      <trkpt lat="46.57318" lon="5.68204">
        <ele>500</ele>
        <time>2022-08-27T10:41:08Z</time>
      </trkpt>
      <trkpt lat="46.57357" lon="5.68255">
        <ele>499</ele>
        <time>2022-08-27T10:41:14Z</time>
      </trkpt>
      <trkpt lat="46.57364" lon="5.68264">
        <ele>498.8</ele>
        <time>2022-08-27T10:41:15Z</time>
      </trkpt>
      <trkpt lat="46.57386" lon="5.68291">
        <ele>497.6</ele>
        <time>2022-08-27T10:41:18Z</time>
      </trkpt>
      <trkpt lat="46.57407" lon="5.68318">
        <ele>496.6</ele>
        <time>2022-08-27T10:41:21Z</time>
      </trkpt>
      <trkpt lat="46.57414" lon="5.68327">
        <ele>496</ele>
        <time>2022-08-27T10:41:22Z</time>
      </trkpt>
      <trkpt lat="46.57443" lon="5.68364">
        <ele>494.6</ele>
        <time>2022-08-27T10:41:26Z</time>
      </trkpt>
      <trkpt lat="46.57465" lon="5.68392">
        <ele>493.2</ele>
        <time>2022-08-27T10:41:29Z</time>
      </trkpt>
      <trkpt lat="46.57488" lon="5.6842">
        <ele>492.6</ele>
        <time>2022-08-27T10:41:32Z</time>
      </trkpt>
      <trkpt lat="46.57496" lon="5.6843">
        <ele>492.4</ele>
        <time>2022-08-27T10:41:33Z</time>
      </trkpt>
      <trkpt lat="46.57534" lon="5.68478">
        <ele>490.8</ele>
        <time>2022-08-27T10:41:38Z</time>
      </trkpt>
      <trkpt lat="46.57564" lon="5.68515">
        <ele>489.6</ele>
        <time>2022-08-27T10:41:42Z</time>
      </trkpt>
      <trkpt lat="46.57571" lon="5.68525">
        <ele>489.2</ele>
        <time>2022-08-27T10:41:43Z</time>
      </trkpt>
      <trkpt lat="46.576" lon="5.6856">
        <ele>488.6</ele>
        <time>2022-08-27T10:41:47Z</time>
      </trkpt>
      <trkpt lat="46.57613" lon="5.68576">
        <ele>488.6</ele>
        <time>2022-08-27T10:41:49Z</time>
      </trkpt>
      <trkpt lat="46.5765" lon="5.68622">
        <ele>489.2</ele>
        <time>2022-08-27T10:41:55Z</time>
      </trkpt>
      <trkpt lat="46.57685" lon="5.68668">
        <ele>490</ele>
        <time>2022-08-27T10:42:01Z</time>
      </trkpt>
      <trkpt lat="46.57696" lon="5.68684">
        <ele>490</ele>
        <time>2022-08-27T10:42:03Z</time>
      </trkpt>
      <trkpt lat="46.57738" lon="5.68737">
        <ele>490</ele>
        <time>2022-08-27T10:42:10Z</time>
      </trkpt>
      <trkpt lat="46.57762" lon="5.68768">
        <ele>490</ele>
        <time>2022-08-27T10:42:14Z</time>
      </trkpt>
      <trkpt lat="46.57806" lon="5.6882">
        <ele>488.8</ele>
        <time>2022-08-27T10:42:21Z</time>
      </trkpt>
      <trkpt lat="46.57818" lon="5.68835">
        <ele>488.8</ele>
        <time>2022-08-27T10:42:23Z</time>
      </trkpt>
      <trkpt lat="46.57863" lon="5.68891">
        <ele>488.8</ele>
        <time>2022-08-27T10:42:31Z</time>
      </trkpt>
      <trkpt lat="46.57879" lon="5.68911">
        <ele>489.4</ele>
        <time>2022-08-27T10:42:34Z</time>
      </trkpt>
      <trkpt lat="46.57923" lon="5.68965">
        <ele>489.8</ele>
        <time>2022-08-27T10:42:42Z</time>
      </trkpt>
      <trkpt lat="46.5795" lon="5.68999">
        <ele>490</ele>
        <time>2022-08-27T10:42:47Z</time>
      </trkpt>
      <trkpt lat="46.57992" lon="5.69052">
        <ele>489.6</ele>
        <time>2022-08-27T10:42:54Z</time>
      </trkpt>
      <trkpt lat="46.58005" lon="5.69067">
        <ele>489</ele>
        <time>2022-08-27T10:42:56Z</time>
      </trkpt>
      <trkpt lat="46.58051" lon="5.69125">
        <ele>488.2</ele>
        <time>2022-08-27T10:43:03Z</time>
      </trkpt>
      <trkpt lat="46.58064" lon="5.69141">
        <ele>487.8</ele>
        <time>2022-08-27T10:43:05Z</time>
      </trkpt>
      <trkpt lat="46.58097" lon="5.69182">
        <ele>487</ele>
        <time>2022-08-27T10:43:10Z</time>
      </trkpt>
      <trkpt lat="46.58124" lon="5.69215">
        <ele>486.2</ele>
        <time>2022-08-27T10:43:15Z</time>
      </trkpt>
      <trkpt lat="46.58137" lon="5.69231">
        <ele>486</ele>
        <time>2022-08-27T10:43:16Z</time>
      </trkpt>
      <trkpt lat="46.58183" lon="5.6929">
        <ele>485</ele>
        <time>2022-08-27T10:43:23Z</time>
      </trkpt>
      <trkpt lat="46.58188" lon="5.69298">
        <ele>484.4</ele>
        <time>2022-08-27T10:43:24Z</time>
      </trkpt>
      <trkpt lat="46.58195" lon="5.69317">
        <ele>483.4</ele>
        <time>2022-08-27T10:43:26Z</time>
      </trkpt>
      <trkpt lat="46.58205" lon="5.6933">
        <ele>483</ele>
        <time>2022-08-27T10:43:28Z</time>
      </trkpt>
      <trkpt lat="46.58219" lon="5.69336">
        <ele>482.2</ele>
        <time>2022-08-27T10:43:30Z</time>
      </trkpt>
      <trkpt lat="46.58233" lon="5.69349">
        <ele>481.2</ele>
        <time>2022-08-27T10:43:32Z</time>
      </trkpt>
      <trkpt lat="46.58239" lon="5.69357">
        <ele>480.8</ele>
        <time>2022-08-27T10:43:33Z</time>
      </trkpt>
      <trkpt lat="46.58274" lon="5.69397">
        <ele>479.4</ele>
        <time>2022-08-27T10:43:38Z</time>
      </trkpt>
      <trkpt lat="46.58281" lon="5.69405">
        <ele>479</ele>
        <time>2022-08-27T10:43:39Z</time>
      </trkpt>
      <trkpt lat="46.58288" lon="5.69414">
        <ele>478.2</ele>
        <time>2022-08-27T10:43:40Z</time>
      </trkpt>
      <trkpt lat="46.58318" lon="5.6945">
        <ele>477</ele>
        <time>2022-08-27T10:43:44Z</time>
      </trkpt>
      <trkpt lat="46.58326" lon="5.69458">
        <ele>476.2</ele>
        <time>2022-08-27T10:43:45Z</time>
      </trkpt>
      <trkpt lat="46.58334" lon="5.69467">
        <ele>475.8</ele>
        <time>2022-08-27T10:43:46Z</time>
      </trkpt>
      <trkpt lat="46.58358" lon="5.69494">
        <ele>474.6</ele>
        <time>2022-08-27T10:43:49Z</time>
      </trkpt>
      <trkpt lat="46.58383" lon="5.69523">
        <ele>473.8</ele>
        <time>2022-08-27T10:43:52Z</time>
      </trkpt>
      <trkpt lat="46.58391" lon="5.69533">
        <ele>473.4</ele>
        <time>2022-08-27T10:43:53Z</time>
      </trkpt>
      <trkpt lat="46.58399" lon="5.69542">
        <ele>472.6</ele>
        <time>2022-08-27T10:43:54Z</time>
      </trkpt>
      <trkpt lat="46.58424" lon="5.69572">
        <ele>471.2</ele>
        <time>2022-08-27T10:43:57Z</time>
      </trkpt>
      <trkpt lat="46.5844" lon="5.69592">
        <ele>470.2</ele>
        <time>2022-08-27T10:43:59Z</time>
      </trkpt>
      <trkpt lat="46.58448" lon="5.69602">
        <ele>470</ele>
        <time>2022-08-27T10:44:00Z</time>
      </trkpt>
      <trkpt lat="46.58472" lon="5.69631">
        <ele>469</ele>
        <time>2022-08-27T10:44:03Z</time>
      </trkpt>
      <trkpt lat="46.58496" lon="5.69657">
        <ele>468</ele>
        <time>2022-08-27T10:44:06Z</time>
      </trkpt>
      <trkpt lat="46.58504" lon="5.69666">
        <ele>467.8</ele>
        <time>2022-08-27T10:44:07Z</time>
      </trkpt>
      <trkpt lat="46.58525" lon="5.69691">
        <ele>466.8</ele>
        <time>2022-08-27T10:44:10Z</time>
      </trkpt>
      <trkpt lat="46.5853" lon="5.69697">
        <ele>466.4</ele>
        <time>2022-08-27T10:44:11Z</time>
      </trkpt>
      <trkpt lat="46.58537" lon="5.69706">
        <ele>465.6</ele>
        <time>2022-08-27T10:44:13Z</time>
      </trkpt>
      <trkpt lat="46.5854" lon="5.69709">
        <ele>465.6</ele>
        <time>2022-08-27T10:44:14Z</time>
      </trkpt>
      <trkpt lat="46.58546" lon="5.69718">
        <ele>465.6</ele>
        <time>2022-08-27T10:44:19Z</time>
      </trkpt>
      <trkpt lat="46.58546" lon="5.69718">
        <ele>465.8</ele>
        <time>2022-08-27T10:44:22Z</time>
      </trkpt>
      <trkpt lat="46.58549" lon="5.69721">
        <ele>465.8</ele>
        <time>2022-08-27T10:44:28Z</time>
      </trkpt>
      <trkpt lat="46.58555" lon="5.69727">
        <ele>465.8</ele>
        <time>2022-08-27T10:44:33Z</time>
      </trkpt>
      <trkpt lat="46.58555" lon="5.69727">
        <ele>465.8</ele>
        <time>2022-08-27T10:44:34Z</time>
      </trkpt>
      <trkpt lat="46.58557" lon="5.6973">
        <ele>465.4</ele>
        <time>2022-08-27T10:44:41Z</time>
      </trkpt>
      <trkpt lat="46.58561" lon="5.69722">
        <ele>465.4</ele>
        <time>2022-08-27T10:44:43Z</time>
      </trkpt>
      <trkpt lat="46.58569" lon="5.69695">
        <ele>465.2</ele>
        <time>2022-08-27T10:44:47Z</time>
      </trkpt>
      <trkpt lat="46.5858" lon="5.69662">
        <ele>464.8</ele>
        <time>2022-08-27T10:44:51Z</time>
      </trkpt>
      <trkpt lat="46.58588" lon="5.69639">
        <ele>464.4</ele>
        <time>2022-08-27T10:44:54Z</time>
      </trkpt>
      <trkpt lat="46.58603" lon="5.6959">
        <ele>464.2</ele>
        <time>2022-08-27T10:45:00Z</time>
      </trkpt>
      <trkpt lat="46.58621" lon="5.69526">
        <ele>464.8</ele>
        <time>2022-08-27T10:45:08Z</time>
      </trkpt>
      <trkpt lat="46.58639" lon="5.69462">
        <ele>465.6</ele>
        <time>2022-08-27T10:45:16Z</time>
      </trkpt>
      <trkpt lat="46.58654" lon="5.69416">
        <ele>466</ele>
        <time>2022-08-27T10:45:22Z</time>
      </trkpt>
      <trkpt lat="46.58661" lon="5.69393">
        <ele>466.2</ele>
        <time>2022-08-27T10:45:25Z</time>
      </trkpt>
      <trkpt lat="46.58677" lon="5.69341">
        <ele>466.8</ele>
        <time>2022-08-27T10:45:32Z</time>
      </trkpt>
      <trkpt lat="46.58699" lon="5.69269">
        <ele>467.2</ele>
        <time>2022-08-27T10:45:41Z</time>
      </trkpt>
      <trkpt lat="46.58714" lon="5.69223">
        <ele>467.2</ele>
        <time>2022-08-27T10:45:47Z</time>
      </trkpt>
      <trkpt lat="46.58718" lon="5.69216">
        <ele>467.2</ele>
        <time>2022-08-27T10:45:48Z</time>
      </trkpt>
      <trkpt lat="46.58724" lon="5.69212">
        <ele>467.4</ele>
        <time>2022-08-27T10:45:49Z</time>
      </trkpt>
      <trkpt lat="46.58737" lon="5.69211">
        <ele>467.4</ele>
        <time>2022-08-27T10:45:51Z</time>
      </trkpt>
      <trkpt lat="46.58772" lon="5.69222">
        <ele>467.4</ele>
        <time>2022-08-27T10:45:56Z</time>
      </trkpt>
      <trkpt lat="46.58821" lon="5.69234">
        <ele>466.4</ele>
        <time>2022-08-27T10:46:02Z</time>
      </trkpt>
      <trkpt lat="46.58838" lon="5.69237">
        <ele>465.6</ele>
        <time>2022-08-27T10:46:04Z</time>
      </trkpt>
      <trkpt lat="46.58854" lon="5.69234">
        <ele>464.6</ele>
        <time>2022-08-27T10:46:06Z</time>
      </trkpt>
      <trkpt lat="46.58868" lon="5.69224">
        <ele>464.2</ele>
        <time>2022-08-27T10:46:08Z</time>
      </trkpt>
      <trkpt lat="46.58875" lon="5.69218">
        <ele>464</ele>
        <time>2022-08-27T10:46:09Z</time>
      </trkpt>
      <trkpt lat="46.5891" lon="5.69178">
        <ele>464.2</ele>
        <time>2022-08-27T10:46:15Z</time>
      </trkpt>
      <trkpt lat="46.58915" lon="5.69171">
        <ele>464.2</ele>
        <time>2022-08-27T10:46:16Z</time>
      </trkpt>
      <trkpt lat="46.58956" lon="5.69129">
        <ele>464.4</ele>
        <time>2022-08-27T10:46:23Z</time>
      </trkpt>
      <trkpt lat="46.58996" lon="5.69109">
        <ele>464.4</ele>
        <time>2022-08-27T10:46:29Z</time>
      </trkpt>
      <trkpt lat="46.59036" lon="5.69101">
        <ele>464.4</ele>
        <time>2022-08-27T10:46:35Z</time>
      </trkpt>
      <trkpt lat="46.59093" lon="5.69084">
        <ele>464.6</ele>
        <time>2022-08-27T10:46:44Z</time>
      </trkpt>
      <trkpt lat="46.59149" lon="5.69061">
        <ele>464.4</ele>
        <time>2022-08-27T10:46:53Z</time>
      </trkpt>
      <trkpt lat="46.59196" lon="5.69034">
        <ele>465</ele>
        <time>2022-08-27T10:47:01Z</time>
      </trkpt>
      <trkpt lat="46.59242" lon="5.68997">
        <ele>465.2</ele>
        <time>2022-08-27T10:47:09Z</time>
      </trkpt>
      <trkpt lat="46.59274" lon="5.68989">
        <ele>465</ele>
        <time>2022-08-27T10:47:14Z</time>
      </trkpt>
      <trkpt lat="46.59318" lon="5.68992">
        <ele>465.6</ele>
        <time>2022-08-27T10:47:21Z</time>
      </trkpt>
      <trkpt lat="46.59358" lon="5.6899">
        <ele>466.2</ele>
        <time>2022-08-27T10:47:28Z</time>
      </trkpt>
      <trkpt lat="46.59364" lon="5.6899">
        <ele>466.2</ele>
        <time>2022-08-27T10:47:29Z</time>
      </trkpt>
      <trkpt lat="46.59416" lon="5.68989">
        <ele>467</ele>
        <time>2022-08-27T10:47:38Z</time>
      </trkpt>
      <trkpt lat="46.59422" lon="5.68987">
        <ele>467</ele>
        <time>2022-08-27T10:47:39Z</time>
      </trkpt>
      <trkpt lat="46.59441" lon="5.68975">
        <ele>467.2</ele>
        <time>2022-08-27T10:47:43Z</time>
      </trkpt>
      <trkpt lat="46.59446" lon="5.68971">
        <ele>467.2</ele>
        <time>2022-08-27T10:47:44Z</time>
      </trkpt>
      <trkpt lat="46.59468" lon="5.68952">
        <ele>467.6</ele>
        <time>2022-08-27T10:47:49Z</time>
      </trkpt>
      <trkpt lat="46.59482" lon="5.68945">
        <ele>468.4</ele>
        <time>2022-08-27T10:47:52Z</time>
      </trkpt>
      <trkpt lat="46.59496" lon="5.68941">
        <ele>469.2</ele>
        <time>2022-08-27T10:47:55Z</time>
      </trkpt>
      <trkpt lat="46.59506" lon="5.6894">
        <ele>469.6</ele>
        <time>2022-08-27T10:47:57Z</time>
      </trkpt>
      <trkpt lat="46.59527" lon="5.68937">
        <ele>470.4</ele>
        <time>2022-08-27T10:48:01Z</time>
      </trkpt>
      <trkpt lat="46.59537" lon="5.68937">
        <ele>470.6</ele>
        <time>2022-08-27T10:48:03Z</time>
      </trkpt>
      <trkpt lat="46.59547" lon="5.68935">
        <ele>470.8</ele>
        <time>2022-08-27T10:48:05Z</time>
      </trkpt>
      <trkpt lat="46.59576" lon="5.68931">
        <ele>471.8</ele>
        <time>2022-08-27T10:48:11Z</time>
      </trkpt>
      <trkpt lat="46.59624" lon="5.68915">
        <ele>472.6</ele>
        <time>2022-08-27T10:48:21Z</time>
      </trkpt>
      <trkpt lat="46.59629" lon="5.68912">
        <ele>472.8</ele>
        <time>2022-08-27T10:48:22Z</time>
      </trkpt>
      <trkpt lat="46.59679" lon="5.68892">
        <ele>473</ele>
        <time>2022-08-27T10:48:31Z</time>
      </trkpt>
      <trkpt lat="46.59733" lon="5.6887">
        <ele>473</ele>
        <time>2022-08-27T10:48:41Z</time>
      </trkpt>
      <trkpt lat="46.59739" lon="5.68868">
        <ele>473</ele>
        <time>2022-08-27T10:48:42Z</time>
      </trkpt>
      <trkpt lat="46.59781" lon="5.68854">
        <ele>474</ele>
        <time>2022-08-27T10:48:50Z</time>
      </trkpt>
      <trkpt lat="46.59786" lon="5.68852">
        <ele>474.2</ele>
        <time>2022-08-27T10:48:51Z</time>
      </trkpt>
      <trkpt lat="46.59827" lon="5.68842">
        <ele>475.2</ele>
        <time>2022-08-27T10:48:59Z</time>
      </trkpt>
      <trkpt lat="46.59832" lon="5.68841">
        <ele>475.6</ele>
        <time>2022-08-27T10:49:00Z</time>
      </trkpt>
      <trkpt lat="46.59849" lon="5.6884">
        <ele>476.6</ele>
        <time>2022-08-27T10:49:04Z</time>
      </trkpt>
      <trkpt lat="46.59862" lon="5.6884">
        <ele>477.6</ele>
        <time>2022-08-27T10:49:07Z</time>
      </trkpt>
      <trkpt lat="46.59866" lon="5.68839">
        <ele>477.6</ele>
        <time>2022-08-27T10:49:08Z</time>
      </trkpt>
      <trkpt lat="46.59889" lon="5.68839">
        <ele>479</ele>
        <time>2022-08-27T10:49:14Z</time>
      </trkpt>
      <trkpt lat="46.59895" lon="5.68839">
        <ele>479.6</ele>
        <time>2022-08-27T10:49:16Z</time>
      </trkpt>
      <trkpt lat="46.59906" lon="5.68837">
        <ele>480</ele>
        <time>2022-08-27T10:49:19Z</time>
      </trkpt>
      <trkpt lat="46.59913" lon="5.68835">
        <ele>481.2</ele>
        <time>2022-08-27T10:49:21Z</time>
      </trkpt>
      <trkpt lat="46.59919" lon="5.68833">
        <ele>482</ele>
        <time>2022-08-27T10:49:23Z</time>
      </trkpt>
      <trkpt lat="46.59925" lon="5.68831">
        <ele>482.8</ele>
        <time>2022-08-27T10:49:25Z</time>
      </trkpt>
      <trkpt lat="46.59934" lon="5.68828">
        <ele>483.8</ele>
        <time>2022-08-27T10:49:28Z</time>
      </trkpt>
      <trkpt lat="46.59943" lon="5.68827">
        <ele>484.6</ele>
        <time>2022-08-27T10:49:31Z</time>
      </trkpt>
      <trkpt lat="46.59946" lon="5.68827">
        <ele>485</ele>
        <time>2022-08-27T10:49:32Z</time>
      </trkpt>
      <trkpt lat="46.59957" lon="5.6883">
        <ele>486</ele>
        <time>2022-08-27T10:49:36Z</time>
      </trkpt>
      <trkpt lat="46.59962" lon="5.68833">
        <ele>486.6</ele>
        <time>2022-08-27T10:49:38Z</time>
      </trkpt>
      <trkpt lat="46.59967" lon="5.68838">
        <ele>487.2</ele>
        <time>2022-08-27T10:49:40Z</time>
      </trkpt>
      <trkpt lat="46.59979" lon="5.68848">
        <ele>488.6</ele>
        <time>2022-08-27T10:49:44Z</time>
      </trkpt>
      <trkpt lat="46.59982" lon="5.6885">
        <ele>488.6</ele>
        <time>2022-08-27T10:49:45Z</time>
      </trkpt>
      <trkpt lat="46.59988" lon="5.68855">
        <ele>489</ele>
        <time>2022-08-27T10:49:47Z</time>
      </trkpt>
      <trkpt lat="46.59994" lon="5.68859">
        <ele>489.6</ele>
        <time>2022-08-27T10:49:49Z</time>
      </trkpt>
      <trkpt lat="46.60004" lon="5.68864">
        <ele>490</ele>
        <time>2022-08-27T10:49:52Z</time>
      </trkpt>
      <trkpt lat="46.60014" lon="5.68867">
        <ele>490.8</ele>
        <time>2022-08-27T10:49:55Z</time>
      </trkpt>
      <trkpt lat="46.60034" lon="5.68871">
        <ele>491.6</ele>
        <time>2022-08-27T10:50:01Z</time>
      </trkpt>
      <trkpt lat="46.60037" lon="5.68872">
        <ele>491.8</ele>
        <time>2022-08-27T10:50:02Z</time>
      </trkpt>
      <trkpt lat="46.60054" lon="5.68875">
        <ele>493.2</ele>
        <time>2022-08-27T10:50:07Z</time>
      </trkpt>
      <trkpt lat="46.60069" lon="5.6888">
        <ele>494</ele>
        <time>2022-08-27T10:50:11Z</time>
      </trkpt>
      <trkpt lat="46.60073" lon="5.68881">
        <ele>494.2</ele>
        <time>2022-08-27T10:50:12Z</time>
      </trkpt>
      <trkpt lat="46.60093" lon="5.68889">
        <ele>495.2</ele>
        <time>2022-08-27T10:50:17Z</time>
      </trkpt>
      <trkpt lat="46.60106" lon="5.68896">
        <ele>495.6</ele>
        <time>2022-08-27T10:50:20Z</time>
      </trkpt>
      <trkpt lat="46.60114" lon="5.68901">
        <ele>495.6</ele>
        <time>2022-08-27T10:50:22Z</time>
      </trkpt>
      <trkpt lat="46.60137" lon="5.68909">
        <ele>495.8</ele>
        <time>2022-08-27T10:50:27Z</time>
      </trkpt>
      <trkpt lat="46.60188" lon="5.68925">
        <ele>496.2</ele>
        <time>2022-08-27T10:50:37Z</time>
      </trkpt>
      <trkpt lat="46.60241" lon="5.68939">
        <ele>496.4</ele>
        <time>2022-08-27T10:50:47Z</time>
      </trkpt>
      <trkpt lat="46.60246" lon="5.68941">
        <ele>496.4</ele>
        <time>2022-08-27T10:50:48Z</time>
      </trkpt>
      <trkpt lat="46.60256" lon="5.68945">
        <ele>496.8</ele>
        <time>2022-08-27T10:50:50Z</time>
      </trkpt>
      <trkpt lat="46.60261" lon="5.68947">
        <ele>497</ele>
        <time>2022-08-27T10:50:51Z</time>
      </trkpt>
      <trkpt lat="46.60276" lon="5.68952">
        <ele>497.6</ele>
        <time>2022-08-27T10:50:54Z</time>
      </trkpt>
      <trkpt lat="46.60316" lon="5.68964">
        <ele>498.6</ele>
        <time>2022-08-27T10:51:02Z</time>
      </trkpt>
      <trkpt lat="46.60321" lon="5.68963">
        <ele>498.6</ele>
        <time>2022-08-27T10:51:03Z</time>
      </trkpt>
      <trkpt lat="46.60327" lon="5.68962">
        <ele>498.6</ele>
        <time>2022-08-27T10:51:04Z</time>
      </trkpt>
      <trkpt lat="46.60338" lon="5.68955">
        <ele>498.6</ele>
        <time>2022-08-27T10:51:06Z</time>
      </trkpt>
      <trkpt lat="46.60343" lon="5.6895">
        <ele>498.6</ele>
        <time>2022-08-27T10:51:07Z</time>
      </trkpt>
      <trkpt lat="46.60359" lon="5.6893">
        <ele>498.2</ele>
        <time>2022-08-27T10:51:10Z</time>
      </trkpt>
      <trkpt lat="46.60389" lon="5.689">
        <ele>497.8</ele>
        <time>2022-08-27T10:51:15Z</time>
      </trkpt>
      <trkpt lat="46.60396" lon="5.68897">
        <ele>497.8</ele>
        <time>2022-08-27T10:51:16Z</time>
      </trkpt>
      <trkpt lat="46.60403" lon="5.68896">
        <ele>497.8</ele>
        <time>2022-08-27T10:51:17Z</time>
      </trkpt>
      <trkpt lat="46.60418" lon="5.689">
        <ele>498</ele>
        <time>2022-08-27T10:51:19Z</time>
      </trkpt>
      <trkpt lat="46.60447" lon="5.6892">
        <ele>498</ele>
        <time>2022-08-27T10:51:24Z</time>
      </trkpt>
      <trkpt lat="46.60483" lon="5.68952">
        <ele>498.6</ele>
        <time>2022-08-27T10:51:31Z</time>
      </trkpt>
      <trkpt lat="46.60519" lon="5.68986">
        <ele>498.8</ele>
        <time>2022-08-27T10:51:37Z</time>
      </trkpt>
      <trkpt lat="46.60565" lon="5.69038">
        <ele>498.6</ele>
        <time>2022-08-27T10:51:45Z</time>
      </trkpt>
      <trkpt lat="46.60587" lon="5.6907">
        <ele>499</ele>
        <time>2022-08-27T10:51:50Z</time>
      </trkpt>
      <trkpt lat="46.60616" lon="5.69117">
        <ele>500</ele>
        <time>2022-08-27T10:51:57Z</time>
      </trkpt>
      <trkpt lat="46.60649" lon="5.69156">
        <ele>500.6</ele>
        <time>2022-08-27T10:52:03Z</time>
      </trkpt>
      <trkpt lat="46.60692" lon="5.69198">
        <ele>499.2</ele>
        <time>2022-08-27T10:52:09Z</time>
      </trkpt>
      <trkpt lat="46.60721" lon="5.69226">
        <ele>497.8</ele>
        <time>2022-08-27T10:52:13Z</time>
      </trkpt>
      <trkpt lat="46.60754" lon="5.6926">
        <ele>497</ele>
        <time>2022-08-27T10:52:18Z</time>
      </trkpt>
      <trkpt lat="46.60767" lon="5.69273">
        <ele>496.6</ele>
        <time>2022-08-27T10:52:20Z</time>
      </trkpt>
      <trkpt lat="46.608" lon="5.69308">
        <ele>496.2</ele>
        <time>2022-08-27T10:52:25Z</time>
      </trkpt>
      <trkpt lat="46.60829" lon="5.69341">
        <ele>495.2</ele>
        <time>2022-08-27T10:52:29Z</time>
      </trkpt>
      <trkpt lat="46.60845" lon="5.69359">
        <ele>494.4</ele>
        <time>2022-08-27T10:52:31Z</time>
      </trkpt>
      <trkpt lat="46.60853" lon="5.69368">
        <ele>493.8</ele>
        <time>2022-08-27T10:52:32Z</time>
      </trkpt>
      <trkpt lat="46.60877" lon="5.69396">
        <ele>492.8</ele>
        <time>2022-08-27T10:52:35Z</time>
      </trkpt>
      <trkpt lat="46.60892" lon="5.69413">
        <ele>491.6</ele>
        <time>2022-08-27T10:52:37Z</time>
      </trkpt>
      <trkpt lat="46.60908" lon="5.6943">
        <ele>491.2</ele>
        <time>2022-08-27T10:52:39Z</time>
      </trkpt>
      <trkpt lat="46.60925" lon="5.69447">
        <ele>490.8</ele>
        <time>2022-08-27T10:52:41Z</time>
      </trkpt>
      <trkpt lat="46.60952" lon="5.69474">
        <ele>489.8</ele>
        <time>2022-08-27T10:52:44Z</time>
      </trkpt>
      <trkpt lat="46.60962" lon="5.69483">
        <ele>489.4</ele>
        <time>2022-08-27T10:52:45Z</time>
      </trkpt>
      <trkpt lat="46.6098" lon="5.69502">
        <ele>488.6</ele>
        <time>2022-08-27T10:52:47Z</time>
      </trkpt>
      <trkpt lat="46.6099" lon="5.69511">
        <ele>487.4</ele>
        <time>2022-08-27T10:52:48Z</time>
      </trkpt>
      <trkpt lat="46.61007" lon="5.69529">
        <ele>486.2</ele>
        <time>2022-08-27T10:52:50Z</time>
      </trkpt>
      <trkpt lat="46.61016" lon="5.69538">
        <ele>485.2</ele>
        <time>2022-08-27T10:52:51Z</time>
      </trkpt>
      <trkpt lat="46.61033" lon="5.69555">
        <ele>484.2</ele>
        <time>2022-08-27T10:52:53Z</time>
      </trkpt>
      <trkpt lat="46.61059" lon="5.69577">
        <ele>483.8</ele>
        <time>2022-08-27T10:52:56Z</time>
      </trkpt>
      <trkpt lat="46.61073" lon="5.69586">
        <ele>483.8</ele>
        <time>2022-08-27T10:52:58Z</time>
      </trkpt>
      <trkpt lat="46.611" lon="5.69603">
        <ele>484.2</ele>
        <time>2022-08-27T10:53:02Z</time>
      </trkpt>
      <trkpt lat="46.61105" lon="5.69608">
        <ele>484.4</ele>
        <time>2022-08-27T10:53:03Z</time>
      </trkpt>
      <trkpt lat="46.61116" lon="5.69618">
        <ele>485.6</ele>
        <time>2022-08-27T10:53:05Z</time>
      </trkpt>
      <trkpt lat="46.61125" lon="5.69628">
        <ele>486.6</ele>
        <time>2022-08-27T10:53:07Z</time>
      </trkpt>
      <trkpt lat="46.6113" lon="5.69634">
        <ele>486.8</ele>
        <time>2022-08-27T10:53:08Z</time>
      </trkpt>
      <trkpt lat="46.61141" lon="5.69651">
        <ele>488</ele>
        <time>2022-08-27T10:53:11Z</time>
      </trkpt>
      <trkpt lat="46.61148" lon="5.69663">
        <ele>489</ele>
        <time>2022-08-27T10:53:13Z</time>
      </trkpt>
      <trkpt lat="46.61151" lon="5.69669">
        <ele>489.6</ele>
        <time>2022-08-27T10:53:14Z</time>
      </trkpt>
      <trkpt lat="46.61161" lon="5.69689">
        <ele>490.8</ele>
        <time>2022-08-27T10:53:17Z</time>
      </trkpt>
      <trkpt lat="46.61171" lon="5.69709">
        <ele>492.2</ele>
        <time>2022-08-27T10:53:20Z</time>
      </trkpt>
      <trkpt lat="46.61177" lon="5.69723">
        <ele>492.4</ele>
        <time>2022-08-27T10:53:22Z</time>
      </trkpt>
      <trkpt lat="46.61189" lon="5.69753">
        <ele>493.2</ele>
        <time>2022-08-27T10:53:26Z</time>
      </trkpt>
      <trkpt lat="46.61206" lon="5.698">
        <ele>493.8</ele>
        <time>2022-08-27T10:53:32Z</time>
      </trkpt>
      <trkpt lat="46.61212" lon="5.69816">
        <ele>494.2</ele>
        <time>2022-08-27T10:53:34Z</time>
      </trkpt>
      <trkpt lat="46.61232" lon="5.69873">
        <ele>494.6</ele>
        <time>2022-08-27T10:53:41Z</time>
      </trkpt>
      <trkpt lat="46.61263" lon="5.69948">
        <ele>494.4</ele>
        <time>2022-08-27T10:53:50Z</time>
      </trkpt>
      <trkpt lat="46.61287" lon="5.6998">
        <ele>494</ele>
        <time>2022-08-27T10:53:55Z</time>
      </trkpt>
      <trkpt lat="46.61338" lon="5.70023">
        <ele>493.6</ele>
        <time>2022-08-27T10:54:04Z</time>
      </trkpt>
      <trkpt lat="46.61379" lon="5.70054">
        <ele>494.8</ele>
        <time>2022-08-27T10:54:11Z</time>
      </trkpt>
      <trkpt lat="46.61435" lon="5.70086">
        <ele>495</ele>
        <time>2022-08-27T10:54:20Z</time>
      </trkpt>
      <trkpt lat="46.61441" lon="5.70088">
        <ele>495</ele>
        <time>2022-08-27T10:54:21Z</time>
      </trkpt>
      <trkpt lat="46.61492" lon="5.70111">
        <ele>495</ele>
        <time>2022-08-27T10:54:29Z</time>
      </trkpt>
      <trkpt lat="46.61549" lon="5.70139">
        <ele>495</ele>
        <time>2022-08-27T10:54:38Z</time>
      </trkpt>
      <trkpt lat="46.61562" lon="5.70145">
        <ele>495</ele>
        <time>2022-08-27T10:54:40Z</time>
      </trkpt>
      <trkpt lat="46.616" lon="5.70154">
        <ele>494.8</ele>
        <time>2022-08-27T10:54:46Z</time>
      </trkpt>
      <trkpt lat="46.61659" lon="5.70149">
        <ele>494.8</ele>
        <time>2022-08-27T10:54:55Z</time>
      </trkpt>
      <trkpt lat="46.61713" lon="5.70137">
        <ele>495</ele>
        <time>2022-08-27T10:55:04Z</time>
      </trkpt>
      <trkpt lat="46.61745" lon="5.70142">
        <ele>495.6</ele>
        <time>2022-08-27T10:55:10Z</time>
      </trkpt>
      <trkpt lat="46.6175" lon="5.70143">
        <ele>495.8</ele>
        <time>2022-08-27T10:55:11Z</time>
      </trkpt>
      <trkpt lat="46.61777" lon="5.70151">
        <ele>496.8</ele>
        <time>2022-08-27T10:55:16Z</time>
      </trkpt>
      <trkpt lat="46.61819" lon="5.70163">
        <ele>497.6</ele>
        <time>2022-08-27T10:55:23Z</time>
      </trkpt>
      <trkpt lat="46.61876" lon="5.70183">
        <ele>497.6</ele>
        <time>2022-08-27T10:55:32Z</time>
      </trkpt>
      <trkpt lat="46.6192" lon="5.70202">
        <ele>497.6</ele>
        <time>2022-08-27T10:55:39Z</time>
      </trkpt>
      <trkpt lat="46.61931" lon="5.70206">
        <ele>497.6</ele>
        <time>2022-08-27T10:55:41Z</time>
      </trkpt>
      <trkpt lat="46.61945" lon="5.70211">
        <ele>497.8</ele>
        <time>2022-08-27T10:55:43Z</time>
      </trkpt>
      <trkpt lat="46.61978" lon="5.70225">
        <ele>498.2</ele>
        <time>2022-08-27T10:55:49Z</time>
      </trkpt>
      <trkpt lat="46.62032" lon="5.70246">
        <ele>497.8</ele>
        <time>2022-08-27T10:55:58Z</time>
      </trkpt>
      <trkpt lat="46.6204" lon="5.70249">
        <ele>497.6</ele>
        <time>2022-08-27T10:55:59Z</time>
      </trkpt>
      <trkpt lat="46.6209" lon="5.70268">
        <ele>497.8</ele>
        <time>2022-08-27T10:56:07Z</time>
      </trkpt>
      <trkpt lat="46.62146" lon="5.70295">
        <ele>497.4</ele>
        <time>2022-08-27T10:56:15Z</time>
      </trkpt>
      <trkpt lat="46.62171" lon="5.70315">
        <ele>496.8</ele>
        <time>2022-08-27T10:56:19Z</time>
      </trkpt>
      <trkpt lat="46.62178" lon="5.7032">
        <ele>496.8</ele>
        <time>2022-08-27T10:56:20Z</time>
      </trkpt>
      <trkpt lat="46.62185" lon="5.70322">
        <ele>496.8</ele>
        <time>2022-08-27T10:56:21Z</time>
      </trkpt>
      <trkpt lat="46.62226" lon="5.70333">
        <ele>496.6</ele>
        <time>2022-08-27T10:56:27Z</time>
      </trkpt>
      <trkpt lat="46.62231" lon="5.70334">
        <ele>496.6</ele>
        <time>2022-08-27T10:56:28Z</time>
      </trkpt>
      <trkpt lat="46.62257" lon="5.70343">
        <ele>497.2</ele>
        <time>2022-08-27T10:56:32Z</time>
      </trkpt>
      <trkpt lat="46.62274" lon="5.70351">
        <ele>497.8</ele>
        <time>2022-08-27T10:56:35Z</time>
      </trkpt>
      <trkpt lat="46.62281" lon="5.70362">
        <ele>498</ele>
        <time>2022-08-27T10:56:37Z</time>
      </trkpt>
      <trkpt lat="46.62284" lon="5.70378">
        <ele>498.2</ele>
        <time>2022-08-27T10:56:39Z</time>
      </trkpt>
      <trkpt lat="46.62283" lon="5.70387">
        <ele>498.2</ele>
        <time>2022-08-27T10:56:40Z</time>
      </trkpt>
      <trkpt lat="46.62283" lon="5.70396">
        <ele>498.2</ele>
        <time>2022-08-27T10:56:41Z</time>
      </trkpt>
      <trkpt lat="46.6229" lon="5.70411">
        <ele>498.2</ele>
        <time>2022-08-27T10:56:43Z</time>
      </trkpt>
      <trkpt lat="46.62308" lon="5.70427">
        <ele>498.2</ele>
        <time>2022-08-27T10:56:46Z</time>
      </trkpt>
      <trkpt lat="46.62341" lon="5.70438">
        <ele>498.4</ele>
        <time>2022-08-27T10:56:51Z</time>
      </trkpt>
      <trkpt lat="46.62348" lon="5.70439">
        <ele>498.4</ele>
        <time>2022-08-27T10:56:52Z</time>
      </trkpt>
      <trkpt lat="46.62377" lon="5.7044">
        <ele>498.2</ele>
        <time>2022-08-27T10:56:56Z</time>
      </trkpt>
      <trkpt lat="46.62391" lon="5.70443">
        <ele>498.2</ele>
        <time>2022-08-27T10:56:58Z</time>
      </trkpt>
      <trkpt lat="46.62406" lon="5.7045">
        <ele>498</ele>
        <time>2022-08-27T10:57:00Z</time>
      </trkpt>
      <trkpt lat="46.62425" lon="5.70471">
        <ele>497.4</ele>
        <time>2022-08-27T10:57:03Z</time>
      </trkpt>
      <trkpt lat="46.6243" lon="5.70479">
        <ele>497.2</ele>
        <time>2022-08-27T10:57:04Z</time>
      </trkpt>
      <trkpt lat="46.6244" lon="5.7049">
        <ele>497</ele>
        <time>2022-08-27T10:57:06Z</time>
      </trkpt>
      <trkpt lat="46.62449" lon="5.705">
        <ele>497.2</ele>
        <time>2022-08-27T10:57:08Z</time>
      </trkpt>
      <trkpt lat="46.62468" lon="5.70519">
        <ele>497.6</ele>
        <time>2022-08-27T10:57:12Z</time>
      </trkpt>
      <trkpt lat="46.62475" lon="5.70529">
        <ele>498.4</ele>
        <time>2022-08-27T10:57:14Z</time>
      </trkpt>
      <trkpt lat="46.62503" lon="5.7056">
        <ele>499.4</ele>
        <time>2022-08-27T10:57:20Z</time>
      </trkpt>
      <trkpt lat="46.62509" lon="5.70566">
        <ele>499.4</ele>
        <time>2022-08-27T10:57:21Z</time>
      </trkpt>
      <trkpt lat="46.62531" lon="5.70582">
        <ele>499.6</ele>
        <time>2022-08-27T10:57:24Z</time>
      </trkpt>
      <trkpt lat="46.62562" lon="5.70603">
        <ele>498.4</ele>
        <time>2022-08-27T10:57:28Z</time>
      </trkpt>
      <trkpt lat="46.62574" lon="5.70611">
        <ele>497.2</ele>
        <time>2022-08-27T10:57:30Z</time>
      </trkpt>
      <trkpt lat="46.62588" lon="5.70621">
        <ele>496.4</ele>
        <time>2022-08-27T10:57:32Z</time>
      </trkpt>
      <trkpt lat="46.62614" lon="5.70642">
        <ele>496.4</ele>
        <time>2022-08-27T10:57:37Z</time>
      </trkpt>
      <trkpt lat="46.62619" lon="5.70647">
        <ele>496.6</ele>
        <time>2022-08-27T10:57:38Z</time>
      </trkpt>
      <trkpt lat="46.62644" lon="5.70666">
        <ele>498.4</ele>
        <time>2022-08-27T10:57:43Z</time>
      </trkpt>
      <trkpt lat="46.62654" lon="5.70672">
        <ele>499.2</ele>
        <time>2022-08-27T10:57:45Z</time>
      </trkpt>
      <trkpt lat="46.62667" lon="5.70678">
        <ele>499.8</ele>
        <time>2022-08-27T10:57:47Z</time>
      </trkpt>
      <trkpt lat="46.62688" lon="5.70689">
        <ele>500</ele>
        <time>2022-08-27T10:57:50Z</time>
      </trkpt>
      <trkpt lat="46.6273" lon="5.70709">
        <ele>499.2</ele>
        <time>2022-08-27T10:57:55Z</time>
      </trkpt>
      <trkpt lat="46.62741" lon="5.70714">
        <ele>498.6</ele>
        <time>2022-08-27T10:57:56Z</time>
      </trkpt>
      <trkpt lat="46.62758" lon="5.70719">
        <ele>496.8</ele>
        <time>2022-08-27T10:57:58Z</time>
      </trkpt>
      <trkpt lat="46.62767" lon="5.70722">
        <ele>495.6</ele>
        <time>2022-08-27T10:57:59Z</time>
      </trkpt>
      <trkpt lat="46.62786" lon="5.70727">
        <ele>494.8</ele>
        <time>2022-08-27T10:58:01Z</time>
      </trkpt>
      <trkpt lat="46.62795" lon="5.7073">
        <ele>494.6</ele>
        <time>2022-08-27T10:58:02Z</time>
      </trkpt>
      <trkpt lat="46.62821" lon="5.7074">
        <ele>493.2</ele>
        <time>2022-08-27T10:58:05Z</time>
      </trkpt>
      <trkpt lat="46.62827" lon="5.70742">
        <ele>493</ele>
        <time>2022-08-27T10:58:06Z</time>
      </trkpt>
      <trkpt lat="46.62872" lon="5.70763">
        <ele>493</ele>
        <time>2022-08-27T10:58:12Z</time>
      </trkpt>
      <trkpt lat="46.62917" lon="5.70784">
        <ele>494.8</ele>
        <time>2022-08-27T10:58:19Z</time>
      </trkpt>
      <trkpt lat="46.62946" lon="5.70797">
        <ele>495.8</ele>
        <time>2022-08-27T10:58:25Z</time>
      </trkpt>
      <trkpt lat="46.62961" lon="5.70804">
        <ele>497</ele>
        <time>2022-08-27T10:58:28Z</time>
      </trkpt>
      <trkpt lat="46.62978" lon="5.70812">
        <ele>497.8</ele>
        <time>2022-08-27T10:58:32Z</time>
      </trkpt>
      <trkpt lat="46.62988" lon="5.70817">
        <ele>498.2</ele>
        <time>2022-08-27T10:58:34Z</time>
      </trkpt>
      <trkpt lat="46.63005" lon="5.70823">
        <ele>499.2</ele>
        <time>2022-08-27T10:58:38Z</time>
      </trkpt>
      <trkpt lat="46.63009" lon="5.70825">
        <ele>499.4</ele>
        <time>2022-08-27T10:58:39Z</time>
      </trkpt>
      <trkpt lat="46.63035" lon="5.70835">
        <ele>500.4</ele>
        <time>2022-08-27T10:58:45Z</time>
      </trkpt>
      <trkpt lat="46.63051" lon="5.70842">
        <ele>501.2</ele>
        <time>2022-08-27T10:58:49Z</time>
      </trkpt>
      <trkpt lat="46.63054" lon="5.70844">
        <ele>501.6</ele>
        <time>2022-08-27T10:58:50Z</time>
      </trkpt>
      <trkpt lat="46.63068" lon="5.70851">
        <ele>502.8</ele>
        <time>2022-08-27T10:58:54Z</time>
      </trkpt>
      <trkpt lat="46.63071" lon="5.70854">
        <ele>503.4</ele>
        <time>2022-08-27T10:58:55Z</time>
      </trkpt>
      <trkpt lat="46.63078" lon="5.70859">
        <ele>504</ele>
        <time>2022-08-27T10:58:57Z</time>
      </trkpt>
      <trkpt lat="46.63092" lon="5.70873">
        <ele>505.2</ele>
        <time>2022-08-27T10:59:01Z</time>
      </trkpt>
      <trkpt lat="46.631" lon="5.70883">
        <ele>505.8</ele>
        <time>2022-08-27T10:59:04Z</time>
      </trkpt>
      <trkpt lat="46.63112" lon="5.70898">
        <ele>506.4</ele>
        <time>2022-08-27T10:59:08Z</time>
      </trkpt>
      <trkpt lat="46.63125" lon="5.7092">
        <ele>507.6</ele>
        <time>2022-08-27T10:59:13Z</time>
      </trkpt>
      <trkpt lat="46.63127" lon="5.70925">
        <ele>507.8</ele>
        <time>2022-08-27T10:59:14Z</time>
      </trkpt>
      <trkpt lat="46.63139" lon="5.70953">
        <ele>508.6</ele>
        <time>2022-08-27T10:59:20Z</time>
      </trkpt>
      <trkpt lat="46.63148" lon="5.70972">
        <ele>509.8</ele>
        <time>2022-08-27T10:59:24Z</time>
      </trkpt>
      <trkpt lat="46.63149" lon="5.70976">
        <ele>510</ele>
        <time>2022-08-27T10:59:25Z</time>
      </trkpt>
      <trkpt lat="46.63156" lon="5.70998">
        <ele>510.8</ele>
        <time>2022-08-27T10:59:30Z</time>
      </trkpt>
      <trkpt lat="46.63164" lon="5.71021">
        <ele>511.6</ele>
        <time>2022-08-27T10:59:35Z</time>
      </trkpt>
      <trkpt lat="46.63166" lon="5.71026">
        <ele>512</ele>
        <time>2022-08-27T10:59:36Z</time>
      </trkpt>
      <trkpt lat="46.63174" lon="5.71048">
        <ele>513.4</ele>
        <time>2022-08-27T10:59:41Z</time>
      </trkpt>
      <trkpt lat="46.6318" lon="5.71061">
        <ele>513.8</ele>
        <time>2022-08-27T10:59:44Z</time>
      </trkpt>
      <trkpt lat="46.63188" lon="5.71078">
        <ele>514.6</ele>
        <time>2022-08-27T10:59:48Z</time>
      </trkpt>
      <trkpt lat="46.632" lon="5.71099">
        <ele>515.8</ele>
        <time>2022-08-27T10:59:53Z</time>
      </trkpt>
      <trkpt lat="46.63217" lon="5.71117">
        <ele>516.8</ele>
        <time>2022-08-27T10:59:59Z</time>
      </trkpt>
      <trkpt lat="46.63222" lon="5.71121">
        <ele>517.2</ele>
        <time>2022-08-27T11:00:01Z</time>
      </trkpt>
      <trkpt lat="46.63232" lon="5.71126">
        <ele>517.8</ele>
        <time>2022-08-27T11:00:04Z</time>
      </trkpt>
      <trkpt lat="46.63235" lon="5.71127">
        <ele>518</ele>
        <time>2022-08-27T11:00:05Z</time>
      </trkpt>
      <trkpt lat="46.63249" lon="5.71131">
        <ele>519.2</ele>
        <time>2022-08-27T11:00:09Z</time>
      </trkpt>
      <trkpt lat="46.63272" lon="5.71135">
        <ele>520.2</ele>
        <time>2022-08-27T11:00:16Z</time>
      </trkpt>
      <trkpt lat="46.63282" lon="5.71135">
        <ele>521</ele>
        <time>2022-08-27T11:00:19Z</time>
      </trkpt>
      <trkpt lat="46.63292" lon="5.71136">
        <ele>521.4</ele>
        <time>2022-08-27T11:00:22Z</time>
      </trkpt>
      <trkpt lat="46.63313" lon="5.71136">
        <ele>522.6</ele>
        <time>2022-08-27T11:00:28Z</time>
      </trkpt>
      <trkpt lat="46.63317" lon="5.71136">
        <ele>522.6</ele>
        <time>2022-08-27T11:00:29Z</time>
      </trkpt>
      <trkpt lat="46.63333" lon="5.71137">
        <ele>524</ele>
        <time>2022-08-27T11:00:33Z</time>
      </trkpt>
      <trkpt lat="46.63357" lon="5.71137">
        <ele>525</ele>
        <time>2022-08-27T11:00:39Z</time>
      </trkpt>
      <trkpt lat="46.63361" lon="5.71137">
        <ele>525.2</ele>
        <time>2022-08-27T11:00:40Z</time>
      </trkpt>
      <trkpt lat="46.63394" lon="5.71136">
        <ele>526.2</ele>
        <time>2022-08-27T11:00:48Z</time>
      </trkpt>
      <trkpt lat="46.63403" lon="5.71137">
        <ele>526.4</ele>
        <time>2022-08-27T11:00:50Z</time>
      </trkpt>
      <trkpt lat="46.63445" lon="5.71144">
        <ele>527.4</ele>
        <time>2022-08-27T11:01:00Z</time>
      </trkpt>
      <trkpt lat="46.63491" lon="5.71153">
        <ele>528.2</ele>
        <time>2022-08-27T11:01:10Z</time>
      </trkpt>
      <trkpt lat="46.63513" lon="5.71157">
        <ele>528.4</ele>
        <time>2022-08-27T11:01:15Z</time>
      </trkpt>
      <trkpt lat="46.63531" lon="5.71161">
        <ele>529</ele>
        <time>2022-08-27T11:01:19Z</time>
      </trkpt>
      <trkpt lat="46.6354" lon="5.71162">
        <ele>529.6</ele>
        <time>2022-08-27T11:01:21Z</time>
      </trkpt>
      <trkpt lat="46.63572" lon="5.71169">
        <ele>531</ele>
        <time>2022-08-27T11:01:27Z</time>
      </trkpt>
      <trkpt lat="46.63581" lon="5.71173">
        <ele>531.2</ele>
        <time>2022-08-27T11:01:29Z</time>
      </trkpt>
      <trkpt lat="46.63591" lon="5.71179">
        <ele>531.4</ele>
        <time>2022-08-27T11:01:31Z</time>
      </trkpt>
      <trkpt lat="46.63601" lon="5.71187">
        <ele>531.6</ele>
        <time>2022-08-27T11:01:33Z</time>
      </trkpt>
      <trkpt lat="46.63607" lon="5.71193">
        <ele>531.6</ele>
        <time>2022-08-27T11:01:34Z</time>
      </trkpt>
      <trkpt lat="46.63616" lon="5.71205">
        <ele>531.6</ele>
        <time>2022-08-27T11:01:36Z</time>
      </trkpt>
      <trkpt lat="46.63623" lon="5.7122">
        <ele>531.8</ele>
        <time>2022-08-27T11:01:38Z</time>
      </trkpt>
      <trkpt lat="46.63643" lon="5.7127">
        <ele>531.6</ele>
        <time>2022-08-27T11:01:44Z</time>
      </trkpt>
      <trkpt lat="46.63668" lon="5.71332">
        <ele>531</ele>
        <time>2022-08-27T11:01:51Z</time>
      </trkpt>
      <trkpt lat="46.63676" lon="5.71346">
        <ele>530.8</ele>
        <time>2022-08-27T11:01:53Z</time>
      </trkpt>
      <trkpt lat="46.63687" lon="5.71358">
        <ele>530.6</ele>
        <time>2022-08-27T11:01:55Z</time>
      </trkpt>
      <trkpt lat="46.63699" lon="5.71369">
        <ele>530.8</ele>
        <time>2022-08-27T11:01:57Z</time>
      </trkpt>
      <trkpt lat="46.63716" lon="5.71379">
        <ele>530.8</ele>
        <time>2022-08-27T11:02:00Z</time>
      </trkpt>
      <trkpt lat="46.63761" lon="5.71408">
        <ele>531.8</ele>
        <time>2022-08-27T11:02:08Z</time>
      </trkpt>
      <trkpt lat="46.63766" lon="5.71411">
        <ele>532</ele>
        <time>2022-08-27T11:02:09Z</time>
      </trkpt>
      <trkpt lat="46.6377" lon="5.71413">
        <ele>532.4</ele>
        <time>2022-08-27T11:02:10Z</time>
      </trkpt>
      <trkpt lat="46.6379" lon="5.71427">
        <ele>533</ele>
        <time>2022-08-27T11:02:14Z</time>
      </trkpt>
      <trkpt lat="46.6381" lon="5.71442">
        <ele>534.2</ele>
        <time>2022-08-27T11:02:18Z</time>
      </trkpt>
      <trkpt lat="46.6383" lon="5.7146">
        <ele>535.2</ele>
        <time>2022-08-27T11:02:22Z</time>
      </trkpt>
      <trkpt lat="46.63835" lon="5.71465">
        <ele>535.2</ele>
        <time>2022-08-27T11:02:23Z</time>
      </trkpt>
      <trkpt lat="46.63863" lon="5.71492">
        <ele>536.4</ele>
        <time>2022-08-27T11:02:29Z</time>
      </trkpt>
      <trkpt lat="46.6388" lon="5.71509">
        <ele>537</ele>
        <time>2022-08-27T11:02:33Z</time>
      </trkpt>
      <trkpt lat="46.63889" lon="5.71518">
        <ele>537.6</ele>
        <time>2022-08-27T11:02:35Z</time>
      </trkpt>
      <trkpt lat="46.63907" lon="5.71535">
        <ele>538.6</ele>
        <time>2022-08-27T11:02:39Z</time>
      </trkpt>
      <trkpt lat="46.6392" lon="5.71547">
        <ele>539</ele>
        <time>2022-08-27T11:02:42Z</time>
      </trkpt>
      <trkpt lat="46.63947" lon="5.71573">
        <ele>539.6</ele>
        <time>2022-08-27T11:02:48Z</time>
      </trkpt>
      <trkpt lat="46.63967" lon="5.71592">
        <ele>539.6</ele>
        <time>2022-08-27T11:02:52Z</time>
      </trkpt>
      <trkpt lat="46.63976" lon="5.71601">
        <ele>539.8</ele>
        <time>2022-08-27T11:02:54Z</time>
      </trkpt>
      <trkpt lat="46.63981" lon="5.71605">
        <ele>540</ele>
        <time>2022-08-27T11:02:55Z</time>
      </trkpt>
      <trkpt lat="46.6401" lon="5.71641">
        <ele>540.4</ele>
        <time>2022-08-27T11:03:01Z</time>
      </trkpt>
      <trkpt lat="46.64033" lon="5.71675">
        <ele>540.8</ele>
        <time>2022-08-27T11:03:06Z</time>
      </trkpt>
      <trkpt lat="46.64054" lon="5.717">
        <ele>540.8</ele>
        <time>2022-08-27T11:03:10Z</time>
      </trkpt>
      <trkpt lat="46.64083" lon="5.71722">
        <ele>541</ele>
        <time>2022-08-27T11:03:15Z</time>
      </trkpt>
      <trkpt lat="46.64126" lon="5.71741">
        <ele>541</ele>
        <time>2022-08-27T11:03:22Z</time>
      </trkpt>
      <trkpt lat="46.64164" lon="5.71744">
        <ele>542</ele>
        <time>2022-08-27T11:03:28Z</time>
      </trkpt>
      <trkpt lat="46.6417" lon="5.71743">
        <ele>542</ele>
        <time>2022-08-27T11:03:29Z</time>
      </trkpt>
      <trkpt lat="46.64175" lon="5.71742">
        <ele>542</ele>
        <time>2022-08-27T11:03:30Z</time>
      </trkpt>
      <trkpt lat="46.64198" lon="5.71733">
        <ele>542.2</ele>
        <time>2022-08-27T11:03:34Z</time>
      </trkpt>
      <trkpt lat="46.64203" lon="5.7173">
        <ele>542.2</ele>
        <time>2022-08-27T11:03:35Z</time>
      </trkpt>
      <trkpt lat="46.64217" lon="5.7172">
        <ele>542.4</ele>
        <time>2022-08-27T11:03:38Z</time>
      </trkpt>
      <trkpt lat="46.64227" lon="5.7171">
        <ele>542.4</ele>
        <time>2022-08-27T11:03:40Z</time>
      </trkpt>
      <trkpt lat="46.6423" lon="5.71705">
        <ele>542.4</ele>
        <time>2022-08-27T11:03:41Z</time>
      </trkpt>
      <trkpt lat="46.64238" lon="5.71696">
        <ele>542.6</ele>
        <time>2022-08-27T11:03:43Z</time>
      </trkpt>
      <trkpt lat="46.64251" lon="5.71682">
        <ele>543.2</ele>
        <time>2022-08-27T11:03:46Z</time>
      </trkpt>
      <trkpt lat="46.64258" lon="5.71673">
        <ele>543.8</ele>
        <time>2022-08-27T11:03:48Z</time>
      </trkpt>
      <trkpt lat="46.64262" lon="5.71668">
        <ele>544.2</ele>
        <time>2022-08-27T11:03:49Z</time>
      </trkpt>
      <trkpt lat="46.64266" lon="5.71662">
        <ele>544.2</ele>
        <time>2022-08-27T11:03:50Z</time>
      </trkpt>
      <trkpt lat="46.64289" lon="5.7163">
        <ele>545</ele>
        <time>2022-08-27T11:03:55Z</time>
      </trkpt>
      <trkpt lat="46.64295" lon="5.71624">
        <ele>545</ele>
        <time>2022-08-27T11:03:56Z</time>
      </trkpt>
      <trkpt lat="46.64301" lon="5.71606">
        <ele>545</ele>
        <time>2022-08-27T11:03:58Z</time>
      </trkpt>
      <trkpt lat="46.64305" lon="5.71585">
        <ele>545</ele>
        <time>2022-08-27T11:04:00Z</time>
      </trkpt>
      <trkpt lat="46.64304" lon="5.71573">
        <ele>545</ele>
        <time>2022-08-27T11:04:01Z</time>
      </trkpt>
      <trkpt lat="46.64306" lon="5.7151">
        <ele>543.2</ele>
        <time>2022-08-27T11:04:06Z</time>
      </trkpt>
      <trkpt lat="46.64304" lon="5.71497">
        <ele>542.8</ele>
        <time>2022-08-27T11:04:07Z</time>
      </trkpt>
      <trkpt lat="46.64303" lon="5.71483">
        <ele>542.6</ele>
        <time>2022-08-27T11:04:08Z</time>
      </trkpt>
      <trkpt lat="46.64307" lon="5.71458">
        <ele>541.8</ele>
        <time>2022-08-27T11:04:10Z</time>
      </trkpt>
      <trkpt lat="46.64321" lon="5.71436">
        <ele>541.2</ele>
        <time>2022-08-27T11:04:12Z</time>
      </trkpt>
      <trkpt lat="46.64329" lon="5.71419">
        <ele>540.4</ele>
        <time>2022-08-27T11:04:14Z</time>
      </trkpt>
      <trkpt lat="46.64341" lon="5.71396">
        <ele>539.8</ele>
        <time>2022-08-27T11:04:16Z</time>
      </trkpt>
      <trkpt lat="46.64347" lon="5.71385">
        <ele>539.6</ele>
        <time>2022-08-27T11:04:17Z</time>
      </trkpt>
      <trkpt lat="46.64351" lon="5.71376">
        <ele>539.4</ele>
        <time>2022-08-27T11:04:18Z</time>
      </trkpt>
      <trkpt lat="46.64356" lon="5.71363">
        <ele>539</ele>
        <time>2022-08-27T11:04:19Z</time>
      </trkpt>
      <trkpt lat="46.64361" lon="5.71349">
        <ele>538.8</ele>
        <time>2022-08-27T11:04:20Z</time>
      </trkpt>
      <trkpt lat="46.64368" lon="5.71314">
        <ele>538</ele>
        <time>2022-08-27T11:04:23Z</time>
      </trkpt>
      <trkpt lat="46.6437" lon="5.71302">
        <ele>538</ele>
        <time>2022-08-27T11:04:24Z</time>
      </trkpt>
      <trkpt lat="46.64375" lon="5.71251">
        <ele>536.8</ele>
        <time>2022-08-27T11:04:28Z</time>
      </trkpt>
      <trkpt lat="46.64379" lon="5.71225">
        <ele>535.8</ele>
        <time>2022-08-27T11:04:30Z</time>
      </trkpt>
      <trkpt lat="46.64387" lon="5.71188">
        <ele>534.6</ele>
        <time>2022-08-27T11:04:33Z</time>
      </trkpt>
      <trkpt lat="46.6439" lon="5.71174">
        <ele>534.4</ele>
        <time>2022-08-27T11:04:34Z</time>
      </trkpt>
      <trkpt lat="46.644" lon="5.71114">
        <ele>533</ele>
        <time>2022-08-27T11:04:39Z</time>
      </trkpt>
      <trkpt lat="46.64403" lon="5.71102">
        <ele>532.8</ele>
        <time>2022-08-27T11:04:40Z</time>
      </trkpt>
      <trkpt lat="46.64407" lon="5.71091">
        <ele>532.8</ele>
        <time>2022-08-27T11:04:41Z</time>
      </trkpt>
      <trkpt lat="46.64419" lon="5.71071">
        <ele>532.6</ele>
        <time>2022-08-27T11:04:43Z</time>
      </trkpt>
      <trkpt lat="46.64436" lon="5.71058">
        <ele>532.4</ele>
        <time>2022-08-27T11:04:45Z</time>
      </trkpt>
      <trkpt lat="46.64445" lon="5.71054">
        <ele>531.8</ele>
        <time>2022-08-27T11:04:46Z</time>
      </trkpt>
      <trkpt lat="46.64454" lon="5.71053">
        <ele>531.6</ele>
        <time>2022-08-27T11:04:47Z</time>
      </trkpt>
      <trkpt lat="46.64472" lon="5.71054">
        <ele>531.4</ele>
        <time>2022-08-27T11:04:49Z</time>
      </trkpt>
      <trkpt lat="46.64489" lon="5.7106">
        <ele>531.4</ele>
        <time>2022-08-27T11:04:51Z</time>
      </trkpt>
      <trkpt lat="46.64515" lon="5.71071">
        <ele>530.8</ele>
        <time>2022-08-27T11:04:54Z</time>
      </trkpt>
      <trkpt lat="46.64523" lon="5.71074">
        <ele>530.8</ele>
        <time>2022-08-27T11:04:55Z</time>
      </trkpt>
      <trkpt lat="46.64581" lon="5.711">
        <ele>530.2</ele>
        <time>2022-08-27T11:05:02Z</time>
      </trkpt>
      <trkpt lat="46.64606" lon="5.71111">
        <ele>529.8</ele>
        <time>2022-08-27T11:05:05Z</time>
      </trkpt>
      <trkpt lat="46.64615" lon="5.71114">
        <ele>530</ele>
        <time>2022-08-27T11:05:06Z</time>
      </trkpt>
      <trkpt lat="46.64666" lon="5.71138">
        <ele>528.8</ele>
        <time>2022-08-27T11:05:12Z</time>
      </trkpt>
      <trkpt lat="46.64675" lon="5.71141">
        <ele>528.6</ele>
        <time>2022-08-27T11:05:13Z</time>
      </trkpt>
      <trkpt lat="46.64709" lon="5.71156">
        <ele>527.8</ele>
        <time>2022-08-27T11:05:17Z</time>
      </trkpt>
      <trkpt lat="46.64769" lon="5.71185">
        <ele>527</ele>
        <time>2022-08-27T11:05:24Z</time>
      </trkpt>
      <trkpt lat="46.64786" lon="5.712">
        <ele>526.6</ele>
        <time>2022-08-27T11:05:26Z</time>
      </trkpt>
      <trkpt lat="46.64802" lon="5.71219">
        <ele>526.4</ele>
        <time>2022-08-27T11:05:28Z</time>
      </trkpt>
      <trkpt lat="46.64826" lon="5.71252">
        <ele>525</ele>
        <time>2022-08-27T11:05:31Z</time>
      </trkpt>
      <trkpt lat="46.64842" lon="5.71274">
        <ele>523.6</ele>
        <time>2022-08-27T11:05:33Z</time>
      </trkpt>
      <trkpt lat="46.64851" lon="5.71285">
        <ele>523.2</ele>
        <time>2022-08-27T11:05:34Z</time>
      </trkpt>
      <trkpt lat="46.64859" lon="5.71297">
        <ele>522</ele>
        <time>2022-08-27T11:05:35Z</time>
      </trkpt>
      <trkpt lat="46.64885" lon="5.71331">
        <ele>520</ele>
        <time>2022-08-27T11:05:38Z</time>
      </trkpt>
      <trkpt lat="46.64903" lon="5.71354">
        <ele>518.6</ele>
        <time>2022-08-27T11:05:40Z</time>
      </trkpt>
      <trkpt lat="46.64911" lon="5.71366">
        <ele>518</ele>
        <time>2022-08-27T11:05:41Z</time>
      </trkpt>
      <trkpt lat="46.6492" lon="5.71377">
        <ele>517</ele>
        <time>2022-08-27T11:05:42Z</time>
      </trkpt>
      <trkpt lat="46.64946" lon="5.71413">
        <ele>515.8</ele>
        <time>2022-08-27T11:05:45Z</time>
      </trkpt>
      <trkpt lat="46.64982" lon="5.71461">
        <ele>514.8</ele>
        <time>2022-08-27T11:05:49Z</time>
      </trkpt>
      <trkpt lat="46.65" lon="5.71485">
        <ele>514.2</ele>
        <time>2022-08-27T11:05:51Z</time>
      </trkpt>
      <trkpt lat="46.65019" lon="5.71509">
        <ele>513.6</ele>
        <time>2022-08-27T11:05:53Z</time>
      </trkpt>
      <trkpt lat="46.65037" lon="5.71533">
        <ele>512.6</ele>
        <time>2022-08-27T11:05:55Z</time>
      </trkpt>
      <trkpt lat="46.65053" lon="5.71559">
        <ele>512</ele>
        <time>2022-08-27T11:05:57Z</time>
      </trkpt>
      <trkpt lat="46.65068" lon="5.71586">
        <ele>511.6</ele>
        <time>2022-08-27T11:05:59Z</time>
      </trkpt>
      <trkpt lat="46.65087" lon="5.7163">
        <ele>511</ele>
        <time>2022-08-27T11:06:02Z</time>
      </trkpt>
      <trkpt lat="46.65093" lon="5.71645">
        <ele>510.4</ele>
        <time>2022-08-27T11:06:03Z</time>
      </trkpt>
      <trkpt lat="46.65098" lon="5.71663">
        <ele>509.6</ele>
        <time>2022-08-27T11:06:04Z</time>
      </trkpt>
      <trkpt lat="46.651" lon="5.71676">
        <ele>509.4</ele>
        <time>2022-08-27T11:06:05Z</time>
      </trkpt>
      <trkpt lat="46.65103" lon="5.71693">
        <ele>508.6</ele>
        <time>2022-08-27T11:06:06Z</time>
      </trkpt>
      <trkpt lat="46.65105" lon="5.71731">
        <ele>507.6</ele>
        <time>2022-08-27T11:06:08Z</time>
      </trkpt>
      <trkpt lat="46.65106" lon="5.71745">
        <ele>507.2</ele>
        <time>2022-08-27T11:06:09Z</time>
      </trkpt>
      <trkpt lat="46.65112" lon="5.71786">
        <ele>506</ele>
        <time>2022-08-27T11:06:11Z</time>
      </trkpt>
      <trkpt lat="46.65119" lon="5.71818">
        <ele>504</ele>
        <time>2022-08-27T11:06:13Z</time>
      </trkpt>
      <trkpt lat="46.6513" lon="5.71856">
        <ele>502</ele>
        <time>2022-08-27T11:06:15Z</time>
      </trkpt>
      <trkpt lat="46.65142" lon="5.71884">
        <ele>500.2</ele>
        <time>2022-08-27T11:06:17Z</time>
      </trkpt>
      <trkpt lat="46.6515" lon="5.71897">
        <ele>498.4</ele>
        <time>2022-08-27T11:06:18Z</time>
      </trkpt>
      <trkpt lat="46.65166" lon="5.71923">
        <ele>496.6</ele>
        <time>2022-08-27T11:06:20Z</time>
      </trkpt>
      <trkpt lat="46.65173" lon="5.71937">
        <ele>496.4</ele>
        <time>2022-08-27T11:06:21Z</time>
      </trkpt>
      <trkpt lat="46.65182" lon="5.71966">
        <ele>495.2</ele>
        <time>2022-08-27T11:06:23Z</time>
      </trkpt>
      <trkpt lat="46.65186" lon="5.71981">
        <ele>495.2</ele>
        <time>2022-08-27T11:06:24Z</time>
      </trkpt>
      <trkpt lat="46.65193" lon="5.72009">
        <ele>495</ele>
        <time>2022-08-27T11:06:26Z</time>
      </trkpt>
      <trkpt lat="46.65202" lon="5.72033">
        <ele>495</ele>
        <time>2022-08-27T11:06:28Z</time>
      </trkpt>
      <trkpt lat="46.65222" lon="5.72069">
        <ele>496.2</ele>
        <time>2022-08-27T11:06:32Z</time>
      </trkpt>
      <trkpt lat="46.65227" lon="5.72076">
        <ele>496.4</ele>
        <time>2022-08-27T11:06:33Z</time>
      </trkpt>
      <trkpt lat="46.65243" lon="5.72099">
        <ele>497.6</ele>
        <time>2022-08-27T11:06:36Z</time>
      </trkpt>
      <trkpt lat="46.65254" lon="5.72114">
        <ele>498.8</ele>
        <time>2022-08-27T11:06:38Z</time>
      </trkpt>
      <trkpt lat="46.65266" lon="5.72128">
        <ele>499.8</ele>
        <time>2022-08-27T11:06:40Z</time>
      </trkpt>
      <trkpt lat="46.65299" lon="5.72162">
        <ele>500.4</ele>
        <time>2022-08-27T11:06:45Z</time>
      </trkpt>
      <trkpt lat="46.6534" lon="5.72205">
        <ele>499.6</ele>
        <time>2022-08-27T11:06:51Z</time>
      </trkpt>
      <trkpt lat="46.65353" lon="5.72219">
        <ele>498.8</ele>
        <time>2022-08-27T11:06:53Z</time>
      </trkpt>
      <trkpt lat="46.65379" lon="5.72246">
        <ele>497.8</ele>
        <time>2022-08-27T11:06:57Z</time>
      </trkpt>
      <trkpt lat="46.65424" lon="5.7229">
        <ele>498</ele>
        <time>2022-08-27T11:07:04Z</time>
      </trkpt>
      <trkpt lat="46.65438" lon="5.72301">
        <ele>498.2</ele>
        <time>2022-08-27T11:07:06Z</time>
      </trkpt>
      <trkpt lat="46.65482" lon="5.72342">
        <ele>498</ele>
        <time>2022-08-27T11:07:13Z</time>
      </trkpt>
      <trkpt lat="46.65515" lon="5.72378">
        <ele>498</ele>
        <time>2022-08-27T11:07:19Z</time>
      </trkpt>
      <trkpt lat="46.65539" lon="5.72399">
        <ele>499.4</ele>
        <time>2022-08-27T11:07:24Z</time>
      </trkpt>
      <trkpt lat="46.65552" lon="5.72408">
        <ele>500.4</ele>
        <time>2022-08-27T11:07:27Z</time>
      </trkpt>
      <trkpt lat="46.65566" lon="5.72417">
        <ele>501.2</ele>
        <time>2022-08-27T11:07:30Z</time>
      </trkpt>
      <trkpt lat="46.65575" lon="5.72424">
        <ele>501.6</ele>
        <time>2022-08-27T11:07:32Z</time>
      </trkpt>
      <trkpt lat="46.65588" lon="5.72433">
        <ele>502.8</ele>
        <time>2022-08-27T11:07:35Z</time>
      </trkpt>
      <trkpt lat="46.656" lon="5.72443">
        <ele>503.8</ele>
        <time>2022-08-27T11:07:38Z</time>
      </trkpt>
      <trkpt lat="46.65604" lon="5.72448">
        <ele>504.2</ele>
        <time>2022-08-27T11:07:39Z</time>
      </trkpt>
      <trkpt lat="46.65625" lon="5.72473">
        <ele>505.4</ele>
        <time>2022-08-27T11:07:44Z</time>
      </trkpt>
      <trkpt lat="46.65631" lon="5.7248">
        <ele>505.6</ele>
        <time>2022-08-27T11:07:45Z</time>
      </trkpt>
      <trkpt lat="46.65645" lon="5.72502">
        <ele>506</ele>
        <time>2022-08-27T11:07:49Z</time>
      </trkpt>
      <trkpt lat="46.65648" lon="5.72516">
        <ele>506.2</ele>
        <time>2022-08-27T11:07:51Z</time>
      </trkpt>
      <trkpt lat="46.65645" lon="5.72531">
        <ele>506.2</ele>
        <time>2022-08-27T11:07:53Z</time>
      </trkpt>
      <trkpt lat="46.65643" lon="5.72539">
        <ele>506.4</ele>
        <time>2022-08-27T11:07:54Z</time>
      </trkpt>
      <trkpt lat="46.6564" lon="5.72551">
        <ele>506.6</ele>
        <time>2022-08-27T11:07:55Z</time>
      </trkpt>
      <trkpt lat="46.6564" lon="5.7257">
        <ele>506.4</ele>
        <time>2022-08-27T11:07:57Z</time>
      </trkpt>
      <trkpt lat="46.65642" lon="5.72592">
        <ele>506.2</ele>
        <time>2022-08-27T11:07:59Z</time>
      </trkpt>
      <trkpt lat="46.65648" lon="5.72626">
        <ele>506.2</ele>
        <time>2022-08-27T11:08:02Z</time>
      </trkpt>
      <trkpt lat="46.65659" lon="5.72675">
        <ele>505.8</ele>
        <time>2022-08-27T11:08:07Z</time>
      </trkpt>
      <trkpt lat="46.65667" lon="5.72717">
        <ele>505.8</ele>
        <time>2022-08-27T11:08:11Z</time>
      </trkpt>
      <trkpt lat="46.65667" lon="5.72728">
        <ele>505.8</ele>
        <time>2022-08-27T11:08:12Z</time>
      </trkpt>
      <trkpt lat="46.65674" lon="5.72813">
        <ele>505.8</ele>
        <time>2022-08-27T11:08:20Z</time>
      </trkpt>
      <trkpt lat="46.65674" lon="5.72824">
        <ele>505.8</ele>
        <time>2022-08-27T11:08:21Z</time>
      </trkpt>
      <trkpt lat="46.65675" lon="5.72846">
        <ele>505.8</ele>
        <time>2022-08-27T11:08:23Z</time>
      </trkpt>
      <trkpt lat="46.65671" lon="5.72868">
        <ele>505.8</ele>
        <time>2022-08-27T11:08:25Z</time>
      </trkpt>
      <trkpt lat="46.65662" lon="5.72902">
        <ele>505.4</ele>
        <time>2022-08-27T11:08:28Z</time>
      </trkpt>
      <trkpt lat="46.6566" lon="5.72914">
        <ele>505.4</ele>
        <time>2022-08-27T11:08:29Z</time>
      </trkpt>
      <trkpt lat="46.65658" lon="5.7294">
        <ele>505</ele>
        <time>2022-08-27T11:08:31Z</time>
      </trkpt>
      <trkpt lat="46.65659" lon="5.72962">
        <ele>504.8</ele>
        <time>2022-08-27T11:08:33Z</time>
      </trkpt>
      <trkpt lat="46.65661" lon="5.72974">
        <ele>504.8</ele>
        <time>2022-08-27T11:08:34Z</time>
      </trkpt>
      <trkpt lat="46.65663" lon="5.72985">
        <ele>504.6</ele>
        <time>2022-08-27T11:08:35Z</time>
      </trkpt>
      <trkpt lat="46.6567" lon="5.73018">
        <ele>504</ele>
        <time>2022-08-27T11:08:38Z</time>
      </trkpt>
      <trkpt lat="46.6568" lon="5.7305">
        <ele>503.6</ele>
        <time>2022-08-27T11:08:41Z</time>
      </trkpt>
      <trkpt lat="46.65691" lon="5.7308">
        <ele>503.2</ele>
        <time>2022-08-27T11:08:44Z</time>
      </trkpt>
      <trkpt lat="46.65711" lon="5.73129">
        <ele>502.8</ele>
        <time>2022-08-27T11:08:49Z</time>
      </trkpt>
      <trkpt lat="46.6571" lon="5.73152">
        <ele>502.6</ele>
        <time>2022-08-27T11:08:51Z</time>
      </trkpt>
      <trkpt lat="46.65708" lon="5.73163">
        <ele>502.4</ele>
        <time>2022-08-27T11:08:52Z</time>
      </trkpt>
      <trkpt lat="46.65695" lon="5.73225">
        <ele>501.4</ele>
        <time>2022-08-27T11:08:57Z</time>
      </trkpt>
      <trkpt lat="46.65688" lon="5.7325">
        <ele>500.8</ele>
        <time>2022-08-27T11:08:59Z</time>
      </trkpt>
      <trkpt lat="46.65679" lon="5.73274">
        <ele>500</ele>
        <time>2022-08-27T11:09:01Z</time>
      </trkpt>
      <trkpt lat="46.65674" lon="5.73286">
        <ele>499.8</ele>
        <time>2022-08-27T11:09:02Z</time>
      </trkpt>
      <trkpt lat="46.65668" lon="5.73297">
        <ele>499.4</ele>
        <time>2022-08-27T11:09:03Z</time>
      </trkpt>
      <trkpt lat="46.65646" lon="5.73326">
        <ele>497.6</ele>
        <time>2022-08-27T11:09:06Z</time>
      </trkpt>
      <trkpt lat="46.65626" lon="5.73347">
        <ele>497</ele>
        <time>2022-08-27T11:09:09Z</time>
      </trkpt>
      <trkpt lat="46.65617" lon="5.73353">
        <ele>496.8</ele>
        <time>2022-08-27T11:09:10Z</time>
      </trkpt>
      <trkpt lat="46.65609" lon="5.73357">
        <ele>496.2</ele>
        <time>2022-08-27T11:09:11Z</time>
      </trkpt>
      <trkpt lat="46.65583" lon="5.73368">
        <ele>495</ele>
        <time>2022-08-27T11:09:14Z</time>
      </trkpt>
      <trkpt lat="46.65576" lon="5.73371">
        <ele>494.6</ele>
        <time>2022-08-27T11:09:15Z</time>
      </trkpt>
      <trkpt lat="46.65565" lon="5.73377">
        <ele>494.6</ele>
        <time>2022-08-27T11:09:16Z</time>
      </trkpt>
      <trkpt lat="46.65549" lon="5.7339">
        <ele>494</ele>
        <time>2022-08-27T11:09:18Z</time>
      </trkpt>
      <trkpt lat="46.65539" lon="5.734">
        <ele>494</ele>
        <time>2022-08-27T11:09:19Z</time>
      </trkpt>
      <trkpt lat="46.65532" lon="5.7341">
        <ele>493.8</ele>
        <time>2022-08-27T11:09:20Z</time>
      </trkpt>
      <trkpt lat="46.6552" lon="5.73431">
        <ele>492.6</ele>
        <time>2022-08-27T11:09:22Z</time>
      </trkpt>
      <trkpt lat="46.65512" lon="5.73458">
        <ele>491.8</ele>
        <time>2022-08-27T11:09:24Z</time>
      </trkpt>
      <trkpt lat="46.65509" lon="5.73473">
        <ele>491.6</ele>
        <time>2022-08-27T11:09:25Z</time>
      </trkpt>
      <trkpt lat="46.65506" lon="5.73487">
        <ele>491.4</ele>
        <time>2022-08-27T11:09:26Z</time>
      </trkpt>
      <trkpt lat="46.65496" lon="5.73558">
        <ele>490.6</ele>
        <time>2022-08-27T11:09:31Z</time>
      </trkpt>
      <trkpt lat="46.65491" lon="5.7361">
        <ele>490.6</ele>
        <time>2022-08-27T11:09:35Z</time>
      </trkpt>
      <trkpt lat="46.65486" lon="5.737">
        <ele>490.6</ele>
        <time>2022-08-27T11:09:42Z</time>
      </trkpt>
      <trkpt lat="46.65483" lon="5.73766">
        <ele>490.2</ele>
        <time>2022-08-27T11:09:47Z</time>
      </trkpt>
      <trkpt lat="46.6548" lon="5.73807">
        <ele>489</ele>
        <time>2022-08-27T11:09:50Z</time>
      </trkpt>
      <trkpt lat="46.6548" lon="5.73821">
        <ele>488.8</ele>
        <time>2022-08-27T11:09:51Z</time>
      </trkpt>
      <trkpt lat="46.65477" lon="5.73905">
        <ele>488</ele>
        <time>2022-08-27T11:09:57Z</time>
      </trkpt>
      <trkpt lat="46.65477" lon="5.73933">
        <ele>487.4</ele>
        <time>2022-08-27T11:09:59Z</time>
      </trkpt>
      <trkpt lat="46.65476" lon="5.7395">
        <ele>486.8</ele>
        <time>2022-08-27T11:10:00Z</time>
      </trkpt>
      <trkpt lat="46.65469" lon="5.74002">
        <ele>485.6</ele>
        <time>2022-08-27T11:10:04Z</time>
      </trkpt>
      <trkpt lat="46.65461" lon="5.74028">
        <ele>485</ele>
        <time>2022-08-27T11:10:06Z</time>
      </trkpt>
      <trkpt lat="46.65455" lon="5.7404">
        <ele>484.6</ele>
        <time>2022-08-27T11:10:07Z</time>
      </trkpt>
      <trkpt lat="46.65426" lon="5.74091">
        <ele>483.6</ele>
        <time>2022-08-27T11:10:12Z</time>
      </trkpt>
      <trkpt lat="46.6542" lon="5.74101">
        <ele>483.4</ele>
        <time>2022-08-27T11:10:13Z</time>
      </trkpt>
      <trkpt lat="46.65404" lon="5.74128">
        <ele>483.4</ele>
        <time>2022-08-27T11:10:16Z</time>
      </trkpt>
      <trkpt lat="46.654" lon="5.74139">
        <ele>483.4</ele>
        <time>2022-08-27T11:10:17Z</time>
      </trkpt>
      <trkpt lat="46.65397" lon="5.7415">
        <ele>483.6</ele>
        <time>2022-08-27T11:10:18Z</time>
      </trkpt>
      <trkpt lat="46.65397" lon="5.74172">
        <ele>483.8</ele>
        <time>2022-08-27T11:10:20Z</time>
      </trkpt>
      <trkpt lat="46.65402" lon="5.74193">
        <ele>484</ele>
        <time>2022-08-27T11:10:22Z</time>
      </trkpt>
      <trkpt lat="46.65405" lon="5.74202">
        <ele>485</ele>
        <time>2022-08-27T11:10:23Z</time>
      </trkpt>
      <trkpt lat="46.65409" lon="5.74211">
        <ele>485.4</ele>
        <time>2022-08-27T11:10:24Z</time>
      </trkpt>
      <trkpt lat="46.65421" lon="5.74235">
        <ele>486.4</ele>
        <time>2022-08-27T11:10:27Z</time>
      </trkpt>
      <trkpt lat="46.65428" lon="5.74248">
        <ele>487</ele>
        <time>2022-08-27T11:10:29Z</time>
      </trkpt>
      <trkpt lat="46.65438" lon="5.74269">
        <ele>487.8</ele>
        <time>2022-08-27T11:10:32Z</time>
      </trkpt>
      <trkpt lat="46.65447" lon="5.74289">
        <ele>489</ele>
        <time>2022-08-27T11:10:35Z</time>
      </trkpt>
      <trkpt lat="46.6545" lon="5.74295">
        <ele>489.2</ele>
        <time>2022-08-27T11:10:36Z</time>
      </trkpt>
      <trkpt lat="46.65458" lon="5.74312">
        <ele>490.2</ele>
        <time>2022-08-27T11:10:39Z</time>
      </trkpt>
      <trkpt lat="46.65468" lon="5.74335">
        <ele>491.2</ele>
        <time>2022-08-27T11:10:43Z</time>
      </trkpt>
      <trkpt lat="46.65476" lon="5.74353">
        <ele>492.2</ele>
        <time>2022-08-27T11:10:46Z</time>
      </trkpt>
      <trkpt lat="46.65478" lon="5.74359">
        <ele>492.4</ele>
        <time>2022-08-27T11:10:47Z</time>
      </trkpt>
      <trkpt lat="46.65483" lon="5.74371">
        <ele>493</ele>
        <time>2022-08-27T11:10:49Z</time>
      </trkpt>
      <trkpt lat="46.65488" lon="5.74383">
        <ele>493.4</ele>
        <time>2022-08-27T11:10:51Z</time>
      </trkpt>
      <trkpt lat="46.65495" lon="5.74398">
        <ele>493.6</ele>
        <time>2022-08-27T11:10:54Z</time>
      </trkpt>
      <trkpt lat="46.65503" lon="5.7442">
        <ele>494.6</ele>
        <time>2022-08-27T11:10:58Z</time>
      </trkpt>
      <trkpt lat="46.6551" lon="5.74433">
        <ele>495.2</ele>
        <time>2022-08-27T11:11:00Z</time>
      </trkpt>
      <trkpt lat="46.65518" lon="5.74451">
        <ele>495.8</ele>
        <time>2022-08-27T11:11:03Z</time>
      </trkpt>
      <trkpt lat="46.65532" lon="5.7448">
        <ele>496.4</ele>
        <time>2022-08-27T11:11:08Z</time>
      </trkpt>
      <trkpt lat="46.65535" lon="5.74485">
        <ele>496.8</ele>
        <time>2022-08-27T11:11:09Z</time>
      </trkpt>
      <trkpt lat="46.65547" lon="5.74514">
        <ele>497.6</ele>
        <time>2022-08-27T11:11:15Z</time>
      </trkpt>
      <trkpt lat="46.65552" lon="5.74523">
        <ele>498.2</ele>
        <time>2022-08-27T11:11:17Z</time>
      </trkpt>
      <trkpt lat="46.65562" lon="5.74538">
        <ele>499.4</ele>
        <time>2022-08-27T11:11:21Z</time>
      </trkpt>
      <trkpt lat="46.65568" lon="5.74545">
        <ele>499.8</ele>
        <time>2022-08-27T11:11:23Z</time>
      </trkpt>
      <trkpt lat="46.65578" lon="5.74555">
        <ele>500.6</ele>
        <time>2022-08-27T11:11:26Z</time>
      </trkpt>
      <trkpt lat="46.6559" lon="5.74568">
        <ele>501.4</ele>
        <time>2022-08-27T11:11:30Z</time>
      </trkpt>
      <trkpt lat="46.65593" lon="5.74571">
        <ele>501.6</ele>
        <time>2022-08-27T11:11:31Z</time>
      </trkpt>
      <trkpt lat="46.65612" lon="5.74598">
        <ele>503</ele>
        <time>2022-08-27T11:11:38Z</time>
      </trkpt>
      <trkpt lat="46.65624" lon="5.74623">
        <ele>504</ele>
        <time>2022-08-27T11:11:43Z</time>
      </trkpt>
      <trkpt lat="46.65632" lon="5.74642">
        <ele>504.8</ele>
        <time>2022-08-27T11:11:47Z</time>
      </trkpt>
      <trkpt lat="46.65639" lon="5.74662">
        <ele>505.4</ele>
        <time>2022-08-27T11:11:51Z</time>
      </trkpt>
      <trkpt lat="46.65647" lon="5.74682">
        <ele>506.2</ele>
        <time>2022-08-27T11:11:55Z</time>
      </trkpt>
      <trkpt lat="46.65651" lon="5.74691">
        <ele>506.4</ele>
        <time>2022-08-27T11:11:57Z</time>
      </trkpt>
      <trkpt lat="46.65662" lon="5.74724">
        <ele>507.8</ele>
        <time>2022-08-27T11:12:03Z</time>
      </trkpt>
      <trkpt lat="46.65672" lon="5.74748">
        <ele>508.8</ele>
        <time>2022-08-27T11:12:08Z</time>
      </trkpt>
      <trkpt lat="46.65677" lon="5.74764">
        <ele>509.2</ele>
        <time>2022-08-27T11:12:11Z</time>
      </trkpt>
      <trkpt lat="46.6568" lon="5.74776">
        <ele>510</ele>
        <time>2022-08-27T11:12:13Z</time>
      </trkpt>
      <trkpt lat="46.65687" lon="5.74804">
        <ele>511</ele>
        <time>2022-08-27T11:12:18Z</time>
      </trkpt>
      <trkpt lat="46.65689" lon="5.74815">
        <ele>511.4</ele>
        <time>2022-08-27T11:12:20Z</time>
      </trkpt>
      <trkpt lat="46.65695" lon="5.74848">
        <ele>512.2</ele>
        <time>2022-08-27T11:12:26Z</time>
      </trkpt>
      <trkpt lat="46.65697" lon="5.74864">
        <ele>512.6</ele>
        <time>2022-08-27T11:12:29Z</time>
      </trkpt>
      <trkpt lat="46.657" lon="5.74885">
        <ele>513.4</ele>
        <time>2022-08-27T11:12:33Z</time>
      </trkpt>
      <trkpt lat="46.65705" lon="5.74912">
        <ele>514.6</ele>
        <time>2022-08-27T11:12:38Z</time>
      </trkpt>
      <trkpt lat="46.65706" lon="5.74917">
        <ele>514.6</ele>
        <time>2022-08-27T11:12:39Z</time>
      </trkpt>
      <trkpt lat="46.65712" lon="5.74946">
        <ele>515.6</ele>
        <time>2022-08-27T11:12:45Z</time>
      </trkpt>
      <trkpt lat="46.65714" lon="5.74951">
        <ele>515.8</ele>
        <time>2022-08-27T11:12:46Z</time>
      </trkpt>
      <trkpt lat="46.65724" lon="5.74972">
        <ele>516.8</ele>
        <time>2022-08-27T11:12:50Z</time>
      </trkpt>
      <trkpt lat="46.65731" lon="5.7498">
        <ele>517.2</ele>
        <time>2022-08-27T11:12:52Z</time>
      </trkpt>
      <trkpt lat="46.65748" lon="5.74996">
        <ele>518</ele>
        <time>2022-08-27T11:12:57Z</time>
      </trkpt>
      <trkpt lat="46.65756" lon="5.75">
        <ele>518.2</ele>
        <time>2022-08-27T11:12:59Z</time>
      </trkpt>
      <trkpt lat="46.65779" lon="5.75012">
        <ele>519</ele>
        <time>2022-08-27T11:13:05Z</time>
      </trkpt>
      <trkpt lat="46.65787" lon="5.75018">
        <ele>519.2</ele>
        <time>2022-08-27T11:13:07Z</time>
      </trkpt>
      <trkpt lat="46.65803" lon="5.75026">
        <ele>520</ele>
        <time>2022-08-27T11:13:11Z</time>
      </trkpt>
      <trkpt lat="46.6581" lon="5.75031">
        <ele>520.4</ele>
        <time>2022-08-27T11:13:13Z</time>
      </trkpt>
      <trkpt lat="46.6583" lon="5.75051">
        <ele>521.2</ele>
        <time>2022-08-27T11:13:19Z</time>
      </trkpt>
      <trkpt lat="46.65848" lon="5.75084">
        <ele>522.2</ele>
        <time>2022-08-27T11:13:26Z</time>
      </trkpt>
      <trkpt lat="46.6585" lon="5.75089">
        <ele>522.4</ele>
        <time>2022-08-27T11:13:27Z</time>
      </trkpt>
      <trkpt lat="46.65858" lon="5.75107">
        <ele>523.2</ele>
        <time>2022-08-27T11:13:31Z</time>
      </trkpt>
      <trkpt lat="46.65861" lon="5.75112">
        <ele>523.4</ele>
        <time>2022-08-27T11:13:32Z</time>
      </trkpt>
      <trkpt lat="46.65875" lon="5.75134">
        <ele>524.4</ele>
        <time>2022-08-27T11:13:37Z</time>
      </trkpt>
      <trkpt lat="46.65882" lon="5.75142">
        <ele>524.8</ele>
        <time>2022-08-27T11:13:39Z</time>
      </trkpt>
      <trkpt lat="46.65897" lon="5.75162">
        <ele>525.6</ele>
        <time>2022-08-27T11:13:44Z</time>
      </trkpt>
      <trkpt lat="46.65905" lon="5.75175">
        <ele>526.2</ele>
        <time>2022-08-27T11:13:47Z</time>
      </trkpt>
      <trkpt lat="46.65909" lon="5.75185">
        <ele>526.6</ele>
        <time>2022-08-27T11:13:49Z</time>
      </trkpt>
      <trkpt lat="46.65916" lon="5.75208">
        <ele>527.4</ele>
        <time>2022-08-27T11:13:53Z</time>
      </trkpt>
      <trkpt lat="46.65918" lon="5.75222">
        <ele>527.8</ele>
        <time>2022-08-27T11:13:55Z</time>
      </trkpt>
      <trkpt lat="46.65917" lon="5.75243">
        <ele>528</ele>
        <time>2022-08-27T11:13:58Z</time>
      </trkpt>
      <trkpt lat="46.65915" lon="5.75262">
        <ele>528.2</ele>
        <time>2022-08-27T11:14:01Z</time>
      </trkpt>
      <trkpt lat="46.65908" lon="5.75285">
        <ele>528.8</ele>
        <time>2022-08-27T11:14:05Z</time>
      </trkpt>
      <trkpt lat="46.65906" lon="5.75292">
        <ele>529</ele>
        <time>2022-08-27T11:14:06Z</time>
      </trkpt>
      <trkpt lat="46.65897" lon="5.75325">
        <ele>530</ele>
        <time>2022-08-27T11:14:12Z</time>
      </trkpt>
      <trkpt lat="46.65892" lon="5.75342">
        <ele>530.4</ele>
        <time>2022-08-27T11:14:15Z</time>
      </trkpt>
      <trkpt lat="46.65887" lon="5.75359">
        <ele>531</ele>
        <time>2022-08-27T11:14:18Z</time>
      </trkpt>
      <trkpt lat="46.65875" lon="5.75404">
        <ele>532.2</ele>
        <time>2022-08-27T11:14:26Z</time>
      </trkpt>
      <trkpt lat="46.65877" lon="5.75415">
        <ele>532.4</ele>
        <time>2022-08-27T11:14:28Z</time>
      </trkpt>
      <trkpt lat="46.6588" lon="5.75419">
        <ele>532.4</ele>
        <time>2022-08-27T11:14:29Z</time>
      </trkpt>
      <trkpt lat="46.65884" lon="5.75422">
        <ele>532.6</ele>
        <time>2022-08-27T11:14:30Z</time>
      </trkpt>
      <trkpt lat="46.65896" lon="5.75426">
        <ele>533</ele>
        <time>2022-08-27T11:14:33Z</time>
      </trkpt>
      <trkpt lat="46.65899" lon="5.75426">
        <ele>533</ele>
        <time>2022-08-27T11:14:34Z</time>
      </trkpt>
      <trkpt lat="46.65903" lon="5.75426">
        <ele>533.4</ele>
        <time>2022-08-27T11:14:35Z</time>
      </trkpt>
      <trkpt lat="46.65918" lon="5.75429">
        <ele>535</ele>
        <time>2022-08-27T11:14:39Z</time>
      </trkpt>
      <trkpt lat="46.65925" lon="5.75431">
        <ele>535.8</ele>
        <time>2022-08-27T11:14:41Z</time>
      </trkpt>
      <trkpt lat="46.65928" lon="5.75433">
        <ele>536</ele>
        <time>2022-08-27T11:14:42Z</time>
      </trkpt>
      <trkpt lat="46.65945" lon="5.75439">
        <ele>537.2</ele>
        <time>2022-08-27T11:14:46Z</time>
      </trkpt>
      <trkpt lat="46.65964" lon="5.75451">
        <ele>538</ele>
        <time>2022-08-27T11:14:51Z</time>
      </trkpt>
      <trkpt lat="46.65973" lon="5.75455">
        <ele>538.2</ele>
        <time>2022-08-27T11:14:53Z</time>
      </trkpt>
      <trkpt lat="46.65999" lon="5.75469">
        <ele>539.4</ele>
        <time>2022-08-27T11:14:59Z</time>
      </trkpt>
      <trkpt lat="46.66003" lon="5.75471">
        <ele>539.6</ele>
        <time>2022-08-27T11:15:00Z</time>
      </trkpt>
      <trkpt lat="46.66036" lon="5.75489">
        <ele>540.2</ele>
        <time>2022-08-27T11:15:07Z</time>
      </trkpt>
      <trkpt lat="46.66046" lon="5.75495">
        <ele>540.2</ele>
        <time>2022-08-27T11:15:09Z</time>
      </trkpt>
      <trkpt lat="46.66089" lon="5.75519">
        <ele>539.8</ele>
        <time>2022-08-27T11:15:17Z</time>
      </trkpt>
      <trkpt lat="46.66105" lon="5.75528">
        <ele>540</ele>
        <time>2022-08-27T11:15:20Z</time>
      </trkpt>
      <trkpt lat="46.6612" lon="5.75538">
        <ele>540.4</ele>
        <time>2022-08-27T11:15:23Z</time>
      </trkpt>
      <trkpt lat="46.66125" lon="5.75541">
        <ele>540.4</ele>
        <time>2022-08-27T11:15:24Z</time>
      </trkpt>
      <trkpt lat="46.66171" lon="5.75566">
        <ele>541.4</ele>
        <time>2022-08-27T11:15:33Z</time>
      </trkpt>
      <trkpt lat="46.66176" lon="5.75569">
        <ele>541.6</ele>
        <time>2022-08-27T11:15:34Z</time>
      </trkpt>
      <trkpt lat="46.66216" lon="5.75591">
        <ele>542.4</ele>
        <time>2022-08-27T11:15:42Z</time>
      </trkpt>
      <trkpt lat="46.66233" lon="5.75599">
        <ele>542.6</ele>
        <time>2022-08-27T11:15:45Z</time>
      </trkpt>
      <trkpt lat="46.66265" lon="5.75611">
        <ele>542.4</ele>
        <time>2022-08-27T11:15:50Z</time>
      </trkpt>
      <trkpt lat="46.6631" lon="5.75636">
        <ele>542.2</ele>
        <time>2022-08-27T11:15:57Z</time>
      </trkpt>
      <trkpt lat="46.66342" lon="5.75656">
        <ele>542</ele>
        <time>2022-08-27T11:16:02Z</time>
      </trkpt>
      <trkpt lat="46.66361" lon="5.75663">
        <ele>542</ele>
        <time>2022-08-27T11:16:05Z</time>
      </trkpt>
      <trkpt lat="46.66407" lon="5.75674">
        <ele>542</ele>
        <time>2022-08-27T11:16:12Z</time>
      </trkpt>
      <trkpt lat="46.66414" lon="5.75677">
        <ele>542</ele>
        <time>2022-08-27T11:16:13Z</time>
      </trkpt>
      <trkpt lat="46.66462" lon="5.75702">
        <ele>542.4</ele>
        <time>2022-08-27T11:16:21Z</time>
      </trkpt>
      <trkpt lat="46.66518" lon="5.75731">
        <ele>542.4</ele>
        <time>2022-08-27T11:16:30Z</time>
      </trkpt>
      <trkpt lat="46.6653" lon="5.75735">
        <ele>542.6</ele>
        <time>2022-08-27T11:16:32Z</time>
      </trkpt>
      <trkpt lat="46.66589" lon="5.75754">
        <ele>542.6</ele>
        <time>2022-08-27T11:16:41Z</time>
      </trkpt>
      <trkpt lat="46.66595" lon="5.75756">
        <ele>542.6</ele>
        <time>2022-08-27T11:16:42Z</time>
      </trkpt>
      <trkpt lat="46.66636" lon="5.75766">
        <ele>542.8</ele>
        <time>2022-08-27T11:16:48Z</time>
      </trkpt>
      <trkpt lat="46.66648" lon="5.75772">
        <ele>542.8</ele>
        <time>2022-08-27T11:16:50Z</time>
      </trkpt>
      <trkpt lat="46.66664" lon="5.75786">
        <ele>542.8</ele>
        <time>2022-08-27T11:16:53Z</time>
      </trkpt>
      <trkpt lat="46.66673" lon="5.75796">
        <ele>543</ele>
        <time>2022-08-27T11:16:55Z</time>
      </trkpt>
      <trkpt lat="46.66684" lon="5.75814">
        <ele>543.2</ele>
        <time>2022-08-27T11:16:58Z</time>
      </trkpt>
      <trkpt lat="46.66695" lon="5.75831">
        <ele>543.8</ele>
        <time>2022-08-27T11:17:01Z</time>
      </trkpt>
      <trkpt lat="46.66705" lon="5.75846">
        <ele>545</ele>
        <time>2022-08-27T11:17:04Z</time>
      </trkpt>
      <trkpt lat="46.66708" lon="5.7585">
        <ele>545.2</ele>
        <time>2022-08-27T11:17:05Z</time>
      </trkpt>
      <trkpt lat="46.66716" lon="5.7586">
        <ele>546.4</ele>
        <time>2022-08-27T11:17:07Z</time>
      </trkpt>
      <trkpt lat="46.66726" lon="5.75876">
        <ele>547.8</ele>
        <time>2022-08-27T11:17:10Z</time>
      </trkpt>
      <trkpt lat="46.66732" lon="5.75888">
        <ele>548.4</ele>
        <time>2022-08-27T11:17:12Z</time>
      </trkpt>
      <trkpt lat="46.66735" lon="5.75893">
        <ele>549</ele>
        <time>2022-08-27T11:17:13Z</time>
      </trkpt>
      <trkpt lat="46.66739" lon="5.75899">
        <ele>549.2</ele>
        <time>2022-08-27T11:17:14Z</time>
      </trkpt>
      <trkpt lat="46.66755" lon="5.75915">
        <ele>549.8</ele>
        <time>2022-08-27T11:17:18Z</time>
      </trkpt>
      <trkpt lat="46.66759" lon="5.7592">
        <ele>549.8</ele>
        <time>2022-08-27T11:17:19Z</time>
      </trkpt>
      <trkpt lat="46.66766" lon="5.75932">
        <ele>550</ele>
        <time>2022-08-27T11:17:21Z</time>
      </trkpt>
      <trkpt lat="46.66768" lon="5.7594">
        <ele>550</ele>
        <time>2022-08-27T11:17:22Z</time>
      </trkpt>
      <trkpt lat="46.66768" lon="5.75948">
        <ele>550</ele>
        <time>2022-08-27T11:17:23Z</time>
      </trkpt>
      <trkpt lat="46.66765" lon="5.75965">
        <ele>550.2</ele>
        <time>2022-08-27T11:17:25Z</time>
      </trkpt>
      <trkpt lat="46.66754" lon="5.76017">
        <ele>550</ele>
        <time>2022-08-27T11:17:31Z</time>
      </trkpt>
      <trkpt lat="46.66744" lon="5.76092">
        <ele>550</ele>
        <time>2022-08-27T11:17:39Z</time>
      </trkpt>
      <trkpt lat="46.66736" lon="5.76174">
        <ele>549.6</ele>
        <time>2022-08-27T11:17:47Z</time>
      </trkpt>
      <trkpt lat="46.66734" lon="5.76185">
        <ele>549.4</ele>
        <time>2022-08-27T11:17:48Z</time>
      </trkpt>
      <trkpt lat="46.66731" lon="5.76217">
        <ele>549</ele>
        <time>2022-08-27T11:17:51Z</time>
      </trkpt>
      <trkpt lat="46.66723" lon="5.76285">
        <ele>548.4</ele>
        <time>2022-08-27T11:17:57Z</time>
      </trkpt>
      <trkpt lat="46.66718" lon="5.76337">
        <ele>547.8</ele>
        <time>2022-08-27T11:18:01Z</time>
      </trkpt>
      <trkpt lat="46.66716" lon="5.76361">
        <ele>547</ele>
        <time>2022-08-27T11:18:03Z</time>
      </trkpt>
      <trkpt lat="46.66712" lon="5.76389">
        <ele>546.4</ele>
        <time>2022-08-27T11:18:05Z</time>
      </trkpt>
      <trkpt lat="46.66707" lon="5.76432">
        <ele>545.2</ele>
        <time>2022-08-27T11:18:08Z</time>
      </trkpt>
      <trkpt lat="46.66705" lon="5.76461">
        <ele>544.2</ele>
        <time>2022-08-27T11:18:10Z</time>
      </trkpt>
      <trkpt lat="46.667" lon="5.76505">
        <ele>543</ele>
        <time>2022-08-27T11:18:13Z</time>
      </trkpt>
      <trkpt lat="46.66697" lon="5.76523">
        <ele>542.2</ele>
        <time>2022-08-27T11:18:14Z</time>
      </trkpt>
      <trkpt lat="46.66694" lon="5.76552">
        <ele>541.2</ele>
        <time>2022-08-27T11:18:16Z</time>
      </trkpt>
      <trkpt lat="46.66693" lon="5.76568">
        <ele>540</ele>
        <time>2022-08-27T11:18:17Z</time>
      </trkpt>
      <trkpt lat="46.66688" lon="5.76616">
        <ele>538.6</ele>
        <time>2022-08-27T11:18:20Z</time>
      </trkpt>
      <trkpt lat="46.66683" lon="5.76665">
        <ele>537.2</ele>
        <time>2022-08-27T11:18:23Z</time>
      </trkpt>
      <trkpt lat="46.66678" lon="5.76704">
        <ele>535.8</ele>
        <time>2022-08-27T11:18:26Z</time>
      </trkpt>
      <trkpt lat="46.66677" lon="5.76724">
        <ele>535.2</ele>
        <time>2022-08-27T11:18:28Z</time>
      </trkpt>
      <trkpt lat="46.66676" lon="5.7673">
        <ele>535</ele>
        <time>2022-08-27T11:18:29Z</time>
      </trkpt>
      <trkpt lat="46.66675" lon="5.76734">
        <ele>534.8</ele>
        <time>2022-08-27T11:18:30Z</time>
      </trkpt>
      <trkpt lat="46.66668" lon="5.76755">
        <ele>534.4</ele>
        <time>2022-08-27T11:18:34Z</time>
      </trkpt>
      <trkpt lat="46.66671" lon="5.76761">
        <ele>534.2</ele>
        <time>2022-08-27T11:18:36Z</time>
      </trkpt>
      <trkpt lat="46.66677" lon="5.76755">
        <ele>534</ele>
        <time>2022-08-27T11:18:38Z</time>
      </trkpt>
      <trkpt lat="46.66689" lon="5.76746">
        <ele>534.2</ele>
        <time>2022-08-27T11:18:40Z</time>
      </trkpt>
      <trkpt lat="46.66696" lon="5.76742">
        <ele>534.2</ele>
        <time>2022-08-27T11:18:41Z</time>
      </trkpt>
      <trkpt lat="46.66703" lon="5.7674">
        <ele>534</ele>
        <time>2022-08-27T11:18:42Z</time>
      </trkpt>
      <trkpt lat="46.66728" lon="5.76739">
        <ele>533.8</ele>
        <time>2022-08-27T11:18:45Z</time>
      </trkpt>
      <trkpt lat="46.66746" lon="5.76743">
        <ele>533</ele>
        <time>2022-08-27T11:18:47Z</time>
      </trkpt>
      <trkpt lat="46.66764" lon="5.76751">
        <ele>531.6</ele>
        <time>2022-08-27T11:18:49Z</time>
      </trkpt>
      <trkpt lat="46.66792" lon="5.76762">
        <ele>530.2</ele>
        <time>2022-08-27T11:18:52Z</time>
      </trkpt>
      <trkpt lat="46.66831" lon="5.76777">
        <ele>529</ele>
        <time>2022-08-27T11:18:56Z</time>
      </trkpt>
      <trkpt lat="46.6684" lon="5.7678">
        <ele>528.8</ele>
        <time>2022-08-27T11:18:57Z</time>
      </trkpt>
      <trkpt lat="46.66859" lon="5.76788">
        <ele>527.8</ele>
        <time>2022-08-27T11:18:59Z</time>
      </trkpt>
      <trkpt lat="46.66896" lon="5.76803">
        <ele>526.8</ele>
        <time>2022-08-27T11:19:03Z</time>
      </trkpt>
      <trkpt lat="46.66922" lon="5.76812">
        <ele>525.6</ele>
        <time>2022-08-27T11:19:06Z</time>
      </trkpt>
      <trkpt lat="46.66982" lon="5.76836">
        <ele>525.8</ele>
        <time>2022-08-27T11:19:13Z</time>
      </trkpt>
      <trkpt lat="46.66991" lon="5.76839">
        <ele>525.8</ele>
        <time>2022-08-27T11:19:14Z</time>
      </trkpt>
      <trkpt lat="46.67051" lon="5.76862">
        <ele>524.8</ele>
        <time>2022-08-27T11:19:21Z</time>
      </trkpt>
      <trkpt lat="46.67059" lon="5.76865">
        <ele>524.6</ele>
        <time>2022-08-27T11:19:22Z</time>
      </trkpt>
      <trkpt lat="46.67076" lon="5.76872">
        <ele>523.8</ele>
        <time>2022-08-27T11:19:24Z</time>
      </trkpt>
      <trkpt lat="46.67093" lon="5.76878">
        <ele>523.6</ele>
        <time>2022-08-27T11:19:26Z</time>
      </trkpt>
      <trkpt lat="46.67149" lon="5.76901">
        <ele>522.4</ele>
        <time>2022-08-27T11:19:33Z</time>
      </trkpt>
      <trkpt lat="46.67157" lon="5.76904">
        <ele>522.2</ele>
        <time>2022-08-27T11:19:34Z</time>
      </trkpt>
      <trkpt lat="46.67212" lon="5.76926">
        <ele>522</ele>
        <time>2022-08-27T11:19:41Z</time>
      </trkpt>
      <trkpt lat="46.67236" lon="5.76936">
        <ele>522</ele>
        <time>2022-08-27T11:19:44Z</time>
      </trkpt>
      <trkpt lat="46.6728" lon="5.76964">
        <ele>522.4</ele>
        <time>2022-08-27T11:19:50Z</time>
      </trkpt>
      <trkpt lat="46.67317" lon="5.77007">
        <ele>523</ele>
        <time>2022-08-27T11:19:56Z</time>
      </trkpt>
      <trkpt lat="46.67358" lon="5.77062">
        <ele>522.6</ele>
        <time>2022-08-27T11:20:03Z</time>
      </trkpt>
      <trkpt lat="46.67369" lon="5.77077">
        <ele>522.2</ele>
        <time>2022-08-27T11:20:05Z</time>
      </trkpt>
      <trkpt lat="46.67412" lon="5.77133">
        <ele>521.6</ele>
        <time>2022-08-27T11:20:12Z</time>
      </trkpt>
      <trkpt lat="46.67435" lon="5.77162">
        <ele>521.6</ele>
        <time>2022-08-27T11:20:16Z</time>
      </trkpt>
      <trkpt lat="46.67459" lon="5.77194">
        <ele>521.6</ele>
        <time>2022-08-27T11:20:20Z</time>
      </trkpt>
      <trkpt lat="46.675" lon="5.77247">
        <ele>521.2</ele>
        <time>2022-08-27T11:20:27Z</time>
      </trkpt>
      <trkpt lat="46.67506" lon="5.77254">
        <ele>521.2</ele>
        <time>2022-08-27T11:20:28Z</time>
      </trkpt>
      <trkpt lat="46.67546" lon="5.77307">
        <ele>520.8</ele>
        <time>2022-08-27T11:20:35Z</time>
      </trkpt>
      <trkpt lat="46.67558" lon="5.77322">
        <ele>520.4</ele>
        <time>2022-08-27T11:20:37Z</time>
      </trkpt>
      <trkpt lat="46.67563" lon="5.77329">
        <ele>520.4</ele>
        <time>2022-08-27T11:20:38Z</time>
      </trkpt>
      <trkpt lat="46.67606" lon="5.77384">
        <ele>520.4</ele>
        <time>2022-08-27T11:20:46Z</time>
      </trkpt>
      <trkpt lat="46.67616" lon="5.77398">
        <ele>520.6</ele>
        <time>2022-08-27T11:20:48Z</time>
      </trkpt>
      <trkpt lat="46.67625" lon="5.77412">
        <ele>520.8</ele>
        <time>2022-08-27T11:20:50Z</time>
      </trkpt>
      <trkpt lat="46.6764" lon="5.77443">
        <ele>521</ele>
        <time>2022-08-27T11:20:54Z</time>
      </trkpt>
      <trkpt lat="46.67656" lon="5.77497">
        <ele>521</ele>
        <time>2022-08-27T11:21:00Z</time>
      </trkpt>
      <trkpt lat="46.67669" lon="5.7758">
        <ele>521</ele>
        <time>2022-08-27T11:21:08Z</time>
      </trkpt>
      <trkpt lat="46.67681" lon="5.77666">
        <ele>521</ele>
        <time>2022-08-27T11:21:16Z</time>
      </trkpt>
      <trkpt lat="46.67684" lon="5.77687">
        <ele>521</ele>
        <time>2022-08-27T11:21:18Z</time>
      </trkpt>
      <trkpt lat="46.67697" lon="5.77774">
        <ele>520.8</ele>
        <time>2022-08-27T11:21:26Z</time>
      </trkpt>
      <trkpt lat="46.67698" lon="5.77785">
        <ele>520.8</ele>
        <time>2022-08-27T11:21:27Z</time>
      </trkpt>
      <trkpt lat="46.67711" lon="5.77865">
        <ele>520.2</ele>
        <time>2022-08-27T11:21:34Z</time>
      </trkpt>
      <trkpt lat="46.67714" lon="5.77888">
        <ele>520.2</ele>
        <time>2022-08-27T11:21:36Z</time>
      </trkpt>
      <trkpt lat="46.67726" lon="5.77943">
        <ele>520.2</ele>
        <time>2022-08-27T11:21:41Z</time>
      </trkpt>
      <trkpt lat="46.6773" lon="5.77953">
        <ele>520.2</ele>
        <time>2022-08-27T11:21:42Z</time>
      </trkpt>
      <trkpt lat="46.67739" lon="5.7797">
        <ele>520.2</ele>
        <time>2022-08-27T11:21:44Z</time>
      </trkpt>
      <trkpt lat="46.67751" lon="5.77985">
        <ele>520.4</ele>
        <time>2022-08-27T11:21:46Z</time>
      </trkpt>
      <trkpt lat="46.67784" lon="5.78008">
        <ele>520.2</ele>
        <time>2022-08-27T11:21:51Z</time>
      </trkpt>
      <trkpt lat="46.67798" lon="5.78011">
        <ele>520.4</ele>
        <time>2022-08-27T11:21:53Z</time>
      </trkpt>
      <trkpt lat="46.67812" lon="5.78011">
        <ele>520.4</ele>
        <time>2022-08-27T11:21:55Z</time>
      </trkpt>
      <trkpt lat="46.67872" lon="5.77997">
        <ele>520.2</ele>
        <time>2022-08-27T11:22:03Z</time>
      </trkpt>
      <trkpt lat="46.67909" lon="5.77989">
        <ele>519.6</ele>
        <time>2022-08-27T11:22:08Z</time>
      </trkpt>
      <trkpt lat="46.6793" lon="5.77985">
        <ele>519.8</ele>
        <time>2022-08-27T11:22:11Z</time>
      </trkpt>
      <trkpt lat="46.67973" lon="5.77969">
        <ele>519.6</ele>
        <time>2022-08-27T11:22:17Z</time>
      </trkpt>
      <trkpt lat="46.68012" lon="5.7794">
        <ele>519.2</ele>
        <time>2022-08-27T11:22:23Z</time>
      </trkpt>
      <trkpt lat="46.6803" lon="5.77924">
        <ele>518.8</ele>
        <time>2022-08-27T11:22:26Z</time>
      </trkpt>
      <trkpt lat="46.68057" lon="5.77899">
        <ele>518.4</ele>
        <time>2022-08-27T11:22:31Z</time>
      </trkpt>
      <trkpt lat="46.68073" lon="5.77885">
        <ele>518.4</ele>
        <time>2022-08-27T11:22:34Z</time>
      </trkpt>
      <trkpt lat="46.68089" lon="5.77874">
        <ele>518.6</ele>
        <time>2022-08-27T11:22:37Z</time>
      </trkpt>
      <trkpt lat="46.68121" lon="5.7786">
        <ele>519.6</ele>
        <time>2022-08-27T11:22:43Z</time>
      </trkpt>
      <trkpt lat="46.68126" lon="5.77859">
        <ele>520</ele>
        <time>2022-08-27T11:22:44Z</time>
      </trkpt>
      <trkpt lat="46.68137" lon="5.77858">
        <ele>521</ele>
        <time>2022-08-27T11:22:46Z</time>
      </trkpt>
      <trkpt lat="46.68154" lon="5.77859">
        <ele>522.2</ele>
        <time>2022-08-27T11:22:49Z</time>
      </trkpt>
      <trkpt lat="46.68181" lon="5.7786">
        <ele>523.2</ele>
        <time>2022-08-27T11:22:54Z</time>
      </trkpt>
      <trkpt lat="46.68198" lon="5.77861">
        <ele>524</ele>
        <time>2022-08-27T11:22:57Z</time>
      </trkpt>
      <trkpt lat="46.68209" lon="5.77861">
        <ele>524.4</ele>
        <time>2022-08-27T11:22:59Z</time>
      </trkpt>
      <trkpt lat="46.6826" lon="5.77862">
        <ele>525.4</ele>
        <time>2022-08-27T11:23:08Z</time>
      </trkpt>
      <trkpt lat="46.68271" lon="5.77862">
        <ele>525.4</ele>
        <time>2022-08-27T11:23:10Z</time>
      </trkpt>
      <trkpt lat="46.68322" lon="5.77863">
        <ele>526</ele>
        <time>2022-08-27T11:23:19Z</time>
      </trkpt>
      <trkpt lat="46.68366" lon="5.77863">
        <ele>525.8</ele>
        <time>2022-08-27T11:23:27Z</time>
      </trkpt>
      <trkpt lat="46.68404" lon="5.77863">
        <ele>526.8</ele>
        <time>2022-08-27T11:23:34Z</time>
      </trkpt>
      <trkpt lat="46.68426" lon="5.77864">
        <ele>527.4</ele>
        <time>2022-08-27T11:23:38Z</time>
      </trkpt>
      <trkpt lat="46.6846" lon="5.7787">
        <ele>527.8</ele>
        <time>2022-08-27T11:23:44Z</time>
      </trkpt>
      <trkpt lat="46.68471" lon="5.77873">
        <ele>528.2</ele>
        <time>2022-08-27T11:23:46Z</time>
      </trkpt>
      <trkpt lat="46.68519" lon="5.77894">
        <ele>529</ele>
        <time>2022-08-27T11:23:55Z</time>
      </trkpt>
      <trkpt lat="46.68572" lon="5.77918">
        <ele>529.6</ele>
        <time>2022-08-27T11:24:05Z</time>
      </trkpt>
      <trkpt lat="46.68583" lon="5.77923">
        <ele>530</ele>
        <time>2022-08-27T11:24:07Z</time>
      </trkpt>
      <trkpt lat="46.68609" lon="5.77935">
        <ele>531.4</ele>
        <time>2022-08-27T11:24:12Z</time>
      </trkpt>
      <trkpt lat="46.68619" lon="5.7794">
        <ele>531.8</ele>
        <time>2022-08-27T11:24:14Z</time>
      </trkpt>
      <trkpt lat="46.6865" lon="5.77953">
        <ele>532.6</ele>
        <time>2022-08-27T11:24:20Z</time>
      </trkpt>
      <trkpt lat="46.68687" lon="5.77969">
        <ele>532.8</ele>
        <time>2022-08-27T11:24:27Z</time>
      </trkpt>
      <trkpt lat="46.68736" lon="5.7799">
        <ele>533.4</ele>
        <time>2022-08-27T11:24:36Z</time>
      </trkpt>
      <trkpt lat="46.68747" lon="5.77995">
        <ele>533.6</ele>
        <time>2022-08-27T11:24:38Z</time>
      </trkpt>
      <trkpt lat="46.68783" lon="5.78011">
        <ele>534.4</ele>
        <time>2022-08-27T11:24:44Z</time>
      </trkpt>
      <trkpt lat="46.68838" lon="5.78035">
        <ele>533.8</ele>
        <time>2022-08-27T11:24:52Z</time>
      </trkpt>
      <trkpt lat="46.68852" lon="5.78042">
        <ele>533.6</ele>
        <time>2022-08-27T11:24:54Z</time>
      </trkpt>
      <trkpt lat="46.68905" lon="5.78064">
        <ele>532.8</ele>
        <time>2022-08-27T11:25:01Z</time>
      </trkpt>
      <trkpt lat="46.68913" lon="5.78067">
        <ele>532.4</ele>
        <time>2022-08-27T11:25:02Z</time>
      </trkpt>
      <trkpt lat="46.6896" lon="5.78088">
        <ele>531.4</ele>
        <time>2022-08-27T11:25:08Z</time>
      </trkpt>
      <trkpt lat="46.68968" lon="5.78091">
        <ele>531.2</ele>
        <time>2022-08-27T11:25:09Z</time>
      </trkpt>
      <trkpt lat="46.69017" lon="5.78113">
        <ele>530.2</ele>
        <time>2022-08-27T11:25:16Z</time>
      </trkpt>
      <trkpt lat="46.69022" lon="5.78117">
        <ele>530</ele>
        <time>2022-08-27T11:25:17Z</time>
      </trkpt>
      <trkpt lat="46.69026" lon="5.78129">
        <ele>529.8</ele>
        <time>2022-08-27T11:25:19Z</time>
      </trkpt>
      <trkpt lat="46.69022" lon="5.78143">
        <ele>529.6</ele>
        <time>2022-08-27T11:25:21Z</time>
      </trkpt>
      <trkpt lat="46.69024" lon="5.78148">
        <ele>529.4</ele>
        <time>2022-08-27T11:25:22Z</time>
      </trkpt>
      <trkpt lat="46.69027" lon="5.78154">
        <ele>529.2</ele>
        <time>2022-08-27T11:25:23Z</time>
      </trkpt>
      <trkpt lat="46.69038" lon="5.78159">
        <ele>528.8</ele>
        <time>2022-08-27T11:25:25Z</time>
      </trkpt>
      <trkpt lat="46.69043" lon="5.78161">
        <ele>528.4</ele>
        <time>2022-08-27T11:25:26Z</time>
      </trkpt>
      <trkpt lat="46.69059" lon="5.78173">
        <ele>528.2</ele>
        <time>2022-08-27T11:25:28Z</time>
      </trkpt>
      <trkpt lat="46.69064" lon="5.78179">
        <ele>528</ele>
        <time>2022-08-27T11:25:29Z</time>
      </trkpt>
      <trkpt lat="46.69104" lon="5.78223">
        <ele>527</ele>
        <time>2022-08-27T11:25:35Z</time>
      </trkpt>
      <trkpt lat="46.69132" lon="5.78256">
        <ele>526.2</ele>
        <time>2022-08-27T11:25:39Z</time>
      </trkpt>
      <trkpt lat="46.69146" lon="5.78273">
        <ele>525.6</ele>
        <time>2022-08-27T11:25:41Z</time>
      </trkpt>
      <trkpt lat="46.69161" lon="5.78292">
        <ele>525</ele>
        <time>2022-08-27T11:25:43Z</time>
      </trkpt>
      <trkpt lat="46.69184" lon="5.78319">
        <ele>524</ele>
        <time>2022-08-27T11:25:46Z</time>
      </trkpt>
      <trkpt lat="46.69192" lon="5.78328">
        <ele>523.4</ele>
        <time>2022-08-27T11:25:47Z</time>
      </trkpt>
      <trkpt lat="46.69207" lon="5.78348">
        <ele>522.4</ele>
        <time>2022-08-27T11:25:49Z</time>
      </trkpt>
      <trkpt lat="46.69231" lon="5.78376">
        <ele>521.2</ele>
        <time>2022-08-27T11:25:52Z</time>
      </trkpt>
      <trkpt lat="46.69246" lon="5.78394">
        <ele>520</ele>
        <time>2022-08-27T11:25:54Z</time>
      </trkpt>
      <trkpt lat="46.69276" lon="5.7843">
        <ele>518.6</ele>
        <time>2022-08-27T11:25:58Z</time>
      </trkpt>
      <trkpt lat="46.69305" lon="5.78465">
        <ele>517.4</ele>
        <time>2022-08-27T11:26:02Z</time>
      </trkpt>
      <trkpt lat="46.69319" lon="5.78483">
        <ele>516.8</ele>
        <time>2022-08-27T11:26:04Z</time>
      </trkpt>
      <trkpt lat="46.69326" lon="5.78491">
        <ele>516</ele>
        <time>2022-08-27T11:26:05Z</time>
      </trkpt>
      <trkpt lat="46.69338" lon="5.78505">
        <ele>515.4</ele>
        <time>2022-08-27T11:26:07Z</time>
      </trkpt>
      <trkpt lat="46.69341" lon="5.78514">
        <ele>515.2</ele>
        <time>2022-08-27T11:26:08Z</time>
      </trkpt>
      <trkpt lat="46.69343" lon="5.78523">
        <ele>515</ele>
        <time>2022-08-27T11:26:09Z</time>
      </trkpt>
      <trkpt lat="46.69346" lon="5.78531">
        <ele>514.6</ele>
        <time>2022-08-27T11:26:10Z</time>
      </trkpt>
      <trkpt lat="46.6935" lon="5.78535">
        <ele>514.4</ele>
        <time>2022-08-27T11:26:11Z</time>
      </trkpt>
      <trkpt lat="46.69362" lon="5.78542">
        <ele>513.8</ele>
        <time>2022-08-27T11:26:13Z</time>
      </trkpt>
      <trkpt lat="46.69383" lon="5.78553">
        <ele>513.6</ele>
        <time>2022-08-27T11:26:16Z</time>
      </trkpt>
      <trkpt lat="46.6943" lon="5.78566">
        <ele>512.8</ele>
        <time>2022-08-27T11:26:22Z</time>
      </trkpt>
      <trkpt lat="46.69437" lon="5.78567">
        <ele>512.6</ele>
        <time>2022-08-27T11:26:23Z</time>
      </trkpt>
      <trkpt lat="46.69495" lon="5.78582">
        <ele>511.8</ele>
        <time>2022-08-27T11:26:31Z</time>
      </trkpt>
      <trkpt lat="46.69548" lon="5.786">
        <ele>512.8</ele>
        <time>2022-08-27T11:26:39Z</time>
      </trkpt>
      <trkpt lat="46.69554" lon="5.78603">
        <ele>512.8</ele>
        <time>2022-08-27T11:26:40Z</time>
      </trkpt>
      <trkpt lat="46.69603" lon="5.78625">
        <ele>513.4</ele>
        <time>2022-08-27T11:26:48Z</time>
      </trkpt>
      <trkpt lat="46.69656" lon="5.78641">
        <ele>513.6</ele>
        <time>2022-08-27T11:26:56Z</time>
      </trkpt>
      <trkpt lat="46.69675" lon="5.78648">
        <ele>513.6</ele>
        <time>2022-08-27T11:26:59Z</time>
      </trkpt>
      <trkpt lat="46.69699" lon="5.78661">
        <ele>513.8</ele>
        <time>2022-08-27T11:27:03Z</time>
      </trkpt>
      <trkpt lat="46.69704" lon="5.78662">
        <ele>513.8</ele>
        <time>2022-08-27T11:27:04Z</time>
      </trkpt>
      <trkpt lat="46.6972" lon="5.78662">
        <ele>514.2</ele>
        <time>2022-08-27T11:27:07Z</time>
      </trkpt>
      <trkpt lat="46.6973" lon="5.78666">
        <ele>514.4</ele>
        <time>2022-08-27T11:27:09Z</time>
      </trkpt>
      <trkpt lat="46.69782" lon="5.78683">
        <ele>514.8</ele>
        <time>2022-08-27T11:27:18Z</time>
      </trkpt>
      <trkpt lat="46.69793" lon="5.78686">
        <ele>515</ele>
        <time>2022-08-27T11:27:20Z</time>
      </trkpt>
      <trkpt lat="46.69808" lon="5.7869">
        <ele>515.2</ele>
        <time>2022-08-27T11:27:23Z</time>
      </trkpt>
      <trkpt lat="46.69817" lon="5.78693">
        <ele>515.6</ele>
        <time>2022-08-27T11:27:25Z</time>
      </trkpt>
      <trkpt lat="46.69826" lon="5.78695">
        <ele>516.2</ele>
        <time>2022-08-27T11:27:27Z</time>
      </trkpt>
      <trkpt lat="46.69839" lon="5.78696">
        <ele>517</ele>
        <time>2022-08-27T11:27:30Z</time>
      </trkpt>
      <trkpt lat="46.69843" lon="5.78696">
        <ele>517.2</ele>
        <time>2022-08-27T11:27:31Z</time>
      </trkpt>
      <trkpt lat="46.69861" lon="5.78696">
        <ele>518.4</ele>
        <time>2022-08-27T11:27:35Z</time>
      </trkpt>
      <trkpt lat="46.69871" lon="5.78696">
        <ele>518.6</ele>
        <time>2022-08-27T11:27:37Z</time>
      </trkpt>
      <trkpt lat="46.6989" lon="5.78696">
        <ele>519.6</ele>
        <time>2022-08-27T11:27:41Z</time>
      </trkpt>
      <trkpt lat="46.69919" lon="5.78695">
        <ele>520.4</ele>
        <time>2022-08-27T11:27:47Z</time>
      </trkpt>
      <trkpt lat="46.69924" lon="5.78695">
        <ele>520.6</ele>
        <time>2022-08-27T11:27:48Z</time>
      </trkpt>
      <trkpt lat="46.69963" lon="5.78694">
        <ele>521.2</ele>
        <time>2022-08-27T11:27:55Z</time>
      </trkpt>
      <trkpt lat="46.7002" lon="5.7869">
        <ele>521.8</ele>
        <time>2022-08-27T11:28:05Z</time>
      </trkpt>
      <trkpt lat="46.70024" lon="5.78691">
        <ele>521.8</ele>
        <time>2022-08-27T11:28:06Z</time>
      </trkpt>
      <trkpt lat="46.70065" lon="5.78689">
        <ele>522.2</ele>
        <time>2022-08-27T11:28:13Z</time>
      </trkpt>
      <trkpt lat="46.70117" lon="5.78687">
        <ele>522.8</ele>
        <time>2022-08-27T11:28:22Z</time>
      </trkpt>
      <trkpt lat="46.70124" lon="5.78687">
        <ele>523</ele>
        <time>2022-08-27T11:28:23Z</time>
      </trkpt>
      <trkpt lat="46.70167" lon="5.78685">
        <ele>523</ele>
        <time>2022-08-27T11:28:30Z</time>
      </trkpt>
      <trkpt lat="46.70175" lon="5.78684">
        <ele>523</ele>
        <time>2022-08-27T11:28:31Z</time>
      </trkpt>
      <trkpt lat="46.70229" lon="5.78682">
        <ele>522</ele>
        <time>2022-08-27T11:28:39Z</time>
      </trkpt>
      <trkpt lat="46.70243" lon="5.78681">
        <ele>521.8</ele>
        <time>2022-08-27T11:28:41Z</time>
      </trkpt>
      <trkpt lat="46.70304" lon="5.78679">
        <ele>521.4</ele>
        <time>2022-08-27T11:28:49Z</time>
      </trkpt>
      <trkpt lat="46.70342" lon="5.78678">
        <ele>520.8</ele>
        <time>2022-08-27T11:28:54Z</time>
      </trkpt>
      <trkpt lat="46.70372" lon="5.78678">
        <ele>520.4</ele>
        <time>2022-08-27T11:28:58Z</time>
      </trkpt>
      <trkpt lat="46.70427" lon="5.78675">
        <ele>519.8</ele>
        <time>2022-08-27T11:29:06Z</time>
      </trkpt>
      <trkpt lat="46.70433" lon="5.78675">
        <ele>520</ele>
        <time>2022-08-27T11:29:07Z</time>
      </trkpt>
      <trkpt lat="46.70483" lon="5.78674">
        <ele>520.4</ele>
        <time>2022-08-27T11:29:15Z</time>
      </trkpt>
      <trkpt lat="46.70539" lon="5.78672">
        <ele>521.6</ele>
        <time>2022-08-27T11:29:24Z</time>
      </trkpt>
      <trkpt lat="46.70552" lon="5.78672">
        <ele>521.8</ele>
        <time>2022-08-27T11:29:26Z</time>
      </trkpt>
      <trkpt lat="46.70564" lon="5.78671">
        <ele>521.8</ele>
        <time>2022-08-27T11:29:28Z</time>
      </trkpt>
      <trkpt lat="46.70617" lon="5.78669">
        <ele>522.2</ele>
        <time>2022-08-27T11:29:36Z</time>
      </trkpt>
      <trkpt lat="46.70667" lon="5.78668">
        <ele>522</ele>
        <time>2022-08-27T11:29:44Z</time>
      </trkpt>
      <trkpt lat="46.70724" lon="5.78665">
        <ele>521.6</ele>
        <time>2022-08-27T11:29:53Z</time>
      </trkpt>
      <trkpt lat="46.70731" lon="5.78664">
        <ele>521.6</ele>
        <time>2022-08-27T11:29:54Z</time>
      </trkpt>
      <trkpt lat="46.70761" lon="5.78657">
        <ele>521.6</ele>
        <time>2022-08-27T11:29:59Z</time>
      </trkpt>
      <trkpt lat="46.70778" lon="5.78655">
        <ele>521.8</ele>
        <time>2022-08-27T11:30:02Z</time>
      </trkpt>
      <trkpt lat="46.70835" lon="5.78653">
        <ele>522</ele>
        <time>2022-08-27T11:30:11Z</time>
      </trkpt>
      <trkpt lat="46.70874" lon="5.78653">
        <ele>522</ele>
        <time>2022-08-27T11:30:18Z</time>
      </trkpt>
      <trkpt lat="46.70906" lon="5.78657">
        <ele>522</ele>
        <time>2022-08-27T11:30:23Z</time>
      </trkpt>
      <trkpt lat="46.70947" lon="5.78658">
        <ele>522</ele>
        <time>2022-08-27T11:30:30Z</time>
      </trkpt>
      <trkpt lat="46.71001" lon="5.78657">
        <ele>521.4</ele>
        <time>2022-08-27T11:30:38Z</time>
      </trkpt>
      <trkpt lat="46.71022" lon="5.78657">
        <ele>521</ele>
        <time>2022-08-27T11:30:41Z</time>
      </trkpt>
      <trkpt lat="46.71064" lon="5.78655">
        <ele>520.8</ele>
        <time>2022-08-27T11:30:48Z</time>
      </trkpt>
      <trkpt lat="46.71073" lon="5.78653">
        <ele>520.6</ele>
        <time>2022-08-27T11:30:50Z</time>
      </trkpt>
      <trkpt lat="46.71082" lon="5.78649">
        <ele>520.8</ele>
        <time>2022-08-27T11:30:52Z</time>
      </trkpt>
      <trkpt lat="46.71109" lon="5.78651">
        <ele>521.2</ele>
        <time>2022-08-27T11:30:57Z</time>
      </trkpt>
      <trkpt lat="46.71114" lon="5.78654">
        <ele>521.4</ele>
        <time>2022-08-27T11:30:58Z</time>
      </trkpt>
      <trkpt lat="46.7112" lon="5.78658">
        <ele>521.4</ele>
        <time>2022-08-27T11:30:59Z</time>
      </trkpt>
      <trkpt lat="46.71129" lon="5.7867">
        <ele>521.4</ele>
        <time>2022-08-27T11:31:01Z</time>
      </trkpt>
      <trkpt lat="46.71149" lon="5.78704">
        <ele>521.8</ele>
        <time>2022-08-27T11:31:06Z</time>
      </trkpt>
      <trkpt lat="46.71153" lon="5.78711">
        <ele>521.8</ele>
        <time>2022-08-27T11:31:07Z</time>
      </trkpt>
      <trkpt lat="46.71185" lon="5.78753">
        <ele>522</ele>
        <time>2022-08-27T11:31:14Z</time>
      </trkpt>
      <trkpt lat="46.71198" lon="5.7877">
        <ele>522.4</ele>
        <time>2022-08-27T11:31:17Z</time>
      </trkpt>
      <trkpt lat="46.71237" lon="5.78821">
        <ele>523.2</ele>
        <time>2022-08-27T11:31:26Z</time>
      </trkpt>
      <trkpt lat="46.7127" lon="5.78863">
        <ele>523.6</ele>
        <time>2022-08-27T11:31:34Z</time>
      </trkpt>
      <trkpt lat="46.71286" lon="5.78884">
        <ele>524.2</ele>
        <time>2022-08-27T11:31:38Z</time>
      </trkpt>
      <trkpt lat="46.71302" lon="5.78906">
        <ele>524.6</ele>
        <time>2022-08-27T11:31:42Z</time>
      </trkpt>
      <trkpt lat="46.71337" lon="5.7895">
        <ele>525</ele>
        <time>2022-08-27T11:31:50Z</time>
      </trkpt>
      <trkpt lat="46.71342" lon="5.78956">
        <ele>525.2</ele>
        <time>2022-08-27T11:31:51Z</time>
      </trkpt>
      <trkpt lat="46.71359" lon="5.78978">
        <ele>525.4</ele>
        <time>2022-08-27T11:31:55Z</time>
      </trkpt>
      <trkpt lat="46.71369" lon="5.78991">
        <ele>525.6</ele>
        <time>2022-08-27T11:31:57Z</time>
      </trkpt>
      <trkpt lat="46.71394" lon="5.79023">
        <ele>526</ele>
        <time>2022-08-27T11:32:02Z</time>
      </trkpt>
      <trkpt lat="46.71438" lon="5.79081">
        <ele>526.2</ele>
        <time>2022-08-27T11:32:11Z</time>
      </trkpt>
      <trkpt lat="46.71482" lon="5.79138">
        <ele>526.2</ele>
        <time>2022-08-27T11:32:20Z</time>
      </trkpt>
      <trkpt lat="46.71493" lon="5.79152">
        <ele>526.2</ele>
        <time>2022-08-27T11:32:22Z</time>
      </trkpt>
      <trkpt lat="46.71526" lon="5.79195">
        <ele>526.4</ele>
        <time>2022-08-27T11:32:29Z</time>
      </trkpt>
      <trkpt lat="46.7154" lon="5.79215">
        <ele>526.6</ele>
        <time>2022-08-27T11:32:32Z</time>
      </trkpt>
      <trkpt lat="46.71584" lon="5.79271">
        <ele>527</ele>
        <time>2022-08-27T11:32:41Z</time>
      </trkpt>
      <trkpt lat="46.71589" lon="5.79277">
        <ele>527</ele>
        <time>2022-08-27T11:32:42Z</time>
      </trkpt>
      <trkpt lat="46.71631" lon="5.79331">
        <ele>527.2</ele>
        <time>2022-08-27T11:32:51Z</time>
      </trkpt>
      <trkpt lat="46.71637" lon="5.79338">
        <ele>527.2</ele>
        <time>2022-08-27T11:32:52Z</time>
      </trkpt>
      <trkpt lat="46.71661" lon="5.7937">
        <ele>527.6</ele>
        <time>2022-08-27T11:32:57Z</time>
      </trkpt>
      <trkpt lat="46.7168" lon="5.79395">
        <ele>527.8</ele>
        <time>2022-08-27T11:33:01Z</time>
      </trkpt>
      <trkpt lat="46.71724" lon="5.79451">
        <ele>527.6</ele>
        <time>2022-08-27T11:33:10Z</time>
      </trkpt>
      <trkpt lat="46.71728" lon="5.79456">
        <ele>527.8</ele>
        <time>2022-08-27T11:33:11Z</time>
      </trkpt>
      <trkpt lat="46.7177" lon="5.79506">
        <ele>527.2</ele>
        <time>2022-08-27T11:33:19Z</time>
      </trkpt>
      <trkpt lat="46.71775" lon="5.79511">
        <ele>527.2</ele>
        <time>2022-08-27T11:33:20Z</time>
      </trkpt>
      <trkpt lat="46.71795" lon="5.79529">
        <ele>527</ele>
        <time>2022-08-27T11:33:24Z</time>
      </trkpt>
      <trkpt lat="46.71797" lon="5.79541">
        <ele>527</ele>
        <time>2022-08-27T11:33:26Z</time>
      </trkpt>
      <trkpt lat="46.71795" lon="5.79548">
        <ele>527</ele>
        <time>2022-08-27T11:33:27Z</time>
      </trkpt>
      <trkpt lat="46.71792" lon="5.79554">
        <ele>527</ele>
        <time>2022-08-27T11:33:28Z</time>
      </trkpt>
      <trkpt lat="46.71785" lon="5.79563">
        <ele>527</ele>
        <time>2022-08-27T11:33:30Z</time>
      </trkpt>
      <trkpt lat="46.71754" lon="5.79582">
        <ele>527.2</ele>
        <time>2022-08-27T11:33:36Z</time>
      </trkpt>
      <trkpt lat="46.71748" lon="5.79585">
        <ele>527.4</ele>
        <time>2022-08-27T11:33:37Z</time>
      </trkpt>
      <trkpt lat="46.71717" lon="5.79597">
        <ele>528</ele>
        <time>2022-08-27T11:33:42Z</time>
      </trkpt>
      <trkpt lat="46.71712" lon="5.796">
        <ele>528</ele>
        <time>2022-08-27T11:33:43Z</time>
      </trkpt>
      <trkpt lat="46.71686" lon="5.79618">
        <ele>528.4</ele>
        <time>2022-08-27T11:33:48Z</time>
      </trkpt>
      <trkpt lat="46.71675" lon="5.79623">
        <ele>528.8</ele>
        <time>2022-08-27T11:33:50Z</time>
      </trkpt>
      <trkpt lat="46.71648" lon="5.79634">
        <ele>529.4</ele>
        <time>2022-08-27T11:33:55Z</time>
      </trkpt>
      <trkpt lat="46.71642" lon="5.79636">
        <ele>529.4</ele>
        <time>2022-08-27T11:33:56Z</time>
      </trkpt>
      <trkpt lat="46.7163" lon="5.79638">
        <ele>530</ele>
        <time>2022-08-27T11:33:58Z</time>
      </trkpt>
      <trkpt lat="46.71615" lon="5.7964">
        <ele>530.4</ele>
        <time>2022-08-27T11:34:01Z</time>
      </trkpt>
      <trkpt lat="46.71586" lon="5.79641">
        <ele>531</ele>
        <time>2022-08-27T11:34:06Z</time>
      </trkpt>
      <trkpt lat="46.71564" lon="5.79645">
        <ele>531.4</ele>
        <time>2022-08-27T11:34:10Z</time>
      </trkpt>
      <trkpt lat="46.71541" lon="5.79652">
        <ele>532</ele>
        <time>2022-08-27T11:34:14Z</time>
      </trkpt>
      <trkpt lat="46.71531" lon="5.79658">
        <ele>532.2</ele>
        <time>2022-08-27T11:34:16Z</time>
      </trkpt>
      <trkpt lat="46.71527" lon="5.79661">
        <ele>532.2</ele>
        <time>2022-08-27T11:34:17Z</time>
      </trkpt>
      <trkpt lat="46.71502" lon="5.79686">
        <ele>533</ele>
        <time>2022-08-27T11:34:23Z</time>
      </trkpt>
      <trkpt lat="46.71495" lon="5.79695">
        <ele>533.4</ele>
        <time>2022-08-27T11:34:25Z</time>
      </trkpt>
      <trkpt lat="46.71485" lon="5.79708">
        <ele>534.2</ele>
        <time>2022-08-27T11:34:28Z</time>
      </trkpt>
      <trkpt lat="46.71481" lon="5.79712">
        <ele>534.4</ele>
        <time>2022-08-27T11:34:29Z</time>
      </trkpt>
      <trkpt lat="46.71466" lon="5.79728">
        <ele>535.2</ele>
        <time>2022-08-27T11:34:33Z</time>
      </trkpt>
      <trkpt lat="46.71451" lon="5.79744">
        <ele>535.8</ele>
        <time>2022-08-27T11:34:37Z</time>
      </trkpt>
      <trkpt lat="46.7144" lon="5.79755">
        <ele>536.2</ele>
        <time>2022-08-27T11:34:40Z</time>
      </trkpt>
      <trkpt lat="46.71436" lon="5.7976">
        <ele>536.4</ele>
        <time>2022-08-27T11:34:41Z</time>
      </trkpt>
      <trkpt lat="46.71432" lon="5.79764">
        <ele>536.6</ele>
        <time>2022-08-27T11:34:42Z</time>
      </trkpt>
      <trkpt lat="46.71428" lon="5.79768">
        <ele>536.8</ele>
        <time>2022-08-27T11:34:43Z</time>
      </trkpt>
      <trkpt lat="46.71416" lon="5.79778">
        <ele>537.6</ele>
        <time>2022-08-27T11:34:46Z</time>
      </trkpt>
      <trkpt lat="46.71399" lon="5.79795">
        <ele>538.6</ele>
        <time>2022-08-27T11:34:51Z</time>
      </trkpt>
      <trkpt lat="46.71396" lon="5.79799">
        <ele>538.6</ele>
        <time>2022-08-27T11:34:52Z</time>
      </trkpt>
      <trkpt lat="46.71383" lon="5.79813">
        <ele>540</ele>
        <time>2022-08-27T11:34:56Z</time>
      </trkpt>
      <trkpt lat="46.71372" lon="5.79823">
        <ele>540.4</ele>
        <time>2022-08-27T11:34:59Z</time>
      </trkpt>
      <trkpt lat="46.71363" lon="5.79832">
        <ele>541</ele>
        <time>2022-08-27T11:35:02Z</time>
      </trkpt>
      <trkpt lat="46.7135" lon="5.79846">
        <ele>542.2</ele>
        <time>2022-08-27T11:35:06Z</time>
      </trkpt>
      <trkpt lat="46.71341" lon="5.79858">
        <ele>542.8</ele>
        <time>2022-08-27T11:35:09Z</time>
      </trkpt>
      <trkpt lat="46.71336" lon="5.79865">
        <ele>543.2</ele>
        <time>2022-08-27T11:35:11Z</time>
      </trkpt>
      <trkpt lat="46.71323" lon="5.79878">
        <ele>544.6</ele>
        <time>2022-08-27T11:35:15Z</time>
      </trkpt>
      <trkpt lat="46.71318" lon="5.79886">
        <ele>545</ele>
        <time>2022-08-27T11:35:17Z</time>
      </trkpt>
      <trkpt lat="46.71312" lon="5.79895">
        <ele>545.6</ele>
        <time>2022-08-27T11:35:19Z</time>
      </trkpt>
      <trkpt lat="46.71307" lon="5.79904">
        <ele>546.2</ele>
        <time>2022-08-27T11:35:21Z</time>
      </trkpt>
      <trkpt lat="46.71304" lon="5.79908">
        <ele>546.2</ele>
        <time>2022-08-27T11:35:22Z</time>
      </trkpt>
      <trkpt lat="46.71296" lon="5.79921">
        <ele>546.6</ele>
        <time>2022-08-27T11:35:25Z</time>
      </trkpt>
      <trkpt lat="46.71282" lon="5.79949">
        <ele>548</ele>
        <time>2022-08-27T11:35:31Z</time>
      </trkpt>
      <trkpt lat="46.71272" lon="5.79967">
        <ele>549.2</ele>
        <time>2022-08-27T11:35:35Z</time>
      </trkpt>
      <trkpt lat="46.71265" lon="5.79979">
        <ele>549.8</ele>
        <time>2022-08-27T11:35:38Z</time>
      </trkpt>
      <trkpt lat="46.71259" lon="5.79987">
        <ele>550.2</ele>
        <time>2022-08-27T11:35:40Z</time>
      </trkpt>
      <trkpt lat="46.71246" lon="5.80009">
        <ele>551.4</ele>
        <time>2022-08-27T11:35:45Z</time>
      </trkpt>
      <trkpt lat="46.71244" lon="5.80013">
        <ele>551.6</ele>
        <time>2022-08-27T11:35:46Z</time>
      </trkpt>
      <trkpt lat="46.71239" lon="5.8002">
        <ele>552</ele>
        <time>2022-08-27T11:35:48Z</time>
      </trkpt>
      <trkpt lat="46.71234" lon="5.80027">
        <ele>552.6</ele>
        <time>2022-08-27T11:35:50Z</time>
      </trkpt>
      <trkpt lat="46.71226" lon="5.80038">
        <ele>553.6</ele>
        <time>2022-08-27T11:35:53Z</time>
      </trkpt>
      <trkpt lat="46.71223" lon="5.80042">
        <ele>554</ele>
        <time>2022-08-27T11:35:54Z</time>
      </trkpt>
      <trkpt lat="46.7121" lon="5.80059">
        <ele>555</ele>
        <time>2022-08-27T11:35:59Z</time>
      </trkpt>
      <trkpt lat="46.71202" lon="5.8007">
        <ele>555.2</ele>
        <time>2022-08-27T11:36:02Z</time>
      </trkpt>
      <trkpt lat="46.71191" lon="5.80084">
        <ele>556.2</ele>
        <time>2022-08-27T11:36:06Z</time>
      </trkpt>
      <trkpt lat="46.71175" lon="5.80111">
        <ele>557.4</ele>
        <time>2022-08-27T11:36:13Z</time>
      </trkpt>
      <trkpt lat="46.71168" lon="5.80124">
        <ele>558.4</ele>
        <time>2022-08-27T11:36:16Z</time>
      </trkpt>
      <trkpt lat="46.71165" lon="5.80128">
        <ele>558.4</ele>
        <time>2022-08-27T11:36:17Z</time>
      </trkpt>
      <trkpt lat="46.71157" lon="5.80146">
        <ele>558.8</ele>
        <time>2022-08-27T11:36:21Z</time>
      </trkpt>
      <trkpt lat="46.71152" lon="5.80159">
        <ele>559.6</ele>
        <time>2022-08-27T11:36:24Z</time>
      </trkpt>
      <trkpt lat="46.71144" lon="5.80177">
        <ele>560.8</ele>
        <time>2022-08-27T11:36:28Z</time>
      </trkpt>
      <trkpt lat="46.7114" lon="5.80187">
        <ele>561.2</ele>
        <time>2022-08-27T11:36:30Z</time>
      </trkpt>
      <trkpt lat="46.71128" lon="5.80209">
        <ele>561.8</ele>
        <time>2022-08-27T11:36:35Z</time>
      </trkpt>
      <trkpt lat="46.71123" lon="5.80217">
        <ele>562.2</ele>
        <time>2022-08-27T11:36:37Z</time>
      </trkpt>
      <trkpt lat="46.71118" lon="5.80225">
        <ele>562.6</ele>
        <time>2022-08-27T11:36:39Z</time>
      </trkpt>
      <trkpt lat="46.71115" lon="5.80229">
        <ele>562.8</ele>
        <time>2022-08-27T11:36:40Z</time>
      </trkpt>
      <trkpt lat="46.71102" lon="5.80247">
        <ele>564</ele>
        <time>2022-08-27T11:36:45Z</time>
      </trkpt>
      <trkpt lat="46.71091" lon="5.80262">
        <ele>565</ele>
        <time>2022-08-27T11:36:49Z</time>
      </trkpt>
      <trkpt lat="46.7108" lon="5.80277">
        <ele>566.2</ele>
        <time>2022-08-27T11:36:53Z</time>
      </trkpt>
      <trkpt lat="46.71066" lon="5.80293">
        <ele>567.2</ele>
        <time>2022-08-27T11:36:58Z</time>
      </trkpt>
      <trkpt lat="46.71049" lon="5.80314">
        <ele>568</ele>
        <time>2022-08-27T11:37:04Z</time>
      </trkpt>
      <trkpt lat="46.71045" lon="5.80317">
        <ele>568.4</ele>
        <time>2022-08-27T11:37:05Z</time>
      </trkpt>
      <trkpt lat="46.71042" lon="5.80319">
        <ele>568.4</ele>
        <time>2022-08-27T11:37:06Z</time>
      </trkpt>
      <trkpt lat="46.71031" lon="5.80323">
        <ele>569.2</ele>
        <time>2022-08-27T11:37:09Z</time>
      </trkpt>
      <trkpt lat="46.71023" lon="5.8032">
        <ele>569.8</ele>
        <time>2022-08-27T11:37:11Z</time>
      </trkpt>
      <trkpt lat="46.71017" lon="5.80312">
        <ele>570.4</ele>
        <time>2022-08-27T11:37:13Z</time>
      </trkpt>
      <trkpt lat="46.71014" lon="5.80303">
        <ele>570.6</ele>
        <time>2022-08-27T11:37:15Z</time>
      </trkpt>
      <trkpt lat="46.71012" lon="5.80283">
        <ele>571.6</ele>
        <time>2022-08-27T11:37:19Z</time>
      </trkpt>
      <trkpt lat="46.71013" lon="5.80278">
        <ele>571.6</ele>
        <time>2022-08-27T11:37:20Z</time>
      </trkpt>
      <trkpt lat="46.71014" lon="5.80263">
        <ele>572.6</ele>
        <time>2022-08-27T11:37:23Z</time>
      </trkpt>
      <trkpt lat="46.71017" lon="5.80249">
        <ele>573.6</ele>
        <time>2022-08-27T11:37:26Z</time>
      </trkpt>
      <trkpt lat="46.71022" lon="5.80224">
        <ele>574.6</ele>
        <time>2022-08-27T11:37:31Z</time>
      </trkpt>
      <trkpt lat="46.71022" lon="5.80218">
        <ele>575</ele>
        <time>2022-08-27T11:37:32Z</time>
      </trkpt>
      <trkpt lat="46.71025" lon="5.80197">
        <ele>575.8</ele>
        <time>2022-08-27T11:37:36Z</time>
      </trkpt>
      <trkpt lat="46.71024" lon="5.8018">
        <ele>576.4</ele>
        <time>2022-08-27T11:37:39Z</time>
      </trkpt>
      <trkpt lat="46.71024" lon="5.80169">
        <ele>576.8</ele>
        <time>2022-08-27T11:37:41Z</time>
      </trkpt>
      <trkpt lat="46.71025" lon="5.80142">
        <ele>577.8</ele>
        <time>2022-08-27T11:37:46Z</time>
      </trkpt>
      <trkpt lat="46.71024" lon="5.80137">
        <ele>578</ele>
        <time>2022-08-27T11:37:47Z</time>
      </trkpt>
      <trkpt lat="46.71023" lon="5.80125">
        <ele>578.2</ele>
        <time>2022-08-27T11:37:49Z</time>
      </trkpt>
      <trkpt lat="46.71024" lon="5.80107">
        <ele>578.8</ele>
        <time>2022-08-27T11:37:52Z</time>
      </trkpt>
      <trkpt lat="46.71024" lon="5.80101">
        <ele>579.2</ele>
        <time>2022-08-27T11:37:53Z</time>
      </trkpt>
      <trkpt lat="46.71025" lon="5.80077">
        <ele>580</ele>
        <time>2022-08-27T11:37:57Z</time>
      </trkpt>
      <trkpt lat="46.71027" lon="5.80071">
        <ele>580.2</ele>
        <time>2022-08-27T11:37:58Z</time>
      </trkpt>
      <trkpt lat="46.71029" lon="5.80038">
        <ele>581.4</ele>
        <time>2022-08-27T11:38:03Z</time>
      </trkpt>
      <trkpt lat="46.71034" lon="5.80014">
        <ele>582.6</ele>
        <time>2022-08-27T11:38:07Z</time>
      </trkpt>
      <trkpt lat="46.71037" lon="5.79998">
        <ele>583.2</ele>
        <time>2022-08-27T11:38:10Z</time>
      </trkpt>
      <trkpt lat="46.71039" lon="5.79986">
        <ele>583.6</ele>
        <time>2022-08-27T11:38:12Z</time>
      </trkpt>
      <trkpt lat="46.71042" lon="5.79963">
        <ele>583.8</ele>
        <time>2022-08-27T11:38:16Z</time>
      </trkpt>
      <trkpt lat="46.71047" lon="5.79948">
        <ele>584.6</ele>
        <time>2022-08-27T11:38:19Z</time>
      </trkpt>
      <trkpt lat="46.7105" lon="5.79932">
        <ele>585.4</ele>
        <time>2022-08-27T11:38:22Z</time>
      </trkpt>
      <trkpt lat="46.7105" lon="5.79925">
        <ele>585.6</ele>
        <time>2022-08-27T11:38:23Z</time>
      </trkpt>
      <trkpt lat="46.71057" lon="5.79894">
        <ele>586.8</ele>
        <time>2022-08-27T11:38:29Z</time>
      </trkpt>
      <trkpt lat="46.71064" lon="5.79863">
        <ele>588</ele>
        <time>2022-08-27T11:38:35Z</time>
      </trkpt>
      <trkpt lat="46.71069" lon="5.79831">
        <ele>589.2</ele>
        <time>2022-08-27T11:38:41Z</time>
      </trkpt>
      <trkpt lat="46.71072" lon="5.79815">
        <ele>589.6</ele>
        <time>2022-08-27T11:38:44Z</time>
      </trkpt>
      <trkpt lat="46.71074" lon="5.79795">
        <ele>590.6</ele>
        <time>2022-08-27T11:38:48Z</time>
      </trkpt>
      <trkpt lat="46.71072" lon="5.79774">
        <ele>591.4</ele>
        <time>2022-08-27T11:38:52Z</time>
      </trkpt>
      <trkpt lat="46.7107" lon="5.79764">
        <ele>592</ele>
        <time>2022-08-27T11:38:54Z</time>
      </trkpt>
      <trkpt lat="46.71065" lon="5.79741">
        <ele>593.2</ele>
        <time>2022-08-27T11:38:59Z</time>
      </trkpt>
      <trkpt lat="46.71063" lon="5.79737">
        <ele>593.4</ele>
        <time>2022-08-27T11:39:00Z</time>
      </trkpt>
      <trkpt lat="46.71046" lon="5.79714">
        <ele>594.2</ele>
        <time>2022-08-27T11:39:06Z</time>
      </trkpt>
      <trkpt lat="46.71043" lon="5.79712">
        <ele>594.2</ele>
        <time>2022-08-27T11:39:07Z</time>
      </trkpt>
      <trkpt lat="46.71022" lon="5.797">
        <ele>595</ele>
        <time>2022-08-27T11:39:13Z</time>
      </trkpt>
      <trkpt lat="46.71015" lon="5.79697">
        <ele>595.4</ele>
        <time>2022-08-27T11:39:15Z</time>
      </trkpt>
      <trkpt lat="46.70994" lon="5.79692">
        <ele>596.6</ele>
        <time>2022-08-27T11:39:21Z</time>
      </trkpt>
      <trkpt lat="46.7099" lon="5.79692">
        <ele>596.8</ele>
        <time>2022-08-27T11:39:22Z</time>
      </trkpt>
      <trkpt lat="46.70969" lon="5.79689">
        <ele>597.6</ele>
        <time>2022-08-27T11:39:28Z</time>
      </trkpt>
      <trkpt lat="46.70961" lon="5.79687">
        <ele>598.2</ele>
        <time>2022-08-27T11:39:30Z</time>
      </trkpt>
      <trkpt lat="46.70946" lon="5.79684">
        <ele>598.6</ele>
        <time>2022-08-27T11:39:34Z</time>
      </trkpt>
      <trkpt lat="46.70931" lon="5.79683">
        <ele>599.6</ele>
        <time>2022-08-27T11:39:38Z</time>
      </trkpt>
      <trkpt lat="46.70912" lon="5.79684">
        <ele>601</ele>
        <time>2022-08-27T11:39:43Z</time>
      </trkpt>
      <trkpt lat="46.70908" lon="5.79684">
        <ele>601.2</ele>
        <time>2022-08-27T11:39:44Z</time>
      </trkpt>
      <trkpt lat="46.70886" lon="5.79687">
        <ele>602.2</ele>
        <time>2022-08-27T11:39:50Z</time>
      </trkpt>
      <trkpt lat="46.70879" lon="5.79688">
        <ele>602.6</ele>
        <time>2022-08-27T11:39:52Z</time>
      </trkpt>
      <trkpt lat="46.7086" lon="5.7969">
        <ele>603.4</ele>
        <time>2022-08-27T11:39:57Z</time>
      </trkpt>
      <trkpt lat="46.70842" lon="5.79693">
        <ele>604.6</ele>
        <time>2022-08-27T11:40:02Z</time>
      </trkpt>
      <trkpt lat="46.70823" lon="5.79695">
        <ele>605.6</ele>
        <time>2022-08-27T11:40:07Z</time>
      </trkpt>
      <trkpt lat="46.70819" lon="5.79695">
        <ele>605.8</ele>
        <time>2022-08-27T11:40:08Z</time>
      </trkpt>
      <trkpt lat="46.70805" lon="5.79697">
        <ele>606.6</ele>
        <time>2022-08-27T11:40:12Z</time>
      </trkpt>
      <trkpt lat="46.70795" lon="5.797">
        <ele>607.2</ele>
        <time>2022-08-27T11:40:15Z</time>
      </trkpt>
      <trkpt lat="46.7078" lon="5.79706">
        <ele>607.8</ele>
        <time>2022-08-27T11:40:19Z</time>
      </trkpt>
      <trkpt lat="46.70769" lon="5.79709">
        <ele>608.6</ele>
        <time>2022-08-27T11:40:22Z</time>
      </trkpt>
      <trkpt lat="46.70766" lon="5.79711">
        <ele>609</ele>
        <time>2022-08-27T11:40:23Z</time>
      </trkpt>
      <trkpt lat="46.7075" lon="5.79721">
        <ele>610.2</ele>
        <time>2022-08-27T11:40:28Z</time>
      </trkpt>
      <trkpt lat="46.70747" lon="5.79724">
        <ele>610.2</ele>
        <time>2022-08-27T11:40:29Z</time>
      </trkpt>
      <trkpt lat="46.70737" lon="5.79739">
        <ele>611.2</ele>
        <time>2022-08-27T11:40:33Z</time>
      </trkpt>
      <trkpt lat="46.70732" lon="5.79747">
        <ele>611.8</ele>
        <time>2022-08-27T11:40:35Z</time>
      </trkpt>
      <trkpt lat="46.70729" lon="5.79756">
        <ele>612.6</ele>
        <time>2022-08-27T11:40:37Z</time>
      </trkpt>
      <trkpt lat="46.70728" lon="5.79771">
        <ele>613.4</ele>
        <time>2022-08-27T11:40:40Z</time>
      </trkpt>
      <trkpt lat="46.70729" lon="5.79782">
        <ele>613.8</ele>
        <time>2022-08-27T11:40:42Z</time>
      </trkpt>
      <trkpt lat="46.70732" lon="5.79793">
        <ele>614.2</ele>
        <time>2022-08-27T11:40:44Z</time>
      </trkpt>
      <trkpt lat="46.70734" lon="5.79799">
        <ele>614.4</ele>
        <time>2022-08-27T11:40:45Z</time>
      </trkpt>
      <trkpt lat="46.70739" lon="5.79809">
        <ele>615</ele>
        <time>2022-08-27T11:40:47Z</time>
      </trkpt>
      <trkpt lat="46.70742" lon="5.79814">
        <ele>615.2</ele>
        <time>2022-08-27T11:40:48Z</time>
      </trkpt>
      <trkpt lat="46.70748" lon="5.79821">
        <ele>615.4</ele>
        <time>2022-08-27T11:40:50Z</time>
      </trkpt>
      <trkpt lat="46.70752" lon="5.79824">
        <ele>615.6</ele>
        <time>2022-08-27T11:40:51Z</time>
      </trkpt>
      <trkpt lat="46.70758" lon="5.79829">
        <ele>615.6</ele>
        <time>2022-08-27T11:40:53Z</time>
      </trkpt>
      <trkpt lat="46.70768" lon="5.79832">
        <ele>616</ele>
        <time>2022-08-27T11:40:56Z</time>
      </trkpt>
      <trkpt lat="46.70784" lon="5.79837">
        <ele>617.4</ele>
        <time>2022-08-27T11:41:01Z</time>
      </trkpt>
      <trkpt lat="46.70787" lon="5.79838">
        <ele>617.4</ele>
        <time>2022-08-27T11:41:02Z</time>
      </trkpt>
      <trkpt lat="46.70804" lon="5.79842">
        <ele>618.4</ele>
        <time>2022-08-27T11:41:07Z</time>
      </trkpt>
      <trkpt lat="46.70833" lon="5.79854">
        <ele>619.6</ele>
        <time>2022-08-27T11:41:14Z</time>
      </trkpt>
      <trkpt lat="46.70847" lon="5.79873">
        <ele>620.6</ele>
        <time>2022-08-27T11:41:18Z</time>
      </trkpt>
      <trkpt lat="46.70849" lon="5.79879">
        <ele>620.8</ele>
        <time>2022-08-27T11:41:19Z</time>
      </trkpt>
      <trkpt lat="46.70853" lon="5.79901">
        <ele>621.8</ele>
        <time>2022-08-27T11:41:23Z</time>
      </trkpt>
      <trkpt lat="46.70853" lon="5.79907">
        <ele>622.2</ele>
        <time>2022-08-27T11:41:24Z</time>
      </trkpt>
      <trkpt lat="46.70853" lon="5.7992">
        <ele>622.8</ele>
        <time>2022-08-27T11:41:26Z</time>
      </trkpt>
      <trkpt lat="46.70852" lon="5.79951">
        <ele>623.8</ele>
        <time>2022-08-27T11:41:31Z</time>
      </trkpt>
      <trkpt lat="46.70852" lon="5.79956">
        <ele>624.2</ele>
        <time>2022-08-27T11:41:32Z</time>
      </trkpt>
      <trkpt lat="46.70851" lon="5.79979">
        <ele>625</ele>
        <time>2022-08-27T11:41:36Z</time>
      </trkpt>
      <trkpt lat="46.70851" lon="5.80002">
        <ele>625.8</ele>
        <time>2022-08-27T11:41:40Z</time>
      </trkpt>
      <trkpt lat="46.70851" lon="5.80013">
        <ele>626.2</ele>
        <time>2022-08-27T11:41:42Z</time>
      </trkpt>
      <trkpt lat="46.70848" lon="5.80036">
        <ele>627.2</ele>
        <time>2022-08-27T11:41:46Z</time>
      </trkpt>
      <trkpt lat="46.70848" lon="5.80042">
        <ele>627.4</ele>
        <time>2022-08-27T11:41:47Z</time>
      </trkpt>
      <trkpt lat="46.70847" lon="5.80072">
        <ele>628.6</ele>
        <time>2022-08-27T11:41:52Z</time>
      </trkpt>
      <trkpt lat="46.70847" lon="5.80083">
        <ele>628.8</ele>
        <time>2022-08-27T11:41:54Z</time>
      </trkpt>
      <trkpt lat="46.70846" lon="5.80112">
        <ele>629.8</ele>
        <time>2022-08-27T11:41:59Z</time>
      </trkpt>
      <trkpt lat="46.70845" lon="5.80135">
        <ele>630.2</ele>
        <time>2022-08-27T11:42:03Z</time>
      </trkpt>
      <trkpt lat="46.70845" lon="5.80159">
        <ele>630.8</ele>
        <time>2022-08-27T11:42:07Z</time>
      </trkpt>
      <trkpt lat="46.70847" lon="5.80183">
        <ele>632</ele>
        <time>2022-08-27T11:42:11Z</time>
      </trkpt>
      <trkpt lat="46.7085" lon="5.80216">
        <ele>633.2</ele>
        <time>2022-08-27T11:42:16Z</time>
      </trkpt>
      <trkpt lat="46.70853" lon="5.80229">
        <ele>633.4</ele>
        <time>2022-08-27T11:42:18Z</time>
      </trkpt>
      <trkpt lat="46.70857" lon="5.80243">
        <ele>633.8</ele>
        <time>2022-08-27T11:42:20Z</time>
      </trkpt>
      <trkpt lat="46.70863" lon="5.80274">
        <ele>634</ele>
        <time>2022-08-27T11:42:24Z</time>
      </trkpt>
      <trkpt lat="46.70865" lon="5.80281">
        <ele>634.2</ele>
        <time>2022-08-27T11:42:25Z</time>
      </trkpt>
      <trkpt lat="46.70874" lon="5.80328">
        <ele>634.6</ele>
        <time>2022-08-27T11:42:31Z</time>
      </trkpt>
      <trkpt lat="46.70883" lon="5.80387">
        <ele>635</ele>
        <time>2022-08-27T11:42:38Z</time>
      </trkpt>
      <trkpt lat="46.70888" lon="5.80411">
        <ele>635.2</ele>
        <time>2022-08-27T11:42:41Z</time>
      </trkpt>
      <trkpt lat="46.7089" lon="5.80419">
        <ele>635.2</ele>
        <time>2022-08-27T11:42:42Z</time>
      </trkpt>
      <trkpt lat="46.70892" lon="5.80436">
        <ele>635.2</ele>
        <time>2022-08-27T11:42:44Z</time>
      </trkpt>
      <trkpt lat="46.70895" lon="5.80479">
        <ele>635.6</ele>
        <time>2022-08-27T11:42:49Z</time>
      </trkpt>
      <trkpt lat="46.70894" lon="5.80488">
        <ele>635.8</ele>
        <time>2022-08-27T11:42:50Z</time>
      </trkpt>
      <trkpt lat="46.70891" lon="5.80496">
        <ele>636</ele>
        <time>2022-08-27T11:42:51Z</time>
      </trkpt>
      <trkpt lat="46.70883" lon="5.8053">
        <ele>636.2</ele>
        <time>2022-08-27T11:42:55Z</time>
      </trkpt>
      <trkpt lat="46.70881" lon="5.80538">
        <ele>636.2</ele>
        <time>2022-08-27T11:42:56Z</time>
      </trkpt>
      <trkpt lat="46.70874" lon="5.80572">
        <ele>636.6</ele>
        <time>2022-08-27T11:43:00Z</time>
      </trkpt>
      <trkpt lat="46.7087" lon="5.80588">
        <ele>637</ele>
        <time>2022-08-27T11:43:02Z</time>
      </trkpt>
      <trkpt lat="46.70866" lon="5.80605">
        <ele>637.2</ele>
        <time>2022-08-27T11:43:04Z</time>
      </trkpt>
      <trkpt lat="46.70865" lon="5.80614">
        <ele>637.4</ele>
        <time>2022-08-27T11:43:05Z</time>
      </trkpt>
      <trkpt lat="46.70858" lon="5.8065">
        <ele>637.8</ele>
        <time>2022-08-27T11:43:09Z</time>
      </trkpt>
      <trkpt lat="46.70847" lon="5.80697">
        <ele>637.6</ele>
        <time>2022-08-27T11:43:14Z</time>
      </trkpt>
      <trkpt lat="46.70822" lon="5.80769">
        <ele>636.8</ele>
        <time>2022-08-27T11:43:22Z</time>
      </trkpt>
      <trkpt lat="46.70813" lon="5.80795">
        <ele>636.8</ele>
        <time>2022-08-27T11:43:25Z</time>
      </trkpt>
      <trkpt lat="46.70792" lon="5.8087">
        <ele>637.2</ele>
        <time>2022-08-27T11:43:33Z</time>
      </trkpt>
      <trkpt lat="46.7079" lon="5.8088">
        <ele>637.2</ele>
        <time>2022-08-27T11:43:34Z</time>
      </trkpt>
      <trkpt lat="46.70789" lon="5.8089">
        <ele>637.2</ele>
        <time>2022-08-27T11:43:35Z</time>
      </trkpt>
      <trkpt lat="46.70781" lon="5.80974">
        <ele>637.6</ele>
        <time>2022-08-27T11:43:44Z</time>
      </trkpt>
      <trkpt lat="46.7078" lon="5.80983">
        <ele>637.8</ele>
        <time>2022-08-27T11:43:45Z</time>
      </trkpt>
      <trkpt lat="46.70779" lon="5.80991">
        <ele>638.2</ele>
        <time>2022-08-27T11:43:46Z</time>
      </trkpt>
      <trkpt lat="46.70774" lon="5.81024">
        <ele>639.2</ele>
        <time>2022-08-27T11:43:50Z</time>
      </trkpt>
      <trkpt lat="46.70773" lon="5.81032">
        <ele>639.2</ele>
        <time>2022-08-27T11:43:51Z</time>
      </trkpt>
      <trkpt lat="46.70769" lon="5.81072">
        <ele>640</ele>
        <time>2022-08-27T11:43:56Z</time>
      </trkpt>
      <trkpt lat="46.70767" lon="5.81087">
        <ele>640.6</ele>
        <time>2022-08-27T11:43:58Z</time>
      </trkpt>
      <trkpt lat="46.70765" lon="5.81111">
        <ele>641.8</ele>
        <time>2022-08-27T11:44:01Z</time>
      </trkpt>
      <trkpt lat="46.70762" lon="5.81134">
        <ele>642.6</ele>
        <time>2022-08-27T11:44:04Z</time>
      </trkpt>
      <trkpt lat="46.7076" lon="5.8115">
        <ele>643</ele>
        <time>2022-08-27T11:44:06Z</time>
      </trkpt>
      <trkpt lat="46.7076" lon="5.81168">
        <ele>643.6</ele>
        <time>2022-08-27T11:44:08Z</time>
      </trkpt>
      <trkpt lat="46.70758" lon="5.81184">
        <ele>644</ele>
        <time>2022-08-27T11:44:10Z</time>
      </trkpt>
      <trkpt lat="46.70758" lon="5.81192">
        <ele>644.2</ele>
        <time>2022-08-27T11:44:11Z</time>
      </trkpt>
      <trkpt lat="46.70756" lon="5.81215">
        <ele>645</ele>
        <time>2022-08-27T11:44:14Z</time>
      </trkpt>
      <trkpt lat="46.70754" lon="5.81239">
        <ele>645.6</ele>
        <time>2022-08-27T11:44:17Z</time>
      </trkpt>
      <trkpt lat="46.7075" lon="5.81279">
        <ele>646.2</ele>
        <time>2022-08-27T11:44:22Z</time>
      </trkpt>
      <trkpt lat="46.70748" lon="5.81304">
        <ele>646.4</ele>
        <time>2022-08-27T11:44:25Z</time>
      </trkpt>
      <trkpt lat="46.70743" lon="5.81358">
        <ele>647.2</ele>
        <time>2022-08-27T11:44:32Z</time>
      </trkpt>
      <trkpt lat="46.70743" lon="5.81366">
        <ele>647.4</ele>
        <time>2022-08-27T11:44:33Z</time>
      </trkpt>
      <trkpt lat="46.70737" lon="5.81419">
        <ele>648</ele>
        <time>2022-08-27T11:44:40Z</time>
      </trkpt>
      <trkpt lat="46.70737" lon="5.81426">
        <ele>648.2</ele>
        <time>2022-08-27T11:44:41Z</time>
      </trkpt>
      <trkpt lat="46.70733" lon="5.81471">
        <ele>649</ele>
        <time>2022-08-27T11:44:47Z</time>
      </trkpt>
      <trkpt lat="46.70732" lon="5.81478">
        <ele>649.2</ele>
        <time>2022-08-27T11:44:48Z</time>
      </trkpt>
      <trkpt lat="46.70731" lon="5.81493">
        <ele>650</ele>
        <time>2022-08-27T11:44:50Z</time>
      </trkpt>
      <trkpt lat="46.7073" lon="5.815">
        <ele>650.2</ele>
        <time>2022-08-27T11:44:51Z</time>
      </trkpt>
      <trkpt lat="46.70729" lon="5.81522">
        <ele>650.8</ele>
        <time>2022-08-27T11:44:54Z</time>
      </trkpt>
      <trkpt lat="46.70724" lon="5.81559">
        <ele>651.4</ele>
        <time>2022-08-27T11:44:59Z</time>
      </trkpt>
      <trkpt lat="46.70723" lon="5.81581">
        <ele>651.4</ele>
        <time>2022-08-27T11:45:02Z</time>
      </trkpt>
      <trkpt lat="46.70721" lon="5.81603">
        <ele>651.6</ele>
        <time>2022-08-27T11:45:05Z</time>
      </trkpt>
      <trkpt lat="46.70721" lon="5.81633">
        <ele>652.4</ele>
        <time>2022-08-27T11:45:09Z</time>
      </trkpt>
      <trkpt lat="46.70722" lon="5.8164">
        <ele>652.8</ele>
        <time>2022-08-27T11:45:10Z</time>
      </trkpt>
      <trkpt lat="46.70729" lon="5.81667">
        <ele>653.2</ele>
        <time>2022-08-27T11:45:14Z</time>
      </trkpt>
      <trkpt lat="46.70731" lon="5.81673">
        <ele>653.4</ele>
        <time>2022-08-27T11:45:15Z</time>
      </trkpt>
      <trkpt lat="46.70733" lon="5.81679">
        <ele>653.6</ele>
        <time>2022-08-27T11:45:16Z</time>
      </trkpt>
      <trkpt lat="46.70743" lon="5.81705">
        <ele>654.6</ele>
        <time>2022-08-27T11:45:20Z</time>
      </trkpt>
      <trkpt lat="46.7076" lon="5.81745">
        <ele>655.2</ele>
        <time>2022-08-27T11:45:26Z</time>
      </trkpt>
      <trkpt lat="46.70768" lon="5.81765">
        <ele>655.6</ele>
        <time>2022-08-27T11:45:29Z</time>
      </trkpt>
      <trkpt lat="46.7079" lon="5.81817">
        <ele>656.2</ele>
        <time>2022-08-27T11:45:37Z</time>
      </trkpt>
      <trkpt lat="46.70795" lon="5.8183">
        <ele>656.6</ele>
        <time>2022-08-27T11:45:39Z</time>
      </trkpt>
      <trkpt lat="46.70809" lon="5.81866">
        <ele>657.2</ele>
        <time>2022-08-27T11:45:45Z</time>
      </trkpt>
      <trkpt lat="46.70817" lon="5.81885">
        <ele>657.6</ele>
        <time>2022-08-27T11:45:48Z</time>
      </trkpt>
      <trkpt lat="46.70837" lon="5.81935">
        <ele>658.4</ele>
        <time>2022-08-27T11:45:56Z</time>
      </trkpt>
      <trkpt lat="46.70839" lon="5.81942">
        <ele>658.6</ele>
        <time>2022-08-27T11:45:57Z</time>
      </trkpt>
      <trkpt lat="46.70854" lon="5.81977">
        <ele>659.6</ele>
        <time>2022-08-27T11:46:03Z</time>
      </trkpt>
      <trkpt lat="46.70863" lon="5.82001">
        <ele>660.2</ele>
        <time>2022-08-27T11:46:07Z</time>
      </trkpt>
      <trkpt lat="46.70873" lon="5.82023">
        <ele>660.8</ele>
        <time>2022-08-27T11:46:11Z</time>
      </trkpt>
      <trkpt lat="46.70883" lon="5.82049">
        <ele>661.6</ele>
        <time>2022-08-27T11:46:15Z</time>
      </trkpt>
      <trkpt lat="46.70888" lon="5.82062">
        <ele>661.8</ele>
        <time>2022-08-27T11:46:17Z</time>
      </trkpt>
      <trkpt lat="46.70894" lon="5.82075">
        <ele>661.8</ele>
        <time>2022-08-27T11:46:19Z</time>
      </trkpt>
      <trkpt lat="46.70914" lon="5.82123">
        <ele>662.8</ele>
        <time>2022-08-27T11:46:27Z</time>
      </trkpt>
      <trkpt lat="46.70924" lon="5.82148">
        <ele>663.4</ele>
        <time>2022-08-27T11:46:31Z</time>
      </trkpt>
      <trkpt lat="46.70933" lon="5.82173">
        <ele>664</ele>
        <time>2022-08-27T11:46:35Z</time>
      </trkpt>
      <trkpt lat="46.70955" lon="5.82228">
        <ele>664.6</ele>
        <time>2022-08-27T11:46:44Z</time>
      </trkpt>
      <trkpt lat="46.7096" lon="5.82238">
        <ele>665.2</ele>
        <time>2022-08-27T11:46:46Z</time>
      </trkpt>
      <trkpt lat="46.70969" lon="5.82261">
        <ele>666.2</ele>
        <time>2022-08-27T11:46:50Z</time>
      </trkpt>
      <trkpt lat="46.70973" lon="5.82272">
        <ele>666.8</ele>
        <time>2022-08-27T11:46:52Z</time>
      </trkpt>
      <trkpt lat="46.70981" lon="5.82291">
        <ele>667.4</ele>
        <time>2022-08-27T11:46:55Z</time>
      </trkpt>
      <trkpt lat="46.70984" lon="5.82296">
        <ele>667.6</ele>
        <time>2022-08-27T11:46:56Z</time>
      </trkpt>
      <trkpt lat="46.7099" lon="5.82312">
        <ele>668</ele>
        <time>2022-08-27T11:46:59Z</time>
      </trkpt>
      <trkpt lat="46.70995" lon="5.82323">
        <ele>668.4</ele>
        <time>2022-08-27T11:47:01Z</time>
      </trkpt>
      <trkpt lat="46.71006" lon="5.82354">
        <ele>669.6</ele>
        <time>2022-08-27T11:47:07Z</time>
      </trkpt>
      <trkpt lat="46.71017" lon="5.82381">
        <ele>670.8</ele>
        <time>2022-08-27T11:47:12Z</time>
      </trkpt>
      <trkpt lat="46.71024" lon="5.82398">
        <ele>671.2</ele>
        <time>2022-08-27T11:47:15Z</time>
      </trkpt>
      <trkpt lat="46.71035" lon="5.82426">
        <ele>671.8</ele>
        <time>2022-08-27T11:47:20Z</time>
      </trkpt>
      <trkpt lat="46.71046" lon="5.82454">
        <ele>672.6</ele>
        <time>2022-08-27T11:47:25Z</time>
      </trkpt>
      <trkpt lat="46.71053" lon="5.82471">
        <ele>672.8</ele>
        <time>2022-08-27T11:47:28Z</time>
      </trkpt>
      <trkpt lat="46.71069" lon="5.82509">
        <ele>673.6</ele>
        <time>2022-08-27T11:47:35Z</time>
      </trkpt>
      <trkpt lat="46.71071" lon="5.82514">
        <ele>673.6</ele>
        <time>2022-08-27T11:47:36Z</time>
      </trkpt>
      <trkpt lat="46.71073" lon="5.8252">
        <ele>673.8</ele>
        <time>2022-08-27T11:47:37Z</time>
      </trkpt>
      <trkpt lat="46.71075" lon="5.82526">
        <ele>674</ele>
        <time>2022-08-27T11:47:38Z</time>
      </trkpt>
      <trkpt lat="46.71082" lon="5.82542">
        <ele>674.4</ele>
        <time>2022-08-27T11:47:41Z</time>
      </trkpt>
      <trkpt lat="46.71089" lon="5.82558">
        <ele>675</ele>
        <time>2022-08-27T11:47:44Z</time>
      </trkpt>
      <trkpt lat="46.71102" lon="5.82586">
        <ele>676.4</ele>
        <time>2022-08-27T11:47:49Z</time>
      </trkpt>
      <trkpt lat="46.71105" lon="5.82592">
        <ele>676.6</ele>
        <time>2022-08-27T11:47:50Z</time>
      </trkpt>
      <trkpt lat="46.71117" lon="5.82619">
        <ele>677.4</ele>
        <time>2022-08-27T11:47:54Z</time>
      </trkpt>
      <trkpt lat="46.71119" lon="5.82626">
        <ele>677.4</ele>
        <time>2022-08-27T11:47:55Z</time>
      </trkpt>
      <trkpt lat="46.71129" lon="5.82676">
        <ele>677.4</ele>
        <time>2022-08-27T11:48:00Z</time>
      </trkpt>
      <trkpt lat="46.7113" lon="5.82709">
        <ele>677</ele>
        <time>2022-08-27T11:48:03Z</time>
      </trkpt>
      <trkpt lat="46.71128" lon="5.8272">
        <ele>676.8</ele>
        <time>2022-08-27T11:48:04Z</time>
      </trkpt>
      <trkpt lat="46.71125" lon="5.82741">
        <ele>676</ele>
        <time>2022-08-27T11:48:06Z</time>
      </trkpt>
      <trkpt lat="46.71114" lon="5.82796">
        <ele>675.2</ele>
        <time>2022-08-27T11:48:11Z</time>
      </trkpt>
      <trkpt lat="46.7111" lon="5.82815">
        <ele>675</ele>
        <time>2022-08-27T11:48:13Z</time>
      </trkpt>
      <trkpt lat="46.71107" lon="5.82838">
        <ele>675</ele>
        <time>2022-08-27T11:48:15Z</time>
      </trkpt>
      <trkpt lat="46.71105" lon="5.82849">
        <ele>675</ele>
        <time>2022-08-27T11:48:16Z</time>
      </trkpt>
      <trkpt lat="46.71091" lon="5.82933">
        <ele>674.4</ele>
        <time>2022-08-27T11:48:24Z</time>
      </trkpt>
      <trkpt lat="46.71082" lon="5.82982">
        <ele>674.8</ele>
        <time>2022-08-27T11:48:29Z</time>
      </trkpt>
      <trkpt lat="46.71069" lon="5.83066">
        <ele>676</ele>
        <time>2022-08-27T11:48:37Z</time>
      </trkpt>
      <trkpt lat="46.71065" lon="5.83089">
        <ele>676</ele>
        <time>2022-08-27T11:48:39Z</time>
      </trkpt>
      <trkpt lat="46.7105" lon="5.83159">
        <ele>675</ele>
        <time>2022-08-27T11:48:45Z</time>
      </trkpt>
      <trkpt lat="46.71044" lon="5.83183">
        <ele>674.6</ele>
        <time>2022-08-27T11:48:47Z</time>
      </trkpt>
      <trkpt lat="46.7103" lon="5.83244">
        <ele>673.8</ele>
        <time>2022-08-27T11:48:52Z</time>
      </trkpt>
      <trkpt lat="46.71018" lon="5.83279">
        <ele>672.4</ele>
        <time>2022-08-27T11:48:55Z</time>
      </trkpt>
      <trkpt lat="46.7099" lon="5.83341">
        <ele>671.6</ele>
        <time>2022-08-27T11:49:01Z</time>
      </trkpt>
      <trkpt lat="46.70964" lon="5.83406">
        <ele>672.4</ele>
        <time>2022-08-27T11:49:08Z</time>
      </trkpt>
      <trkpt lat="46.70954" lon="5.83441">
        <ele>673.6</ele>
        <time>2022-08-27T11:49:12Z</time>
      </trkpt>
      <trkpt lat="46.70949" lon="5.83458">
        <ele>674.6</ele>
        <time>2022-08-27T11:49:14Z</time>
      </trkpt>
      <trkpt lat="46.70946" lon="5.83466">
        <ele>675</ele>
        <time>2022-08-27T11:49:15Z</time>
      </trkpt>
      <trkpt lat="46.70941" lon="5.83482">
        <ele>675.6</ele>
        <time>2022-08-27T11:49:17Z</time>
      </trkpt>
      <trkpt lat="46.70932" lon="5.83507">
        <ele>676.8</ele>
        <time>2022-08-27T11:49:20Z</time>
      </trkpt>
      <trkpt lat="46.70929" lon="5.83515">
        <ele>677</ele>
        <time>2022-08-27T11:49:21Z</time>
      </trkpt>
      <trkpt lat="46.70918" lon="5.83546">
        <ele>678</ele>
        <time>2022-08-27T11:49:25Z</time>
      </trkpt>
      <trkpt lat="46.70909" lon="5.83568">
        <ele>678.8</ele>
        <time>2022-08-27T11:49:28Z</time>
      </trkpt>
      <trkpt lat="46.70906" lon="5.83575">
        <ele>679.4</ele>
        <time>2022-08-27T11:49:29Z</time>
      </trkpt>
      <trkpt lat="46.70884" lon="5.83634">
        <ele>680</ele>
        <time>2022-08-27T11:49:36Z</time>
      </trkpt>
      <trkpt lat="46.70863" lon="5.83697">
        <ele>680</ele>
        <time>2022-08-27T11:49:43Z</time>
      </trkpt>
      <trkpt lat="46.70843" lon="5.83755">
        <ele>679.4</ele>
        <time>2022-08-27T11:49:49Z</time>
      </trkpt>
      <trkpt lat="46.70828" lon="5.83799">
        <ele>678.2</ele>
        <time>2022-08-27T11:49:53Z</time>
      </trkpt>
      <trkpt lat="46.70824" lon="5.83811">
        <ele>678</ele>
        <time>2022-08-27T11:49:54Z</time>
      </trkpt>
      <trkpt lat="46.70815" lon="5.83851">
        <ele>676.6</ele>
        <time>2022-08-27T11:49:57Z</time>
      </trkpt>
      <trkpt lat="46.70813" lon="5.83866">
        <ele>676</ele>
        <time>2022-08-27T11:49:58Z</time>
      </trkpt>
      <trkpt lat="46.70808" lon="5.83895">
        <ele>675</ele>
        <time>2022-08-27T11:50:00Z</time>
      </trkpt>
      <trkpt lat="46.70798" lon="5.83953">
        <ele>673.8</ele>
        <time>2022-08-27T11:50:04Z</time>
      </trkpt>
      <trkpt lat="46.70795" lon="5.83967">
        <ele>672.6</ele>
        <time>2022-08-27T11:50:05Z</time>
      </trkpt>
      <trkpt lat="46.70779" lon="5.84021">
        <ele>671.4</ele>
        <time>2022-08-27T11:50:09Z</time>
      </trkpt>
      <trkpt lat="46.70775" lon="5.84034">
        <ele>671.4</ele>
        <time>2022-08-27T11:50:10Z</time>
      </trkpt>
      <trkpt lat="46.70751" lon="5.84117">
        <ele>670.8</ele>
        <time>2022-08-27T11:50:17Z</time>
      </trkpt>
      <trkpt lat="46.7073" lon="5.84195">
        <ele>671</ele>
        <time>2022-08-27T11:50:24Z</time>
      </trkpt>
      <trkpt lat="46.70714" lon="5.84279">
        <ele>671</ele>
        <time>2022-08-27T11:50:31Z</time>
      </trkpt>
      <trkpt lat="46.70712" lon="5.84291">
        <ele>671</ele>
        <time>2022-08-27T11:50:32Z</time>
      </trkpt>
      <trkpt lat="46.70696" lon="5.84378">
        <ele>671.2</ele>
        <time>2022-08-27T11:50:39Z</time>
      </trkpt>
      <trkpt lat="46.70692" lon="5.8439">
        <ele>671.2</ele>
        <time>2022-08-27T11:50:40Z</time>
      </trkpt>
      <trkpt lat="46.70672" lon="5.84434">
        <ele>671</ele>
        <time>2022-08-27T11:50:44Z</time>
      </trkpt>
      <trkpt lat="46.70631" lon="5.84498">
        <ele>670.6</ele>
        <time>2022-08-27T11:50:51Z</time>
      </trkpt>
      <trkpt lat="46.7062" lon="5.84515">
        <ele>670.4</ele>
        <time>2022-08-27T11:50:53Z</time>
      </trkpt>
      <trkpt lat="46.70583" lon="5.84574">
        <ele>670.8</ele>
        <time>2022-08-27T11:51:00Z</time>
      </trkpt>
      <trkpt lat="46.70569" lon="5.84599">
        <ele>671.6</ele>
        <time>2022-08-27T11:51:03Z</time>
      </trkpt>
      <trkpt lat="46.7055" lon="5.84637">
        <ele>671.8</ele>
        <time>2022-08-27T11:51:07Z</time>
      </trkpt>
      <trkpt lat="46.70519" lon="5.84708">
        <ele>671.2</ele>
        <time>2022-08-27T11:51:14Z</time>
      </trkpt>
      <trkpt lat="46.70501" lon="5.8475">
        <ele>670.8</ele>
        <time>2022-08-27T11:51:18Z</time>
      </trkpt>
      <trkpt lat="46.70477" lon="5.848">
        <ele>670.4</ele>
        <time>2022-08-27T11:51:23Z</time>
      </trkpt>
      <trkpt lat="46.70466" lon="5.84818">
        <ele>670.4</ele>
        <time>2022-08-27T11:51:25Z</time>
      </trkpt>
      <trkpt lat="46.70425" lon="5.84871">
        <ele>670.6</ele>
        <time>2022-08-27T11:51:32Z</time>
      </trkpt>
      <trkpt lat="46.70406" lon="5.84891">
        <ele>670.8</ele>
        <time>2022-08-27T11:51:35Z</time>
      </trkpt>
      <trkpt lat="46.70386" lon="5.84906">
        <ele>671</ele>
        <time>2022-08-27T11:51:38Z</time>
      </trkpt>
      <trkpt lat="46.7034" lon="5.84941">
        <ele>671.4</ele>
        <time>2022-08-27T11:51:45Z</time>
      </trkpt>
      <trkpt lat="46.7033" lon="5.84956">
        <ele>671.6</ele>
        <time>2022-08-27T11:51:47Z</time>
      </trkpt>
      <trkpt lat="46.70315" lon="5.84983">
        <ele>672</ele>
        <time>2022-08-27T11:51:50Z</time>
      </trkpt>
      <trkpt lat="46.70282" lon="5.85048">
        <ele>672</ele>
        <time>2022-08-27T11:51:57Z</time>
      </trkpt>
      <trkpt lat="46.7025" lon="5.85111">
        <ele>672</ele>
        <time>2022-08-27T11:52:04Z</time>
      </trkpt>
      <trkpt lat="46.70242" lon="5.85129">
        <ele>672.2</ele>
        <time>2022-08-27T11:52:06Z</time>
      </trkpt>
      <trkpt lat="46.70209" lon="5.85187">
        <ele>672.6</ele>
        <time>2022-08-27T11:52:13Z</time>
      </trkpt>
      <trkpt lat="46.70204" lon="5.85196">
        <ele>672.8</ele>
        <time>2022-08-27T11:52:14Z</time>
      </trkpt>
      <trkpt lat="46.70172" lon="5.85252">
        <ele>673</ele>
        <time>2022-08-27T11:52:21Z</time>
      </trkpt>
      <trkpt lat="46.70142" lon="5.85297">
        <ele>673.8</ele>
        <time>2022-08-27T11:52:27Z</time>
      </trkpt>
      <trkpt lat="46.70136" lon="5.85302">
        <ele>673.8</ele>
        <time>2022-08-27T11:52:28Z</time>
      </trkpt>
      <trkpt lat="46.70123" lon="5.85308">
        <ele>674.2</ele>
        <time>2022-08-27T11:52:30Z</time>
      </trkpt>
      <trkpt lat="46.70115" lon="5.85308">
        <ele>674.2</ele>
        <time>2022-08-27T11:52:31Z</time>
      </trkpt>
      <trkpt lat="46.70107" lon="5.85307">
        <ele>674.4</ele>
        <time>2022-08-27T11:52:32Z</time>
      </trkpt>
      <trkpt lat="46.70092" lon="5.85301">
        <ele>674.6</ele>
        <time>2022-08-27T11:52:34Z</time>
      </trkpt>
      <trkpt lat="46.70084" lon="5.85299">
        <ele>674.6</ele>
        <time>2022-08-27T11:52:35Z</time>
      </trkpt>
      <trkpt lat="46.70046" lon="5.8529">
        <ele>674.6</ele>
        <time>2022-08-27T11:52:40Z</time>
      </trkpt>
      <trkpt lat="46.69993" lon="5.85292">
        <ele>674.6</ele>
        <time>2022-08-27T11:52:47Z</time>
      </trkpt>
      <trkpt lat="46.69935" lon="5.85298">
        <ele>675</ele>
        <time>2022-08-27T11:52:55Z</time>
      </trkpt>
      <trkpt lat="46.69928" lon="5.85299">
        <ele>675</ele>
        <time>2022-08-27T11:52:56Z</time>
      </trkpt>
      <trkpt lat="46.69871" lon="5.85305">
        <ele>675.8</ele>
        <time>2022-08-27T11:53:04Z</time>
      </trkpt>
      <trkpt lat="46.69842" lon="5.85308">
        <ele>676</ele>
        <time>2022-08-27T11:53:08Z</time>
      </trkpt>
      <trkpt lat="46.69784" lon="5.85316">
        <ele>676.4</ele>
        <time>2022-08-27T11:53:16Z</time>
      </trkpt>
      <trkpt lat="46.6977" lon="5.85317">
        <ele>676.6</ele>
        <time>2022-08-27T11:53:18Z</time>
      </trkpt>
      <trkpt lat="46.69734" lon="5.85321">
        <ele>677</ele>
        <time>2022-08-27T11:53:23Z</time>
      </trkpt>
      <trkpt lat="46.69714" lon="5.85323">
        <ele>677.4</ele>
        <time>2022-08-27T11:53:26Z</time>
      </trkpt>
      <trkpt lat="46.69667" lon="5.85327">
        <ele>678</ele>
        <time>2022-08-27T11:53:33Z</time>
      </trkpt>
      <trkpt lat="46.69661" lon="5.85328">
        <ele>678.2</ele>
        <time>2022-08-27T11:53:34Z</time>
      </trkpt>
      <trkpt lat="46.69614" lon="5.85334">
        <ele>678.8</ele>
        <time>2022-08-27T11:53:41Z</time>
      </trkpt>
      <trkpt lat="46.69572" lon="5.85347">
        <ele>679.2</ele>
        <time>2022-08-27T11:53:47Z</time>
      </trkpt>
      <trkpt lat="46.69565" lon="5.8535">
        <ele>679.2</ele>
        <time>2022-08-27T11:53:48Z</time>
      </trkpt>
      <trkpt lat="46.69558" lon="5.85354">
        <ele>679.4</ele>
        <time>2022-08-27T11:53:49Z</time>
      </trkpt>
      <trkpt lat="46.69524" lon="5.85379">
        <ele>679.6</ele>
        <time>2022-08-27T11:53:54Z</time>
      </trkpt>
      <trkpt lat="46.69482" lon="5.85411">
        <ele>679.6</ele>
        <time>2022-08-27T11:54:00Z</time>
      </trkpt>
      <trkpt lat="46.69433" lon="5.85444">
        <ele>679.8</ele>
        <time>2022-08-27T11:54:07Z</time>
      </trkpt>
      <trkpt lat="46.69413" lon="5.85459">
        <ele>680.2</ele>
        <time>2022-08-27T11:54:10Z</time>
      </trkpt>
      <trkpt lat="46.69359" lon="5.85497">
        <ele>681</ele>
        <time>2022-08-27T11:54:18Z</time>
      </trkpt>
      <trkpt lat="46.69339" lon="5.85511">
        <ele>681.4</ele>
        <time>2022-08-27T11:54:21Z</time>
      </trkpt>
      <trkpt lat="46.69312" lon="5.8553">
        <ele>681.4</ele>
        <time>2022-08-27T11:54:25Z</time>
      </trkpt>
      <trkpt lat="46.69264" lon="5.85564">
        <ele>681.8</ele>
        <time>2022-08-27T11:54:32Z</time>
      </trkpt>
      <trkpt lat="46.69236" lon="5.85584">
        <ele>682.4</ele>
        <time>2022-08-27T11:54:36Z</time>
      </trkpt>
      <trkpt lat="46.6919" lon="5.85616">
        <ele>683.2</ele>
        <time>2022-08-27T11:54:43Z</time>
      </trkpt>
      <trkpt lat="46.69178" lon="5.85626">
        <ele>683.4</ele>
        <time>2022-08-27T11:54:45Z</time>
      </trkpt>
      <trkpt lat="46.69132" lon="5.85659">
        <ele>684.2</ele>
        <time>2022-08-27T11:54:52Z</time>
      </trkpt>
      <trkpt lat="46.69081" lon="5.85693">
        <ele>684.4</ele>
        <time>2022-08-27T11:55:00Z</time>
      </trkpt>
      <trkpt lat="46.69039" lon="5.85728">
        <ele>684.4</ele>
        <time>2022-08-27T11:55:07Z</time>
      </trkpt>
      <trkpt lat="46.69022" lon="5.85748">
        <ele>684.4</ele>
        <time>2022-08-27T11:55:10Z</time>
      </trkpt>
      <trkpt lat="46.68984" lon="5.85791">
        <ele>684.8</ele>
        <time>2022-08-27T11:55:17Z</time>
      </trkpt>
      <trkpt lat="46.68973" lon="5.85802">
        <ele>684.8</ele>
        <time>2022-08-27T11:55:19Z</time>
      </trkpt>
      <trkpt lat="46.68958" lon="5.85818">
        <ele>685.2</ele>
        <time>2022-08-27T11:55:22Z</time>
      </trkpt>
      <trkpt lat="46.68944" lon="5.85833">
        <ele>685.6</ele>
        <time>2022-08-27T11:55:25Z</time>
      </trkpt>
      <trkpt lat="46.68931" lon="5.85849">
        <ele>686.4</ele>
        <time>2022-08-27T11:55:28Z</time>
      </trkpt>
      <trkpt lat="46.68926" lon="5.85855">
        <ele>686.6</ele>
        <time>2022-08-27T11:55:29Z</time>
      </trkpt>
      <trkpt lat="46.68917" lon="5.85866">
        <ele>687</ele>
        <time>2022-08-27T11:55:31Z</time>
      </trkpt>
      <trkpt lat="46.68903" lon="5.85886">
        <ele>687.6</ele>
        <time>2022-08-27T11:55:34Z</time>
      </trkpt>
      <trkpt lat="46.68889" lon="5.85917">
        <ele>688</ele>
        <time>2022-08-27T11:55:38Z</time>
      </trkpt>
      <trkpt lat="46.68883" lon="5.85934">
        <ele>688</ele>
        <time>2022-08-27T11:55:40Z</time>
      </trkpt>
      <trkpt lat="46.68874" lon="5.85957">
        <ele>688.8</ele>
        <time>2022-08-27T11:55:43Z</time>
      </trkpt>
      <trkpt lat="46.68871" lon="5.85964">
        <ele>689</ele>
        <time>2022-08-27T11:55:44Z</time>
      </trkpt>
      <trkpt lat="46.68865" lon="5.8598">
        <ele>689.4</ele>
        <time>2022-08-27T11:55:46Z</time>
      </trkpt>
      <trkpt lat="46.68855" lon="5.86017">
        <ele>690.2</ele>
        <time>2022-08-27T11:55:50Z</time>
      </trkpt>
      <trkpt lat="46.68849" lon="5.86034">
        <ele>690.4</ele>
        <time>2022-08-27T11:55:52Z</time>
      </trkpt>
      <trkpt lat="46.68833" lon="5.86089">
        <ele>690.6</ele>
        <time>2022-08-27T11:55:58Z</time>
      </trkpt>
      <trkpt lat="46.68816" lon="5.86133">
        <ele>690.2</ele>
        <time>2022-08-27T11:56:03Z</time>
      </trkpt>
      <trkpt lat="46.68794" lon="5.86196">
        <ele>689.6</ele>
        <time>2022-08-27T11:56:10Z</time>
      </trkpt>
      <trkpt lat="46.68773" lon="5.86262">
        <ele>690</ele>
        <time>2022-08-27T11:56:17Z</time>
      </trkpt>
      <trkpt lat="46.68749" lon="5.86335">
        <ele>690</ele>
        <time>2022-08-27T11:56:25Z</time>
      </trkpt>
      <trkpt lat="46.6874" lon="5.86362">
        <ele>690.2</ele>
        <time>2022-08-27T11:56:28Z</time>
      </trkpt>
      <trkpt lat="46.68727" lon="5.86397">
        <ele>690.4</ele>
        <time>2022-08-27T11:56:32Z</time>
      </trkpt>
      <trkpt lat="46.68709" lon="5.86448">
        <ele>690.6</ele>
        <time>2022-08-27T11:56:38Z</time>
      </trkpt>
      <trkpt lat="46.687" lon="5.86474">
        <ele>691</ele>
        <time>2022-08-27T11:56:41Z</time>
      </trkpt>
      <trkpt lat="46.68683" lon="5.86526">
        <ele>691.8</ele>
        <time>2022-08-27T11:56:47Z</time>
      </trkpt>
      <trkpt lat="46.68669" lon="5.86559">
        <ele>692</ele>
        <time>2022-08-27T11:56:51Z</time>
      </trkpt>
      <trkpt lat="46.68657" lon="5.86581">
        <ele>692.4</ele>
        <time>2022-08-27T11:56:54Z</time>
      </trkpt>
      <trkpt lat="46.68648" lon="5.86592">
        <ele>692.8</ele>
        <time>2022-08-27T11:56:56Z</time>
      </trkpt>
      <trkpt lat="46.68639" lon="5.86603">
        <ele>693</ele>
        <time>2022-08-27T11:56:58Z</time>
      </trkpt>
      <trkpt lat="46.68616" lon="5.86631">
        <ele>694</ele>
        <time>2022-08-27T11:57:03Z</time>
      </trkpt>
      <trkpt lat="46.68612" lon="5.86636">
        <ele>694.2</ele>
        <time>2022-08-27T11:57:04Z</time>
      </trkpt>
      <trkpt lat="46.68599" lon="5.86653">
        <ele>695.4</ele>
        <time>2022-08-27T11:57:07Z</time>
      </trkpt>
      <trkpt lat="46.68588" lon="5.86674">
        <ele>695.8</ele>
        <time>2022-08-27T11:57:10Z</time>
      </trkpt>
      <trkpt lat="46.68584" lon="5.86681">
        <ele>695.8</ele>
        <time>2022-08-27T11:57:11Z</time>
      </trkpt>
      <trkpt lat="46.68559" lon="5.86736">
        <ele>696.2</ele>
        <time>2022-08-27T11:57:18Z</time>
      </trkpt>
      <trkpt lat="46.68544" lon="5.86766">
        <ele>696.4</ele>
        <time>2022-08-27T11:57:22Z</time>
      </trkpt>
      <trkpt lat="46.68531" lon="5.86797">
        <ele>697.2</ele>
        <time>2022-08-27T11:57:26Z</time>
      </trkpt>
      <trkpt lat="46.68515" lon="5.86835">
        <ele>697.6</ele>
        <time>2022-08-27T11:57:31Z</time>
      </trkpt>
      <trkpt lat="46.68507" lon="5.86851">
        <ele>698</ele>
        <time>2022-08-27T11:57:33Z</time>
      </trkpt>
      <trkpt lat="46.68489" lon="5.86887">
        <ele>698.6</ele>
        <time>2022-08-27T11:57:38Z</time>
      </trkpt>
      <trkpt lat="46.68474" lon="5.86916">
        <ele>698.6</ele>
        <time>2022-08-27T11:57:42Z</time>
      </trkpt>
      <trkpt lat="46.68451" lon="5.86973">
        <ele>699.2</ele>
        <time>2022-08-27T11:57:49Z</time>
      </trkpt>
      <trkpt lat="46.68441" lon="5.86997">
        <ele>699.4</ele>
        <time>2022-08-27T11:57:52Z</time>
      </trkpt>
      <trkpt lat="46.68422" lon="5.87032">
        <ele>700</ele>
        <time>2022-08-27T11:57:57Z</time>
      </trkpt>
      <trkpt lat="46.68397" lon="5.87084">
        <ele>700.2</ele>
        <time>2022-08-27T11:58:04Z</time>
      </trkpt>
      <trkpt lat="46.68384" lon="5.87116">
        <ele>700.6</ele>
        <time>2022-08-27T11:58:08Z</time>
      </trkpt>
      <trkpt lat="46.68374" lon="5.87137">
        <ele>701.4</ele>
        <time>2022-08-27T11:58:11Z</time>
      </trkpt>
      <trkpt lat="46.68367" lon="5.87151">
        <ele>701.8</ele>
        <time>2022-08-27T11:58:13Z</time>
      </trkpt>
      <trkpt lat="46.68347" lon="5.87194">
        <ele>702.8</ele>
        <time>2022-08-27T11:58:19Z</time>
      </trkpt>
      <trkpt lat="46.68344" lon="5.872">
        <ele>703</ele>
        <time>2022-08-27T11:58:20Z</time>
      </trkpt>
      <trkpt lat="46.68331" lon="5.87232">
        <ele>703.2</ele>
        <time>2022-08-27T11:58:24Z</time>
      </trkpt>
      <trkpt lat="46.68328" lon="5.87241">
        <ele>703.4</ele>
        <time>2022-08-27T11:58:25Z</time>
      </trkpt>
      <trkpt lat="46.68313" lon="5.87292">
        <ele>703.8</ele>
        <time>2022-08-27T11:58:31Z</time>
      </trkpt>
      <trkpt lat="46.68305" lon="5.87318">
        <ele>704</ele>
        <time>2022-08-27T11:58:34Z</time>
      </trkpt>
      <trkpt lat="46.68293" lon="5.8736">
        <ele>704.2</ele>
        <time>2022-08-27T11:58:39Z</time>
      </trkpt>
      <trkpt lat="46.68275" lon="5.87421">
        <ele>705</ele>
        <time>2022-08-27T11:58:47Z</time>
      </trkpt>
      <trkpt lat="46.68273" lon="5.87428">
        <ele>705.4</ele>
        <time>2022-08-27T11:58:48Z</time>
      </trkpt>
      <trkpt lat="46.6827" lon="5.87433">
        <ele>705.4</ele>
        <time>2022-08-27T11:58:49Z</time>
      </trkpt>
      <trkpt lat="46.68262" lon="5.87451">
        <ele>706.2</ele>
        <time>2022-08-27T11:58:52Z</time>
      </trkpt>
      <trkpt lat="46.68257" lon="5.87462">
        <ele>706.8</ele>
        <time>2022-08-27T11:58:54Z</time>
      </trkpt>
      <trkpt lat="46.68249" lon="5.87478">
        <ele>707.6</ele>
        <time>2022-08-27T11:58:57Z</time>
      </trkpt>
      <trkpt lat="46.68239" lon="5.875">
        <ele>708.6</ele>
        <time>2022-08-27T11:59:01Z</time>
      </trkpt>
      <trkpt lat="46.68225" lon="5.87531">
        <ele>710</ele>
        <time>2022-08-27T11:59:06Z</time>
      </trkpt>
      <trkpt lat="46.68216" lon="5.87545">
        <ele>710.8</ele>
        <time>2022-08-27T11:59:09Z</time>
      </trkpt>
      <trkpt lat="46.68211" lon="5.87553">
        <ele>711.2</ele>
        <time>2022-08-27T11:59:11Z</time>
      </trkpt>
      <trkpt lat="46.68199" lon="5.87578">
        <ele>712.4</ele>
        <time>2022-08-27T11:59:16Z</time>
      </trkpt>
      <trkpt lat="46.68194" lon="5.87587">
        <ele>712.6</ele>
        <time>2022-08-27T11:59:18Z</time>
      </trkpt>
      <trkpt lat="46.68181" lon="5.87614">
        <ele>713.4</ele>
        <time>2022-08-27T11:59:24Z</time>
      </trkpt>
      <trkpt lat="46.68176" lon="5.87623">
        <ele>713.8</ele>
        <time>2022-08-27T11:59:26Z</time>
      </trkpt>
      <trkpt lat="46.68169" lon="5.87643">
        <ele>714.6</ele>
        <time>2022-08-27T11:59:30Z</time>
      </trkpt>
      <trkpt lat="46.68166" lon="5.87653">
        <ele>715</ele>
        <time>2022-08-27T11:59:32Z</time>
      </trkpt>
      <trkpt lat="46.68161" lon="5.87679">
        <ele>715.8</ele>
        <time>2022-08-27T11:59:37Z</time>
      </trkpt>
      <trkpt lat="46.6816" lon="5.87689">
        <ele>716</ele>
        <time>2022-08-27T11:59:39Z</time>
      </trkpt>
      <trkpt lat="46.68159" lon="5.87715">
        <ele>717</ele>
        <time>2022-08-27T11:59:43Z</time>
      </trkpt>
      <trkpt lat="46.68159" lon="5.87729">
        <ele>717.2</ele>
        <time>2022-08-27T11:59:45Z</time>
      </trkpt>
      <trkpt lat="46.6816" lon="5.87769">
        <ele>717.4</ele>
        <time>2022-08-27T11:59:50Z</time>
      </trkpt>
      <trkpt lat="46.68159" lon="5.87785">
        <ele>717.6</ele>
        <time>2022-08-27T11:59:52Z</time>
      </trkpt>
      <trkpt lat="46.6816" lon="5.87838">
        <ele>717.6</ele>
        <time>2022-08-27T11:59:58Z</time>
      </trkpt>
      <trkpt lat="46.6816" lon="5.87846">
        <ele>717.6</ele>
        <time>2022-08-27T11:59:59Z</time>
      </trkpt>
      <trkpt lat="46.68161" lon="5.87896">
        <ele>718.2</ele>
        <time>2022-08-27T12:00:05Z</time>
      </trkpt>
      <trkpt lat="46.68162" lon="5.87982">
        <ele>718.6</ele>
        <time>2022-08-27T12:00:15Z</time>
      </trkpt>
      <trkpt lat="46.68162" lon="5.87999">
        <ele>718.6</ele>
        <time>2022-08-27T12:00:17Z</time>
      </trkpt>
      <trkpt lat="46.68163" lon="5.8805">
        <ele>719.4</ele>
        <time>2022-08-27T12:00:23Z</time>
      </trkpt>
      <trkpt lat="46.68163" lon="5.88083">
        <ele>719.8</ele>
        <time>2022-08-27T12:00:27Z</time>
      </trkpt>
      <trkpt lat="46.68163" lon="5.88118">
        <ele>720.4</ele>
        <time>2022-08-27T12:00:31Z</time>
      </trkpt>
      <trkpt lat="46.68162" lon="5.88128">
        <ele>720.6</ele>
        <time>2022-08-27T12:00:32Z</time>
      </trkpt>
      <trkpt lat="46.68159" lon="5.88146">
        <ele>720.8</ele>
        <time>2022-08-27T12:00:34Z</time>
      </trkpt>
      <trkpt lat="46.68155" lon="5.88165">
        <ele>720.8</ele>
        <time>2022-08-27T12:00:36Z</time>
      </trkpt>
      <trkpt lat="46.68146" lon="5.88193">
        <ele>720.8</ele>
        <time>2022-08-27T12:00:39Z</time>
      </trkpt>
      <trkpt lat="46.68122" lon="5.88247">
        <ele>720.4</ele>
        <time>2022-08-27T12:00:45Z</time>
      </trkpt>
      <trkpt lat="46.68097" lon="5.88302">
        <ele>720.2</ele>
        <time>2022-08-27T12:00:52Z</time>
      </trkpt>
      <trkpt lat="46.6807" lon="5.88362">
        <ele>721.2</ele>
        <time>2022-08-27T12:01:00Z</time>
      </trkpt>
      <trkpt lat="46.68067" lon="5.88369">
        <ele>721.4</ele>
        <time>2022-08-27T12:01:01Z</time>
      </trkpt>
      <trkpt lat="46.68044" lon="5.88418">
        <ele>722.6</ele>
        <time>2022-08-27T12:01:08Z</time>
      </trkpt>
      <trkpt lat="46.68041" lon="5.88424">
        <ele>722.8</ele>
        <time>2022-08-27T12:01:09Z</time>
      </trkpt>
      <trkpt lat="46.68024" lon="5.88457">
        <ele>723.4</ele>
        <time>2022-08-27T12:01:14Z</time>
      </trkpt>
      <trkpt lat="46.68016" lon="5.88477">
        <ele>724</ele>
        <time>2022-08-27T12:01:17Z</time>
      </trkpt>
      <trkpt lat="46.68004" lon="5.88504">
        <ele>724.4</ele>
        <time>2022-08-27T12:01:21Z</time>
      </trkpt>
      <trkpt lat="46.67995" lon="5.88523">
        <ele>725</ele>
        <time>2022-08-27T12:01:24Z</time>
      </trkpt>
      <trkpt lat="46.67983" lon="5.88548">
        <ele>725.8</ele>
        <time>2022-08-27T12:01:28Z</time>
      </trkpt>
      <trkpt lat="46.67978" lon="5.88561">
        <ele>726</ele>
        <time>2022-08-27T12:01:30Z</time>
      </trkpt>
      <trkpt lat="46.67961" lon="5.88598">
        <ele>726.8</ele>
        <time>2022-08-27T12:01:36Z</time>
      </trkpt>
      <trkpt lat="46.6795" lon="5.88622">
        <ele>727.2</ele>
        <time>2022-08-27T12:01:40Z</time>
      </trkpt>
      <trkpt lat="46.67942" lon="5.8864">
        <ele>728</ele>
        <time>2022-08-27T12:01:43Z</time>
      </trkpt>
      <trkpt lat="46.67939" lon="5.88647">
        <ele>728.2</ele>
        <time>2022-08-27T12:01:44Z</time>
      </trkpt>
      <trkpt lat="46.67934" lon="5.88658">
        <ele>728.8</ele>
        <time>2022-08-27T12:01:46Z</time>
      </trkpt>
      <trkpt lat="46.67929" lon="5.88669">
        <ele>729.2</ele>
        <time>2022-08-27T12:01:48Z</time>
      </trkpt>
      <trkpt lat="46.67923" lon="5.88679">
        <ele>729.8</ele>
        <time>2022-08-27T12:01:50Z</time>
      </trkpt>
      <trkpt lat="46.67916" lon="5.88695">
        <ele>730.4</ele>
        <time>2022-08-27T12:01:53Z</time>
      </trkpt>
      <trkpt lat="46.67907" lon="5.88716">
        <ele>731.6</ele>
        <time>2022-08-27T12:01:57Z</time>
      </trkpt>
      <trkpt lat="46.67899" lon="5.88732">
        <ele>732.2</ele>
        <time>2022-08-27T12:02:00Z</time>
      </trkpt>
      <trkpt lat="46.67892" lon="5.88748">
        <ele>733</ele>
        <time>2022-08-27T12:02:03Z</time>
      </trkpt>
      <trkpt lat="46.67889" lon="5.88753">
        <ele>733.4</ele>
        <time>2022-08-27T12:02:04Z</time>
      </trkpt>
      <trkpt lat="46.67884" lon="5.88764">
        <ele>734</ele>
        <time>2022-08-27T12:02:06Z</time>
      </trkpt>
      <trkpt lat="46.67881" lon="5.88769">
        <ele>734</ele>
        <time>2022-08-27T12:02:07Z</time>
      </trkpt>
      <trkpt lat="46.67874" lon="5.88786">
        <ele>734.6</ele>
        <time>2022-08-27T12:02:10Z</time>
      </trkpt>
      <trkpt lat="46.67868" lon="5.88796">
        <ele>735</ele>
        <time>2022-08-27T12:02:12Z</time>
      </trkpt>
      <trkpt lat="46.67865" lon="5.888">
        <ele>735.2</ele>
        <time>2022-08-27T12:02:13Z</time>
      </trkpt>
      <trkpt lat="46.6786" lon="5.88809">
        <ele>735.6</ele>
        <time>2022-08-27T12:02:15Z</time>
      </trkpt>
      <trkpt lat="46.67854" lon="5.8882">
        <ele>736.2</ele>
        <time>2022-08-27T12:02:17Z</time>
      </trkpt>
      <trkpt lat="46.67846" lon="5.88835">
        <ele>737</ele>
        <time>2022-08-27T12:02:20Z</time>
      </trkpt>
      <trkpt lat="46.67842" lon="5.88845">
        <ele>737.2</ele>
        <time>2022-08-27T12:02:22Z</time>
      </trkpt>
      <trkpt lat="46.67839" lon="5.8885">
        <ele>737.2</ele>
        <time>2022-08-27T12:02:23Z</time>
      </trkpt>
      <trkpt lat="46.67834" lon="5.88861">
        <ele>737.6</ele>
        <time>2022-08-27T12:02:25Z</time>
      </trkpt>
      <trkpt lat="46.67821" lon="5.88887">
        <ele>738.4</ele>
        <time>2022-08-27T12:02:30Z</time>
      </trkpt>
      <trkpt lat="46.67819" lon="5.88892">
        <ele>738.6</ele>
        <time>2022-08-27T12:02:31Z</time>
      </trkpt>
      <trkpt lat="46.67818" lon="5.88898">
        <ele>739</ele>
        <time>2022-08-27T12:02:32Z</time>
      </trkpt>
      <trkpt lat="46.67815" lon="5.88909">
        <ele>739.4</ele>
        <time>2022-08-27T12:02:34Z</time>
      </trkpt>
      <trkpt lat="46.67814" lon="5.88921">
        <ele>740</ele>
        <time>2022-08-27T12:02:36Z</time>
      </trkpt>
      <trkpt lat="46.67816" lon="5.88947">
        <ele>740.4</ele>
        <time>2022-08-27T12:02:40Z</time>
      </trkpt>
      <trkpt lat="46.67819" lon="5.88966">
        <ele>740.8</ele>
        <time>2022-08-27T12:02:43Z</time>
      </trkpt>
      <trkpt lat="46.67824" lon="5.88998">
        <ele>741.8</ele>
        <time>2022-08-27T12:02:48Z</time>
      </trkpt>
      <trkpt lat="46.67828" lon="5.89024">
        <ele>742.6</ele>
        <time>2022-08-27T12:02:52Z</time>
      </trkpt>
      <trkpt lat="46.67829" lon="5.8903">
        <ele>743</ele>
        <time>2022-08-27T12:02:53Z</time>
      </trkpt>
      <trkpt lat="46.67835" lon="5.89069">
        <ele>744</ele>
        <time>2022-08-27T12:02:59Z</time>
      </trkpt>
      <trkpt lat="46.67835" lon="5.89076">
        <ele>744.6</ele>
        <time>2022-08-27T12:03:00Z</time>
      </trkpt>
      <trkpt lat="46.67838" lon="5.89095">
        <ele>745.2</ele>
        <time>2022-08-27T12:03:03Z</time>
      </trkpt>
      <trkpt lat="46.67842" lon="5.8912">
        <ele>746.4</ele>
        <time>2022-08-27T12:03:07Z</time>
      </trkpt>
      <trkpt lat="46.67844" lon="5.89132">
        <ele>746.6</ele>
        <time>2022-08-27T12:03:09Z</time>
      </trkpt>
      <trkpt lat="46.67848" lon="5.89151">
        <ele>747.4</ele>
        <time>2022-08-27T12:03:12Z</time>
      </trkpt>
      <trkpt lat="46.67857" lon="5.89182">
        <ele>748.4</ele>
        <time>2022-08-27T12:03:17Z</time>
      </trkpt>
      <trkpt lat="46.67859" lon="5.89188">
        <ele>748.6</ele>
        <time>2022-08-27T12:03:18Z</time>
      </trkpt>
      <trkpt lat="46.67861" lon="5.89194">
        <ele>748.8</ele>
        <time>2022-08-27T12:03:19Z</time>
      </trkpt>
      <trkpt lat="46.6787" lon="5.89217">
        <ele>749.4</ele>
        <time>2022-08-27T12:03:23Z</time>
      </trkpt>
      <trkpt lat="46.67873" lon="5.89223">
        <ele>749.4</ele>
        <time>2022-08-27T12:03:24Z</time>
      </trkpt>
      <trkpt lat="46.67875" lon="5.89229">
        <ele>749.6</ele>
        <time>2022-08-27T12:03:25Z</time>
      </trkpt>
      <trkpt lat="46.67881" lon="5.89245">
        <ele>750</ele>
        <time>2022-08-27T12:03:28Z</time>
      </trkpt>
      <trkpt lat="46.67888" lon="5.89262">
        <ele>750.2</ele>
        <time>2022-08-27T12:03:31Z</time>
      </trkpt>
      <trkpt lat="46.67893" lon="5.89282">
        <ele>750.4</ele>
        <time>2022-08-27T12:03:34Z</time>
      </trkpt>
      <trkpt lat="46.67894" lon="5.8929">
        <ele>750.6</ele>
        <time>2022-08-27T12:03:35Z</time>
      </trkpt>
      <trkpt lat="46.67896" lon="5.89314">
        <ele>751</ele>
        <time>2022-08-27T12:03:38Z</time>
      </trkpt>
      <trkpt lat="46.67895" lon="5.89329">
        <ele>751.2</ele>
        <time>2022-08-27T12:03:40Z</time>
      </trkpt>
      <trkpt lat="46.67892" lon="5.89343">
        <ele>751.6</ele>
        <time>2022-08-27T12:03:42Z</time>
      </trkpt>
      <trkpt lat="46.67887" lon="5.89402">
        <ele>752.4</ele>
        <time>2022-08-27T12:03:49Z</time>
      </trkpt>
      <trkpt lat="46.67886" lon="5.89411">
        <ele>752.6</ele>
        <time>2022-08-27T12:03:50Z</time>
      </trkpt>
      <trkpt lat="46.67884" lon="5.89453">
        <ele>753</ele>
        <time>2022-08-27T12:03:55Z</time>
      </trkpt>
      <trkpt lat="46.67876" lon="5.89507">
        <ele>754</ele>
        <time>2022-08-27T12:04:02Z</time>
      </trkpt>
      <trkpt lat="46.67872" lon="5.89568">
        <ele>754.6</ele>
        <time>2022-08-27T12:04:09Z</time>
      </trkpt>
      <trkpt lat="46.67871" lon="5.89594">
        <ele>754.8</ele>
        <time>2022-08-27T12:04:12Z</time>
      </trkpt>
      <trkpt lat="46.67872" lon="5.89629">
        <ele>754.6</ele>
        <time>2022-08-27T12:04:16Z</time>
      </trkpt>
      <trkpt lat="46.67871" lon="5.89701">
        <ele>754.8</ele>
        <time>2022-08-27T12:04:24Z</time>
      </trkpt>
      <trkpt lat="46.67871" lon="5.89709">
        <ele>754.8</ele>
        <time>2022-08-27T12:04:25Z</time>
      </trkpt>
      <trkpt lat="46.6787" lon="5.89749">
        <ele>755.4</ele>
        <time>2022-08-27T12:04:30Z</time>
      </trkpt>
      <trkpt lat="46.67869" lon="5.89764">
        <ele>756</ele>
        <time>2022-08-27T12:04:32Z</time>
      </trkpt>
      <trkpt lat="46.67868" lon="5.89795">
        <ele>756.4</ele>
        <time>2022-08-27T12:04:36Z</time>
      </trkpt>
      <trkpt lat="46.67868" lon="5.89819">
        <ele>757</ele>
        <time>2022-08-27T12:04:39Z</time>
      </trkpt>
      <trkpt lat="46.67867" lon="5.8985">
        <ele>757.2</ele>
        <time>2022-08-27T12:04:43Z</time>
      </trkpt>
      <trkpt lat="46.67866" lon="5.89879">
        <ele>758.2</ele>
        <time>2022-08-27T12:04:47Z</time>
      </trkpt>
      <trkpt lat="46.67866" lon="5.89886">
        <ele>758.4</ele>
        <time>2022-08-27T12:04:48Z</time>
      </trkpt>
      <trkpt lat="46.67868" lon="5.89899">
        <ele>758.6</ele>
        <time>2022-08-27T12:04:50Z</time>
      </trkpt>
      <trkpt lat="46.67873" lon="5.89912">
        <ele>759.2</ele>
        <time>2022-08-27T12:04:52Z</time>
      </trkpt>
      <trkpt lat="46.67884" lon="5.8993">
        <ele>759.8</ele>
        <time>2022-08-27T12:04:55Z</time>
      </trkpt>
      <trkpt lat="46.67909" lon="5.89962">
        <ele>760.4</ele>
        <time>2022-08-27T12:05:01Z</time>
      </trkpt>
      <trkpt lat="46.67913" lon="5.89967">
        <ele>760.4</ele>
        <time>2022-08-27T12:05:02Z</time>
      </trkpt>
      <trkpt lat="46.67929" lon="5.89997">
        <ele>761.4</ele>
        <time>2022-08-27T12:05:07Z</time>
      </trkpt>
      <trkpt lat="46.67931" lon="5.90005">
        <ele>761.6</ele>
        <time>2022-08-27T12:05:08Z</time>
      </trkpt>
      <trkpt lat="46.67935" lon="5.9002">
        <ele>762</ele>
        <time>2022-08-27T12:05:10Z</time>
      </trkpt>
      <trkpt lat="46.67938" lon="5.90045">
        <ele>762.6</ele>
        <time>2022-08-27T12:05:13Z</time>
      </trkpt>
      <trkpt lat="46.67938" lon="5.90053">
        <ele>762.6</ele>
        <time>2022-08-27T12:05:14Z</time>
      </trkpt>
      <trkpt lat="46.67941" lon="5.90102">
        <ele>763</ele>
        <time>2022-08-27T12:05:20Z</time>
      </trkpt>
      <trkpt lat="46.67946" lon="5.90172">
        <ele>763.8</ele>
        <time>2022-08-27T12:05:29Z</time>
      </trkpt>
      <trkpt lat="46.67947" lon="5.90187">
        <ele>764.2</ele>
        <time>2022-08-27T12:05:31Z</time>
      </trkpt>
      <trkpt lat="46.67947" lon="5.90211">
        <ele>765</ele>
        <time>2022-08-27T12:05:34Z</time>
      </trkpt>
      <trkpt lat="46.67949" lon="5.90237">
        <ele>765.4</ele>
        <time>2022-08-27T12:05:37Z</time>
      </trkpt>
      <trkpt lat="46.67953" lon="5.90279">
        <ele>766</ele>
        <time>2022-08-27T12:05:42Z</time>
      </trkpt>
      <trkpt lat="46.67957" lon="5.90306">
        <ele>766</ele>
        <time>2022-08-27T12:05:45Z</time>
      </trkpt>
      <trkpt lat="46.6797" lon="5.90382">
        <ele>765.8</ele>
        <time>2022-08-27T12:05:54Z</time>
      </trkpt>
      <trkpt lat="46.6798" lon="5.9041">
        <ele>766.2</ele>
        <time>2022-08-27T12:05:58Z</time>
      </trkpt>
      <trkpt lat="46.67986" lon="5.90423">
        <ele>766.4</ele>
        <time>2022-08-27T12:06:00Z</time>
      </trkpt>
      <trkpt lat="46.67995" lon="5.90442">
        <ele>767.2</ele>
        <time>2022-08-27T12:06:03Z</time>
      </trkpt>
      <trkpt lat="46.68006" lon="5.90466">
        <ele>768</ele>
        <time>2022-08-27T12:06:07Z</time>
      </trkpt>
      <trkpt lat="46.68009" lon="5.90473">
        <ele>768.4</ele>
        <time>2022-08-27T12:06:08Z</time>
      </trkpt>
      <trkpt lat="46.68018" lon="5.90492">
        <ele>769</ele>
        <time>2022-08-27T12:06:12Z</time>
      </trkpt>
      <trkpt lat="46.68022" lon="5.90502">
        <ele>769.4</ele>
        <time>2022-08-27T12:06:14Z</time>
      </trkpt>
      <trkpt lat="46.68029" lon="5.90515">
        <ele>770</ele>
        <time>2022-08-27T12:06:17Z</time>
      </trkpt>
      <trkpt lat="46.68031" lon="5.9052">
        <ele>770.4</ele>
        <time>2022-08-27T12:06:18Z</time>
      </trkpt>
      <trkpt lat="46.68033" lon="5.90525">
        <ele>770.6</ele>
        <time>2022-08-27T12:06:19Z</time>
      </trkpt>
      <trkpt lat="46.68048" lon="5.90555">
        <ele>771.6</ele>
        <time>2022-08-27T12:06:25Z</time>
      </trkpt>
      <trkpt lat="46.68054" lon="5.90565">
        <ele>772</ele>
        <time>2022-08-27T12:06:27Z</time>
      </trkpt>
      <trkpt lat="46.68064" lon="5.90574">
        <ele>772.8</ele>
        <time>2022-08-27T12:06:30Z</time>
      </trkpt>
      <trkpt lat="46.68076" lon="5.90582">
        <ele>773.4</ele>
        <time>2022-08-27T12:06:33Z</time>
      </trkpt>
      <trkpt lat="46.68079" lon="5.90583">
        <ele>774</ele>
        <time>2022-08-27T12:06:34Z</time>
      </trkpt>
      <trkpt lat="46.68097" lon="5.90597">
        <ele>775.4</ele>
        <time>2022-08-27T12:06:39Z</time>
      </trkpt>
      <trkpt lat="46.68099" lon="5.90601">
        <ele>775.6</ele>
        <time>2022-08-27T12:06:40Z</time>
      </trkpt>
      <trkpt lat="46.68104" lon="5.90613">
        <ele>776.6</ele>
        <time>2022-08-27T12:06:43Z</time>
      </trkpt>
      <trkpt lat="46.68105" lon="5.90619">
        <ele>776.8</ele>
        <time>2022-08-27T12:06:44Z</time>
      </trkpt>
      <trkpt lat="46.68105" lon="5.90644">
        <ele>777.8</ele>
        <time>2022-08-27T12:06:48Z</time>
      </trkpt>
      <trkpt lat="46.68104" lon="5.9065">
        <ele>778</ele>
        <time>2022-08-27T12:06:49Z</time>
      </trkpt>
      <trkpt lat="46.68097" lon="5.90666">
        <ele>778.8</ele>
        <time>2022-08-27T12:06:52Z</time>
      </trkpt>
      <trkpt lat="46.68091" lon="5.90676">
        <ele>779</ele>
        <time>2022-08-27T12:06:54Z</time>
      </trkpt>
      <trkpt lat="46.68077" lon="5.90694">
        <ele>779.6</ele>
        <time>2022-08-27T12:06:58Z</time>
      </trkpt>
      <trkpt lat="46.6807" lon="5.90701">
        <ele>779.8</ele>
        <time>2022-08-27T12:07:00Z</time>
      </trkpt>
      <trkpt lat="46.68066" lon="5.90706">
        <ele>779.8</ele>
        <time>2022-08-27T12:07:01Z</time>
      </trkpt>
      <trkpt lat="46.68062" lon="5.9071">
        <ele>779.8</ele>
        <time>2022-08-27T12:07:02Z</time>
      </trkpt>
      <trkpt lat="46.6804" lon="5.90736">
        <ele>781</ele>
        <time>2022-08-27T12:07:08Z</time>
      </trkpt>
      <trkpt lat="46.68034" lon="5.90744">
        <ele>781.2</ele>
        <time>2022-08-27T12:07:10Z</time>
      </trkpt>
      <trkpt lat="46.68011" lon="5.90771">
        <ele>781.8</ele>
        <time>2022-08-27T12:07:16Z</time>
      </trkpt>
      <trkpt lat="46.68008" lon="5.90775">
        <ele>782</ele>
        <time>2022-08-27T12:07:17Z</time>
      </trkpt>
      <trkpt lat="46.67996" lon="5.90788">
        <ele>782.4</ele>
        <time>2022-08-27T12:07:20Z</time>
      </trkpt>
      <trkpt lat="46.67984" lon="5.90802">
        <ele>783</ele>
        <time>2022-08-27T12:07:23Z</time>
      </trkpt>
      <trkpt lat="46.67969" lon="5.90819">
        <ele>783.4</ele>
        <time>2022-08-27T12:07:27Z</time>
      </trkpt>
      <trkpt lat="46.67959" lon="5.90831">
        <ele>784.2</ele>
        <time>2022-08-27T12:07:30Z</time>
      </trkpt>
      <trkpt lat="46.67938" lon="5.90856">
        <ele>785</ele>
        <time>2022-08-27T12:07:36Z</time>
      </trkpt>
      <trkpt lat="46.67934" lon="5.90861">
        <ele>785.4</ele>
        <time>2022-08-27T12:07:37Z</time>
      </trkpt>
      <trkpt lat="46.67917" lon="5.90882">
        <ele>786.4</ele>
        <time>2022-08-27T12:07:42Z</time>
      </trkpt>
      <trkpt lat="46.67913" lon="5.90887">
        <ele>786.4</ele>
        <time>2022-08-27T12:07:43Z</time>
      </trkpt>
      <trkpt lat="46.67907" lon="5.90896">
        <ele>786.8</ele>
        <time>2022-08-27T12:07:45Z</time>
      </trkpt>
      <trkpt lat="46.679" lon="5.90904">
        <ele>787.6</ele>
        <time>2022-08-27T12:07:47Z</time>
      </trkpt>
      <trkpt lat="46.67889" lon="5.90918">
        <ele>787.8</ele>
        <time>2022-08-27T12:07:50Z</time>
      </trkpt>
      <trkpt lat="46.67869" lon="5.9094">
        <ele>788.6</ele>
        <time>2022-08-27T12:07:56Z</time>
      </trkpt>
      <trkpt lat="46.67861" lon="5.90947">
        <ele>789.2</ele>
        <time>2022-08-27T12:07:58Z</time>
      </trkpt>
      <trkpt lat="46.67849" lon="5.90956">
        <ele>789.8</ele>
        <time>2022-08-27T12:08:01Z</time>
      </trkpt>
      <trkpt lat="46.67827" lon="5.90969">
        <ele>790.6</ele>
        <time>2022-08-27T12:08:06Z</time>
      </trkpt>
      <trkpt lat="46.67822" lon="5.90972">
        <ele>790.8</ele>
        <time>2022-08-27T12:08:07Z</time>
      </trkpt>
      <trkpt lat="46.67784" lon="5.90993">
        <ele>791.8</ele>
        <time>2022-08-27T12:08:15Z</time>
      </trkpt>
      <trkpt lat="46.67745" lon="5.91016">
        <ele>792.2</ele>
        <time>2022-08-27T12:08:22Z</time>
      </trkpt>
      <trkpt lat="46.67728" lon="5.91025">
        <ele>792.2</ele>
        <time>2022-08-27T12:08:25Z</time>
      </trkpt>
      <trkpt lat="46.67686" lon="5.91051">
        <ele>792.6</ele>
        <time>2022-08-27T12:08:33Z</time>
      </trkpt>
      <trkpt lat="46.67682" lon="5.91054">
        <ele>792.8</ele>
        <time>2022-08-27T12:08:34Z</time>
      </trkpt>
      <trkpt lat="46.67649" lon="5.91074">
        <ele>794</ele>
        <time>2022-08-27T12:08:41Z</time>
      </trkpt>
      <trkpt lat="46.6762" lon="5.91093">
        <ele>795.2</ele>
        <time>2022-08-27T12:08:47Z</time>
      </trkpt>
      <trkpt lat="46.67609" lon="5.91106">
        <ele>795.6</ele>
        <time>2022-08-27T12:08:50Z</time>
      </trkpt>
      <trkpt lat="46.67601" lon="5.91117">
        <ele>795.8</ele>
        <time>2022-08-27T12:08:52Z</time>
      </trkpt>
      <trkpt lat="46.67596" lon="5.91128">
        <ele>796.4</ele>
        <time>2022-08-27T12:08:54Z</time>
      </trkpt>
      <trkpt lat="46.67593" lon="5.91136">
        <ele>796.4</ele>
        <time>2022-08-27T12:08:55Z</time>
      </trkpt>
      <trkpt lat="46.67588" lon="5.91161">
        <ele>797.4</ele>
        <time>2022-08-27T12:08:59Z</time>
      </trkpt>
      <trkpt lat="46.67585" lon="5.91178">
        <ele>797.8</ele>
        <time>2022-08-27T12:09:02Z</time>
      </trkpt>
      <trkpt lat="46.67582" lon="5.91192">
        <ele>798.6</ele>
        <time>2022-08-27T12:09:04Z</time>
      </trkpt>
      <trkpt lat="46.67576" lon="5.91219">
        <ele>799.8</ele>
        <time>2022-08-27T12:09:08Z</time>
      </trkpt>
      <trkpt lat="46.67575" lon="5.91224">
        <ele>800</ele>
        <time>2022-08-27T12:09:09Z</time>
      </trkpt>
      <trkpt lat="46.67573" lon="5.9123">
        <ele>800.2</ele>
        <time>2022-08-27T12:09:10Z</time>
      </trkpt>
      <trkpt lat="46.67564" lon="5.91254">
        <ele>800.8</ele>
        <time>2022-08-27T12:09:14Z</time>
      </trkpt>
      <trkpt lat="46.67562" lon="5.9126">
        <ele>800.8</ele>
        <time>2022-08-27T12:09:15Z</time>
      </trkpt>
      <trkpt lat="46.67543" lon="5.91295">
        <ele>802.4</ele>
        <time>2022-08-27T12:09:22Z</time>
      </trkpt>
      <trkpt lat="46.6754" lon="5.913">
        <ele>802.6</ele>
        <time>2022-08-27T12:09:23Z</time>
      </trkpt>
      <trkpt lat="46.6752" lon="5.91328">
        <ele>803.6</ele>
        <time>2022-08-27T12:09:29Z</time>
      </trkpt>
      <trkpt lat="46.67497" lon="5.91357">
        <ele>804.4</ele>
        <time>2022-08-27T12:09:35Z</time>
      </trkpt>
      <trkpt lat="46.67494" lon="5.91361">
        <ele>804.6</ele>
        <time>2022-08-27T12:09:36Z</time>
      </trkpt>
      <trkpt lat="46.6749" lon="5.91366">
        <ele>804.8</ele>
        <time>2022-08-27T12:09:37Z</time>
      </trkpt>
      <trkpt lat="46.67474" lon="5.91388">
        <ele>805</ele>
        <time>2022-08-27T12:09:41Z</time>
      </trkpt>
      <trkpt lat="46.67455" lon="5.91414">
        <ele>805.2</ele>
        <time>2022-08-27T12:09:46Z</time>
      </trkpt>
      <trkpt lat="46.6744" lon="5.91437">
        <ele>805.6</ele>
        <time>2022-08-27T12:09:50Z</time>
      </trkpt>
      <trkpt lat="46.67432" lon="5.91447">
        <ele>805.8</ele>
        <time>2022-08-27T12:09:52Z</time>
      </trkpt>
      <trkpt lat="46.6742" lon="5.91461">
        <ele>806.8</ele>
        <time>2022-08-27T12:09:55Z</time>
      </trkpt>
      <trkpt lat="46.67416" lon="5.91466">
        <ele>806.8</ele>
        <time>2022-08-27T12:09:56Z</time>
      </trkpt>
      <trkpt lat="46.67389" lon="5.91503">
        <ele>807.4</ele>
        <time>2022-08-27T12:10:03Z</time>
      </trkpt>
      <trkpt lat="46.67354" lon="5.9155">
        <ele>807.6</ele>
        <time>2022-08-27T12:10:11Z</time>
      </trkpt>
      <trkpt lat="46.6734" lon="5.91566">
        <ele>807.6</ele>
        <time>2022-08-27T12:10:14Z</time>
      </trkpt>
      <trkpt lat="46.6733" lon="5.91574">
        <ele>807.6</ele>
        <time>2022-08-27T12:10:16Z</time>
      </trkpt>
      <trkpt lat="46.67326" lon="5.91576">
        <ele>807.6</ele>
        <time>2022-08-27T12:10:17Z</time>
      </trkpt>
      <trkpt lat="46.6732" lon="5.91578">
        <ele>807.8</ele>
        <time>2022-08-27T12:10:18Z</time>
      </trkpt>
      <trkpt lat="46.67298" lon="5.91582">
        <ele>808.2</ele>
        <time>2022-08-27T12:10:22Z</time>
      </trkpt>
      <trkpt lat="46.67286" lon="5.91581">
        <ele>808.6</ele>
        <time>2022-08-27T12:10:24Z</time>
      </trkpt>
      <trkpt lat="46.67249" lon="5.91581">
        <ele>808.8</ele>
        <time>2022-08-27T12:10:30Z</time>
      </trkpt>
      <trkpt lat="46.672" lon="5.91586">
        <ele>809.2</ele>
        <time>2022-08-27T12:10:38Z</time>
      </trkpt>
      <trkpt lat="46.67181" lon="5.91585">
        <ele>809.6</ele>
        <time>2022-08-27T12:10:41Z</time>
      </trkpt>
      <trkpt lat="46.67148" lon="5.91586">
        <ele>810.2</ele>
        <time>2022-08-27T12:10:46Z</time>
      </trkpt>
      <trkpt lat="46.67117" lon="5.91592">
        <ele>810.6</ele>
        <time>2022-08-27T12:10:51Z</time>
      </trkpt>
      <trkpt lat="46.67104" lon="5.91597">
        <ele>810.6</ele>
        <time>2022-08-27T12:10:53Z</time>
      </trkpt>
      <trkpt lat="46.67085" lon="5.91606">
        <ele>810.8</ele>
        <time>2022-08-27T12:10:56Z</time>
      </trkpt>
      <trkpt lat="46.67068" lon="5.91618">
        <ele>811</ele>
        <time>2022-08-27T12:10:59Z</time>
      </trkpt>
      <trkpt lat="46.67027" lon="5.91653">
        <ele>811.2</ele>
        <time>2022-08-27T12:11:06Z</time>
      </trkpt>
      <trkpt lat="46.66986" lon="5.91689">
        <ele>811.6</ele>
        <time>2022-08-27T12:11:13Z</time>
      </trkpt>
      <trkpt lat="46.66981" lon="5.91692">
        <ele>812</ele>
        <time>2022-08-27T12:11:14Z</time>
      </trkpt>
      <trkpt lat="46.66943" lon="5.91725">
        <ele>812.4</ele>
        <time>2022-08-27T12:11:21Z</time>
      </trkpt>
      <trkpt lat="46.66932" lon="5.91736">
        <ele>812.8</ele>
        <time>2022-08-27T12:11:23Z</time>
      </trkpt>
      <trkpt lat="46.66916" lon="5.91753">
        <ele>812.8</ele>
        <time>2022-08-27T12:11:26Z</time>
      </trkpt>
      <trkpt lat="46.66906" lon="5.91767">
        <ele>812.8</ele>
        <time>2022-08-27T12:11:28Z</time>
      </trkpt>
      <trkpt lat="46.66879" lon="5.91817">
        <ele>812.8</ele>
        <time>2022-08-27T12:11:34Z</time>
      </trkpt>
      <trkpt lat="46.66865" lon="5.91844">
        <ele>812.6</ele>
        <time>2022-08-27T12:11:37Z</time>
      </trkpt>
      <trkpt lat="46.6685" lon="5.9188">
        <ele>812.4</ele>
        <time>2022-08-27T12:11:41Z</time>
      </trkpt>
      <trkpt lat="46.66853" lon="5.91903">
        <ele>812.4</ele>
        <time>2022-08-27T12:11:43Z</time>
      </trkpt>
      <trkpt lat="46.66861" lon="5.91918">
        <ele>812.4</ele>
        <time>2022-08-27T12:11:45Z</time>
      </trkpt>
      <trkpt lat="46.66867" lon="5.91925">
        <ele>812.2</ele>
        <time>2022-08-27T12:11:46Z</time>
      </trkpt>
      <trkpt lat="46.66901" lon="5.91951">
        <ele>811.6</ele>
        <time>2022-08-27T12:11:51Z</time>
      </trkpt>
      <trkpt lat="46.66908" lon="5.91955">
        <ele>811.6</ele>
        <time>2022-08-27T12:11:52Z</time>
      </trkpt>
      <trkpt lat="46.66922" lon="5.91965">
        <ele>811.2</ele>
        <time>2022-08-27T12:11:54Z</time>
      </trkpt>
      <trkpt lat="46.66935" lon="5.9198">
        <ele>811.2</ele>
        <time>2022-08-27T12:11:56Z</time>
      </trkpt>
      <trkpt lat="46.6694" lon="5.92001">
        <ele>811.2</ele>
        <time>2022-08-27T12:11:58Z</time>
      </trkpt>
      <trkpt lat="46.66936" lon="5.92026">
        <ele>811</ele>
        <time>2022-08-27T12:12:00Z</time>
      </trkpt>
      <trkpt lat="46.66931" lon="5.92037">
        <ele>811</ele>
        <time>2022-08-27T12:12:01Z</time>
      </trkpt>
      <trkpt lat="46.66925" lon="5.92048">
        <ele>811</ele>
        <time>2022-08-27T12:12:02Z</time>
      </trkpt>
      <trkpt lat="46.66912" lon="5.92061">
        <ele>810.8</ele>
        <time>2022-08-27T12:12:04Z</time>
      </trkpt>
      <trkpt lat="46.66884" lon="5.92085">
        <ele>810.4</ele>
        <time>2022-08-27T12:12:08Z</time>
      </trkpt>
      <trkpt lat="46.66878" lon="5.92093">
        <ele>810.4</ele>
        <time>2022-08-27T12:12:09Z</time>
      </trkpt>
      <trkpt lat="46.66874" lon="5.92101">
        <ele>810.2</ele>
        <time>2022-08-27T12:12:10Z</time>
      </trkpt>
      <trkpt lat="46.66867" lon="5.92122">
        <ele>810</ele>
        <time>2022-08-27T12:12:12Z</time>
      </trkpt>
      <trkpt lat="46.66852" lon="5.92169">
        <ele>809.4</ele>
        <time>2022-08-27T12:12:16Z</time>
      </trkpt>
      <trkpt lat="46.66847" lon="5.9218">
        <ele>809.4</ele>
        <time>2022-08-27T12:12:17Z</time>
      </trkpt>
      <trkpt lat="46.66842" lon="5.92189">
        <ele>809.2</ele>
        <time>2022-08-27T12:12:18Z</time>
      </trkpt>
      <trkpt lat="46.66836" lon="5.92199">
        <ele>809.2</ele>
        <time>2022-08-27T12:12:19Z</time>
      </trkpt>
      <trkpt lat="46.66824" lon="5.92216">
        <ele>808.8</ele>
        <time>2022-08-27T12:12:21Z</time>
      </trkpt>
      <trkpt lat="46.66801" lon="5.92248">
        <ele>808.6</ele>
        <time>2022-08-27T12:12:25Z</time>
      </trkpt>
      <trkpt lat="46.66795" lon="5.92256">
        <ele>808.6</ele>
        <time>2022-08-27T12:12:26Z</time>
      </trkpt>
      <trkpt lat="46.66767" lon="5.92301">
        <ele>808</ele>
        <time>2022-08-27T12:12:31Z</time>
      </trkpt>
      <trkpt lat="46.66755" lon="5.92319">
        <ele>808</ele>
        <time>2022-08-27T12:12:33Z</time>
      </trkpt>
      <trkpt lat="46.66722" lon="5.92358">
        <ele>807.6</ele>
        <time>2022-08-27T12:12:38Z</time>
      </trkpt>
      <trkpt lat="46.6669" lon="5.92374">
        <ele>807</ele>
        <time>2022-08-27T12:12:42Z</time>
      </trkpt>
      <trkpt lat="46.66682" lon="5.92375">
        <ele>807</ele>
        <time>2022-08-27T12:12:43Z</time>
      </trkpt>
      <trkpt lat="46.66641" lon="5.92381">
        <ele>806.6</ele>
        <time>2022-08-27T12:12:48Z</time>
      </trkpt>
      <trkpt lat="46.66592" lon="5.92388">
        <ele>806.2</ele>
        <time>2022-08-27T12:12:54Z</time>
      </trkpt>
      <trkpt lat="46.66584" lon="5.92388">
        <ele>806.2</ele>
        <time>2022-08-27T12:12:55Z</time>
      </trkpt>
      <trkpt lat="46.66552" lon="5.92387">
        <ele>806.2</ele>
        <time>2022-08-27T12:12:59Z</time>
      </trkpt>
      <trkpt lat="46.66536" lon="5.92392">
        <ele>806</ele>
        <time>2022-08-27T12:13:01Z</time>
      </trkpt>
      <trkpt lat="46.66513" lon="5.92402">
        <ele>806.4</ele>
        <time>2022-08-27T12:13:04Z</time>
      </trkpt>
      <trkpt lat="46.66465" lon="5.92411">
        <ele>806.4</ele>
        <time>2022-08-27T12:13:10Z</time>
      </trkpt>
      <trkpt lat="46.66409" lon="5.9242">
        <ele>806</ele>
        <time>2022-08-27T12:13:17Z</time>
      </trkpt>
      <trkpt lat="46.66386" lon="5.92423">
        <ele>806</ele>
        <time>2022-08-27T12:13:20Z</time>
      </trkpt>
      <trkpt lat="46.66369" lon="5.92421">
        <ele>805.6</ele>
        <time>2022-08-27T12:13:22Z</time>
      </trkpt>
      <trkpt lat="46.66352" lon="5.92418">
        <ele>805.4</ele>
        <time>2022-08-27T12:13:24Z</time>
      </trkpt>
      <trkpt lat="46.66317" lon="5.92415">
        <ele>804.8</ele>
        <time>2022-08-27T12:13:28Z</time>
      </trkpt>
      <trkpt lat="46.663" lon="5.92417">
        <ele>804.8</ele>
        <time>2022-08-27T12:13:30Z</time>
      </trkpt>
      <trkpt lat="46.66286" lon="5.92423">
        <ele>804.6</ele>
        <time>2022-08-27T12:13:32Z</time>
      </trkpt>
      <trkpt lat="46.66271" lon="5.92431">
        <ele>804.6</ele>
        <time>2022-08-27T12:13:34Z</time>
      </trkpt>
      <trkpt lat="46.66264" lon="5.92436">
        <ele>804.6</ele>
        <time>2022-08-27T12:13:35Z</time>
      </trkpt>
      <trkpt lat="46.6625" lon="5.92447">
        <ele>804.6</ele>
        <time>2022-08-27T12:13:37Z</time>
      </trkpt>
      <trkpt lat="46.66238" lon="5.92464">
        <ele>804.6</ele>
        <time>2022-08-27T12:13:39Z</time>
      </trkpt>
      <trkpt lat="46.66217" lon="5.92513">
        <ele>804.4</ele>
        <time>2022-08-27T12:13:44Z</time>
      </trkpt>
      <trkpt lat="46.66191" lon="5.92589">
        <ele>804.2</ele>
        <time>2022-08-27T12:13:51Z</time>
      </trkpt>
      <trkpt lat="46.66177" lon="5.92601">
        <ele>804</ele>
        <time>2022-08-27T12:13:53Z</time>
      </trkpt>
      <trkpt lat="46.66169" lon="5.92605">
        <ele>804</ele>
        <time>2022-08-27T12:13:54Z</time>
      </trkpt>
      <trkpt lat="46.66133" lon="5.92622">
        <ele>804.4</ele>
        <time>2022-08-27T12:13:59Z</time>
      </trkpt>
      <trkpt lat="46.66127" lon="5.92627">
        <ele>804.4</ele>
        <time>2022-08-27T12:14:00Z</time>
      </trkpt>
      <trkpt lat="46.66116" lon="5.92639">
        <ele>804.8</ele>
        <time>2022-08-27T12:14:02Z</time>
      </trkpt>
      <trkpt lat="46.66111" lon="5.92646">
        <ele>804.8</ele>
        <time>2022-08-27T12:14:03Z</time>
      </trkpt>
      <trkpt lat="46.66108" lon="5.92653">
        <ele>805.2</ele>
        <time>2022-08-27T12:14:04Z</time>
      </trkpt>
      <trkpt lat="46.66106" lon="5.92661">
        <ele>805.2</ele>
        <time>2022-08-27T12:14:05Z</time>
      </trkpt>
      <trkpt lat="46.66104" lon="5.9267">
        <ele>805.6</ele>
        <time>2022-08-27T12:14:06Z</time>
      </trkpt>
      <trkpt lat="46.66098" lon="5.92713">
        <ele>806.2</ele>
        <time>2022-08-27T12:14:11Z</time>
      </trkpt>
      <trkpt lat="46.66095" lon="5.92729">
        <ele>806.6</ele>
        <time>2022-08-27T12:14:13Z</time>
      </trkpt>
      <trkpt lat="46.6609" lon="5.92755">
        <ele>807</ele>
        <time>2022-08-27T12:14:16Z</time>
      </trkpt>
      <trkpt lat="46.66086" lon="5.92774">
        <ele>807.2</ele>
        <time>2022-08-27T12:14:18Z</time>
      </trkpt>
      <trkpt lat="46.66081" lon="5.92791">
        <ele>807.4</ele>
        <time>2022-08-27T12:14:20Z</time>
      </trkpt>
      <trkpt lat="46.66078" lon="5.92799">
        <ele>807.6</ele>
        <time>2022-08-27T12:14:21Z</time>
      </trkpt>
      <trkpt lat="46.66074" lon="5.92812">
        <ele>808</ele>
        <time>2022-08-27T12:14:22Z</time>
      </trkpt>
      <trkpt lat="46.66062" lon="5.9283">
        <ele>808.2</ele>
        <time>2022-08-27T12:14:25Z</time>
      </trkpt>
      <trkpt lat="46.66052" lon="5.92842">
        <ele>808.6</ele>
        <time>2022-08-27T12:14:27Z</time>
      </trkpt>
      <trkpt lat="46.66047" lon="5.92848">
        <ele>808.6</ele>
        <time>2022-08-27T12:14:28Z</time>
      </trkpt>
      <trkpt lat="46.66032" lon="5.92865">
        <ele>809.2</ele>
        <time>2022-08-27T12:14:31Z</time>
      </trkpt>
      <trkpt lat="46.66028" lon="5.92871">
        <ele>809.6</ele>
        <time>2022-08-27T12:14:32Z</time>
      </trkpt>
      <trkpt lat="46.66007" lon="5.92901">
        <ele>810.6</ele>
        <time>2022-08-27T12:14:37Z</time>
      </trkpt>
      <trkpt lat="46.66002" lon="5.92906">
        <ele>810.8</ele>
        <time>2022-08-27T12:14:38Z</time>
      </trkpt>
      <trkpt lat="46.65981" lon="5.9294">
        <ele>811.8</ele>
        <time>2022-08-27T12:14:43Z</time>
      </trkpt>
      <trkpt lat="46.65977" lon="5.92949">
        <ele>812</ele>
        <time>2022-08-27T12:14:44Z</time>
      </trkpt>
      <trkpt lat="46.65963" lon="5.92969">
        <ele>812.4</ele>
        <time>2022-08-27T12:14:47Z</time>
      </trkpt>
      <trkpt lat="46.65951" lon="5.92976">
        <ele>812.6</ele>
        <time>2022-08-27T12:14:49Z</time>
      </trkpt>
      <trkpt lat="46.65937" lon="5.92974">
        <ele>812.8</ele>
        <time>2022-08-27T12:14:51Z</time>
      </trkpt>
      <trkpt lat="46.65926" lon="5.92971">
        <ele>813.2</ele>
        <time>2022-08-27T12:14:53Z</time>
      </trkpt>
      <trkpt lat="46.65877" lon="5.92952">
        <ele>813.2</ele>
        <time>2022-08-27T12:15:01Z</time>
      </trkpt>
      <trkpt lat="46.65831" lon="5.92936">
        <ele>812.6</ele>
        <time>2022-08-27T12:15:08Z</time>
      </trkpt>
      <trkpt lat="46.65776" lon="5.92928">
        <ele>812</ele>
        <time>2022-08-27T12:15:16Z</time>
      </trkpt>
      <trkpt lat="46.65769" lon="5.92928">
        <ele>812</ele>
        <time>2022-08-27T12:15:17Z</time>
      </trkpt>
      <trkpt lat="46.65735" lon="5.92925">
        <ele>811.4</ele>
        <time>2022-08-27T12:15:22Z</time>
      </trkpt>
      <trkpt lat="46.65724" lon="5.92923">
        <ele>810.4</ele>
        <time>2022-08-27T12:15:24Z</time>
      </trkpt>
      <trkpt lat="46.65721" lon="5.92923">
        <ele>809.8</ele>
        <time>2022-08-27T12:15:25Z</time>
      </trkpt>
      <trkpt lat="46.65718" lon="5.92922">
        <ele>809</ele>
        <time>2022-08-27T12:15:27Z</time>
      </trkpt>
      <trkpt lat="46.65717" lon="5.92922">
        <ele>808.6</ele>
        <time>2022-08-27T12:15:28Z</time>
      </trkpt>
      <trkpt lat="46.65717" lon="5.92922">
        <ele>808</ele>
        <time>2022-08-27T12:15:30Z</time>
      </trkpt>
      <trkpt lat="46.6571" lon="5.92925">
        <ele>807.2</ele>
        <time>2022-08-27T12:16:17Z</time>
      </trkpt>
      <trkpt lat="46.65692" lon="5.92934">
        <ele>807.2</ele>
        <time>2022-08-27T12:16:20Z</time>
      </trkpt>
      <trkpt lat="46.65684" lon="5.92939">
        <ele>807</ele>
        <time>2022-08-27T12:16:21Z</time>
      </trkpt>
      <trkpt lat="46.65668" lon="5.92953">
        <ele>805.8</ele>
        <time>2022-08-27T12:16:23Z</time>
      </trkpt>
      <trkpt lat="46.65654" lon="5.92972">
        <ele>804.2</ele>
        <time>2022-08-27T12:16:25Z</time>
      </trkpt>
      <trkpt lat="46.65649" lon="5.92982">
        <ele>803.2</ele>
        <time>2022-08-27T12:16:26Z</time>
      </trkpt>
      <trkpt lat="46.65646" lon="5.92995">
        <ele>802.8</ele>
        <time>2022-08-27T12:16:27Z</time>
      </trkpt>
      <trkpt lat="46.65645" lon="5.9301">
        <ele>801.4</ele>
        <time>2022-08-27T12:16:28Z</time>
      </trkpt>
      <trkpt lat="46.6565" lon="5.93043">
        <ele>799.6</ele>
        <time>2022-08-27T12:16:30Z</time>
      </trkpt>
      <trkpt lat="46.65654" lon="5.93059">
        <ele>798.4</ele>
        <time>2022-08-27T12:16:31Z</time>
      </trkpt>
      <trkpt lat="46.6566" lon="5.93071">
        <ele>797.6</ele>
        <time>2022-08-27T12:16:32Z</time>
      </trkpt>
      <trkpt lat="46.6567" lon="5.93083">
        <ele>796.6</ele>
        <time>2022-08-27T12:16:33Z</time>
      </trkpt>
      <trkpt lat="46.65679" lon="5.93088">
        <ele>796.2</ele>
        <time>2022-08-27T12:16:34Z</time>
      </trkpt>
      <trkpt lat="46.65691" lon="5.93093">
        <ele>794.2</ele>
        <time>2022-08-27T12:16:35Z</time>
      </trkpt>
      <trkpt lat="46.65714" lon="5.93104">
        <ele>792.8</ele>
        <time>2022-08-27T12:16:37Z</time>
      </trkpt>
      <trkpt lat="46.65735" lon="5.93116">
        <ele>792.4</ele>
        <time>2022-08-27T12:16:39Z</time>
      </trkpt>
      <trkpt lat="46.65744" lon="5.93125">
        <ele>792.2</ele>
        <time>2022-08-27T12:16:40Z</time>
      </trkpt>
      <trkpt lat="46.65754" lon="5.93136">
        <ele>792</ele>
        <time>2022-08-27T12:16:41Z</time>
      </trkpt>
      <trkpt lat="46.65763" lon="5.93147">
        <ele>791.6</ele>
        <time>2022-08-27T12:16:42Z</time>
      </trkpt>
      <trkpt lat="46.65778" lon="5.93168">
        <ele>791</ele>
        <time>2022-08-27T12:16:44Z</time>
      </trkpt>
      <trkpt lat="46.65794" lon="5.93184">
        <ele>790.6</ele>
        <time>2022-08-27T12:16:46Z</time>
      </trkpt>
      <trkpt lat="46.65831" lon="5.9322">
        <ele>789.6</ele>
        <time>2022-08-27T12:16:50Z</time>
      </trkpt>
      <trkpt lat="46.65839" lon="5.93231">
        <ele>789.2</ele>
        <time>2022-08-27T12:16:51Z</time>
      </trkpt>
      <trkpt lat="46.65863" lon="5.93266">
        <ele>788.2</ele>
        <time>2022-08-27T12:16:54Z</time>
      </trkpt>
      <trkpt lat="46.65868" lon="5.93279">
        <ele>788</ele>
        <time>2022-08-27T12:16:55Z</time>
      </trkpt>
      <trkpt lat="46.65879" lon="5.93316">
        <ele>786.6</ele>
        <time>2022-08-27T12:16:58Z</time>
      </trkpt>
      <trkpt lat="46.65883" lon="5.9333">
        <ele>786.2</ele>
        <time>2022-08-27T12:16:59Z</time>
      </trkpt>
      <trkpt lat="46.65901" lon="5.93358">
        <ele>785.6</ele>
        <time>2022-08-27T12:17:02Z</time>
      </trkpt>
      <trkpt lat="46.65926" lon="5.93385">
        <ele>784.4</ele>
        <time>2022-08-27T12:17:06Z</time>
      </trkpt>
      <trkpt lat="46.65935" lon="5.93395">
        <ele>784.2</ele>
        <time>2022-08-27T12:17:07Z</time>
      </trkpt>
      <trkpt lat="46.65957" lon="5.93419">
        <ele>783.4</ele>
        <time>2022-08-27T12:17:10Z</time>
      </trkpt>
      <trkpt lat="46.65966" lon="5.93427">
        <ele>783.2</ele>
        <time>2022-08-27T12:17:11Z</time>
      </trkpt>
      <trkpt lat="46.65974" lon="5.93436">
        <ele>782.6</ele>
        <time>2022-08-27T12:17:12Z</time>
      </trkpt>
      <trkpt lat="46.65982" lon="5.93447">
        <ele>782</ele>
        <time>2022-08-27T12:17:13Z</time>
      </trkpt>
      <trkpt lat="46.65998" lon="5.93477">
        <ele>781.4</ele>
        <time>2022-08-27T12:17:15Z</time>
      </trkpt>
      <trkpt lat="46.66001" lon="5.93511">
        <ele>780.4</ele>
        <time>2022-08-27T12:17:17Z</time>
      </trkpt>
      <trkpt lat="46.65994" lon="5.93536">
        <ele>778.8</ele>
        <time>2022-08-27T12:17:19Z</time>
      </trkpt>
      <trkpt lat="46.65978" lon="5.93551">
        <ele>777.6</ele>
        <time>2022-08-27T12:17:21Z</time>
      </trkpt>
      <trkpt lat="46.65971" lon="5.93555">
        <ele>777.2</ele>
        <time>2022-08-27T12:17:22Z</time>
      </trkpt>
      <trkpt lat="46.65952" lon="5.93562">
        <ele>776.8</ele>
        <time>2022-08-27T12:17:24Z</time>
      </trkpt>
      <trkpt lat="46.65913" lon="5.93576">
        <ele>776.8</ele>
        <time>2022-08-27T12:17:29Z</time>
      </trkpt>
      <trkpt lat="46.65905" lon="5.93576">
        <ele>777</ele>
        <time>2022-08-27T12:17:30Z</time>
      </trkpt>
      <trkpt lat="46.65888" lon="5.93572">
        <ele>777</ele>
        <time>2022-08-27T12:17:32Z</time>
      </trkpt>
      <trkpt lat="46.6588" lon="5.93568">
        <ele>777.2</ele>
        <time>2022-08-27T12:17:33Z</time>
      </trkpt>
      <trkpt lat="46.65846" lon="5.93551">
        <ele>777.8</ele>
        <time>2022-08-27T12:17:38Z</time>
      </trkpt>
      <trkpt lat="46.65821" lon="5.93544">
        <ele>778.6</ele>
        <time>2022-08-27T12:17:42Z</time>
      </trkpt>
      <trkpt lat="46.65817" lon="5.93544">
        <ele>778.8</ele>
        <time>2022-08-27T12:17:43Z</time>
      </trkpt>
      <trkpt lat="46.65806" lon="5.93542">
        <ele>779.8</ele>
        <time>2022-08-27T12:17:45Z</time>
      </trkpt>
      <trkpt lat="46.6579" lon="5.93539">
        <ele>781</ele>
        <time>2022-08-27T12:17:48Z</time>
      </trkpt>
      <trkpt lat="46.65785" lon="5.93538">
        <ele>781</ele>
        <time>2022-08-27T12:17:49Z</time>
      </trkpt>
      <trkpt lat="46.65761" lon="5.9353">
        <ele>782.2</ele>
        <time>2022-08-27T12:17:54Z</time>
      </trkpt>
      <trkpt lat="46.6575" lon="5.93524">
        <ele>782.4</ele>
        <time>2022-08-27T12:17:56Z</time>
      </trkpt>
      <trkpt lat="46.6574" lon="5.93522">
        <ele>783</ele>
        <time>2022-08-27T12:17:58Z</time>
      </trkpt>
      <trkpt lat="46.65735" lon="5.93521">
        <ele>783.6</ele>
        <time>2022-08-27T12:17:59Z</time>
      </trkpt>
      <trkpt lat="46.65731" lon="5.93522">
        <ele>783.8</ele>
        <time>2022-08-27T12:18:00Z</time>
      </trkpt>
      <trkpt lat="46.65727" lon="5.93524">
        <ele>784.4</ele>
        <time>2022-08-27T12:18:01Z</time>
      </trkpt>
      <trkpt lat="46.65722" lon="5.93527">
        <ele>784.6</ele>
        <time>2022-08-27T12:18:02Z</time>
      </trkpt>
      <trkpt lat="46.65709" lon="5.9354">
        <ele>785.6</ele>
        <time>2022-08-27T12:18:05Z</time>
      </trkpt>
      <trkpt lat="46.65705" lon="5.93545">
        <ele>785.8</ele>
        <time>2022-08-27T12:18:06Z</time>
      </trkpt>
      <trkpt lat="46.65691" lon="5.93568">
        <ele>786.4</ele>
        <time>2022-08-27T12:18:10Z</time>
      </trkpt>
      <trkpt lat="46.65686" lon="5.93578">
        <ele>786.6</ele>
        <time>2022-08-27T12:18:12Z</time>
      </trkpt>
      <trkpt lat="46.65682" lon="5.9359">
        <ele>787</ele>
        <time>2022-08-27T12:18:14Z</time>
      </trkpt>
      <trkpt lat="46.65679" lon="5.93604">
        <ele>787.2</ele>
        <time>2022-08-27T12:18:16Z</time>
      </trkpt>
      <trkpt lat="46.65675" lon="5.9362">
        <ele>787.8</ele>
        <time>2022-08-27T12:18:18Z</time>
      </trkpt>
      <trkpt lat="46.65672" lon="5.93636">
        <ele>787.8</ele>
        <time>2022-08-27T12:18:20Z</time>
      </trkpt>
      <trkpt lat="46.65671" lon="5.93646">
        <ele>787.8</ele>
        <time>2022-08-27T12:18:21Z</time>
      </trkpt>
      <trkpt lat="46.65669" lon="5.93668">
        <ele>788</ele>
        <time>2022-08-27T12:18:23Z</time>
      </trkpt>
      <trkpt lat="46.6567" lon="5.93686">
        <ele>787.8</ele>
        <time>2022-08-27T12:18:25Z</time>
      </trkpt>
      <trkpt lat="46.6567" lon="5.93696">
        <ele>787.6</ele>
        <time>2022-08-27T12:18:26Z</time>
      </trkpt>
      <trkpt lat="46.65672" lon="5.93725">
        <ele>787.4</ele>
        <time>2022-08-27T12:18:29Z</time>
      </trkpt>
      <trkpt lat="46.65672" lon="5.93746">
        <ele>787.4</ele>
        <time>2022-08-27T12:18:31Z</time>
      </trkpt>
      <trkpt lat="46.65672" lon="5.93757">
        <ele>787.2</ele>
        <time>2022-08-27T12:18:32Z</time>
      </trkpt>
      <trkpt lat="46.65666" lon="5.93797">
        <ele>786.8</ele>
        <time>2022-08-27T12:18:35Z</time>
      </trkpt>
      <trkpt lat="46.65664" lon="5.93811">
        <ele>786.6</ele>
        <time>2022-08-27T12:18:36Z</time>
      </trkpt>
      <trkpt lat="46.65653" lon="5.93842">
        <ele>785.8</ele>
        <time>2022-08-27T12:18:38Z</time>
      </trkpt>
      <trkpt lat="46.65646" lon="5.93857">
        <ele>785.2</ele>
        <time>2022-08-27T12:18:39Z</time>
      </trkpt>
      <trkpt lat="46.65636" lon="5.93886">
        <ele>783.2</ele>
        <time>2022-08-27T12:18:41Z</time>
      </trkpt>
      <trkpt lat="46.65633" lon="5.93902">
        <ele>782.2</ele>
        <time>2022-08-27T12:18:42Z</time>
      </trkpt>
      <trkpt lat="46.65633" lon="5.93917">
        <ele>781.2</ele>
        <time>2022-08-27T12:18:43Z</time>
      </trkpt>
      <trkpt lat="46.65639" lon="5.93951">
        <ele>779.6</ele>
        <time>2022-08-27T12:18:45Z</time>
      </trkpt>
      <trkpt lat="46.65646" lon="5.93967">
        <ele>776.8</ele>
        <time>2022-08-27T12:18:46Z</time>
      </trkpt>
      <trkpt lat="46.65653" lon="5.93984">
        <ele>776</ele>
        <time>2022-08-27T12:18:47Z</time>
      </trkpt>
      <trkpt lat="46.65661" lon="5.93999">
        <ele>775</ele>
        <time>2022-08-27T12:18:48Z</time>
      </trkpt>
      <trkpt lat="46.65677" lon="5.94032">
        <ele>773</ele>
        <time>2022-08-27T12:18:50Z</time>
      </trkpt>
      <trkpt lat="46.6569" lon="5.94061">
        <ele>770.2</ele>
        <time>2022-08-27T12:18:52Z</time>
      </trkpt>
      <trkpt lat="46.65695" lon="5.94076">
        <ele>769.2</ele>
        <time>2022-08-27T12:18:53Z</time>
      </trkpt>
      <trkpt lat="46.65703" lon="5.94108">
        <ele>767.4</ele>
        <time>2022-08-27T12:18:55Z</time>
      </trkpt>
      <trkpt lat="46.65704" lon="5.94125">
        <ele>766.8</ele>
        <time>2022-08-27T12:18:56Z</time>
      </trkpt>
      <trkpt lat="46.65704" lon="5.94141">
        <ele>765.2</ele>
        <time>2022-08-27T12:18:57Z</time>
      </trkpt>
      <trkpt lat="46.65699" lon="5.94172">
        <ele>763.6</ele>
        <time>2022-08-27T12:18:59Z</time>
      </trkpt>
      <trkpt lat="46.65695" lon="5.94186">
        <ele>762.4</ele>
        <time>2022-08-27T12:19:00Z</time>
      </trkpt>
      <trkpt lat="46.65689" lon="5.94199">
        <ele>761.6</ele>
        <time>2022-08-27T12:19:01Z</time>
      </trkpt>
      <trkpt lat="46.65682" lon="5.94209">
        <ele>760.6</ele>
        <time>2022-08-27T12:19:02Z</time>
      </trkpt>
      <trkpt lat="46.65672" lon="5.94216">
        <ele>759.6</ele>
        <time>2022-08-27T12:19:03Z</time>
      </trkpt>
      <trkpt lat="46.65661" lon="5.9422">
        <ele>758</ele>
        <time>2022-08-27T12:19:04Z</time>
      </trkpt>
      <trkpt lat="46.6565" lon="5.9422">
        <ele>757.4</ele>
        <time>2022-08-27T12:19:05Z</time>
      </trkpt>
      <trkpt lat="46.6564" lon="5.94216">
        <ele>755.8</ele>
        <time>2022-08-27T12:19:06Z</time>
      </trkpt>
      <trkpt lat="46.6563" lon="5.9421">
        <ele>754.2</ele>
        <time>2022-08-27T12:19:07Z</time>
      </trkpt>
      <trkpt lat="46.65615" lon="5.94188">
        <ele>753</ele>
        <time>2022-08-27T12:19:09Z</time>
      </trkpt>
      <trkpt lat="46.65602" lon="5.94159">
        <ele>751.6</ele>
        <time>2022-08-27T12:19:11Z</time>
      </trkpt>
      <trkpt lat="46.65589" lon="5.94129">
        <ele>749.6</ele>
        <time>2022-08-27T12:19:13Z</time>
      </trkpt>
      <trkpt lat="46.65582" lon="5.94116">
        <ele>748.4</ele>
        <time>2022-08-27T12:19:14Z</time>
      </trkpt>
      <trkpt lat="46.65568" lon="5.94091">
        <ele>746.2</ele>
        <time>2022-08-27T12:19:16Z</time>
      </trkpt>
      <trkpt lat="46.65554" lon="5.94068">
        <ele>745</ele>
        <time>2022-08-27T12:19:18Z</time>
      </trkpt>
      <trkpt lat="46.65522" lon="5.94019">
        <ele>744.4</ele>
        <time>2022-08-27T12:19:23Z</time>
      </trkpt>
      <trkpt lat="46.65492" lon="5.93978">
        <ele>745.2</ele>
        <time>2022-08-27T12:19:28Z</time>
      </trkpt>
      <trkpt lat="46.65474" lon="5.93953">
        <ele>745.4</ele>
        <time>2022-08-27T12:19:31Z</time>
      </trkpt>
      <trkpt lat="46.6546" lon="5.93946">
        <ele>745.4</ele>
        <time>2022-08-27T12:19:33Z</time>
      </trkpt>
      <trkpt lat="46.65446" lon="5.93943">
        <ele>745.2</ele>
        <time>2022-08-27T12:19:35Z</time>
      </trkpt>
      <trkpt lat="46.6544" lon="5.9394">
        <ele>744.8</ele>
        <time>2022-08-27T12:19:36Z</time>
      </trkpt>
      <trkpt lat="46.65436" lon="5.93934">
        <ele>744.6</ele>
        <time>2022-08-27T12:19:37Z</time>
      </trkpt>
      <trkpt lat="46.65429" lon="5.93919">
        <ele>744.2</ele>
        <time>2022-08-27T12:19:39Z</time>
      </trkpt>
      <trkpt lat="46.6541" lon="5.93883">
        <ele>744.2</ele>
        <time>2022-08-27T12:19:44Z</time>
      </trkpt>
      <trkpt lat="46.65375" lon="5.93831">
        <ele>745.6</ele>
        <time>2022-08-27T12:19:52Z</time>
      </trkpt>
      <trkpt lat="46.65367" lon="5.93819">
        <ele>746</ele>
        <time>2022-08-27T12:19:54Z</time>
      </trkpt>
      <trkpt lat="46.65337" lon="5.93785">
        <ele>747</ele>
        <time>2022-08-27T12:20:00Z</time>
      </trkpt>
      <trkpt lat="46.65332" lon="5.93779">
        <ele>747</ele>
        <time>2022-08-27T12:20:01Z</time>
      </trkpt>
      <trkpt lat="46.65283" lon="5.93734">
        <ele>747.6</ele>
        <time>2022-08-27T12:20:10Z</time>
      </trkpt>
      <trkpt lat="46.65278" lon="5.93729">
        <ele>747.6</ele>
        <time>2022-08-27T12:20:11Z</time>
      </trkpt>
      <trkpt lat="46.65238" lon="5.93696">
        <ele>748</ele>
        <time>2022-08-27T12:20:18Z</time>
      </trkpt>
      <trkpt lat="46.65232" lon="5.9369">
        <ele>748</ele>
        <time>2022-08-27T12:20:19Z</time>
      </trkpt>
      <trkpt lat="46.65192" lon="5.93655">
        <ele>748</ele>
        <time>2022-08-27T12:20:26Z</time>
      </trkpt>
      <trkpt lat="46.6514" lon="5.9361">
        <ele>749</ele>
        <time>2022-08-27T12:20:35Z</time>
      </trkpt>
      <trkpt lat="46.65129" lon="5.936">
        <ele>748.8</ele>
        <time>2022-08-27T12:20:37Z</time>
      </trkpt>
      <trkpt lat="46.65091" lon="5.93561">
        <ele>749.6</ele>
        <time>2022-08-27T12:20:44Z</time>
      </trkpt>
      <trkpt lat="46.65086" lon="5.93555">
        <ele>749.8</ele>
        <time>2022-08-27T12:20:45Z</time>
      </trkpt>
      <trkpt lat="46.65049" lon="5.93506">
        <ele>750.8</ele>
        <time>2022-08-27T12:20:52Z</time>
      </trkpt>
      <trkpt lat="46.65044" lon="5.93499">
        <ele>750.8</ele>
        <time>2022-08-27T12:20:53Z</time>
      </trkpt>
      <trkpt lat="46.65007" lon="5.93447">
        <ele>751.2</ele>
        <time>2022-08-27T12:21:00Z</time>
      </trkpt>
      <trkpt lat="46.65002" lon="5.93439">
        <ele>751.2</ele>
        <time>2022-08-27T12:21:01Z</time>
      </trkpt>
      <trkpt lat="46.64967" lon="5.93396">
        <ele>751.2</ele>
        <time>2022-08-27T12:21:07Z</time>
      </trkpt>
      <trkpt lat="46.64933" lon="5.93374">
        <ele>751</ele>
        <time>2022-08-27T12:21:12Z</time>
      </trkpt>
      <trkpt lat="46.64925" lon="5.93372">
        <ele>751</ele>
        <time>2022-08-27T12:21:13Z</time>
      </trkpt>
      <trkpt lat="46.64894" lon="5.93369">
        <ele>750.8</ele>
        <time>2022-08-27T12:21:17Z</time>
      </trkpt>
      <trkpt lat="46.64839" lon="5.93359">
        <ele>751.4</ele>
        <time>2022-08-27T12:21:24Z</time>
      </trkpt>
      <trkpt lat="46.64831" lon="5.93355">
        <ele>751.6</ele>
        <time>2022-08-27T12:21:25Z</time>
      </trkpt>
      <trkpt lat="46.64826" lon="5.93351">
        <ele>751.8</ele>
        <time>2022-08-27T12:21:26Z</time>
      </trkpt>
      <trkpt lat="46.64804" lon="5.93336">
        <ele>752.6</ele>
        <time>2022-08-27T12:21:29Z</time>
      </trkpt>
      <trkpt lat="46.64785" lon="5.93321">
        <ele>752.8</ele>
        <time>2022-08-27T12:21:32Z</time>
      </trkpt>
      <trkpt lat="46.64753" lon="5.93299">
        <ele>753</ele>
        <time>2022-08-27T12:21:37Z</time>
      </trkpt>
      <trkpt lat="46.64716" lon="5.9328">
        <ele>753.8</ele>
        <time>2022-08-27T12:21:43Z</time>
      </trkpt>
      <trkpt lat="46.64709" lon="5.93277">
        <ele>753.8</ele>
        <time>2022-08-27T12:21:44Z</time>
      </trkpt>
      <trkpt lat="46.64672" lon="5.93259">
        <ele>754.8</ele>
        <time>2022-08-27T12:21:50Z</time>
      </trkpt>
      <trkpt lat="46.64642" lon="5.93246">
        <ele>755</ele>
        <time>2022-08-27T12:21:55Z</time>
      </trkpt>
      <trkpt lat="46.64605" lon="5.93234">
        <ele>755.6</ele>
        <time>2022-08-27T12:22:01Z</time>
      </trkpt>
      <trkpt lat="46.64593" lon="5.93232">
        <ele>756</ele>
        <time>2022-08-27T12:22:03Z</time>
      </trkpt>
      <trkpt lat="46.64557" lon="5.93235">
        <ele>756.6</ele>
        <time>2022-08-27T12:22:09Z</time>
      </trkpt>
      <trkpt lat="46.64551" lon="5.93236">
        <ele>756.8</ele>
        <time>2022-08-27T12:22:10Z</time>
      </trkpt>
      <trkpt lat="46.64533" lon="5.93238">
        <ele>757</ele>
        <time>2022-08-27T12:22:13Z</time>
      </trkpt>
      <trkpt lat="46.64509" lon="5.93237">
        <ele>757.4</ele>
        <time>2022-08-27T12:22:17Z</time>
      </trkpt>
      <trkpt lat="46.64503" lon="5.93236">
        <ele>757.6</ele>
        <time>2022-08-27T12:22:18Z</time>
      </trkpt>
      <trkpt lat="46.64491" lon="5.93232">
        <ele>757.8</ele>
        <time>2022-08-27T12:22:20Z</time>
      </trkpt>
      <trkpt lat="46.64465" lon="5.93217">
        <ele>758.6</ele>
        <time>2022-08-27T12:22:25Z</time>
      </trkpt>
      <trkpt lat="46.6446" lon="5.93213">
        <ele>758.8</ele>
        <time>2022-08-27T12:22:26Z</time>
      </trkpt>
      <trkpt lat="46.6442" lon="5.93186">
        <ele>760.2</ele>
        <time>2022-08-27T12:22:34Z</time>
      </trkpt>
      <trkpt lat="46.64414" lon="5.93182">
        <ele>760.2</ele>
        <time>2022-08-27T12:22:35Z</time>
      </trkpt>
      <trkpt lat="46.64396" lon="5.93166">
        <ele>761.4</ele>
        <time>2022-08-27T12:22:39Z</time>
      </trkpt>
      <trkpt lat="46.64369" lon="5.93143">
        <ele>762.4</ele>
        <time>2022-08-27T12:22:45Z</time>
      </trkpt>
      <trkpt lat="46.64343" lon="5.9312">
        <ele>763.6</ele>
        <time>2022-08-27T12:22:51Z</time>
      </trkpt>
      <trkpt lat="46.64331" lon="5.93109">
        <ele>763.8</ele>
        <time>2022-08-27T12:22:54Z</time>
      </trkpt>
      <trkpt lat="46.64314" lon="5.93094">
        <ele>764.8</ele>
        <time>2022-08-27T12:22:58Z</time>
      </trkpt>
      <trkpt lat="46.64293" lon="5.93076">
        <ele>765.6</ele>
        <time>2022-08-27T12:23:03Z</time>
      </trkpt>
      <trkpt lat="46.64288" lon="5.93072">
        <ele>766.2</ele>
        <time>2022-08-27T12:23:04Z</time>
      </trkpt>
      <trkpt lat="46.64259" lon="5.93048">
        <ele>767.2</ele>
        <time>2022-08-27T12:23:11Z</time>
      </trkpt>
      <trkpt lat="46.64255" lon="5.93045">
        <ele>767.4</ele>
        <time>2022-08-27T12:23:12Z</time>
      </trkpt>
      <trkpt lat="46.64225" lon="5.9302">
        <ele>768.4</ele>
        <time>2022-08-27T12:23:19Z</time>
      </trkpt>
      <trkpt lat="46.64207" lon="5.93005">
        <ele>769</ele>
        <time>2022-08-27T12:23:23Z</time>
      </trkpt>
      <trkpt lat="46.64187" lon="5.9299">
        <ele>769.4</ele>
        <time>2022-08-27T12:23:27Z</time>
      </trkpt>
      <trkpt lat="46.64167" lon="5.92974">
        <ele>770</ele>
        <time>2022-08-27T12:23:31Z</time>
      </trkpt>
      <trkpt lat="46.64157" lon="5.92965">
        <ele>770.4</ele>
        <time>2022-08-27T12:23:33Z</time>
      </trkpt>
      <trkpt lat="46.64122" lon="5.92936">
        <ele>771.6</ele>
        <time>2022-08-27T12:23:40Z</time>
      </trkpt>
      <trkpt lat="46.64112" lon="5.92928">
        <ele>771.6</ele>
        <time>2022-08-27T12:23:42Z</time>
      </trkpt>
      <trkpt lat="46.64067" lon="5.92888">
        <ele>772.4</ele>
        <time>2022-08-27T12:23:51Z</time>
      </trkpt>
      <trkpt lat="46.64057" lon="5.92878">
        <ele>772.6</ele>
        <time>2022-08-27T12:23:53Z</time>
      </trkpt>
      <trkpt lat="46.64023" lon="5.92844">
        <ele>773.4</ele>
        <time>2022-08-27T12:24:00Z</time>
      </trkpt>
      <trkpt lat="46.64009" lon="5.9283">
        <ele>773.8</ele>
        <time>2022-08-27T12:24:03Z</time>
      </trkpt>
      <trkpt lat="46.63971" lon="5.92792">
        <ele>774.6</ele>
        <time>2022-08-27T12:24:11Z</time>
      </trkpt>
      <trkpt lat="46.63962" lon="5.92783">
        <ele>774.8</ele>
        <time>2022-08-27T12:24:13Z</time>
      </trkpt>
      <trkpt lat="46.63934" lon="5.92755">
        <ele>776</ele>
        <time>2022-08-27T12:24:19Z</time>
      </trkpt>
      <trkpt lat="46.63914" lon="5.92737">
        <ele>776.4</ele>
        <time>2022-08-27T12:24:23Z</time>
      </trkpt>
      <trkpt lat="46.639" lon="5.92723">
        <ele>777.2</ele>
        <time>2022-08-27T12:24:26Z</time>
      </trkpt>
      <trkpt lat="46.63878" lon="5.927">
        <ele>777.8</ele>
        <time>2022-08-27T12:24:31Z</time>
      </trkpt>
      <trkpt lat="46.63872" lon="5.92694">
        <ele>778</ele>
        <time>2022-08-27T12:24:32Z</time>
      </trkpt>
      <trkpt lat="46.63849" lon="5.9267">
        <ele>778.8</ele>
        <time>2022-08-27T12:24:37Z</time>
      </trkpt>
      <trkpt lat="46.63844" lon="5.92665">
        <ele>779</ele>
        <time>2022-08-27T12:24:38Z</time>
      </trkpt>
      <trkpt lat="46.63828" lon="5.92645">
        <ele>779.2</ele>
        <time>2022-08-27T12:24:42Z</time>
      </trkpt>
      <trkpt lat="46.63823" lon="5.92639">
        <ele>779.4</ele>
        <time>2022-08-27T12:24:43Z</time>
      </trkpt>
      <trkpt lat="46.63814" lon="5.9263">
        <ele>779.8</ele>
        <time>2022-08-27T12:24:45Z</time>
      </trkpt>
      <trkpt lat="46.63801" lon="5.92615">
        <ele>780.4</ele>
        <time>2022-08-27T12:24:48Z</time>
      </trkpt>
      <trkpt lat="46.63792" lon="5.92605">
        <ele>781</ele>
        <time>2022-08-27T12:24:50Z</time>
      </trkpt>
      <trkpt lat="46.63774" lon="5.92586">
        <ele>781.6</ele>
        <time>2022-08-27T12:24:54Z</time>
      </trkpt>
      <trkpt lat="46.63769" lon="5.92581">
        <ele>781.8</ele>
        <time>2022-08-27T12:24:55Z</time>
      </trkpt>
      <trkpt lat="46.63756" lon="5.92567">
        <ele>782.8</ele>
        <time>2022-08-27T12:24:58Z</time>
      </trkpt>
      <trkpt lat="46.63735" lon="5.92544">
        <ele>783.8</ele>
        <time>2022-08-27T12:25:03Z</time>
      </trkpt>
      <trkpt lat="46.63727" lon="5.92534">
        <ele>784.4</ele>
        <time>2022-08-27T12:25:05Z</time>
      </trkpt>
      <trkpt lat="46.63719" lon="5.92524">
        <ele>785</ele>
        <time>2022-08-27T12:25:07Z</time>
      </trkpt>
      <trkpt lat="46.63691" lon="5.92493">
        <ele>785.2</ele>
        <time>2022-08-27T12:25:14Z</time>
      </trkpt>
      <trkpt lat="46.6368" lon="5.9248">
        <ele>786.2</ele>
        <time>2022-08-27T12:25:17Z</time>
      </trkpt>
      <trkpt lat="46.63658" lon="5.92454">
        <ele>787.2</ele>
        <time>2022-08-27T12:25:23Z</time>
      </trkpt>
      <trkpt lat="46.63634" lon="5.92428">
        <ele>788.2</ele>
        <time>2022-08-27T12:25:29Z</time>
      </trkpt>
      <trkpt lat="46.63626" lon="5.9242">
        <ele>788.6</ele>
        <time>2022-08-27T12:25:31Z</time>
      </trkpt>
      <trkpt lat="46.63601" lon="5.92392">
        <ele>789.2</ele>
        <time>2022-08-27T12:25:37Z</time>
      </trkpt>
      <trkpt lat="46.63589" lon="5.92379">
        <ele>789.6</ele>
        <time>2022-08-27T12:25:40Z</time>
      </trkpt>
      <trkpt lat="46.63577" lon="5.92361">
        <ele>790</ele>
        <time>2022-08-27T12:25:43Z</time>
      </trkpt>
      <trkpt lat="46.63565" lon="5.92344">
        <ele>790.4</ele>
        <time>2022-08-27T12:25:46Z</time>
      </trkpt>
      <trkpt lat="46.63543" lon="5.92304">
        <ele>790.6</ele>
        <time>2022-08-27T12:25:52Z</time>
      </trkpt>
      <trkpt lat="46.63525" lon="5.92271">
        <ele>791.2</ele>
        <time>2022-08-27T12:25:57Z</time>
      </trkpt>
      <trkpt lat="46.63522" lon="5.92264">
        <ele>791.2</ele>
        <time>2022-08-27T12:25:58Z</time>
      </trkpt>
      <trkpt lat="46.63519" lon="5.92257">
        <ele>791.4</ele>
        <time>2022-08-27T12:25:59Z</time>
      </trkpt>
      <trkpt lat="46.635" lon="5.92218">
        <ele>792.2</ele>
        <time>2022-08-27T12:26:05Z</time>
      </trkpt>
      <trkpt lat="46.63496" lon="5.92212">
        <ele>792.4</ele>
        <time>2022-08-27T12:26:06Z</time>
      </trkpt>
      <trkpt lat="46.63473" lon="5.92177">
        <ele>793.2</ele>
        <time>2022-08-27T12:26:13Z</time>
      </trkpt>
      <trkpt lat="46.6347" lon="5.9217">
        <ele>793.2</ele>
        <time>2022-08-27T12:26:14Z</time>
      </trkpt>
      <trkpt lat="46.63449" lon="5.92123">
        <ele>793.8</ele>
        <time>2022-08-27T12:26:21Z</time>
      </trkpt>
      <trkpt lat="46.63431" lon="5.92082">
        <ele>794.4</ele>
        <time>2022-08-27T12:26:27Z</time>
      </trkpt>
      <trkpt lat="46.63428" lon="5.92076">
        <ele>795</ele>
        <time>2022-08-27T12:26:28Z</time>
      </trkpt>
      <trkpt lat="46.63408" lon="5.9203">
        <ele>795.6</ele>
        <time>2022-08-27T12:26:35Z</time>
      </trkpt>
      <trkpt lat="46.63401" lon="5.92003">
        <ele>796.2</ele>
        <time>2022-08-27T12:26:39Z</time>
      </trkpt>
      <trkpt lat="46.634" lon="5.9199">
        <ele>796.6</ele>
        <time>2022-08-27T12:26:41Z</time>
      </trkpt>
      <trkpt lat="46.63399" lon="5.91982">
        <ele>796.8</ele>
        <time>2022-08-27T12:26:42Z</time>
      </trkpt>
      <trkpt lat="46.63398" lon="5.91951">
        <ele>798</ele>
        <time>2022-08-27T12:26:46Z</time>
      </trkpt>
      <trkpt lat="46.634" lon="5.91911">
        <ele>799</ele>
        <time>2022-08-27T12:26:51Z</time>
      </trkpt>
      <trkpt lat="46.63402" lon="5.91885">
        <ele>799.4</ele>
        <time>2022-08-27T12:26:54Z</time>
      </trkpt>
      <trkpt lat="46.63402" lon="5.91836">
        <ele>799.4</ele>
        <time>2022-08-27T12:26:59Z</time>
      </trkpt>
      <trkpt lat="46.63406" lon="5.91769">
        <ele>799.4</ele>
        <time>2022-08-27T12:27:06Z</time>
      </trkpt>
      <trkpt lat="46.63422" lon="5.91717">
        <ele>799.6</ele>
        <time>2022-08-27T12:27:12Z</time>
      </trkpt>
      <trkpt lat="46.63435" lon="5.91683">
        <ele>800.2</ele>
        <time>2022-08-27T12:27:16Z</time>
      </trkpt>
      <trkpt lat="46.63447" lon="5.91661">
        <ele>800.4</ele>
        <time>2022-08-27T12:27:19Z</time>
      </trkpt>
      <trkpt lat="46.63476" lon="5.91615">
        <ele>801</ele>
        <time>2022-08-27T12:27:26Z</time>
      </trkpt>
      <trkpt lat="46.63481" lon="5.91609">
        <ele>801.2</ele>
        <time>2022-08-27T12:27:27Z</time>
      </trkpt>
      <trkpt lat="46.63505" lon="5.91574">
        <ele>802.2</ele>
        <time>2022-08-27T12:27:33Z</time>
      </trkpt>
      <trkpt lat="46.63513" lon="5.91562">
        <ele>802.6</ele>
        <time>2022-08-27T12:27:35Z</time>
      </trkpt>
      <trkpt lat="46.63527" lon="5.9154">
        <ele>803.2</ele>
        <time>2022-08-27T12:27:39Z</time>
      </trkpt>
      <trkpt lat="46.63532" lon="5.91535">
        <ele>803.4</ele>
        <time>2022-08-27T12:27:40Z</time>
      </trkpt>
      <trkpt lat="46.6354" lon="5.91526">
        <ele>803.6</ele>
        <time>2022-08-27T12:27:42Z</time>
      </trkpt>
      <trkpt lat="46.6355" lon="5.91518">
        <ele>804</ele>
        <time>2022-08-27T12:27:44Z</time>
      </trkpt>
      <trkpt lat="46.63566" lon="5.91508">
        <ele>804.4</ele>
        <time>2022-08-27T12:27:47Z</time>
      </trkpt>
      <trkpt lat="46.63572" lon="5.91505">
        <ele>804.6</ele>
        <time>2022-08-27T12:27:48Z</time>
      </trkpt>
      <trkpt lat="46.63577" lon="5.91501">
        <ele>804.6</ele>
        <time>2022-08-27T12:27:49Z</time>
      </trkpt>
      <trkpt lat="46.63587" lon="5.91494">
        <ele>804.8</ele>
        <time>2022-08-27T12:27:51Z</time>
      </trkpt>
      <trkpt lat="46.63597" lon="5.91484">
        <ele>805</ele>
        <time>2022-08-27T12:27:53Z</time>
      </trkpt>
      <trkpt lat="46.6361" lon="5.91468">
        <ele>805.4</ele>
        <time>2022-08-27T12:27:56Z</time>
      </trkpt>
      <trkpt lat="46.63618" lon="5.91455">
        <ele>805.6</ele>
        <time>2022-08-27T12:27:58Z</time>
      </trkpt>
      <trkpt lat="46.63622" lon="5.91447">
        <ele>805.6</ele>
        <time>2022-08-27T12:27:59Z</time>
      </trkpt>
      <trkpt lat="46.63626" lon="5.91438">
        <ele>805.6</ele>
        <time>2022-08-27T12:28:00Z</time>
      </trkpt>
      <trkpt lat="46.63635" lon="5.91409">
        <ele>805.8</ele>
        <time>2022-08-27T12:28:03Z</time>
      </trkpt>
      <trkpt lat="46.63648" lon="5.9137">
        <ele>805.6</ele>
        <time>2022-08-27T12:28:07Z</time>
      </trkpt>
      <trkpt lat="46.63655" lon="5.91351">
        <ele>805.6</ele>
        <time>2022-08-27T12:28:09Z</time>
      </trkpt>
      <trkpt lat="46.63675" lon="5.91275">
        <ele>804.8</ele>
        <time>2022-08-27T12:28:16Z</time>
      </trkpt>
      <trkpt lat="46.6368" lon="5.9124">
        <ele>804.4</ele>
        <time>2022-08-27T12:28:19Z</time>
      </trkpt>
      <trkpt lat="46.6368" lon="5.91228">
        <ele>804.4</ele>
        <time>2022-08-27T12:28:20Z</time>
      </trkpt>
      <trkpt lat="46.6368" lon="5.91216">
        <ele>804.2</ele>
        <time>2022-08-27T12:28:21Z</time>
      </trkpt>
      <trkpt lat="46.63678" lon="5.91137">
        <ele>804</ele>
        <time>2022-08-27T12:28:28Z</time>
      </trkpt>
      <trkpt lat="46.63682" lon="5.91115">
        <ele>804</ele>
        <time>2022-08-27T12:28:30Z</time>
      </trkpt>
      <trkpt lat="46.63688" lon="5.91094">
        <ele>804.2</ele>
        <time>2022-08-27T12:28:32Z</time>
      </trkpt>
      <trkpt lat="46.63708" lon="5.91049">
        <ele>804.2</ele>
        <time>2022-08-27T12:28:37Z</time>
      </trkpt>
      <trkpt lat="46.63711" lon="5.9104">
        <ele>804.2</ele>
        <time>2022-08-27T12:28:38Z</time>
      </trkpt>
      <trkpt lat="46.63716" lon="5.91021">
        <ele>803.8</ele>
        <time>2022-08-27T12:28:40Z</time>
      </trkpt>
      <trkpt lat="46.63717" lon="5.91001">
        <ele>803.8</ele>
        <time>2022-08-27T12:28:42Z</time>
      </trkpt>
      <trkpt lat="46.63716" lon="5.90981">
        <ele>804</ele>
        <time>2022-08-27T12:28:44Z</time>
      </trkpt>
      <trkpt lat="46.63715" lon="5.9097">
        <ele>804</ele>
        <time>2022-08-27T12:28:45Z</time>
      </trkpt>
      <trkpt lat="46.63711" lon="5.90948">
        <ele>804</ele>
        <time>2022-08-27T12:28:47Z</time>
      </trkpt>
      <trkpt lat="46.6371" lon="5.90938">
        <ele>804</ele>
        <time>2022-08-27T12:28:48Z</time>
      </trkpt>
      <trkpt lat="46.6371" lon="5.90908">
        <ele>804</ele>
        <time>2022-08-27T12:28:51Z</time>
      </trkpt>
      <trkpt lat="46.63711" lon="5.909">
        <ele>804.2</ele>
        <time>2022-08-27T12:28:52Z</time>
      </trkpt>
      <trkpt lat="46.63713" lon="5.9089">
        <ele>804.2</ele>
        <time>2022-08-27T12:28:53Z</time>
      </trkpt>
      <trkpt lat="46.63719" lon="5.90872">
        <ele>804.4</ele>
        <time>2022-08-27T12:28:55Z</time>
      </trkpt>
      <trkpt lat="46.63723" lon="5.90864">
        <ele>804.4</ele>
        <time>2022-08-27T12:28:56Z</time>
      </trkpt>
      <trkpt lat="46.63727" lon="5.90857">
        <ele>804.6</ele>
        <time>2022-08-27T12:28:57Z</time>
      </trkpt>
      <trkpt lat="46.63742" lon="5.9084">
        <ele>804.8</ele>
        <time>2022-08-27T12:29:00Z</time>
      </trkpt>
      <trkpt lat="46.63774" lon="5.9081">
        <ele>805</ele>
        <time>2022-08-27T12:29:06Z</time>
      </trkpt>
      <trkpt lat="46.63791" lon="5.90796">
        <ele>805</ele>
        <time>2022-08-27T12:29:09Z</time>
      </trkpt>
      <trkpt lat="46.63803" lon="5.90785">
        <ele>805.4</ele>
        <time>2022-08-27T12:29:11Z</time>
      </trkpt>
      <trkpt lat="46.63834" lon="5.90756">
        <ele>806.4</ele>
        <time>2022-08-27T12:29:17Z</time>
      </trkpt>
      <trkpt lat="46.63843" lon="5.90745">
        <ele>806.4</ele>
        <time>2022-08-27T12:29:19Z</time>
      </trkpt>
      <trkpt lat="46.63857" lon="5.90723">
        <ele>806.6</ele>
        <time>2022-08-27T12:29:22Z</time>
      </trkpt>
      <trkpt lat="46.63863" lon="5.90707">
        <ele>806.8</ele>
        <time>2022-08-27T12:29:24Z</time>
      </trkpt>
      <trkpt lat="46.63876" lon="5.90655">
        <ele>807.6</ele>
        <time>2022-08-27T12:29:30Z</time>
      </trkpt>
      <trkpt lat="46.63891" lon="5.90572">
        <ele>808.2</ele>
        <time>2022-08-27T12:29:39Z</time>
      </trkpt>
      <trkpt lat="46.63901" lon="5.90518">
        <ele>808.8</ele>
        <time>2022-08-27T12:29:45Z</time>
      </trkpt>
      <trkpt lat="46.63907" lon="5.90489">
        <ele>809</ele>
        <time>2022-08-27T12:29:48Z</time>
      </trkpt>
      <trkpt lat="46.63922" lon="5.90411">
        <ele>809.6</ele>
        <time>2022-08-27T12:29:57Z</time>
      </trkpt>
      <trkpt lat="46.63923" lon="5.90404">
        <ele>809.6</ele>
        <time>2022-08-27T12:29:58Z</time>
      </trkpt>
      <trkpt lat="46.63925" lon="5.90394">
        <ele>809.8</ele>
        <time>2022-08-27T12:29:59Z</time>
      </trkpt>
      <trkpt lat="46.63931" lon="5.90354">
        <ele>810.6</ele>
        <time>2022-08-27T12:30:04Z</time>
      </trkpt>
      <trkpt lat="46.63932" lon="5.90336">
        <ele>810.8</ele>
        <time>2022-08-27T12:30:06Z</time>
      </trkpt>
      <trkpt lat="46.63933" lon="5.90329">
        <ele>811</ele>
        <time>2022-08-27T12:30:07Z</time>
      </trkpt>
      <trkpt lat="46.63931" lon="5.90303">
        <ele>811.8</ele>
        <time>2022-08-27T12:30:10Z</time>
      </trkpt>
      <trkpt lat="46.63928" lon="5.90286">
        <ele>811.8</ele>
        <time>2022-08-27T12:30:12Z</time>
      </trkpt>
      <trkpt lat="46.63919" lon="5.90244">
        <ele>812.8</ele>
        <time>2022-08-27T12:30:17Z</time>
      </trkpt>
      <trkpt lat="46.63916" lon="5.90219">
        <ele>813</ele>
        <time>2022-08-27T12:30:20Z</time>
      </trkpt>
      <trkpt lat="46.63915" lon="5.90202">
        <ele>813.4</ele>
        <time>2022-08-27T12:30:22Z</time>
      </trkpt>
      <trkpt lat="46.63918" lon="5.90146">
        <ele>814.4</ele>
        <time>2022-08-27T12:30:29Z</time>
      </trkpt>
      <trkpt lat="46.63919" lon="5.90128">
        <ele>814.6</ele>
        <time>2022-08-27T12:30:31Z</time>
      </trkpt>
      <trkpt lat="46.63917" lon="5.90099">
        <ele>815.4</ele>
        <time>2022-08-27T12:30:35Z</time>
      </trkpt>
      <trkpt lat="46.63915" lon="5.90092">
        <ele>815.8</ele>
        <time>2022-08-27T12:30:36Z</time>
      </trkpt>
      <trkpt lat="46.63907" lon="5.90062">
        <ele>816.4</ele>
        <time>2022-08-27T12:30:40Z</time>
      </trkpt>
      <trkpt lat="46.63902" lon="5.90051">
        <ele>816.8</ele>
        <time>2022-08-27T12:30:42Z</time>
      </trkpt>
      <trkpt lat="46.63899" lon="5.90045">
        <ele>816.8</ele>
        <time>2022-08-27T12:30:43Z</time>
      </trkpt>
      <trkpt lat="46.63895" lon="5.90038">
        <ele>817</ele>
        <time>2022-08-27T12:30:44Z</time>
      </trkpt>
      <trkpt lat="46.63884" lon="5.90023">
        <ele>817.6</ele>
        <time>2022-08-27T12:30:47Z</time>
      </trkpt>
      <trkpt lat="46.63879" lon="5.90017">
        <ele>817.6</ele>
        <time>2022-08-27T12:30:48Z</time>
      </trkpt>
      <trkpt lat="46.63862" lon="5.90005">
        <ele>817.6</ele>
        <time>2022-08-27T12:30:51Z</time>
      </trkpt>
      <trkpt lat="46.63827" lon="5.89987">
        <ele>817.2</ele>
        <time>2022-08-27T12:30:56Z</time>
      </trkpt>
      <trkpt lat="46.63805" lon="5.89976">
        <ele>816.6</ele>
        <time>2022-08-27T12:30:59Z</time>
      </trkpt>
      <trkpt lat="46.63787" lon="5.89969">
        <ele>816.2</ele>
        <time>2022-08-27T12:31:01Z</time>
      </trkpt>
      <trkpt lat="46.63762" lon="5.89964">
        <ele>815.2</ele>
        <time>2022-08-27T12:31:04Z</time>
      </trkpt>
      <trkpt lat="46.63743" lon="5.89958">
        <ele>814</ele>
        <time>2022-08-27T12:31:06Z</time>
      </trkpt>
      <trkpt lat="46.63717" lon="5.89942">
        <ele>812.8</ele>
        <time>2022-08-27T12:31:09Z</time>
      </trkpt>
      <trkpt lat="46.63698" lon="5.89928">
        <ele>811.8</ele>
        <time>2022-08-27T12:31:11Z</time>
      </trkpt>
      <trkpt lat="46.63691" lon="5.89921">
        <ele>811</ele>
        <time>2022-08-27T12:31:12Z</time>
      </trkpt>
      <trkpt lat="46.63671" lon="5.89897">
        <ele>810.2</ele>
        <time>2022-08-27T12:31:15Z</time>
      </trkpt>
      <trkpt lat="46.6364" lon="5.89853">
        <ele>810.6</ele>
        <time>2022-08-27T12:31:21Z</time>
      </trkpt>
      <trkpt lat="46.63606" lon="5.89817">
        <ele>811.4</ele>
        <time>2022-08-27T12:31:27Z</time>
      </trkpt>
      <trkpt lat="46.63586" lon="5.89802">
        <ele>811.6</ele>
        <time>2022-08-27T12:31:30Z</time>
      </trkpt>
      <trkpt lat="46.6357" lon="5.89795">
        <ele>811.8</ele>
        <time>2022-08-27T12:31:32Z</time>
      </trkpt>
      <trkpt lat="46.63528" lon="5.89786">
        <ele>811.6</ele>
        <time>2022-08-27T12:31:37Z</time>
      </trkpt>
      <trkpt lat="46.63491" lon="5.89779">
        <ele>810.4</ele>
        <time>2022-08-27T12:31:41Z</time>
      </trkpt>
      <trkpt lat="46.6348" lon="5.8978">
        <ele>810</ele>
        <time>2022-08-27T12:31:42Z</time>
      </trkpt>
      <trkpt lat="46.63447" lon="5.89783">
        <ele>809</ele>
        <time>2022-08-27T12:31:45Z</time>
      </trkpt>
      <trkpt lat="46.63436" lon="5.89785">
        <ele>808</ele>
        <time>2022-08-27T12:31:46Z</time>
      </trkpt>
      <trkpt lat="46.63424" lon="5.89786">
        <ele>807.2</ele>
        <time>2022-08-27T12:31:47Z</time>
      </trkpt>
      <trkpt lat="46.63402" lon="5.89787">
        <ele>805.2</ele>
        <time>2022-08-27T12:31:49Z</time>
      </trkpt>
      <trkpt lat="46.6339" lon="5.89784">
        <ele>804.6</ele>
        <time>2022-08-27T12:31:50Z</time>
      </trkpt>
      <trkpt lat="46.6338" lon="5.8978">
        <ele>803.8</ele>
        <time>2022-08-27T12:31:51Z</time>
      </trkpt>
      <trkpt lat="46.63363" lon="5.89768">
        <ele>803.2</ele>
        <time>2022-08-27T12:31:53Z</time>
      </trkpt>
      <trkpt lat="46.63354" lon="5.89759">
        <ele>802.8</ele>
        <time>2022-08-27T12:31:54Z</time>
      </trkpt>
      <trkpt lat="46.63336" lon="5.89741">
        <ele>802.4</ele>
        <time>2022-08-27T12:31:56Z</time>
      </trkpt>
      <trkpt lat="46.63328" lon="5.89736">
        <ele>802.4</ele>
        <time>2022-08-27T12:31:57Z</time>
      </trkpt>
      <trkpt lat="46.63299" lon="5.89718">
        <ele>802.2</ele>
        <time>2022-08-27T12:32:00Z</time>
      </trkpt>
      <trkpt lat="46.63292" lon="5.89713">
        <ele>802</ele>
        <time>2022-08-27T12:32:01Z</time>
      </trkpt>
      <trkpt lat="46.63254" lon="5.89691">
        <ele>801.8</ele>
        <time>2022-08-27T12:32:05Z</time>
      </trkpt>
      <trkpt lat="46.63236" lon="5.89681">
        <ele>801.8</ele>
        <time>2022-08-27T12:32:07Z</time>
      </trkpt>
      <trkpt lat="46.63199" lon="5.89649">
        <ele>801.8</ele>
        <time>2022-08-27T12:32:12Z</time>
      </trkpt>
      <trkpt lat="46.63153" lon="5.89603">
        <ele>801.8</ele>
        <time>2022-08-27T12:32:18Z</time>
      </trkpt>
      <trkpt lat="46.63124" lon="5.89575">
        <ele>801.8</ele>
        <time>2022-08-27T12:32:22Z</time>
      </trkpt>
      <trkpt lat="46.63075" lon="5.89528">
        <ele>802</ele>
        <time>2022-08-27T12:32:29Z</time>
      </trkpt>
      <trkpt lat="46.63063" lon="5.89516">
        <ele>802.2</ele>
        <time>2022-08-27T12:32:31Z</time>
      </trkpt>
      <trkpt lat="46.63028" lon="5.89479">
        <ele>803</ele>
        <time>2022-08-27T12:32:37Z</time>
      </trkpt>
      <trkpt lat="46.6299" lon="5.89439">
        <ele>803.2</ele>
        <time>2022-08-27T12:32:43Z</time>
      </trkpt>
      <trkpt lat="46.62943" lon="5.89391">
        <ele>803</ele>
        <time>2022-08-27T12:32:50Z</time>
      </trkpt>
      <trkpt lat="46.62935" lon="5.89384">
        <ele>802.8</ele>
        <time>2022-08-27T12:32:51Z</time>
      </trkpt>
      <trkpt lat="46.62892" lon="5.89346">
        <ele>802.2</ele>
        <time>2022-08-27T12:32:57Z</time>
      </trkpt>
      <trkpt lat="46.62864" lon="5.89322">
        <ele>801.8</ele>
        <time>2022-08-27T12:33:01Z</time>
      </trkpt>
      <trkpt lat="46.62815" lon="5.8928">
        <ele>802.4</ele>
        <time>2022-08-27T12:33:08Z</time>
      </trkpt>
      <trkpt lat="46.6277" lon="5.89238">
        <ele>802.8</ele>
        <time>2022-08-27T12:33:15Z</time>
      </trkpt>
      <trkpt lat="46.62762" lon="5.89231">
        <ele>802.8</ele>
        <time>2022-08-27T12:33:16Z</time>
      </trkpt>
      <trkpt lat="46.62711" lon="5.89189">
        <ele>802.8</ele>
        <time>2022-08-27T12:33:23Z</time>
      </trkpt>
      <trkpt lat="46.62688" lon="5.89172">
        <ele>802.4</ele>
        <time>2022-08-27T12:33:26Z</time>
      </trkpt>
      <trkpt lat="46.62633" lon="5.89138">
        <ele>801.6</ele>
        <time>2022-08-27T12:33:33Z</time>
      </trkpt>
      <trkpt lat="46.62614" lon="5.89128">
        <ele>801.4</ele>
        <time>2022-08-27T12:33:35Z</time>
      </trkpt>
      <trkpt lat="46.62586" lon="5.89112">
        <ele>801</ele>
        <time>2022-08-27T12:33:38Z</time>
      </trkpt>
      <trkpt lat="46.62567" lon="5.89101">
        <ele>800.8</ele>
        <time>2022-08-27T12:33:40Z</time>
      </trkpt>
      <trkpt lat="46.62541" lon="5.89083">
        <ele>799.8</ele>
        <time>2022-08-27T12:33:43Z</time>
      </trkpt>
      <trkpt lat="46.62503" lon="5.89058">
        <ele>798.8</ele>
        <time>2022-08-27T12:33:47Z</time>
      </trkpt>
      <trkpt lat="46.62447" lon="5.89031">
        <ele>798.6</ele>
        <time>2022-08-27T12:33:53Z</time>
      </trkpt>
      <trkpt lat="46.62439" lon="5.89028">
        <ele>798.4</ele>
        <time>2022-08-27T12:33:54Z</time>
      </trkpt>
      <trkpt lat="46.62384" lon="5.89003">
        <ele>798.2</ele>
        <time>2022-08-27T12:33:59Z</time>
      </trkpt>
      <trkpt lat="46.62356" lon="5.8899">
        <ele>797.8</ele>
        <time>2022-08-27T12:34:02Z</time>
      </trkpt>
      <trkpt lat="46.62327" lon="5.88978">
        <ele>797</ele>
        <time>2022-08-27T12:34:05Z</time>
      </trkpt>
      <trkpt lat="46.62298" lon="5.88966">
        <ele>796.8</ele>
        <time>2022-08-27T12:34:08Z</time>
      </trkpt>
      <trkpt lat="46.62254" lon="5.88943">
        <ele>796.2</ele>
        <time>2022-08-27T12:34:13Z</time>
      </trkpt>
      <trkpt lat="46.62203" lon="5.88912">
        <ele>795.8</ele>
        <time>2022-08-27T12:34:19Z</time>
      </trkpt>
      <trkpt lat="46.62195" lon="5.88907">
        <ele>795.6</ele>
        <time>2022-08-27T12:34:20Z</time>
      </trkpt>
      <trkpt lat="46.62186" lon="5.88903">
        <ele>795.6</ele>
        <time>2022-08-27T12:34:21Z</time>
      </trkpt>
      <trkpt lat="46.62132" lon="5.88883">
        <ele>795.6</ele>
        <time>2022-08-27T12:34:27Z</time>
      </trkpt>
      <trkpt lat="46.62105" lon="5.88873">
        <ele>795.6</ele>
        <time>2022-08-27T12:34:30Z</time>
      </trkpt>
      <trkpt lat="46.62053" lon="5.88849">
        <ele>795.6</ele>
        <time>2022-08-27T12:34:36Z</time>
      </trkpt>
      <trkpt lat="46.62003" lon="5.88819">
        <ele>795.6</ele>
        <time>2022-08-27T12:34:42Z</time>
      </trkpt>
      <trkpt lat="46.61978" lon="5.88805">
        <ele>795.8</ele>
        <time>2022-08-27T12:34:45Z</time>
      </trkpt>
      <trkpt lat="46.61925" lon="5.88785">
        <ele>795.8</ele>
        <time>2022-08-27T12:34:51Z</time>
      </trkpt>
      <trkpt lat="46.61918" lon="5.88783">
        <ele>795.8</ele>
        <time>2022-08-27T12:34:52Z</time>
      </trkpt>
      <trkpt lat="46.61849" lon="5.88761">
        <ele>795.2</ele>
        <time>2022-08-27T12:35:00Z</time>
      </trkpt>
      <trkpt lat="46.61807" lon="5.88737">
        <ele>795.4</ele>
        <time>2022-08-27T12:35:06Z</time>
      </trkpt>
      <trkpt lat="46.61762" lon="5.88708">
        <ele>795.4</ele>
        <time>2022-08-27T12:35:12Z</time>
      </trkpt>
      <trkpt lat="46.61706" lon="5.88676">
        <ele>795.4</ele>
        <time>2022-08-27T12:35:19Z</time>
      </trkpt>
      <trkpt lat="46.617" lon="5.88673">
        <ele>795.4</ele>
        <time>2022-08-27T12:35:20Z</time>
      </trkpt>
      <trkpt lat="46.61651" lon="5.88651">
        <ele>795.6</ele>
        <time>2022-08-27T12:35:26Z</time>
      </trkpt>
      <trkpt lat="46.61617" lon="5.88649">
        <ele>795.2</ele>
        <time>2022-08-27T12:35:30Z</time>
      </trkpt>
      <trkpt lat="46.6159" lon="5.88654">
        <ele>794.6</ele>
        <time>2022-08-27T12:35:34Z</time>
      </trkpt>
      <trkpt lat="46.6156" lon="5.88661">
        <ele>794</ele>
        <time>2022-08-27T12:35:36Z</time>
      </trkpt>
      <trkpt lat="46.6154" lon="5.88665">
        <ele>793.2</ele>
        <time>2022-08-27T12:35:38Z</time>
      </trkpt>
      <trkpt lat="46.615" lon="5.88671">
        <ele>791.8</ele>
        <time>2022-08-27T12:35:42Z</time>
      </trkpt>
      <trkpt lat="46.61491" lon="5.8867">
        <ele>790.8</ele>
        <time>2022-08-27T12:35:43Z</time>
      </trkpt>
      <trkpt lat="46.61475" lon="5.88668">
        <ele>789.6</ele>
        <time>2022-08-27T12:35:45Z</time>
      </trkpt>
      <trkpt lat="46.61463" lon="5.88671">
        <ele>788.4</ele>
        <time>2022-08-27T12:35:47Z</time>
      </trkpt>
      <trkpt lat="46.6146" lon="5.88679">
        <ele>787.8</ele>
        <time>2022-08-27T12:35:48Z</time>
      </trkpt>
      <trkpt lat="46.61458" lon="5.88696">
        <ele>787.4</ele>
        <time>2022-08-27T12:35:50Z</time>
      </trkpt>
      <trkpt lat="46.61452" lon="5.88738">
        <ele>786.6</ele>
        <time>2022-08-27T12:35:54Z</time>
      </trkpt>
      <trkpt lat="46.61444" lon="5.88786">
        <ele>786.4</ele>
        <time>2022-08-27T12:35:58Z</time>
      </trkpt>
      <trkpt lat="46.61438" lon="5.88823">
        <ele>786</ele>
        <time>2022-08-27T12:36:01Z</time>
      </trkpt>
      <trkpt lat="46.61431" lon="5.88883">
        <ele>786</ele>
        <time>2022-08-27T12:36:06Z</time>
      </trkpt>
      <trkpt lat="46.61431" lon="5.88893">
        <ele>786.2</ele>
        <time>2022-08-27T12:36:07Z</time>
      </trkpt>
      <trkpt lat="46.6143" lon="5.88949">
        <ele>787.4</ele>
        <time>2022-08-27T12:36:13Z</time>
      </trkpt>
      <trkpt lat="46.6143" lon="5.88957">
        <ele>787.8</ele>
        <time>2022-08-27T12:36:14Z</time>
      </trkpt>
      <trkpt lat="46.61432" lon="5.88972">
        <ele>788.2</ele>
        <time>2022-08-27T12:36:16Z</time>
      </trkpt>
      <trkpt lat="46.61435" lon="5.88986">
        <ele>788.8</ele>
        <time>2022-08-27T12:36:18Z</time>
      </trkpt>
      <trkpt lat="46.61437" lon="5.88992">
        <ele>789.2</ele>
        <time>2022-08-27T12:36:19Z</time>
      </trkpt>
      <trkpt lat="46.6144" lon="5.88999">
        <ele>789.6</ele>
        <time>2022-08-27T12:36:20Z</time>
      </trkpt>
      <trkpt lat="46.61446" lon="5.89011">
        <ele>790.4</ele>
        <time>2022-08-27T12:36:22Z</time>
      </trkpt>
      <trkpt lat="46.61451" lon="5.89024">
        <ele>791</ele>
        <time>2022-08-27T12:36:24Z</time>
      </trkpt>
      <trkpt lat="46.6146" lon="5.89039">
        <ele>791.8</ele>
        <time>2022-08-27T12:36:27Z</time>
      </trkpt>
      <trkpt lat="46.61467" lon="5.8905">
        <ele>792</ele>
        <time>2022-08-27T12:36:29Z</time>
      </trkpt>
      <trkpt lat="46.61471" lon="5.89055">
        <ele>792.2</ele>
        <time>2022-08-27T12:36:30Z</time>
      </trkpt>
      <trkpt lat="46.61492" lon="5.89081">
        <ele>793</ele>
        <time>2022-08-27T12:36:36Z</time>
      </trkpt>
      <trkpt lat="46.615" lon="5.89089">
        <ele>793.2</ele>
        <time>2022-08-27T12:36:38Z</time>
      </trkpt>
      <trkpt lat="46.61515" lon="5.89106">
        <ele>794</ele>
        <time>2022-08-27T12:36:42Z</time>
      </trkpt>
      <trkpt lat="46.61519" lon="5.89117">
        <ele>794.2</ele>
        <time>2022-08-27T12:36:44Z</time>
      </trkpt>
      <trkpt lat="46.61516" lon="5.89127">
        <ele>794.8</ele>
        <time>2022-08-27T12:36:46Z</time>
      </trkpt>
      <trkpt lat="46.61513" lon="5.89131">
        <ele>794.8</ele>
        <time>2022-08-27T12:36:47Z</time>
      </trkpt>
      <trkpt lat="46.61509" lon="5.89134">
        <ele>795</ele>
        <time>2022-08-27T12:36:48Z</time>
      </trkpt>
      <trkpt lat="46.61504" lon="5.89135">
        <ele>795.2</ele>
        <time>2022-08-27T12:36:49Z</time>
      </trkpt>
      <trkpt lat="46.61494" lon="5.89136">
        <ele>795.8</ele>
        <time>2022-08-27T12:36:51Z</time>
      </trkpt>
      <trkpt lat="46.6149" lon="5.89136">
        <ele>796</ele>
        <time>2022-08-27T12:36:52Z</time>
      </trkpt>
      <trkpt lat="46.61473" lon="5.89138">
        <ele>797</ele>
        <time>2022-08-27T12:36:56Z</time>
      </trkpt>
      <trkpt lat="46.61461" lon="5.89141">
        <ele>798</ele>
        <time>2022-08-27T12:36:59Z</time>
      </trkpt>
      <trkpt lat="46.61457" lon="5.89143">
        <ele>798.4</ele>
        <time>2022-08-27T12:37:00Z</time>
      </trkpt>
      <trkpt lat="46.61433" lon="5.89152">
        <ele>799.4</ele>
        <time>2022-08-27T12:37:06Z</time>
      </trkpt>
      <trkpt lat="46.6143" lon="5.89154">
        <ele>799.6</ele>
        <time>2022-08-27T12:37:07Z</time>
      </trkpt>
      <trkpt lat="46.61415" lon="5.89159">
        <ele>800.6</ele>
        <time>2022-08-27T12:37:11Z</time>
      </trkpt>
      <trkpt lat="46.61401" lon="5.89166">
        <ele>801.6</ele>
        <time>2022-08-27T12:37:15Z</time>
      </trkpt>
      <trkpt lat="46.61398" lon="5.89169">
        <ele>801.8</ele>
        <time>2022-08-27T12:37:16Z</time>
      </trkpt>
      <trkpt lat="46.61385" lon="5.8918">
        <ele>802.8</ele>
        <time>2022-08-27T12:37:20Z</time>
      </trkpt>
      <trkpt lat="46.61371" lon="5.89193">
        <ele>804</ele>
        <time>2022-08-27T12:37:24Z</time>
      </trkpt>
      <trkpt lat="46.61348" lon="5.89216">
        <ele>805</ele>
        <time>2022-08-27T12:37:32Z</time>
      </trkpt>
      <trkpt lat="46.61335" lon="5.8923">
        <ele>806.2</ele>
        <time>2022-08-27T12:37:37Z</time>
      </trkpt>
      <trkpt lat="46.61319" lon="5.89248">
        <ele>807.4</ele>
        <time>2022-08-27T12:37:43Z</time>
      </trkpt>
      <trkpt lat="46.6131" lon="5.89258">
        <ele>808.2</ele>
        <time>2022-08-27T12:37:46Z</time>
      </trkpt>
      <trkpt lat="46.61305" lon="5.89264">
        <ele>808.4</ele>
        <time>2022-08-27T12:37:48Z</time>
      </trkpt>
      <trkpt lat="46.61289" lon="5.89283">
        <ele>809.4</ele>
        <time>2022-08-27T12:37:54Z</time>
      </trkpt>
      <trkpt lat="46.61283" lon="5.89296">
        <ele>810.6</ele>
        <time>2022-08-27T12:37:57Z</time>
      </trkpt>
      <trkpt lat="46.61281" lon="5.89306">
        <ele>811</ele>
        <time>2022-08-27T12:37:59Z</time>
      </trkpt>
      <trkpt lat="46.61281" lon="5.89326">
        <ele>812</ele>
        <time>2022-08-27T12:38:03Z</time>
      </trkpt>
      <trkpt lat="46.61281" lon="5.89336">
        <ele>812.4</ele>
        <time>2022-08-27T12:38:05Z</time>
      </trkpt>
      <trkpt lat="46.61286" lon="5.89343">
        <ele>812.6</ele>
        <time>2022-08-27T12:38:07Z</time>
      </trkpt>
      <trkpt lat="46.61289" lon="5.89347">
        <ele>812.6</ele>
        <time>2022-08-27T12:38:08Z</time>
      </trkpt>
      <trkpt lat="46.61291" lon="5.89349">
        <ele>813</ele>
        <time>2022-08-27T12:38:09Z</time>
      </trkpt>
      <trkpt lat="46.613" lon="5.89357">
        <ele>814.2</ele>
        <time>2022-08-27T12:38:12Z</time>
      </trkpt>
      <trkpt lat="46.61304" lon="5.8936">
        <ele>814.2</ele>
        <time>2022-08-27T12:38:13Z</time>
      </trkpt>
      <trkpt lat="46.61326" lon="5.89372">
        <ele>815.2</ele>
        <time>2022-08-27T12:38:19Z</time>
      </trkpt>
      <trkpt lat="46.61341" lon="5.89376">
        <ele>816.2</ele>
        <time>2022-08-27T12:38:23Z</time>
      </trkpt>
      <trkpt lat="46.61355" lon="5.89382">
        <ele>816.8</ele>
        <time>2022-08-27T12:38:26Z</time>
      </trkpt>
      <trkpt lat="46.61367" lon="5.89388">
        <ele>817.4</ele>
        <time>2022-08-27T12:38:29Z</time>
      </trkpt>
      <trkpt lat="46.61389" lon="5.89396">
        <ele>818</ele>
        <time>2022-08-27T12:38:34Z</time>
      </trkpt>
      <trkpt lat="46.61396" lon="5.89399">
        <ele>818.2</ele>
        <time>2022-08-27T12:38:36Z</time>
      </trkpt>
      <trkpt lat="46.61415" lon="5.89407">
        <ele>819.4</ele>
        <time>2022-08-27T12:38:41Z</time>
      </trkpt>
      <trkpt lat="46.61427" lon="5.89416">
        <ele>819.8</ele>
        <time>2022-08-27T12:38:44Z</time>
      </trkpt>
      <trkpt lat="46.61432" lon="5.89425">
        <ele>820</ele>
        <time>2022-08-27T12:38:46Z</time>
      </trkpt>
      <trkpt lat="46.61433" lon="5.89431">
        <ele>820.2</ele>
        <time>2022-08-27T12:38:47Z</time>
      </trkpt>
      <trkpt lat="46.61433" lon="5.89437">
        <ele>820.4</ele>
        <time>2022-08-27T12:38:48Z</time>
      </trkpt>
      <trkpt lat="46.61433" lon="5.89443">
        <ele>820.4</ele>
        <time>2022-08-27T12:38:49Z</time>
      </trkpt>
      <trkpt lat="46.61431" lon="5.89448">
        <ele>820.4</ele>
        <time>2022-08-27T12:38:50Z</time>
      </trkpt>
      <trkpt lat="46.61429" lon="5.89454">
        <ele>820.6</ele>
        <time>2022-08-27T12:38:51Z</time>
      </trkpt>
      <trkpt lat="46.61426" lon="5.89458">
        <ele>820.8</ele>
        <time>2022-08-27T12:38:52Z</time>
      </trkpt>
      <trkpt lat="46.61415" lon="5.89466">
        <ele>821.2</ele>
        <time>2022-08-27T12:38:55Z</time>
      </trkpt>
      <trkpt lat="46.61412" lon="5.89467">
        <ele>821.4</ele>
        <time>2022-08-27T12:38:56Z</time>
      </trkpt>
      <trkpt lat="46.61401" lon="5.89469">
        <ele>822</ele>
        <time>2022-08-27T12:38:59Z</time>
      </trkpt>
      <trkpt lat="46.61392" lon="5.89471">
        <ele>822.8</ele>
        <time>2022-08-27T12:39:01Z</time>
      </trkpt>
      <trkpt lat="46.61383" lon="5.89473">
        <ele>823.6</ele>
        <time>2022-08-27T12:39:03Z</time>
      </trkpt>
      <trkpt lat="46.61379" lon="5.89474">
        <ele>823.8</ele>
        <time>2022-08-27T12:39:04Z</time>
      </trkpt>
      <trkpt lat="46.61362" lon="5.89474">
        <ele>824.8</ele>
        <time>2022-08-27T12:39:08Z</time>
      </trkpt>
      <trkpt lat="46.61355" lon="5.89476">
        <ele>825</ele>
        <time>2022-08-27T12:39:10Z</time>
      </trkpt>
      <trkpt lat="46.61343" lon="5.89476">
        <ele>825.8</ele>
        <time>2022-08-27T12:39:13Z</time>
      </trkpt>
      <trkpt lat="46.61315" lon="5.89482">
        <ele>827</ele>
        <time>2022-08-27T12:39:20Z</time>
      </trkpt>
      <trkpt lat="46.61311" lon="5.89483">
        <ele>827.4</ele>
        <time>2022-08-27T12:39:21Z</time>
      </trkpt>
      <trkpt lat="46.61298" lon="5.89485">
        <ele>828.2</ele>
        <time>2022-08-27T12:39:24Z</time>
      </trkpt>
      <trkpt lat="46.61282" lon="5.89487">
        <ele>829.2</ele>
        <time>2022-08-27T12:39:28Z</time>
      </trkpt>
      <trkpt lat="46.61279" lon="5.89488">
        <ele>829.4</ele>
        <time>2022-08-27T12:39:29Z</time>
      </trkpt>
      <trkpt lat="46.61253" lon="5.89492">
        <ele>830.8</ele>
        <time>2022-08-27T12:39:36Z</time>
      </trkpt>
      <trkpt lat="46.6124" lon="5.89493">
        <ele>831.8</ele>
        <time>2022-08-27T12:39:40Z</time>
      </trkpt>
      <trkpt lat="46.61223" lon="5.89496">
        <ele>832.8</ele>
        <time>2022-08-27T12:39:45Z</time>
      </trkpt>
      <trkpt lat="46.61208" lon="5.89499">
        <ele>834</ele>
        <time>2022-08-27T12:39:50Z</time>
      </trkpt>
      <trkpt lat="46.61203" lon="5.89499">
        <ele>834.2</ele>
        <time>2022-08-27T12:39:52Z</time>
      </trkpt>
      <trkpt lat="46.61198" lon="5.89499">
        <ele>835</ele>
        <time>2022-08-27T12:39:54Z</time>
      </trkpt>
      <trkpt lat="46.61187" lon="5.89501">
        <ele>836</ele>
        <time>2022-08-27T12:39:58Z</time>
      </trkpt>
      <trkpt lat="46.61184" lon="5.89501">
        <ele>836.2</ele>
        <time>2022-08-27T12:39:59Z</time>
      </trkpt>
      <trkpt lat="46.61173" lon="5.89502">
        <ele>837</ele>
        <time>2022-08-27T12:40:03Z</time>
      </trkpt>
      <trkpt lat="46.61171" lon="5.895">
        <ele>837.4</ele>
        <time>2022-08-27T12:40:04Z</time>
      </trkpt>
      <trkpt lat="46.61166" lon="5.89498">
        <ele>838.2</ele>
        <time>2022-08-27T12:40:06Z</time>
      </trkpt>
      <trkpt lat="46.61162" lon="5.895">
        <ele>838.4</ele>
        <time>2022-08-27T12:40:07Z</time>
      </trkpt>
      <trkpt lat="46.61155" lon="5.89513">
        <ele>839.4</ele>
        <time>2022-08-27T12:40:10Z</time>
      </trkpt>
      <trkpt lat="46.61153" lon="5.89517">
        <ele>839.6</ele>
        <time>2022-08-27T12:40:11Z</time>
      </trkpt>
      <trkpt lat="46.61143" lon="5.89546">
        <ele>840.4</ele>
        <time>2022-08-27T12:40:17Z</time>
      </trkpt>
      <trkpt lat="46.61142" lon="5.8955">
        <ele>840.6</ele>
        <time>2022-08-27T12:40:18Z</time>
      </trkpt>
      <trkpt lat="46.61138" lon="5.89569">
        <ele>841.6</ele>
        <time>2022-08-27T12:40:22Z</time>
      </trkpt>
      <trkpt lat="46.61137" lon="5.89574">
        <ele>841.8</ele>
        <time>2022-08-27T12:40:23Z</time>
      </trkpt>
      <trkpt lat="46.61136" lon="5.8959">
        <ele>842.6</ele>
        <time>2022-08-27T12:40:26Z</time>
      </trkpt>
      <trkpt lat="46.61137" lon="5.89601">
        <ele>843</ele>
        <time>2022-08-27T12:40:28Z</time>
      </trkpt>
      <trkpt lat="46.61138" lon="5.89611">
        <ele>843.4</ele>
        <time>2022-08-27T12:40:30Z</time>
      </trkpt>
      <trkpt lat="46.61141" lon="5.8962">
        <ele>843.6</ele>
        <time>2022-08-27T12:40:32Z</time>
      </trkpt>
      <trkpt lat="46.61141" lon="5.8963">
        <ele>844.4</ele>
        <time>2022-08-27T12:40:34Z</time>
      </trkpt>
      <trkpt lat="46.61136" lon="5.89637">
        <ele>844.4</ele>
        <time>2022-08-27T12:40:35Z</time>
      </trkpt>
      <trkpt lat="46.61132" lon="5.89642">
        <ele>844.6</ele>
        <time>2022-08-27T12:40:36Z</time>
      </trkpt>
      <trkpt lat="46.61125" lon="5.89667">
        <ele>845.8</ele>
        <time>2022-08-27T12:40:41Z</time>
      </trkpt>
      <trkpt lat="46.61125" lon="5.89672">
        <ele>845.8</ele>
        <time>2022-08-27T12:40:42Z</time>
      </trkpt>
      <trkpt lat="46.61121" lon="5.89678">
        <ele>846</ele>
        <time>2022-08-27T12:40:43Z</time>
      </trkpt>
      <trkpt lat="46.61112" lon="5.89695">
        <ele>846.6</ele>
        <time>2022-08-27T12:40:46Z</time>
      </trkpt>
      <trkpt lat="46.61107" lon="5.89704">
        <ele>847.2</ele>
        <time>2022-08-27T12:40:48Z</time>
      </trkpt>
      <trkpt lat="46.61096" lon="5.89719">
        <ele>848.2</ele>
        <time>2022-08-27T12:40:52Z</time>
      </trkpt>
      <trkpt lat="46.61092" lon="5.89721">
        <ele>848</ele>
        <time>2022-08-27T12:40:53Z</time>
      </trkpt>
      <trkpt lat="46.6108" lon="5.89734">
        <ele>849</ele>
        <time>2022-08-27T12:40:57Z</time>
      </trkpt>
      <trkpt lat="46.61077" lon="5.89736">
        <ele>849.2</ele>
        <time>2022-08-27T12:40:58Z</time>
      </trkpt>
      <trkpt lat="46.61067" lon="5.89744">
        <ele>850.2</ele>
        <time>2022-08-27T12:41:01Z</time>
      </trkpt>
      <trkpt lat="46.61061" lon="5.89748">
        <ele>850.8</ele>
        <time>2022-08-27T12:41:03Z</time>
      </trkpt>
      <trkpt lat="46.61049" lon="5.89756">
        <ele>851.4</ele>
        <time>2022-08-27T12:41:06Z</time>
      </trkpt>
      <trkpt lat="46.61037" lon="5.89765">
        <ele>852.6</ele>
        <time>2022-08-27T12:41:09Z</time>
      </trkpt>
      <trkpt lat="46.61033" lon="5.89766">
        <ele>852.6</ele>
        <time>2022-08-27T12:41:10Z</time>
      </trkpt>
      <trkpt lat="46.61016" lon="5.89767">
        <ele>853.6</ele>
        <time>2022-08-27T12:41:15Z</time>
      </trkpt>
      <trkpt lat="46.60995" lon="5.89761">
        <ele>854.6</ele>
        <time>2022-08-27T12:41:20Z</time>
      </trkpt>
      <trkpt lat="46.60991" lon="5.89759">
        <ele>854.8</ele>
        <time>2022-08-27T12:41:21Z</time>
      </trkpt>
      <trkpt lat="46.6098" lon="5.89753">
        <ele>855.8</ele>
        <time>2022-08-27T12:41:24Z</time>
      </trkpt>
      <trkpt lat="46.60961" lon="5.89745">
        <ele>856.8</ele>
        <time>2022-08-27T12:41:29Z</time>
      </trkpt>
      <trkpt lat="46.60945" lon="5.8974">
        <ele>858</ele>
        <time>2022-08-27T12:41:33Z</time>
      </trkpt>
      <trkpt lat="46.60934" lon="5.89734">
        <ele>858.8</ele>
        <time>2022-08-27T12:41:36Z</time>
      </trkpt>
      <trkpt lat="46.60924" lon="5.89725">
        <ele>859.2</ele>
        <time>2022-08-27T12:41:39Z</time>
      </trkpt>
      <trkpt lat="46.60911" lon="5.89707">
        <ele>860.2</ele>
        <time>2022-08-27T12:41:43Z</time>
      </trkpt>
      <trkpt lat="46.60896" lon="5.89685">
        <ele>861.4</ele>
        <time>2022-08-27T12:41:48Z</time>
      </trkpt>
      <trkpt lat="46.6089" lon="5.89677">
        <ele>861.8</ele>
        <time>2022-08-27T12:41:50Z</time>
      </trkpt>
      <trkpt lat="46.60883" lon="5.8967">
        <ele>862.4</ele>
        <time>2022-08-27T12:41:52Z</time>
      </trkpt>
      <trkpt lat="46.60877" lon="5.89663">
        <ele>862.8</ele>
        <time>2022-08-27T12:41:54Z</time>
      </trkpt>
      <trkpt lat="46.60872" lon="5.89659">
        <ele>863</ele>
        <time>2022-08-27T12:41:55Z</time>
      </trkpt>
      <trkpt lat="46.60865" lon="5.89653">
        <ele>863</ele>
        <time>2022-08-27T12:41:57Z</time>
      </trkpt>
      <trkpt lat="46.60859" lon="5.89645">
        <ele>863.4</ele>
        <time>2022-08-27T12:41:59Z</time>
      </trkpt>
      <trkpt lat="46.60856" lon="5.89641">
        <ele>863.8</ele>
        <time>2022-08-27T12:42:00Z</time>
      </trkpt>
      <trkpt lat="46.60849" lon="5.89635">
        <ele>864.6</ele>
        <time>2022-08-27T12:42:02Z</time>
      </trkpt>
      <trkpt lat="46.60836" lon="5.89617">
        <ele>865.8</ele>
        <time>2022-08-27T12:42:07Z</time>
      </trkpt>
      <trkpt lat="46.60833" lon="5.89614">
        <ele>866</ele>
        <time>2022-08-27T12:42:08Z</time>
      </trkpt>
      <trkpt lat="46.60822" lon="5.89606">
        <ele>866.8</ele>
        <time>2022-08-27T12:42:11Z</time>
      </trkpt>
      <trkpt lat="46.60812" lon="5.89596">
        <ele>867.6</ele>
        <time>2022-08-27T12:42:14Z</time>
      </trkpt>
      <trkpt lat="46.60808" lon="5.89594">
        <ele>867.8</ele>
        <time>2022-08-27T12:42:15Z</time>
      </trkpt>
      <trkpt lat="46.60791" lon="5.89593">
        <ele>868.2</ele>
        <time>2022-08-27T12:42:19Z</time>
      </trkpt>
      <trkpt lat="46.6078" lon="5.89599">
        <ele>868.6</ele>
        <time>2022-08-27T12:42:22Z</time>
      </trkpt>
      <trkpt lat="46.60777" lon="5.89601">
        <ele>868.6</ele>
        <time>2022-08-27T12:42:23Z</time>
      </trkpt>
      <trkpt lat="46.60774" lon="5.89607">
        <ele>868.8</ele>
        <time>2022-08-27T12:42:25Z</time>
      </trkpt>
      <trkpt lat="46.60771" lon="5.89614">
        <ele>868.8</ele>
        <time>2022-08-27T12:42:27Z</time>
      </trkpt>
      <trkpt lat="46.60773" lon="5.89629">
        <ele>869.8</ele>
        <time>2022-08-27T12:42:30Z</time>
      </trkpt>
      <trkpt lat="46.60773" lon="5.89636">
        <ele>870</ele>
        <time>2022-08-27T12:42:31Z</time>
      </trkpt>
      <trkpt lat="46.60775" lon="5.89649">
        <ele>870.6</ele>
        <time>2022-08-27T12:42:33Z</time>
      </trkpt>
      <trkpt lat="46.60776" lon="5.89655">
        <ele>871</ele>
        <time>2022-08-27T12:42:34Z</time>
      </trkpt>
      <trkpt lat="46.60777" lon="5.89661">
        <ele>871.2</ele>
        <time>2022-08-27T12:42:35Z</time>
      </trkpt>
      <trkpt lat="46.60778" lon="5.89667">
        <ele>871.4</ele>
        <time>2022-08-27T12:42:36Z</time>
      </trkpt>
      <trkpt lat="46.60787" lon="5.89677">
        <ele>871.4</ele>
        <time>2022-08-27T12:42:38Z</time>
      </trkpt>
      <trkpt lat="46.60792" lon="5.89687">
        <ele>871.6</ele>
        <time>2022-08-27T12:42:40Z</time>
      </trkpt>
      <trkpt lat="46.60793" lon="5.89692">
        <ele>871.8</ele>
        <time>2022-08-27T12:42:41Z</time>
      </trkpt>
      <trkpt lat="46.60796" lon="5.89701">
        <ele>872.2</ele>
        <time>2022-08-27T12:42:43Z</time>
      </trkpt>
      <trkpt lat="46.608" lon="5.8971">
        <ele>872.4</ele>
        <time>2022-08-27T12:42:45Z</time>
      </trkpt>
      <trkpt lat="46.6081" lon="5.89725">
        <ele>873.2</ele>
        <time>2022-08-27T12:42:48Z</time>
      </trkpt>
      <trkpt lat="46.6082" lon="5.89743">
        <ele>873.8</ele>
        <time>2022-08-27T12:42:52Z</time>
      </trkpt>
      <trkpt lat="46.6082" lon="5.89748">
        <ele>874.2</ele>
        <time>2022-08-27T12:42:53Z</time>
      </trkpt>
      <trkpt lat="46.60817" lon="5.89764">
        <ele>874.8</ele>
        <time>2022-08-27T12:42:56Z</time>
      </trkpt>
      <trkpt lat="46.60817" lon="5.8977">
        <ele>874.8</ele>
        <time>2022-08-27T12:42:57Z</time>
      </trkpt>
      <trkpt lat="46.60819" lon="5.89775">
        <ele>875</ele>
        <time>2022-08-27T12:42:58Z</time>
      </trkpt>
      <trkpt lat="46.60822" lon="5.89785">
        <ele>875.2</ele>
        <time>2022-08-27T12:43:00Z</time>
      </trkpt>
      <trkpt lat="46.60827" lon="5.89803">
        <ele>875.4</ele>
        <time>2022-08-27T12:43:03Z</time>
      </trkpt>
      <trkpt lat="46.60827" lon="5.89808">
        <ele>875.6</ele>
        <time>2022-08-27T12:43:04Z</time>
      </trkpt>
      <trkpt lat="46.60829" lon="5.89819">
        <ele>875.6</ele>
        <time>2022-08-27T12:43:06Z</time>
      </trkpt>
      <trkpt lat="46.60841" lon="5.89851">
        <ele>876.4</ele>
        <time>2022-08-27T12:43:12Z</time>
      </trkpt>
      <trkpt lat="46.60843" lon="5.89856">
        <ele>876.4</ele>
        <time>2022-08-27T12:43:13Z</time>
      </trkpt>
      <trkpt lat="46.6085" lon="5.89865">
        <ele>876.6</ele>
        <time>2022-08-27T12:43:15Z</time>
      </trkpt>
      <trkpt lat="46.6086" lon="5.89888">
        <ele>877</ele>
        <time>2022-08-27T12:43:19Z</time>
      </trkpt>
      <trkpt lat="46.6086" lon="5.899">
        <ele>877.4</ele>
        <time>2022-08-27T12:43:21Z</time>
      </trkpt>
      <trkpt lat="46.60858" lon="5.89911">
        <ele>877.8</ele>
        <time>2022-08-27T12:43:23Z</time>
      </trkpt>
      <trkpt lat="46.60858" lon="5.89917">
        <ele>878.6</ele>
        <time>2022-08-27T12:43:24Z</time>
      </trkpt>
      <trkpt lat="46.60863" lon="5.89927">
        <ele>879.4</ele>
        <time>2022-08-27T12:43:26Z</time>
      </trkpt>
      <trkpt lat="46.60869" lon="5.89932">
        <ele>879.6</ele>
        <time>2022-08-27T12:43:27Z</time>
      </trkpt>
      <trkpt lat="46.60876" lon="5.89936">
        <ele>879.8</ele>
        <time>2022-08-27T12:43:28Z</time>
      </trkpt>
      <trkpt lat="46.60884" lon="5.89944">
        <ele>880.2</ele>
        <time>2022-08-27T12:43:30Z</time>
      </trkpt>
      <trkpt lat="46.60888" lon="5.89957">
        <ele>881</ele>
        <time>2022-08-27T12:43:33Z</time>
      </trkpt>
      <trkpt lat="46.6089" lon="5.89969">
        <ele>881.6</ele>
        <time>2022-08-27T12:43:35Z</time>
      </trkpt>
      <trkpt lat="46.60888" lon="5.89981">
        <ele>882</ele>
        <time>2022-08-27T12:43:37Z</time>
      </trkpt>
      <trkpt lat="46.60888" lon="5.89987">
        <ele>882.2</ele>
        <time>2022-08-27T12:43:38Z</time>
      </trkpt>
      <trkpt lat="46.60892" lon="5.90022">
        <ele>883.6</ele>
        <time>2022-08-27T12:43:44Z</time>
      </trkpt>
      <trkpt lat="46.60892" lon="5.90028">
        <ele>883.6</ele>
        <time>2022-08-27T12:43:45Z</time>
      </trkpt>
      <trkpt lat="46.60895" lon="5.90045">
        <ele>884.4</ele>
        <time>2022-08-27T12:43:48Z</time>
      </trkpt>
      <trkpt lat="46.60898" lon="5.9005">
        <ele>884.6</ele>
        <time>2022-08-27T12:43:49Z</time>
      </trkpt>
      <trkpt lat="46.60904" lon="5.90067">
        <ele>885.4</ele>
        <time>2022-08-27T12:43:52Z</time>
      </trkpt>
      <trkpt lat="46.60906" lon="5.90072">
        <ele>885.8</ele>
        <time>2022-08-27T12:43:53Z</time>
      </trkpt>
      <trkpt lat="46.60914" lon="5.90092">
        <ele>886.8</ele>
        <time>2022-08-27T12:43:57Z</time>
      </trkpt>
      <trkpt lat="46.60917" lon="5.90097">
        <ele>887.2</ele>
        <time>2022-08-27T12:43:58Z</time>
      </trkpt>
      <trkpt lat="46.6093" lon="5.90118">
        <ele>888.2</ele>
        <time>2022-08-27T12:44:03Z</time>
      </trkpt>
      <trkpt lat="46.60936" lon="5.90126">
        <ele>888.6</ele>
        <time>2022-08-27T12:44:05Z</time>
      </trkpt>
      <trkpt lat="46.60945" lon="5.90137">
        <ele>889.2</ele>
        <time>2022-08-27T12:44:08Z</time>
      </trkpt>
      <trkpt lat="46.60947" lon="5.90141">
        <ele>889.4</ele>
        <time>2022-08-27T12:44:09Z</time>
      </trkpt>
      <trkpt lat="46.6095" lon="5.90144">
        <ele>889.8</ele>
        <time>2022-08-27T12:44:10Z</time>
      </trkpt>
      <trkpt lat="46.60961" lon="5.90157">
        <ele>890.6</ele>
        <time>2022-08-27T12:44:14Z</time>
      </trkpt>
      <trkpt lat="46.60965" lon="5.90165">
        <ele>891</ele>
        <time>2022-08-27T12:44:16Z</time>
      </trkpt>
      <trkpt lat="46.60969" lon="5.90178">
        <ele>891.8</ele>
        <time>2022-08-27T12:44:19Z</time>
      </trkpt>
      <trkpt lat="46.60973" lon="5.90189">
        <ele>892.2</ele>
        <time>2022-08-27T12:44:21Z</time>
      </trkpt>
      <trkpt lat="46.60975" lon="5.902">
        <ele>892.8</ele>
        <time>2022-08-27T12:44:23Z</time>
      </trkpt>
      <trkpt lat="46.60972" lon="5.90212">
        <ele>893.4</ele>
        <time>2022-08-27T12:44:25Z</time>
      </trkpt>
      <trkpt lat="46.60956" lon="5.90219">
        <ele>893.8</ele>
        <time>2022-08-27T12:44:26Z</time>
      </trkpt>
      <trkpt lat="46.60953" lon="5.90225">
        <ele>894</ele>
        <time>2022-08-27T12:44:27Z</time>
      </trkpt>
      <trkpt lat="46.60944" lon="5.90246">
        <ele>895</ele>
        <time>2022-08-27T12:44:31Z</time>
      </trkpt>
      <trkpt lat="46.60942" lon="5.9025">
        <ele>895.2</ele>
        <time>2022-08-27T12:44:32Z</time>
      </trkpt>
      <trkpt lat="46.60935" lon="5.90264">
        <ele>896</ele>
        <time>2022-08-27T12:44:35Z</time>
      </trkpt>
      <trkpt lat="46.60931" lon="5.90272">
        <ele>896.4</ele>
        <time>2022-08-27T12:44:37Z</time>
      </trkpt>
      <trkpt lat="46.60923" lon="5.90287">
        <ele>897.2</ele>
        <time>2022-08-27T12:44:40Z</time>
      </trkpt>
      <trkpt lat="46.60916" lon="5.903">
        <ele>897.8</ele>
        <time>2022-08-27T12:44:43Z</time>
      </trkpt>
      <trkpt lat="46.6091" lon="5.90309">
        <ele>898.2</ele>
        <time>2022-08-27T12:44:45Z</time>
      </trkpt>
      <trkpt lat="46.60891" lon="5.90331">
        <ele>899.4</ele>
        <time>2022-08-27T12:44:51Z</time>
      </trkpt>
      <trkpt lat="46.60889" lon="5.90334">
        <ele>899.6</ele>
        <time>2022-08-27T12:44:52Z</time>
      </trkpt>
      <trkpt lat="46.60869" lon="5.90347">
        <ele>900.6</ele>
        <time>2022-08-27T12:44:58Z</time>
      </trkpt>
      <trkpt lat="46.60862" lon="5.9035">
        <ele>901.4</ele>
        <time>2022-08-27T12:45:00Z</time>
      </trkpt>
      <trkpt lat="46.60855" lon="5.90354">
        <ele>901.8</ele>
        <time>2022-08-27T12:45:02Z</time>
      </trkpt>
      <trkpt lat="46.6083" lon="5.90363">
        <ele>902.8</ele>
        <time>2022-08-27T12:45:08Z</time>
      </trkpt>
      <trkpt lat="46.60797" lon="5.90374">
        <ele>904</ele>
        <time>2022-08-27T12:45:15Z</time>
      </trkpt>
      <trkpt lat="46.60753" lon="5.90385">
        <ele>904.6</ele>
        <time>2022-08-27T12:45:23Z</time>
      </trkpt>
      <trkpt lat="46.60713" lon="5.90387">
        <ele>904</ele>
        <time>2022-08-27T12:45:30Z</time>
      </trkpt>
      <trkpt lat="46.60672" lon="5.9038">
        <ele>903.8</ele>
        <time>2022-08-27T12:45:37Z</time>
      </trkpt>
      <trkpt lat="46.60667" lon="5.90377">
        <ele>903.8</ele>
        <time>2022-08-27T12:45:38Z</time>
      </trkpt>
      <trkpt lat="46.60661" lon="5.90374">
        <ele>904</ele>
        <time>2022-08-27T12:45:39Z</time>
      </trkpt>
      <trkpt lat="46.60635" lon="5.90353">
        <ele>904.4</ele>
        <time>2022-08-27T12:45:44Z</time>
      </trkpt>
      <trkpt lat="46.60613" lon="5.90341">
        <ele>904.8</ele>
        <time>2022-08-27T12:45:48Z</time>
      </trkpt>
      <trkpt lat="46.60607" lon="5.90339">
        <ele>905</ele>
        <time>2022-08-27T12:45:49Z</time>
      </trkpt>
      <trkpt lat="46.60601" lon="5.90338">
        <ele>905</ele>
        <time>2022-08-27T12:45:50Z</time>
      </trkpt>
      <trkpt lat="46.60559" lon="5.9034">
        <ele>905.2</ele>
        <time>2022-08-27T12:45:57Z</time>
      </trkpt>
      <trkpt lat="46.60524" lon="5.90342">
        <ele>905.4</ele>
        <time>2022-08-27T12:46:03Z</time>
      </trkpt>
      <trkpt lat="46.60495" lon="5.90345">
        <ele>905.4</ele>
        <time>2022-08-27T12:46:08Z</time>
      </trkpt>
      <trkpt lat="46.60484" lon="5.90342">
        <ele>905.4</ele>
        <time>2022-08-27T12:46:10Z</time>
      </trkpt>
      <trkpt lat="46.60474" lon="5.90335">
        <ele>905.4</ele>
        <time>2022-08-27T12:46:12Z</time>
      </trkpt>
      <trkpt lat="46.60466" lon="5.90325">
        <ele>905.4</ele>
        <time>2022-08-27T12:46:14Z</time>
      </trkpt>
      <trkpt lat="46.60445" lon="5.90288">
        <ele>906</ele>
        <time>2022-08-27T12:46:20Z</time>
      </trkpt>
      <trkpt lat="46.60437" lon="5.90274">
        <ele>906.4</ele>
        <time>2022-08-27T12:46:22Z</time>
      </trkpt>
      <trkpt lat="46.60426" lon="5.90253">
        <ele>907.2</ele>
        <time>2022-08-27T12:46:25Z</time>
      </trkpt>
      <trkpt lat="46.60412" lon="5.90226">
        <ele>907.4</ele>
        <time>2022-08-27T12:46:29Z</time>
      </trkpt>
      <trkpt lat="46.6038" lon="5.90174">
        <ele>907.2</ele>
        <time>2022-08-27T12:46:37Z</time>
      </trkpt>
      <trkpt lat="46.60364" lon="5.90145">
        <ele>907</ele>
        <time>2022-08-27T12:46:41Z</time>
      </trkpt>
      <trkpt lat="46.60355" lon="5.90132">
        <ele>907</ele>
        <time>2022-08-27T12:46:43Z</time>
      </trkpt>
      <trkpt lat="46.60333" lon="5.90093">
        <ele>907.6</ele>
        <time>2022-08-27T12:46:49Z</time>
      </trkpt>
      <trkpt lat="46.60312" lon="5.90064">
        <ele>908.2</ele>
        <time>2022-08-27T12:46:54Z</time>
      </trkpt>
      <trkpt lat="46.60304" lon="5.90052">
        <ele>908.4</ele>
        <time>2022-08-27T12:46:56Z</time>
      </trkpt>
      <trkpt lat="46.6027" lon="5.90007">
        <ele>909.2</ele>
        <time>2022-08-27T12:47:04Z</time>
      </trkpt>
      <trkpt lat="46.60244" lon="5.89974">
        <ele>909.2</ele>
        <time>2022-08-27T12:47:09Z</time>
      </trkpt>
      <trkpt lat="46.60211" lon="5.89936">
        <ele>908</ele>
        <time>2022-08-27T12:47:15Z</time>
      </trkpt>
      <trkpt lat="46.60206" lon="5.8993">
        <ele>907.8</ele>
        <time>2022-08-27T12:47:16Z</time>
      </trkpt>
      <trkpt lat="46.60182" lon="5.8991">
        <ele>907.4</ele>
        <time>2022-08-27T12:47:21Z</time>
      </trkpt>
      <trkpt lat="46.60161" lon="5.89886">
        <ele>907</ele>
        <time>2022-08-27T12:47:26Z</time>
      </trkpt>
      <trkpt lat="46.60153" lon="5.89876">
        <ele>907</ele>
        <time>2022-08-27T12:47:28Z</time>
      </trkpt>
      <trkpt lat="46.60149" lon="5.8987">
        <ele>906.8</ele>
        <time>2022-08-27T12:47:29Z</time>
      </trkpt>
      <trkpt lat="46.60145" lon="5.89863">
        <ele>906.2</ele>
        <time>2022-08-27T12:47:30Z</time>
      </trkpt>
      <trkpt lat="46.60138" lon="5.89847">
        <ele>906</ele>
        <time>2022-08-27T12:47:32Z</time>
      </trkpt>
      <trkpt lat="46.60135" lon="5.89838">
        <ele>906</ele>
        <time>2022-08-27T12:47:33Z</time>
      </trkpt>
      <trkpt lat="46.60131" lon="5.89829">
        <ele>905.8</ele>
        <time>2022-08-27T12:47:34Z</time>
      </trkpt>
      <trkpt lat="46.60121" lon="5.89814">
        <ele>905.8</ele>
        <time>2022-08-27T12:47:36Z</time>
      </trkpt>
      <trkpt lat="46.60115" lon="5.89808">
        <ele>905.6</ele>
        <time>2022-08-27T12:47:37Z</time>
      </trkpt>
      <trkpt lat="46.60082" lon="5.89785">
        <ele>905</ele>
        <time>2022-08-27T12:47:42Z</time>
      </trkpt>
      <trkpt lat="46.60075" lon="5.89781">
        <ele>904.8</ele>
        <time>2022-08-27T12:47:43Z</time>
      </trkpt>
      <trkpt lat="46.60026" lon="5.89761">
        <ele>905.2</ele>
        <time>2022-08-27T12:47:50Z</time>
      </trkpt>
      <trkpt lat="46.59992" lon="5.8974">
        <ele>906</ele>
        <time>2022-08-27T12:47:56Z</time>
      </trkpt>
      <trkpt lat="46.59986" lon="5.89735">
        <ele>906.2</ele>
        <time>2022-08-27T12:47:57Z</time>
      </trkpt>
      <trkpt lat="46.59972" lon="5.89721">
        <ele>907</ele>
        <time>2022-08-27T12:48:00Z</time>
      </trkpt>
      <trkpt lat="46.59967" lon="5.89715">
        <ele>907.2</ele>
        <time>2022-08-27T12:48:01Z</time>
      </trkpt>
      <trkpt lat="46.59941" lon="5.89687">
        <ele>908.2</ele>
        <time>2022-08-27T12:48:06Z</time>
      </trkpt>
      <trkpt lat="46.59931" lon="5.89676">
        <ele>908.6</ele>
        <time>2022-08-27T12:48:08Z</time>
      </trkpt>
      <trkpt lat="46.59912" lon="5.8965">
        <ele>909</ele>
        <time>2022-08-27T12:48:12Z</time>
      </trkpt>
      <trkpt lat="46.59904" lon="5.89636">
        <ele>909.2</ele>
        <time>2022-08-27T12:48:14Z</time>
      </trkpt>
      <trkpt lat="46.59898" lon="5.89621">
        <ele>909.4</ele>
        <time>2022-08-27T12:48:16Z</time>
      </trkpt>
      <trkpt lat="46.59881" lon="5.89583">
        <ele>909.8</ele>
        <time>2022-08-27T12:48:21Z</time>
      </trkpt>
      <trkpt lat="46.59867" lon="5.89557">
        <ele>910.2</ele>
        <time>2022-08-27T12:48:25Z</time>
      </trkpt>
      <trkpt lat="46.5986" lon="5.89547">
        <ele>910.4</ele>
        <time>2022-08-27T12:48:27Z</time>
      </trkpt>
      <trkpt lat="46.59845" lon="5.89531">
        <ele>911.6</ele>
        <time>2022-08-27T12:48:31Z</time>
      </trkpt>
      <trkpt lat="46.59835" lon="5.89521">
        <ele>912.6</ele>
        <time>2022-08-27T12:48:34Z</time>
      </trkpt>
      <trkpt lat="46.5982" lon="5.89504">
        <ele>913.6</ele>
        <time>2022-08-27T12:48:39Z</time>
      </trkpt>
      <trkpt lat="46.59817" lon="5.895">
        <ele>913.8</ele>
        <time>2022-08-27T12:48:40Z</time>
      </trkpt>
      <trkpt lat="46.59803" lon="5.89488">
        <ele>915</ele>
        <time>2022-08-27T12:48:44Z</time>
      </trkpt>
      <trkpt lat="46.598" lon="5.89485">
        <ele>915.2</ele>
        <time>2022-08-27T12:48:45Z</time>
      </trkpt>
      <trkpt lat="46.59793" lon="5.89478">
        <ele>916.2</ele>
        <time>2022-08-27T12:48:47Z</time>
      </trkpt>
      <trkpt lat="46.5978" lon="5.89466">
        <ele>917.2</ele>
        <time>2022-08-27T12:48:51Z</time>
      </trkpt>
      <trkpt lat="46.59776" lon="5.89463">
        <ele>917.4</ele>
        <time>2022-08-27T12:48:52Z</time>
      </trkpt>
      <trkpt lat="46.59761" lon="5.89449">
        <ele>918.2</ele>
        <time>2022-08-27T12:48:57Z</time>
      </trkpt>
      <trkpt lat="46.59756" lon="5.89442">
        <ele>919</ele>
        <time>2022-08-27T12:49:00Z</time>
      </trkpt>
      <trkpt lat="46.59752" lon="5.89438">
        <ele>919.6</ele>
        <time>2022-08-27T12:49:02Z</time>
      </trkpt>
      <trkpt lat="46.59743" lon="5.8943">
        <ele>920.2</ele>
        <time>2022-08-27T12:49:06Z</time>
      </trkpt>
      <trkpt lat="46.59737" lon="5.89424">
        <ele>920.8</ele>
        <time>2022-08-27T12:49:09Z</time>
      </trkpt>
      <trkpt lat="46.59726" lon="5.89412">
        <ele>921.8</ele>
        <time>2022-08-27T12:49:14Z</time>
      </trkpt>
      <trkpt lat="46.59724" lon="5.8941">
        <ele>922</ele>
        <time>2022-08-27T12:49:15Z</time>
      </trkpt>
      <trkpt lat="46.59705" lon="5.89393">
        <ele>923</ele>
        <time>2022-08-27T12:49:23Z</time>
      </trkpt>
      <trkpt lat="46.59703" lon="5.89391">
        <ele>923.2</ele>
        <time>2022-08-27T12:49:24Z</time>
      </trkpt>
      <trkpt lat="46.59682" lon="5.89369">
        <ele>923.8</ele>
        <time>2022-08-27T12:49:30Z</time>
      </trkpt>
      <trkpt lat="46.59675" lon="5.89362">
        <ele>924.2</ele>
        <time>2022-08-27T12:49:32Z</time>
      </trkpt>
      <trkpt lat="46.5966" lon="5.89348">
        <ele>925.2</ele>
        <time>2022-08-27T12:49:36Z</time>
      </trkpt>
      <trkpt lat="46.59648" lon="5.89338">
        <ele>926.4</ele>
        <time>2022-08-27T12:49:39Z</time>
      </trkpt>
      <trkpt lat="46.59629" lon="5.89317">
        <ele>927.6</ele>
        <time>2022-08-27T12:49:44Z</time>
      </trkpt>
      <trkpt lat="46.59617" lon="5.89304">
        <ele>928</ele>
        <time>2022-08-27T12:49:47Z</time>
      </trkpt>
      <trkpt lat="46.59608" lon="5.89293">
        <ele>928.6</ele>
        <time>2022-08-27T12:49:49Z</time>
      </trkpt>
      <trkpt lat="46.59596" lon="5.89278">
        <ele>929.4</ele>
        <time>2022-08-27T12:49:52Z</time>
      </trkpt>
      <trkpt lat="46.59587" lon="5.89265">
        <ele>929.6</ele>
        <time>2022-08-27T12:49:54Z</time>
      </trkpt>
      <trkpt lat="46.59579" lon="5.89255">
        <ele>930</ele>
        <time>2022-08-27T12:49:56Z</time>
      </trkpt>
      <trkpt lat="46.59564" lon="5.89235">
        <ele>930.4</ele>
        <time>2022-08-27T12:50:00Z</time>
      </trkpt>
      <trkpt lat="46.5956" lon="5.89231">
        <ele>930.6</ele>
        <time>2022-08-27T12:50:01Z</time>
      </trkpt>
      <trkpt lat="46.59548" lon="5.89216">
        <ele>931.2</ele>
        <time>2022-08-27T12:50:04Z</time>
      </trkpt>
      <trkpt lat="46.59546" lon="5.89212">
        <ele>931.4</ele>
        <time>2022-08-27T12:50:05Z</time>
      </trkpt>
      <trkpt lat="46.59529" lon="5.89194">
        <ele>932.2</ele>
        <time>2022-08-27T12:50:09Z</time>
      </trkpt>
      <trkpt lat="46.59513" lon="5.89174">
        <ele>933</ele>
        <time>2022-08-27T12:50:13Z</time>
      </trkpt>
      <trkpt lat="46.59509" lon="5.89169">
        <ele>933.4</ele>
        <time>2022-08-27T12:50:14Z</time>
      </trkpt>
      <trkpt lat="46.59484" lon="5.89142">
        <ele>934.2</ele>
        <time>2022-08-27T12:50:20Z</time>
      </trkpt>
      <trkpt lat="46.5948" lon="5.89138">
        <ele>934.4</ele>
        <time>2022-08-27T12:50:21Z</time>
      </trkpt>
      <trkpt lat="46.59453" lon="5.89114">
        <ele>935.6</ele>
        <time>2022-08-27T12:50:28Z</time>
      </trkpt>
      <trkpt lat="46.59449" lon="5.89111">
        <ele>935.8</ele>
        <time>2022-08-27T12:50:29Z</time>
      </trkpt>
      <trkpt lat="46.59434" lon="5.89096">
        <ele>937.2</ele>
        <time>2022-08-27T12:50:33Z</time>
      </trkpt>
      <trkpt lat="46.59424" lon="5.89083">
        <ele>938</ele>
        <time>2022-08-27T12:50:36Z</time>
      </trkpt>
      <trkpt lat="46.59421" lon="5.89078">
        <ele>938.2</ele>
        <time>2022-08-27T12:50:37Z</time>
      </trkpt>
      <trkpt lat="46.59416" lon="5.89068">
        <ele>938.4</ele>
        <time>2022-08-27T12:50:39Z</time>
      </trkpt>
      <trkpt lat="46.59412" lon="5.89056">
        <ele>938.8</ele>
        <time>2022-08-27T12:50:41Z</time>
      </trkpt>
      <trkpt lat="46.59406" lon="5.8904">
        <ele>939.4</ele>
        <time>2022-08-27T12:50:44Z</time>
      </trkpt>
      <trkpt lat="46.594" lon="5.89021">
        <ele>940</ele>
        <time>2022-08-27T12:50:47Z</time>
      </trkpt>
      <trkpt lat="46.59397" lon="5.89015">
        <ele>940.2</ele>
        <time>2022-08-27T12:50:48Z</time>
      </trkpt>
      <trkpt lat="46.59394" lon="5.89008">
        <ele>940.4</ele>
        <time>2022-08-27T12:50:49Z</time>
      </trkpt>
      <trkpt lat="46.59387" lon="5.88996">
        <ele>940.8</ele>
        <time>2022-08-27T12:50:51Z</time>
      </trkpt>
      <trkpt lat="46.5938" lon="5.88986">
        <ele>941</ele>
        <time>2022-08-27T12:50:53Z</time>
      </trkpt>
      <trkpt lat="46.59354" lon="5.88955">
        <ele>941.4</ele>
        <time>2022-08-27T12:51:00Z</time>
      </trkpt>
      <trkpt lat="46.59351" lon="5.8895">
        <ele>941.4</ele>
        <time>2022-08-27T12:51:01Z</time>
      </trkpt>
      <trkpt lat="46.59337" lon="5.8893">
        <ele>942.4</ele>
        <time>2022-08-27T12:51:05Z</time>
      </trkpt>
      <trkpt lat="46.59334" lon="5.88926">
        <ele>942.6</ele>
        <time>2022-08-27T12:51:06Z</time>
      </trkpt>
      <trkpt lat="46.59322" lon="5.88917">
        <ele>943.4</ele>
        <time>2022-08-27T12:51:09Z</time>
      </trkpt>
      <trkpt lat="46.59315" lon="5.88915">
        <ele>943.6</ele>
        <time>2022-08-27T12:51:11Z</time>
      </trkpt>
      <trkpt lat="46.5931" lon="5.88915">
        <ele>943.8</ele>
        <time>2022-08-27T12:51:12Z</time>
      </trkpt>
      <trkpt lat="46.59298" lon="5.88913">
        <ele>944.8</ele>
        <time>2022-08-27T12:51:15Z</time>
      </trkpt>
      <trkpt lat="46.59284" lon="5.88911">
        <ele>945.4</ele>
        <time>2022-08-27T12:51:18Z</time>
      </trkpt>
      <trkpt lat="46.5928" lon="5.8891">
        <ele>945.6</ele>
        <time>2022-08-27T12:51:19Z</time>
      </trkpt>
      <trkpt lat="46.59273" lon="5.88907">
        <ele>946.2</ele>
        <time>2022-08-27T12:51:21Z</time>
      </trkpt>
      <trkpt lat="46.59262" lon="5.88899">
        <ele>946.6</ele>
        <time>2022-08-27T12:51:24Z</time>
      </trkpt>
      <trkpt lat="46.59256" lon="5.88894">
        <ele>947.4</ele>
        <time>2022-08-27T12:51:26Z</time>
      </trkpt>
      <trkpt lat="46.59247" lon="5.88889">
        <ele>948</ele>
        <time>2022-08-27T12:51:28Z</time>
      </trkpt>
      <trkpt lat="46.59231" lon="5.88884">
        <ele>948.6</ele>
        <time>2022-08-27T12:51:32Z</time>
      </trkpt>
      <trkpt lat="46.59219" lon="5.8888">
        <ele>949</ele>
        <time>2022-08-27T12:51:35Z</time>
      </trkpt>
      <trkpt lat="46.59215" lon="5.88878">
        <ele>949.2</ele>
        <time>2022-08-27T12:51:36Z</time>
      </trkpt>
      <trkpt lat="46.59207" lon="5.88873">
        <ele>949.6</ele>
        <time>2022-08-27T12:51:38Z</time>
      </trkpt>
      <trkpt lat="46.59199" lon="5.88868">
        <ele>949.8</ele>
        <time>2022-08-27T12:51:40Z</time>
      </trkpt>
      <trkpt lat="46.59179" lon="5.88857">
        <ele>950</ele>
        <time>2022-08-27T12:51:45Z</time>
      </trkpt>
      <trkpt lat="46.5917" lon="5.88852">
        <ele>950.2</ele>
        <time>2022-08-27T12:51:47Z</time>
      </trkpt>
      <trkpt lat="46.59166" lon="5.8885">
        <ele>950.4</ele>
        <time>2022-08-27T12:51:48Z</time>
      </trkpt>
      <trkpt lat="46.59145" lon="5.88837">
        <ele>951.4</ele>
        <time>2022-08-27T12:51:53Z</time>
      </trkpt>
      <trkpt lat="46.5914" lon="5.88834">
        <ele>951.6</ele>
        <time>2022-08-27T12:51:54Z</time>
      </trkpt>
      <trkpt lat="46.59116" lon="5.88821">
        <ele>952.4</ele>
        <time>2022-08-27T12:51:59Z</time>
      </trkpt>
      <trkpt lat="46.59112" lon="5.88819">
        <ele>952.2</ele>
        <time>2022-08-27T12:52:00Z</time>
      </trkpt>
      <trkpt lat="46.59075" lon="5.88795">
        <ele>953</ele>
        <time>2022-08-27T12:52:07Z</time>
      </trkpt>
      <trkpt lat="46.59066" lon="5.88787">
        <ele>953.2</ele>
        <time>2022-08-27T12:52:09Z</time>
      </trkpt>
      <trkpt lat="46.59044" lon="5.88768">
        <ele>953.4</ele>
        <time>2022-08-27T12:52:14Z</time>
      </trkpt>
      <trkpt lat="46.5904" lon="5.88765">
        <ele>953.4</ele>
        <time>2022-08-27T12:52:15Z</time>
      </trkpt>
      <trkpt lat="46.59027" lon="5.88761">
        <ele>953.8</ele>
        <time>2022-08-27T12:52:18Z</time>
      </trkpt>
      <trkpt lat="46.59017" lon="5.88761">
        <ele>954.4</ele>
        <time>2022-08-27T12:52:20Z</time>
      </trkpt>
      <trkpt lat="46.59012" lon="5.88762">
        <ele>954.4</ele>
        <time>2022-08-27T12:52:21Z</time>
      </trkpt>
      <trkpt lat="46.58998" lon="5.88763">
        <ele>955.2</ele>
        <time>2022-08-27T12:52:24Z</time>
      </trkpt>
      <trkpt lat="46.58993" lon="5.88763">
        <ele>955.4</ele>
        <time>2022-08-27T12:52:25Z</time>
      </trkpt>
      <trkpt lat="46.58989" lon="5.88763">
        <ele>955.6</ele>
        <time>2022-08-27T12:52:26Z</time>
      </trkpt>
      <trkpt lat="46.5898" lon="5.88762">
        <ele>956</ele>
        <time>2022-08-27T12:52:28Z</time>
      </trkpt>
      <trkpt lat="46.58971" lon="5.88762">
        <ele>956.2</ele>
        <time>2022-08-27T12:52:30Z</time>
      </trkpt>
      <trkpt lat="46.58966" lon="5.88765">
        <ele>956.4</ele>
        <time>2022-08-27T12:52:31Z</time>
      </trkpt>
      <trkpt lat="46.58958" lon="5.88769">
        <ele>956.6</ele>
        <time>2022-08-27T12:52:33Z</time>
      </trkpt>
      <trkpt lat="46.58951" lon="5.88771">
        <ele>956.8</ele>
        <time>2022-08-27T12:52:35Z</time>
      </trkpt>
      <trkpt lat="46.58946" lon="5.88771">
        <ele>957</ele>
        <time>2022-08-27T12:52:36Z</time>
      </trkpt>
      <trkpt lat="46.58938" lon="5.88767">
        <ele>957.6</ele>
        <time>2022-08-27T12:52:38Z</time>
      </trkpt>
      <trkpt lat="46.58928" lon="5.88755">
        <ele>958.6</ele>
        <time>2022-08-27T12:52:41Z</time>
      </trkpt>
      <trkpt lat="46.58919" lon="5.88745">
        <ele>959.4</ele>
        <time>2022-08-27T12:52:44Z</time>
      </trkpt>
      <trkpt lat="46.58912" lon="5.88741">
        <ele>959.6</ele>
        <time>2022-08-27T12:52:46Z</time>
      </trkpt>
      <trkpt lat="46.58893" lon="5.88736">
        <ele>960.8</ele>
        <time>2022-08-27T12:52:50Z</time>
      </trkpt>
      <trkpt lat="46.58888" lon="5.88735">
        <ele>961</ele>
        <time>2022-08-27T12:52:51Z</time>
      </trkpt>
      <trkpt lat="46.58873" lon="5.88732">
        <ele>961.8</ele>
        <time>2022-08-27T12:52:55Z</time>
      </trkpt>
      <trkpt lat="46.58855" lon="5.88734">
        <ele>962.8</ele>
        <time>2022-08-27T12:53:00Z</time>
      </trkpt>
      <trkpt lat="46.58841" lon="5.88743">
        <ele>964.2</ele>
        <time>2022-08-27T12:53:04Z</time>
      </trkpt>
      <trkpt lat="46.5883" lon="5.88746">
        <ele>964.4</ele>
        <time>2022-08-27T12:53:07Z</time>
      </trkpt>
      <trkpt lat="46.58815" lon="5.88744">
        <ele>965.4</ele>
        <time>2022-08-27T12:53:11Z</time>
      </trkpt>
      <trkpt lat="46.58806" lon="5.88739">
        <ele>965.8</ele>
        <time>2022-08-27T12:53:14Z</time>
      </trkpt>
      <trkpt lat="46.58798" lon="5.88738">
        <ele>966.2</ele>
        <time>2022-08-27T12:53:16Z</time>
      </trkpt>
      <trkpt lat="46.58786" lon="5.88737">
        <ele>966.8</ele>
        <time>2022-08-27T12:53:19Z</time>
      </trkpt>
      <trkpt lat="46.58775" lon="5.88739">
        <ele>967.4</ele>
        <time>2022-08-27T12:53:22Z</time>
      </trkpt>
      <trkpt lat="46.58763" lon="5.88739">
        <ele>968</ele>
        <time>2022-08-27T12:53:25Z</time>
      </trkpt>
      <trkpt lat="46.58752" lon="5.88741">
        <ele>968.4</ele>
        <time>2022-08-27T12:53:28Z</time>
      </trkpt>
      <trkpt lat="46.5873" lon="5.88739">
        <ele>969.6</ele>
        <time>2022-08-27T12:53:34Z</time>
      </trkpt>
      <trkpt lat="46.58717" lon="5.88736">
        <ele>970</ele>
        <time>2022-08-27T12:53:38Z</time>
      </trkpt>
      <trkpt lat="46.58708" lon="5.88734">
        <ele>970.6</ele>
        <time>2022-08-27T12:53:41Z</time>
      </trkpt>
      <trkpt lat="46.58704" lon="5.88734">
        <ele>970.8</ele>
        <time>2022-08-27T12:53:42Z</time>
      </trkpt>
      <trkpt lat="46.58694" lon="5.88731">
        <ele>971.6</ele>
        <time>2022-08-27T12:53:45Z</time>
      </trkpt>
      <trkpt lat="46.58675" lon="5.88727">
        <ele>972.8</ele>
        <time>2022-08-27T12:53:50Z</time>
      </trkpt>
      <trkpt lat="46.58647" lon="5.88719">
        <ele>973.2</ele>
        <time>2022-08-27T12:53:58Z</time>
      </trkpt>
      <trkpt lat="46.58636" lon="5.88716">
        <ele>973.8</ele>
        <time>2022-08-27T12:54:01Z</time>
      </trkpt>
      <trkpt lat="46.5862" lon="5.88711">
        <ele>975</ele>
        <time>2022-08-27T12:54:05Z</time>
      </trkpt>
      <trkpt lat="46.58617" lon="5.8871">
        <ele>975</ele>
        <time>2022-08-27T12:54:06Z</time>
      </trkpt>
      <trkpt lat="46.58597" lon="5.88708">
        <ele>976.2</ele>
        <time>2022-08-27T12:54:11Z</time>
      </trkpt>
      <trkpt lat="46.58586" lon="5.88708">
        <ele>976.6</ele>
        <time>2022-08-27T12:54:14Z</time>
      </trkpt>
      <trkpt lat="46.5857" lon="5.88708">
        <ele>977</ele>
        <time>2022-08-27T12:54:18Z</time>
      </trkpt>
      <trkpt lat="46.58553" lon="5.88707">
        <ele>978</ele>
        <time>2022-08-27T12:54:22Z</time>
      </trkpt>
      <trkpt lat="46.58548" lon="5.88707">
        <ele>978.4</ele>
        <time>2022-08-27T12:54:23Z</time>
      </trkpt>
      <trkpt lat="46.58534" lon="5.88704">
        <ele>978.6</ele>
        <time>2022-08-27T12:54:26Z</time>
      </trkpt>
      <trkpt lat="46.5852" lon="5.88706">
        <ele>979</ele>
        <time>2022-08-27T12:54:29Z</time>
      </trkpt>
      <trkpt lat="46.58488" lon="5.88714">
        <ele>979</ele>
        <time>2022-08-27T12:54:35Z</time>
      </trkpt>
      <trkpt lat="46.58466" lon="5.88714">
        <ele>979</ele>
        <time>2022-08-27T12:54:39Z</time>
      </trkpt>
      <trkpt lat="46.58454" lon="5.88714">
        <ele>979</ele>
        <time>2022-08-27T12:54:41Z</time>
      </trkpt>
      <trkpt lat="46.58429" lon="5.88716">
        <ele>979</ele>
        <time>2022-08-27T12:54:45Z</time>
      </trkpt>
      <trkpt lat="46.5841" lon="5.88718">
        <ele>979.2</ele>
        <time>2022-08-27T12:54:48Z</time>
      </trkpt>
      <trkpt lat="46.58372" lon="5.88717">
        <ele>979</ele>
        <time>2022-08-27T12:54:54Z</time>
      </trkpt>
      <trkpt lat="46.5832" lon="5.88716">
        <ele>978.4</ele>
        <time>2022-08-27T12:55:02Z</time>
      </trkpt>
      <trkpt lat="46.58269" lon="5.88707">
        <ele>978.6</ele>
        <time>2022-08-27T12:55:10Z</time>
      </trkpt>
      <trkpt lat="46.58263" lon="5.88705">
        <ele>978.6</ele>
        <time>2022-08-27T12:55:11Z</time>
      </trkpt>
      <trkpt lat="46.5825" lon="5.88698">
        <ele>978.4</ele>
        <time>2022-08-27T12:55:13Z</time>
      </trkpt>
      <trkpt lat="46.58244" lon="5.88692">
        <ele>978.6</ele>
        <time>2022-08-27T12:55:14Z</time>
      </trkpt>
      <trkpt lat="46.58215" lon="5.88663">
        <ele>977.6</ele>
        <time>2022-08-27T12:55:19Z</time>
      </trkpt>
      <trkpt lat="46.58209" lon="5.8866">
        <ele>977.4</ele>
        <time>2022-08-27T12:55:20Z</time>
      </trkpt>
      <trkpt lat="46.58202" lon="5.88658">
        <ele>977.4</ele>
        <time>2022-08-27T12:55:21Z</time>
      </trkpt>
      <trkpt lat="46.58189" lon="5.88659">
        <ele>977.2</ele>
        <time>2022-08-27T12:55:23Z</time>
      </trkpt>
      <trkpt lat="46.58157" lon="5.88676">
        <ele>976.6</ele>
        <time>2022-08-27T12:55:28Z</time>
      </trkpt>
      <trkpt lat="46.58111" lon="5.88695">
        <ele>976.2</ele>
        <time>2022-08-27T12:55:35Z</time>
      </trkpt>
      <trkpt lat="46.58091" lon="5.88698">
        <ele>976.4</ele>
        <time>2022-08-27T12:55:38Z</time>
      </trkpt>
      <trkpt lat="46.58079" lon="5.88696">
        <ele>976.6</ele>
        <time>2022-08-27T12:55:40Z</time>
      </trkpt>
      <trkpt lat="46.58051" lon="5.88687">
        <ele>977</ele>
        <time>2022-08-27T12:55:45Z</time>
      </trkpt>
      <trkpt lat="46.58041" lon="5.88686">
        <ele>977.6</ele>
        <time>2022-08-27T12:55:47Z</time>
      </trkpt>
      <trkpt lat="46.58027" lon="5.88686">
        <ele>978.2</ele>
        <time>2022-08-27T12:55:50Z</time>
      </trkpt>
      <trkpt lat="46.58014" lon="5.88686">
        <ele>978.6</ele>
        <time>2022-08-27T12:55:53Z</time>
      </trkpt>
      <trkpt lat="46.58005" lon="5.88684">
        <ele>979.4</ele>
        <time>2022-08-27T12:55:55Z</time>
      </trkpt>
      <trkpt lat="46.58" lon="5.88682">
        <ele>980</ele>
        <time>2022-08-27T12:55:56Z</time>
      </trkpt>
      <trkpt lat="46.5798" lon="5.88676">
        <ele>981.6</ele>
        <time>2022-08-27T12:56:00Z</time>
      </trkpt>
      <trkpt lat="46.5797" lon="5.88672">
        <ele>982</ele>
        <time>2022-08-27T12:56:02Z</time>
      </trkpt>
      <trkpt lat="46.57965" lon="5.88671">
        <ele>982.2</ele>
        <time>2022-08-27T12:56:03Z</time>
      </trkpt>
      <trkpt lat="46.57955" lon="5.8867">
        <ele>982.6</ele>
        <time>2022-08-27T12:56:05Z</time>
      </trkpt>
      <trkpt lat="46.5795" lon="5.8867">
        <ele>982.8</ele>
        <time>2022-08-27T12:56:06Z</time>
      </trkpt>
      <trkpt lat="46.57946" lon="5.8867">
        <ele>983</ele>
        <time>2022-08-27T12:56:07Z</time>
      </trkpt>
      <trkpt lat="46.57933" lon="5.88671">
        <ele>983.8</ele>
        <time>2022-08-27T12:56:10Z</time>
      </trkpt>
      <trkpt lat="46.57914" lon="5.88669">
        <ele>984.8</ele>
        <time>2022-08-27T12:56:14Z</time>
      </trkpt>
      <trkpt lat="46.57905" lon="5.88667">
        <ele>985.4</ele>
        <time>2022-08-27T12:56:16Z</time>
      </trkpt>
      <trkpt lat="46.57892" lon="5.88661">
        <ele>985.8</ele>
        <time>2022-08-27T12:56:19Z</time>
      </trkpt>
      <trkpt lat="46.57888" lon="5.88658">
        <ele>986</ele>
        <time>2022-08-27T12:56:20Z</time>
      </trkpt>
      <trkpt lat="46.57881" lon="5.88652">
        <ele>986.2</ele>
        <time>2022-08-27T12:56:22Z</time>
      </trkpt>
      <trkpt lat="46.57874" lon="5.88645">
        <ele>986.8</ele>
        <time>2022-08-27T12:56:24Z</time>
      </trkpt>
      <trkpt lat="46.57871" lon="5.88641">
        <ele>987</ele>
        <time>2022-08-27T12:56:25Z</time>
      </trkpt>
      <trkpt lat="46.57868" lon="5.88637">
        <ele>987.2</ele>
        <time>2022-08-27T12:56:26Z</time>
      </trkpt>
      <trkpt lat="46.57855" lon="5.88617">
        <ele>988</ele>
        <time>2022-08-27T12:56:31Z</time>
      </trkpt>
      <trkpt lat="46.57846" lon="5.88605">
        <ele>988.8</ele>
        <time>2022-08-27T12:56:34Z</time>
      </trkpt>
      <trkpt lat="46.57843" lon="5.886">
        <ele>989</ele>
        <time>2022-08-27T12:56:35Z</time>
      </trkpt>
      <trkpt lat="46.57826" lon="5.88574">
        <ele>990.2</ele>
        <time>2022-08-27T12:56:41Z</time>
      </trkpt>
      <trkpt lat="46.57823" lon="5.88569">
        <ele>990.4</ele>
        <time>2022-08-27T12:56:42Z</time>
      </trkpt>
      <trkpt lat="46.57821" lon="5.88565">
        <ele>990.4</ele>
        <time>2022-08-27T12:56:43Z</time>
      </trkpt>
      <trkpt lat="46.57818" lon="5.8856">
        <ele>990.6</ele>
        <time>2022-08-27T12:56:44Z</time>
      </trkpt>
      <trkpt lat="46.57814" lon="5.88544">
        <ele>991</ele>
        <time>2022-08-27T12:56:47Z</time>
      </trkpt>
      <trkpt lat="46.57813" lon="5.88539">
        <ele>991</ele>
        <time>2022-08-27T12:56:48Z</time>
      </trkpt>
      <trkpt lat="46.57813" lon="5.88534">
        <ele>991.4</ele>
        <time>2022-08-27T12:56:49Z</time>
      </trkpt>
      <trkpt lat="46.5781" lon="5.88514">
        <ele>992</ele>
        <time>2022-08-27T12:56:53Z</time>
      </trkpt>
      <trkpt lat="46.57808" lon="5.88504">
        <ele>992.4</ele>
        <time>2022-08-27T12:56:55Z</time>
      </trkpt>
      <trkpt lat="46.57803" lon="5.88492">
        <ele>993</ele>
        <time>2022-08-27T12:56:58Z</time>
      </trkpt>
      <trkpt lat="46.57795" lon="5.88483">
        <ele>993.6</ele>
        <time>2022-08-27T12:57:01Z</time>
      </trkpt>
      <trkpt lat="46.57785" lon="5.88479">
        <ele>994.4</ele>
        <time>2022-08-27T12:57:04Z</time>
      </trkpt>
      <trkpt lat="46.57777" lon="5.88476">
        <ele>994.6</ele>
        <time>2022-08-27T12:57:06Z</time>
      </trkpt>
      <trkpt lat="46.57768" lon="5.88473">
        <ele>994.8</ele>
        <time>2022-08-27T12:57:08Z</time>
      </trkpt>
      <trkpt lat="46.57764" lon="5.88471">
        <ele>995</ele>
        <time>2022-08-27T12:57:09Z</time>
      </trkpt>
      <trkpt lat="46.57758" lon="5.88467">
        <ele>995</ele>
        <time>2022-08-27T12:57:10Z</time>
      </trkpt>
      <trkpt lat="46.5775" lon="5.88459">
        <ele>995.2</ele>
        <time>2022-08-27T12:57:12Z</time>
      </trkpt>
      <trkpt lat="46.57741" lon="5.88449">
        <ele>995</ele>
        <time>2022-08-27T12:57:14Z</time>
      </trkpt>
      <trkpt lat="46.5771" lon="5.88426">
        <ele>995</ele>
        <time>2022-08-27T12:57:21Z</time>
      </trkpt>
      <trkpt lat="46.57699" lon="5.88422">
        <ele>995.8</ele>
        <time>2022-08-27T12:57:24Z</time>
      </trkpt>
      <trkpt lat="46.57688" lon="5.88417">
        <ele>996.8</ele>
        <time>2022-08-27T12:57:27Z</time>
      </trkpt>
      <trkpt lat="46.57684" lon="5.88416">
        <ele>997</ele>
        <time>2022-08-27T12:57:28Z</time>
      </trkpt>
      <trkpt lat="46.57669" lon="5.88411">
        <ele>997.8</ele>
        <time>2022-08-27T12:57:32Z</time>
      </trkpt>
      <trkpt lat="46.57662" lon="5.88408">
        <ele>998.4</ele>
        <time>2022-08-27T12:57:34Z</time>
      </trkpt>
      <trkpt lat="46.57659" lon="5.88407">
        <ele>999</ele>
        <time>2022-08-27T12:57:35Z</time>
      </trkpt>
      <trkpt lat="46.57645" lon="5.88404">
        <ele>999.8</ele>
        <time>2022-08-27T12:57:39Z</time>
      </trkpt>
      <trkpt lat="46.5764" lon="5.88403">
        <ele>1000</ele>
        <time>2022-08-27T12:57:40Z</time>
      </trkpt>
      <trkpt lat="46.57627" lon="5.88401">
        <ele>1001.2</ele>
        <time>2022-08-27T12:57:43Z</time>
      </trkpt>
      <trkpt lat="46.57623" lon="5.884">
        <ele>1001.2</ele>
        <time>2022-08-27T12:57:44Z</time>
      </trkpt>
      <trkpt lat="46.57618" lon="5.88399">
        <ele>1001.4</ele>
        <time>2022-08-27T12:57:45Z</time>
      </trkpt>
      <trkpt lat="46.57586" lon="5.88393">
        <ele>1001.8</ele>
        <time>2022-08-27T12:57:51Z</time>
      </trkpt>
      <trkpt lat="46.57549" lon="5.88387">
        <ele>1002.2</ele>
        <time>2022-08-27T12:57:58Z</time>
      </trkpt>
      <trkpt lat="46.57544" lon="5.88387">
        <ele>1002.2</ele>
        <time>2022-08-27T12:57:59Z</time>
      </trkpt>
      <trkpt lat="46.57515" lon="5.88384">
        <ele>1002.2</ele>
        <time>2022-08-27T12:58:04Z</time>
      </trkpt>
      <trkpt lat="46.57477" lon="5.8838">
        <ele>1002.6</ele>
        <time>2022-08-27T12:58:11Z</time>
      </trkpt>
      <trkpt lat="46.57461" lon="5.88379">
        <ele>1003</ele>
        <time>2022-08-27T12:58:14Z</time>
      </trkpt>
      <trkpt lat="46.5745" lon="5.88378">
        <ele>1003.2</ele>
        <time>2022-08-27T12:58:16Z</time>
      </trkpt>
      <trkpt lat="46.57444" lon="5.88378">
        <ele>1003.6</ele>
        <time>2022-08-27T12:58:17Z</time>
      </trkpt>
      <trkpt lat="46.57428" lon="5.88376">
        <ele>1004.2</ele>
        <time>2022-08-27T12:58:20Z</time>
      </trkpt>
      <trkpt lat="46.57408" lon="5.88371">
        <ele>1004.8</ele>
        <time>2022-08-27T12:58:24Z</time>
      </trkpt>
      <trkpt lat="46.57392" lon="5.88369">
        <ele>1005.2</ele>
        <time>2022-08-27T12:58:27Z</time>
      </trkpt>
      <trkpt lat="46.57368" lon="5.88366">
        <ele>1006</ele>
        <time>2022-08-27T12:58:32Z</time>
      </trkpt>
      <trkpt lat="46.57359" lon="5.88364">
        <ele>1006.4</ele>
        <time>2022-08-27T12:58:34Z</time>
      </trkpt>
      <trkpt lat="46.57337" lon="5.88361">
        <ele>1007.2</ele>
        <time>2022-08-27T12:58:38Z</time>
      </trkpt>
      <trkpt lat="46.57326" lon="5.8836">
        <ele>1007.4</ele>
        <time>2022-08-27T12:58:40Z</time>
      </trkpt>
      <trkpt lat="46.57302" lon="5.88357">
        <ele>1008.4</ele>
        <time>2022-08-27T12:58:45Z</time>
      </trkpt>
      <trkpt lat="46.57293" lon="5.88355">
        <ele>1008.6</ele>
        <time>2022-08-27T12:58:47Z</time>
      </trkpt>
      <trkpt lat="46.57285" lon="5.88354">
        <ele>1009.2</ele>
        <time>2022-08-27T12:58:49Z</time>
      </trkpt>
      <trkpt lat="46.57278" lon="5.88352">
        <ele>1009.6</ele>
        <time>2022-08-27T12:58:51Z</time>
      </trkpt>
      <trkpt lat="46.57259" lon="5.88347">
        <ele>1010.8</ele>
        <time>2022-08-27T12:58:56Z</time>
      </trkpt>
      <trkpt lat="46.57251" lon="5.88344">
        <ele>1011.2</ele>
        <time>2022-08-27T12:58:58Z</time>
      </trkpt>
      <trkpt lat="46.5724" lon="5.88341">
        <ele>1011.8</ele>
        <time>2022-08-27T12:59:01Z</time>
      </trkpt>
      <trkpt lat="46.57224" lon="5.88337">
        <ele>1012.4</ele>
        <time>2022-08-27T12:59:05Z</time>
      </trkpt>
      <trkpt lat="46.57219" lon="5.88336">
        <ele>1012.6</ele>
        <time>2022-08-27T12:59:06Z</time>
      </trkpt>
      <trkpt lat="46.57198" lon="5.88331">
        <ele>1014</ele>
        <time>2022-08-27T12:59:11Z</time>
      </trkpt>
      <trkpt lat="46.57185" lon="5.8833">
        <ele>1014.2</ele>
        <time>2022-08-27T12:59:14Z</time>
      </trkpt>
      <trkpt lat="46.57163" lon="5.88327">
        <ele>1014.4</ele>
        <time>2022-08-27T12:59:19Z</time>
      </trkpt>
      <trkpt lat="46.57146" lon="5.88325">
        <ele>1015</ele>
        <time>2022-08-27T12:59:23Z</time>
      </trkpt>
      <trkpt lat="46.5712" lon="5.88321">
        <ele>1015.8</ele>
        <time>2022-08-27T12:59:29Z</time>
      </trkpt>
      <trkpt lat="46.57094" lon="5.88317">
        <ele>1016.6</ele>
        <time>2022-08-27T12:59:35Z</time>
      </trkpt>
      <trkpt lat="46.57083" lon="5.88313">
        <ele>1017</ele>
        <time>2022-08-27T12:59:38Z</time>
      </trkpt>
      <trkpt lat="46.57079" lon="5.88312">
        <ele>1017.2</ele>
        <time>2022-08-27T12:59:39Z</time>
      </trkpt>
      <trkpt lat="46.57056" lon="5.88308">
        <ele>1018</ele>
        <time>2022-08-27T12:59:44Z</time>
      </trkpt>
      <trkpt lat="46.57051" lon="5.88307">
        <ele>1018.2</ele>
        <time>2022-08-27T12:59:45Z</time>
      </trkpt>
      <trkpt lat="46.57025" lon="5.88301">
        <ele>1018.2</ele>
        <time>2022-08-27T12:59:50Z</time>
      </trkpt>
      <trkpt lat="46.56992" lon="5.88288">
        <ele>1019</ele>
        <time>2022-08-27T12:59:57Z</time>
      </trkpt>
      <trkpt lat="46.56981" lon="5.88286">
        <ele>1019.4</ele>
        <time>2022-08-27T12:59:59Z</time>
      </trkpt>
      <trkpt lat="46.56958" lon="5.88283">
        <ele>1019.6</ele>
        <time>2022-08-27T13:00:03Z</time>
      </trkpt>
      <trkpt lat="46.56952" lon="5.88281">
        <ele>1019.6</ele>
        <time>2022-08-27T13:00:04Z</time>
      </trkpt>
      <trkpt lat="46.56947" lon="5.88276">
        <ele>1019.6</ele>
        <time>2022-08-27T13:00:05Z</time>
      </trkpt>
      <trkpt lat="46.56933" lon="5.88261">
        <ele>1019.4</ele>
        <time>2022-08-27T13:00:08Z</time>
      </trkpt>
      <trkpt lat="46.56905" lon="5.8824">
        <ele>1019.4</ele>
        <time>2022-08-27T13:00:14Z</time>
      </trkpt>
      <trkpt lat="46.56888" lon="5.8823">
        <ele>1020.4</ele>
        <time>2022-08-27T13:00:18Z</time>
      </trkpt>
      <trkpt lat="46.56885" lon="5.88228">
        <ele>1020.6</ele>
        <time>2022-08-27T13:00:19Z</time>
      </trkpt>
      <trkpt lat="46.56875" lon="5.88221">
        <ele>1021.6</ele>
        <time>2022-08-27T13:00:22Z</time>
      </trkpt>
      <trkpt lat="46.56865" lon="5.88215">
        <ele>1022.6</ele>
        <time>2022-08-27T13:00:25Z</time>
      </trkpt>
      <trkpt lat="46.56861" lon="5.88214">
        <ele>1023</ele>
        <time>2022-08-27T13:00:26Z</time>
      </trkpt>
      <trkpt lat="46.56854" lon="5.88212">
        <ele>1024.4</ele>
        <time>2022-08-27T13:00:28Z</time>
      </trkpt>
      <trkpt lat="46.56847" lon="5.8821">
        <ele>1025.4</ele>
        <time>2022-08-27T13:00:30Z</time>
      </trkpt>
      <trkpt lat="46.56827" lon="5.88205">
        <ele>1026.4</ele>
        <time>2022-08-27T13:00:35Z</time>
      </trkpt>
      <trkpt lat="46.56817" lon="5.88204">
        <ele>1026.8</ele>
        <time>2022-08-27T13:00:37Z</time>
      </trkpt>
      <trkpt lat="46.56804" lon="5.88202">
        <ele>1027.4</ele>
        <time>2022-08-27T13:00:40Z</time>
      </trkpt>
      <trkpt lat="46.56796" lon="5.88197">
        <ele>1027.8</ele>
        <time>2022-08-27T13:00:42Z</time>
      </trkpt>
      <trkpt lat="46.56781" lon="5.88187">
        <ele>1028.6</ele>
        <time>2022-08-27T13:00:47Z</time>
      </trkpt>
      <trkpt lat="46.56778" lon="5.88185">
        <ele>1028.8</ele>
        <time>2022-08-27T13:00:48Z</time>
      </trkpt>
      <trkpt lat="46.56769" lon="5.88181">
        <ele>1029.8</ele>
        <time>2022-08-27T13:00:51Z</time>
      </trkpt>
      <trkpt lat="46.5676" lon="5.88175">
        <ele>1030.6</ele>
        <time>2022-08-27T13:00:54Z</time>
      </trkpt>
      <trkpt lat="46.56756" lon="5.88173">
        <ele>1031</ele>
        <time>2022-08-27T13:00:55Z</time>
      </trkpt>
      <trkpt lat="46.56734" lon="5.88163">
        <ele>1031.8</ele>
        <time>2022-08-27T13:01:01Z</time>
      </trkpt>
      <trkpt lat="46.5673" lon="5.88162">
        <ele>1032</ele>
        <time>2022-08-27T13:01:02Z</time>
      </trkpt>
      <trkpt lat="46.56703" lon="5.88153">
        <ele>1032.4</ele>
        <time>2022-08-27T13:01:08Z</time>
      </trkpt>
      <trkpt lat="46.56694" lon="5.88148">
        <ele>1032.6</ele>
        <time>2022-08-27T13:01:10Z</time>
      </trkpt>
      <trkpt lat="46.56685" lon="5.88141">
        <ele>1032.8</ele>
        <time>2022-08-27T13:01:12Z</time>
      </trkpt>
      <trkpt lat="46.5668" lon="5.88136">
        <ele>1032.8</ele>
        <time>2022-08-27T13:01:13Z</time>
      </trkpt>
      <trkpt lat="46.56676" lon="5.88129">
        <ele>1032.8</ele>
        <time>2022-08-27T13:01:14Z</time>
      </trkpt>
      <trkpt lat="46.56669" lon="5.8811">
        <ele>1032.8</ele>
        <time>2022-08-27T13:01:17Z</time>
      </trkpt>
      <trkpt lat="46.56667" lon="5.88104">
        <ele>1033</ele>
        <time>2022-08-27T13:01:18Z</time>
      </trkpt>
      <trkpt lat="46.56664" lon="5.8809">
        <ele>1033</ele>
        <time>2022-08-27T13:01:20Z</time>
      </trkpt>
      <trkpt lat="46.5666" lon="5.88078">
        <ele>1033.2</ele>
        <time>2022-08-27T13:01:22Z</time>
      </trkpt>
      <trkpt lat="46.56656" lon="5.8807">
        <ele>1033.2</ele>
        <time>2022-08-27T13:01:23Z</time>
      </trkpt>
      <trkpt lat="46.56649" lon="5.88059">
        <ele>1033.4</ele>
        <time>2022-08-27T13:01:25Z</time>
      </trkpt>
      <trkpt lat="46.56637" lon="5.88052">
        <ele>1033.6</ele>
        <time>2022-08-27T13:01:27Z</time>
      </trkpt>
      <trkpt lat="46.56602" lon="5.88041">
        <ele>1033.6</ele>
        <time>2022-08-27T13:01:33Z</time>
      </trkpt>
      <trkpt lat="46.56567" lon="5.88022">
        <ele>1033.6</ele>
        <time>2022-08-27T13:01:39Z</time>
      </trkpt>
      <trkpt lat="46.56536" lon="5.88001">
        <ele>1033.2</ele>
        <time>2022-08-27T13:01:44Z</time>
      </trkpt>
      <trkpt lat="46.56526" lon="5.87989">
        <ele>1033.2</ele>
        <time>2022-08-27T13:01:46Z</time>
      </trkpt>
      <trkpt lat="46.56517" lon="5.87978">
        <ele>1033.2</ele>
        <time>2022-08-27T13:01:48Z</time>
      </trkpt>
      <trkpt lat="46.56503" lon="5.87966">
        <ele>1033.4</ele>
        <time>2022-08-27T13:01:51Z</time>
      </trkpt>
      <trkpt lat="46.56488" lon="5.87957">
        <ele>1033.8</ele>
        <time>2022-08-27T13:01:54Z</time>
      </trkpt>
      <trkpt lat="46.56467" lon="5.87943">
        <ele>1034.4</ele>
        <time>2022-08-27T13:01:58Z</time>
      </trkpt>
      <trkpt lat="46.56463" lon="5.8794">
        <ele>1035</ele>
        <time>2022-08-27T13:01:59Z</time>
      </trkpt>
      <trkpt lat="46.56445" lon="5.87923">
        <ele>1036</ele>
        <time>2022-08-27T13:02:03Z</time>
      </trkpt>
      <trkpt lat="46.56434" lon="5.87909">
        <ele>1037</ele>
        <time>2022-08-27T13:02:06Z</time>
      </trkpt>
      <trkpt lat="46.5643" lon="5.87905">
        <ele>1037.2</ele>
        <time>2022-08-27T13:02:07Z</time>
      </trkpt>
      <trkpt lat="46.56414" lon="5.87891">
        <ele>1037.8</ele>
        <time>2022-08-27T13:02:11Z</time>
      </trkpt>
      <trkpt lat="46.56409" lon="5.87889">
        <ele>1038</ele>
        <time>2022-08-27T13:02:12Z</time>
      </trkpt>
      <trkpt lat="46.56405" lon="5.87886">
        <ele>1038.4</ele>
        <time>2022-08-27T13:02:13Z</time>
      </trkpt>
      <trkpt lat="46.56378" lon="5.87863">
        <ele>1039.4</ele>
        <time>2022-08-27T13:02:19Z</time>
      </trkpt>
      <trkpt lat="46.56374" lon="5.87859">
        <ele>1039.6</ele>
        <time>2022-08-27T13:02:20Z</time>
      </trkpt>
      <trkpt lat="46.56358" lon="5.87845">
        <ele>1039.6</ele>
        <time>2022-08-27T13:02:24Z</time>
      </trkpt>
      <trkpt lat="46.56353" lon="5.87842">
        <ele>1039.6</ele>
        <time>2022-08-27T13:02:25Z</time>
      </trkpt>
      <trkpt lat="46.56338" lon="5.87834">
        <ele>1039.6</ele>
        <time>2022-08-27T13:02:28Z</time>
      </trkpt>
      <trkpt lat="46.56326" lon="5.87835">
        <ele>1039.6</ele>
        <time>2022-08-27T13:02:30Z</time>
      </trkpt>
      <trkpt lat="46.5632" lon="5.87838">
        <ele>1039.6</ele>
        <time>2022-08-27T13:02:31Z</time>
      </trkpt>
      <trkpt lat="46.56299" lon="5.87852">
        <ele>1039.2</ele>
        <time>2022-08-27T13:02:35Z</time>
      </trkpt>
      <trkpt lat="46.56281" lon="5.87864">
        <ele>1038.8</ele>
        <time>2022-08-27T13:02:38Z</time>
      </trkpt>
      <trkpt lat="46.56266" lon="5.8787">
        <ele>1038.2</ele>
        <time>2022-08-27T13:02:40Z</time>
      </trkpt>
      <trkpt lat="46.5625" lon="5.87868">
        <ele>1037.2</ele>
        <time>2022-08-27T13:02:42Z</time>
      </trkpt>
      <trkpt lat="46.56242" lon="5.87865">
        <ele>1036.4</ele>
        <time>2022-08-27T13:02:43Z</time>
      </trkpt>
      <trkpt lat="46.56233" lon="5.87862">
        <ele>1036</ele>
        <time>2022-08-27T13:02:44Z</time>
      </trkpt>
      <trkpt lat="46.56218" lon="5.87855">
        <ele>1034.6</ele>
        <time>2022-08-27T13:02:46Z</time>
      </trkpt>
      <trkpt lat="46.56211" lon="5.8785">
        <ele>1034.2</ele>
        <time>2022-08-27T13:02:47Z</time>
      </trkpt>
      <trkpt lat="46.56204" lon="5.87848">
        <ele>1033</ele>
        <time>2022-08-27T13:02:48Z</time>
      </trkpt>
      <trkpt lat="46.56189" lon="5.87843">
        <ele>1030.6</ele>
        <time>2022-08-27T13:02:50Z</time>
      </trkpt>
      <trkpt lat="46.56184" lon="5.87841">
        <ele>1029.4</ele>
        <time>2022-08-27T13:02:51Z</time>
      </trkpt>
      <trkpt lat="46.56178" lon="5.87839">
        <ele>1029</ele>
        <time>2022-08-27T13:02:52Z</time>
      </trkpt>
      <trkpt lat="46.56173" lon="5.87838">
        <ele>1028.2</ele>
        <time>2022-08-27T13:02:53Z</time>
      </trkpt>
      <trkpt lat="46.56165" lon="5.87838">
        <ele>1027.4</ele>
        <time>2022-08-27T13:02:55Z</time>
      </trkpt>
      <trkpt lat="46.56162" lon="5.87837">
        <ele>1027</ele>
        <time>2022-08-27T13:02:56Z</time>
      </trkpt>
      <trkpt lat="46.56159" lon="5.87837">
        <ele>1026.4</ele>
        <time>2022-08-27T13:02:57Z</time>
      </trkpt>
      <trkpt lat="46.56157" lon="5.87836">
        <ele>1025.4</ele>
        <time>2022-08-27T13:02:58Z</time>
      </trkpt>
      <trkpt lat="46.56156" lon="5.87836">
        <ele>1025</ele>
        <time>2022-08-27T13:02:59Z</time>
      </trkpt>
      <trkpt lat="46.56152" lon="5.87834">
        <ele>1024.4</ele>
        <time>2022-08-27T13:03:01Z</time>
      </trkpt>
      <trkpt lat="46.56146" lon="5.87827">
        <ele>1024.4</ele>
        <time>2022-08-27T13:03:04Z</time>
      </trkpt>
      <trkpt lat="46.56131" lon="5.87807">
        <ele>1025.2</ele>
        <time>2022-08-27T13:03:12Z</time>
      </trkpt>
      <trkpt lat="46.56122" lon="5.87794">
        <ele>1025.8</ele>
        <time>2022-08-27T13:03:16Z</time>
      </trkpt>
      <trkpt lat="46.56119" lon="5.8779">
        <ele>1026</ele>
        <time>2022-08-27T13:03:17Z</time>
      </trkpt>
      <trkpt lat="46.56115" lon="5.87786">
        <ele>1026.2</ele>
        <time>2022-08-27T13:03:18Z</time>
      </trkpt>
      <trkpt lat="46.56107" lon="5.87776">
        <ele>1026.6</ele>
        <time>2022-08-27T13:03:20Z</time>
      </trkpt>
      <trkpt lat="46.56103" lon="5.8777">
        <ele>1026.6</ele>
        <time>2022-08-27T13:03:21Z</time>
      </trkpt>
      <trkpt lat="46.56083" lon="5.87739">
        <ele>1026.8</ele>
        <time>2022-08-27T13:03:27Z</time>
      </trkpt>
      <trkpt lat="46.5608" lon="5.87735">
        <ele>1027</ele>
        <time>2022-08-27T13:03:28Z</time>
      </trkpt>
      <trkpt lat="46.56067" lon="5.87719">
        <ele>1028.6</ele>
        <time>2022-08-27T13:03:32Z</time>
      </trkpt>
      <trkpt lat="46.56056" lon="5.877">
        <ele>1029.6</ele>
        <time>2022-08-27T13:03:36Z</time>
      </trkpt>
      <trkpt lat="46.56052" lon="5.87697">
        <ele>1030</ele>
        <time>2022-08-27T13:03:37Z</time>
      </trkpt>
      <trkpt lat="46.56036" lon="5.87673">
        <ele>1031</ele>
        <time>2022-08-27T13:03:43Z</time>
      </trkpt>
      <trkpt lat="46.56022" lon="5.87654">
        <ele>1032</ele>
        <time>2022-08-27T13:03:49Z</time>
      </trkpt>
      <trkpt lat="46.56019" lon="5.87651">
        <ele>1032.2</ele>
        <time>2022-08-27T13:03:50Z</time>
      </trkpt>
      <trkpt lat="46.5601" lon="5.8764">
        <ele>1033</ele>
        <time>2022-08-27T13:03:54Z</time>
      </trkpt>
      <trkpt lat="46.56002" lon="5.87625">
        <ele>1034</ele>
        <time>2022-08-27T13:03:58Z</time>
      </trkpt>
      <trkpt lat="46.55988" lon="5.87593">
        <ele>1035.2</ele>
        <time>2022-08-27T13:04:05Z</time>
      </trkpt>
      <trkpt lat="46.55985" lon="5.87584">
        <ele>1035.4</ele>
        <time>2022-08-27T13:04:07Z</time>
      </trkpt>
      <trkpt lat="46.55979" lon="5.87567">
        <ele>1036.4</ele>
        <time>2022-08-27T13:04:11Z</time>
      </trkpt>
      <trkpt lat="46.55973" lon="5.87555">
        <ele>1037.4</ele>
        <time>2022-08-27T13:04:14Z</time>
      </trkpt>
      <trkpt lat="46.5597" lon="5.87547">
        <ele>1038</ele>
        <time>2022-08-27T13:04:16Z</time>
      </trkpt>
      <trkpt lat="46.55961" lon="5.87525">
        <ele>1038.4</ele>
        <time>2022-08-27T13:04:21Z</time>
      </trkpt>
      <trkpt lat="46.55958" lon="5.87521">
        <ele>1038.4</ele>
        <time>2022-08-27T13:04:22Z</time>
      </trkpt>
      <trkpt lat="46.55949" lon="5.87507">
        <ele>1039.6</ele>
        <time>2022-08-27T13:04:26Z</time>
      </trkpt>
      <trkpt lat="46.55942" lon="5.87497">
        <ele>1040</ele>
        <time>2022-08-27T13:04:29Z</time>
      </trkpt>
      <trkpt lat="46.55933" lon="5.87487">
        <ele>1040.8</ele>
        <time>2022-08-27T13:04:33Z</time>
      </trkpt>
      <trkpt lat="46.55927" lon="5.87481">
        <ele>1041</ele>
        <time>2022-08-27T13:04:35Z</time>
      </trkpt>
      <trkpt lat="46.55915" lon="5.87468">
        <ele>1042.2</ele>
        <time>2022-08-27T13:04:39Z</time>
      </trkpt>
      <trkpt lat="46.55913" lon="5.87465">
        <ele>1042.4</ele>
        <time>2022-08-27T13:04:40Z</time>
      </trkpt>
      <trkpt lat="46.55908" lon="5.87458">
        <ele>1042.6</ele>
        <time>2022-08-27T13:04:42Z</time>
      </trkpt>
      <trkpt lat="46.55902" lon="5.87452">
        <ele>1043</ele>
        <time>2022-08-27T13:04:44Z</time>
      </trkpt>
      <trkpt lat="46.55889" lon="5.87439">
        <ele>1043.6</ele>
        <time>2022-08-27T13:04:48Z</time>
      </trkpt>
      <trkpt lat="46.55881" lon="5.87433">
        <ele>1044</ele>
        <time>2022-08-27T13:04:50Z</time>
      </trkpt>
      <trkpt lat="46.55872" lon="5.87428">
        <ele>1044.2</ele>
        <time>2022-08-27T13:04:52Z</time>
      </trkpt>
      <trkpt lat="46.55867" lon="5.87424">
        <ele>1044.6</ele>
        <time>2022-08-27T13:04:53Z</time>
      </trkpt>
      <trkpt lat="46.55839" lon="5.87404">
        <ele>1045</ele>
        <time>2022-08-27T13:04:58Z</time>
      </trkpt>
      <trkpt lat="46.55799" lon="5.87373">
        <ele>1044</ele>
        <time>2022-08-27T13:05:05Z</time>
      </trkpt>
      <trkpt lat="46.55769" lon="5.87346">
        <ele>1043.6</ele>
        <time>2022-08-27T13:05:11Z</time>
      </trkpt>
      <trkpt lat="46.55734" lon="5.8732">
        <ele>1043.2</ele>
        <time>2022-08-27T13:05:18Z</time>
      </trkpt>
      <trkpt lat="46.55705" lon="5.87299">
        <ele>1044.4</ele>
        <time>2022-08-27T13:05:24Z</time>
      </trkpt>
      <trkpt lat="46.55696" lon="5.8729">
        <ele>1044.6</ele>
        <time>2022-08-27T13:05:26Z</time>
      </trkpt>
      <trkpt lat="46.55672" lon="5.8727">
        <ele>1044.8</ele>
        <time>2022-08-27T13:05:31Z</time>
      </trkpt>
      <trkpt lat="46.55656" lon="5.87256">
        <ele>1045</ele>
        <time>2022-08-27T13:05:34Z</time>
      </trkpt>
      <trkpt lat="46.55639" lon="5.87248">
        <ele>1045</ele>
        <time>2022-08-27T13:05:37Z</time>
      </trkpt>
      <trkpt lat="46.55633" lon="5.87245">
        <ele>1045.2</ele>
        <time>2022-08-27T13:05:38Z</time>
      </trkpt>
      <trkpt lat="46.55627" lon="5.87242">
        <ele>1045.2</ele>
        <time>2022-08-27T13:05:39Z</time>
      </trkpt>
      <trkpt lat="46.55604" lon="5.87236">
        <ele>1045</ele>
        <time>2022-08-27T13:05:43Z</time>
      </trkpt>
      <trkpt lat="46.5557" lon="5.87221">
        <ele>1044.2</ele>
        <time>2022-08-27T13:05:48Z</time>
      </trkpt>
      <trkpt lat="46.55545" lon="5.8721">
        <ele>1043.4</ele>
        <time>2022-08-27T13:05:51Z</time>
      </trkpt>
      <trkpt lat="46.55539" lon="5.87204">
        <ele>1043.2</ele>
        <time>2022-08-27T13:05:52Z</time>
      </trkpt>
      <trkpt lat="46.55534" lon="5.87198">
        <ele>1043.2</ele>
        <time>2022-08-27T13:05:53Z</time>
      </trkpt>
      <trkpt lat="46.55517" lon="5.87177">
        <ele>1043</ele>
        <time>2022-08-27T13:05:57Z</time>
      </trkpt>
      <trkpt lat="46.55507" lon="5.87158">
        <ele>1042.4</ele>
        <time>2022-08-27T13:06:01Z</time>
      </trkpt>
      <trkpt lat="46.55503" lon="5.8715">
        <ele>1042.4</ele>
        <time>2022-08-27T13:06:02Z</time>
      </trkpt>
      <trkpt lat="46.55494" lon="5.8713">
        <ele>1042.2</ele>
        <time>2022-08-27T13:06:06Z</time>
      </trkpt>
      <trkpt lat="46.55483" lon="5.87105">
        <ele>1042.2</ele>
        <time>2022-08-27T13:06:12Z</time>
      </trkpt>
      <trkpt lat="46.55469" lon="5.87087">
        <ele>1042</ele>
        <time>2022-08-27T13:06:18Z</time>
      </trkpt>
      <trkpt lat="46.55453" lon="5.87071">
        <ele>1042</ele>
        <time>2022-08-27T13:06:23Z</time>
      </trkpt>
      <trkpt lat="46.55431" lon="5.87045">
        <ele>1041.6</ele>
        <time>2022-08-27T13:06:31Z</time>
      </trkpt>
      <trkpt lat="46.55412" lon="5.87013">
        <ele>1041.6</ele>
        <time>2022-08-27T13:06:38Z</time>
      </trkpt>
      <trkpt lat="46.55397" lon="5.86987">
        <ele>1041.6</ele>
        <time>2022-08-27T13:06:44Z</time>
      </trkpt>
      <trkpt lat="46.55395" lon="5.86985">
        <ele>1041.6</ele>
        <time>2022-08-27T13:06:45Z</time>
      </trkpt>
      <trkpt lat="46.55395" lon="5.86985">
        <ele>1041.6</ele>
        <time>2022-08-27T13:06:47Z</time>
      </trkpt>
      <trkpt lat="46.55395" lon="5.86985">
        <ele>1041.6</ele>
        <time>2022-08-27T13:06:48Z</time>
      </trkpt>
      <trkpt lat="46.55388" lon="5.86976">
        <ele>1041.2</ele>
        <time>2022-08-27T13:07:56Z</time>
      </trkpt>
      <trkpt lat="46.55384" lon="5.86972">
        <ele>1041.2</ele>
        <time>2022-08-27T13:07:58Z</time>
      </trkpt>
      <trkpt lat="46.55371" lon="5.86966">
        <ele>1041.2</ele>
        <time>2022-08-27T13:08:02Z</time>
      </trkpt>
      <trkpt lat="46.55354" lon="5.86962">
        <ele>1040.8</ele>
        <time>2022-08-27T13:08:07Z</time>
      </trkpt>
      <trkpt lat="46.55349" lon="5.8696">
        <ele>1040.4</ele>
        <time>2022-08-27T13:08:08Z</time>
      </trkpt>
      <trkpt lat="46.55337" lon="5.86949">
        <ele>1040.2</ele>
        <time>2022-08-27T13:08:11Z</time>
      </trkpt>
      <trkpt lat="46.55325" lon="5.86935">
        <ele>1040</ele>
        <time>2022-08-27T13:08:14Z</time>
      </trkpt>
      <trkpt lat="46.55319" lon="5.86926">
        <ele>1039.8</ele>
        <time>2022-08-27T13:08:16Z</time>
      </trkpt>
      <trkpt lat="46.55315" lon="5.86919">
        <ele>1039.6</ele>
        <time>2022-08-27T13:08:17Z</time>
      </trkpt>
      <trkpt lat="46.55312" lon="5.86913">
        <ele>1039.4</ele>
        <time>2022-08-27T13:08:18Z</time>
      </trkpt>
      <trkpt lat="46.5531" lon="5.86909">
        <ele>1039.6</ele>
        <time>2022-08-27T13:08:19Z</time>
      </trkpt>
      <trkpt lat="46.55301" lon="5.86891">
        <ele>1039.6</ele>
        <time>2022-08-27T13:08:22Z</time>
      </trkpt>
      <trkpt lat="46.5528" lon="5.86867">
        <ele>1040.2</ele>
        <time>2022-08-27T13:08:28Z</time>
      </trkpt>
      <trkpt lat="46.55275" lon="5.86859">
        <ele>1040.2</ele>
        <time>2022-08-27T13:08:30Z</time>
      </trkpt>
      <trkpt lat="46.55267" lon="5.86842">
        <ele>1040.2</ele>
        <time>2022-08-27T13:08:33Z</time>
      </trkpt>
      <trkpt lat="46.55265" lon="5.86838">
        <ele>1040.2</ele>
        <time>2022-08-27T13:08:34Z</time>
      </trkpt>
      <trkpt lat="46.55251" lon="5.86816">
        <ele>1040.2</ele>
        <time>2022-08-27T13:08:39Z</time>
      </trkpt>
      <trkpt lat="46.5524" lon="5.86803">
        <ele>1040.6</ele>
        <time>2022-08-27T13:08:42Z</time>
      </trkpt>
      <trkpt lat="46.55233" lon="5.86789">
        <ele>1040.6</ele>
        <time>2022-08-27T13:08:45Z</time>
      </trkpt>
      <trkpt lat="46.55232" lon="5.86784">
        <ele>1040.6</ele>
        <time>2022-08-27T13:08:46Z</time>
      </trkpt>
      <trkpt lat="46.55232" lon="5.86771">
        <ele>1041</ele>
        <time>2022-08-27T13:08:49Z</time>
      </trkpt>
      <trkpt lat="46.55234" lon="5.86746">
        <ele>1041.4</ele>
        <time>2022-08-27T13:08:54Z</time>
      </trkpt>
      <trkpt lat="46.55229" lon="5.86718">
        <ele>1041.4</ele>
        <time>2022-08-27T13:09:00Z</time>
      </trkpt>
      <trkpt lat="46.55217" lon="5.86697">
        <ele>1041.6</ele>
        <time>2022-08-27T13:09:06Z</time>
      </trkpt>
      <trkpt lat="46.55207" lon="5.86675">
        <ele>1041.4</ele>
        <time>2022-08-27T13:09:09Z</time>
      </trkpt>
      <trkpt lat="46.55202" lon="5.86662">
        <ele>1041.6</ele>
        <time>2022-08-27T13:09:11Z</time>
      </trkpt>
      <trkpt lat="46.55186" lon="5.86625">
        <ele>1041.6</ele>
        <time>2022-08-27T13:09:16Z</time>
      </trkpt>
      <trkpt lat="46.55183" lon="5.86609">
        <ele>1041.2</ele>
        <time>2022-08-27T13:09:18Z</time>
      </trkpt>
      <trkpt lat="46.55176" lon="5.86598">
        <ele>1041.2</ele>
        <time>2022-08-27T13:09:20Z</time>
      </trkpt>
      <trkpt lat="46.55167" lon="5.86591">
        <ele>1040.6</ele>
        <time>2022-08-27T13:09:22Z</time>
      </trkpt>
      <trkpt lat="46.55158" lon="5.86583">
        <ele>1040</ele>
        <time>2022-08-27T13:09:24Z</time>
      </trkpt>
      <trkpt lat="46.55149" lon="5.86575">
        <ele>1040</ele>
        <time>2022-08-27T13:09:26Z</time>
      </trkpt>
      <trkpt lat="46.55145" lon="5.86571">
        <ele>1039.6</ele>
        <time>2022-08-27T13:09:27Z</time>
      </trkpt>
      <trkpt lat="46.55127" lon="5.86555">
        <ele>1039.4</ele>
        <time>2022-08-27T13:09:31Z</time>
      </trkpt>
      <trkpt lat="46.55121" lon="5.86548">
        <ele>1039.2</ele>
        <time>2022-08-27T13:09:33Z</time>
      </trkpt>
      <trkpt lat="46.55117" lon="5.86541">
        <ele>1038.8</ele>
        <time>2022-08-27T13:09:34Z</time>
      </trkpt>
      <trkpt lat="46.55115" lon="5.86536">
        <ele>1038.8</ele>
        <time>2022-08-27T13:09:35Z</time>
      </trkpt>
      <trkpt lat="46.55111" lon="5.86521">
        <ele>1038.6</ele>
        <time>2022-08-27T13:09:37Z</time>
      </trkpt>
      <trkpt lat="46.5511" lon="5.86508">
        <ele>1039</ele>
        <time>2022-08-27T13:09:39Z</time>
      </trkpt>
      <trkpt lat="46.55108" lon="5.86495">
        <ele>1039.2</ele>
        <time>2022-08-27T13:09:41Z</time>
      </trkpt>
      <trkpt lat="46.55099" lon="5.8648">
        <ele>1039.2</ele>
        <time>2022-08-27T13:09:43Z</time>
      </trkpt>
      <trkpt lat="46.55094" lon="5.86473">
        <ele>1039.2</ele>
        <time>2022-08-27T13:09:45Z</time>
      </trkpt>
      <trkpt lat="46.55086" lon="5.8647">
        <ele>1039</ele>
        <time>2022-08-27T13:09:47Z</time>
      </trkpt>
      <trkpt lat="46.55076" lon="5.86471">
        <ele>1039</ele>
        <time>2022-08-27T13:09:49Z</time>
      </trkpt>
      <trkpt lat="46.55069" lon="5.86474">
        <ele>1038.4</ele>
        <time>2022-08-27T13:09:51Z</time>
      </trkpt>
      <trkpt lat="46.55055" lon="5.8648">
        <ele>1038</ele>
        <time>2022-08-27T13:09:54Z</time>
      </trkpt>
      <trkpt lat="46.55047" lon="5.86481">
        <ele>1038</ele>
        <time>2022-08-27T13:09:56Z</time>
      </trkpt>
      <trkpt lat="46.55041" lon="5.8648">
        <ele>1038</ele>
        <time>2022-08-27T13:09:57Z</time>
      </trkpt>
      <trkpt lat="46.55037" lon="5.86478">
        <ele>1038</ele>
        <time>2022-08-27T13:09:58Z</time>
      </trkpt>
      <trkpt lat="46.55031" lon="5.86472">
        <ele>1038.2</ele>
        <time>2022-08-27T13:10:00Z</time>
      </trkpt>
      <trkpt lat="46.55027" lon="5.86469">
        <ele>1038.2</ele>
        <time>2022-08-27T13:10:01Z</time>
      </trkpt>
      <trkpt lat="46.55023" lon="5.86464">
        <ele>1038.2</ele>
        <time>2022-08-27T13:10:02Z</time>
      </trkpt>
      <trkpt lat="46.55018" lon="5.86453">
        <ele>1038.4</ele>
        <time>2022-08-27T13:10:04Z</time>
      </trkpt>
      <trkpt lat="46.55016" lon="5.86429">
        <ele>1038.4</ele>
        <time>2022-08-27T13:10:09Z</time>
      </trkpt>
      <trkpt lat="46.55011" lon="5.86409">
        <ele>1038.4</ele>
        <time>2022-08-27T13:10:13Z</time>
      </trkpt>
      <trkpt lat="46.55009" lon="5.86404">
        <ele>1038.2</ele>
        <time>2022-08-27T13:10:14Z</time>
      </trkpt>
      <trkpt lat="46.55004" lon="5.86393">
        <ele>1037.8</ele>
        <time>2022-08-27T13:10:16Z</time>
      </trkpt>
      <trkpt lat="46.54997" lon="5.8638">
        <ele>1037.6</ele>
        <time>2022-08-27T13:10:18Z</time>
      </trkpt>
      <trkpt lat="46.54979" lon="5.8636">
        <ele>1037.2</ele>
        <time>2022-08-27T13:10:22Z</time>
      </trkpt>
      <trkpt lat="46.54976" lon="5.86358">
        <ele>1037.2</ele>
        <time>2022-08-27T13:10:23Z</time>
      </trkpt>
      <trkpt lat="46.54962" lon="5.86357">
        <ele>1036.6</ele>
        <time>2022-08-27T13:10:26Z</time>
      </trkpt>
      <trkpt lat="46.54959" lon="5.86358">
        <ele>1036.4</ele>
        <time>2022-08-27T13:10:27Z</time>
      </trkpt>
      <trkpt lat="46.54945" lon="5.8636">
        <ele>1035.8</ele>
        <time>2022-08-27T13:10:31Z</time>
      </trkpt>
      <trkpt lat="46.54933" lon="5.86356">
        <ele>1035.4</ele>
        <time>2022-08-27T13:10:35Z</time>
      </trkpt>
      <trkpt lat="46.54916" lon="5.86343">
        <ele>1035.4</ele>
        <time>2022-08-27T13:10:41Z</time>
      </trkpt>
      <trkpt lat="46.54891" lon="5.86316">
        <ele>1035.6</ele>
        <time>2022-08-27T13:10:49Z</time>
      </trkpt>
      <trkpt lat="46.54876" lon="5.86303">
        <ele>1035</ele>
        <time>2022-08-27T13:10:53Z</time>
      </trkpt>
      <trkpt lat="46.54872" lon="5.86299">
        <ele>1034.8</ele>
        <time>2022-08-27T13:10:54Z</time>
      </trkpt>
      <trkpt lat="46.54851" lon="5.86279">
        <ele>1034.4</ele>
        <time>2022-08-27T13:10:59Z</time>
      </trkpt>
      <trkpt lat="46.54847" lon="5.86275">
        <ele>1034.2</ele>
        <time>2022-08-27T13:11:00Z</time>
      </trkpt>
      <trkpt lat="46.54844" lon="5.8627">
        <ele>1033.8</ele>
        <time>2022-08-27T13:11:01Z</time>
      </trkpt>
      <trkpt lat="46.5484" lon="5.86258">
        <ele>1034.4</ele>
        <time>2022-08-27T13:11:03Z</time>
      </trkpt>
      <trkpt lat="46.54837" lon="5.8625">
        <ele>1034.4</ele>
        <time>2022-08-27T13:11:04Z</time>
      </trkpt>
      <trkpt lat="46.54836" lon="5.86243">
        <ele>1034.4</ele>
        <time>2022-08-27T13:11:05Z</time>
      </trkpt>
      <trkpt lat="46.54832" lon="5.8622">
        <ele>1034.4</ele>
        <time>2022-08-27T13:11:08Z</time>
      </trkpt>
      <trkpt lat="46.54827" lon="5.86203">
        <ele>1034.4</ele>
        <time>2022-08-27T13:11:10Z</time>
      </trkpt>
      <trkpt lat="46.54821" lon="5.86193">
        <ele>1034</ele>
        <time>2022-08-27T13:11:12Z</time>
      </trkpt>
      <trkpt lat="46.54819" lon="5.86188">
        <ele>1033.8</ele>
        <time>2022-08-27T13:11:13Z</time>
      </trkpt>
      <trkpt lat="46.54815" lon="5.86184">
        <ele>1033.4</ele>
        <time>2022-08-27T13:11:14Z</time>
      </trkpt>
      <trkpt lat="46.54808" lon="5.86181">
        <ele>1033</ele>
        <time>2022-08-27T13:11:16Z</time>
      </trkpt>
      <trkpt lat="46.54787" lon="5.86184">
        <ele>1032.6</ele>
        <time>2022-08-27T13:11:21Z</time>
      </trkpt>
      <trkpt lat="46.54783" lon="5.86184">
        <ele>1032.6</ele>
        <time>2022-08-27T13:11:22Z</time>
      </trkpt>
      <trkpt lat="46.54774" lon="5.8618">
        <ele>1032.6</ele>
        <time>2022-08-27T13:11:24Z</time>
      </trkpt>
      <trkpt lat="46.54769" lon="5.86176">
        <ele>1032.4</ele>
        <time>2022-08-27T13:11:25Z</time>
      </trkpt>
      <trkpt lat="46.54765" lon="5.86171">
        <ele>1032</ele>
        <time>2022-08-27T13:11:26Z</time>
      </trkpt>
      <trkpt lat="46.54758" lon="5.86163">
        <ele>1031.6</ele>
        <time>2022-08-27T13:11:28Z</time>
      </trkpt>
      <trkpt lat="46.54755" lon="5.86159">
        <ele>1031.6</ele>
        <time>2022-08-27T13:11:29Z</time>
      </trkpt>
      <trkpt lat="46.54745" lon="5.86129">
        <ele>1031</ele>
        <time>2022-08-27T13:11:34Z</time>
      </trkpt>
      <trkpt lat="46.54738" lon="5.86096">
        <ele>1031.2</ele>
        <time>2022-08-27T13:11:38Z</time>
      </trkpt>
      <trkpt lat="46.54735" lon="5.8609">
        <ele>1031.2</ele>
        <time>2022-08-27T13:11:39Z</time>
      </trkpt>
      <trkpt lat="46.5473" lon="5.86086">
        <ele>1031.2</ele>
        <time>2022-08-27T13:11:40Z</time>
      </trkpt>
      <trkpt lat="46.54716" lon="5.86079">
        <ele>1031</ele>
        <time>2022-08-27T13:11:43Z</time>
      </trkpt>
      <trkpt lat="46.54706" lon="5.86078">
        <ele>1030.8</ele>
        <time>2022-08-27T13:11:45Z</time>
      </trkpt>
      <trkpt lat="46.54701" lon="5.86076">
        <ele>1030.6</ele>
        <time>2022-08-27T13:11:46Z</time>
      </trkpt>
      <trkpt lat="46.54692" lon="5.86071">
        <ele>1030.2</ele>
        <time>2022-08-27T13:11:48Z</time>
      </trkpt>
      <trkpt lat="46.54688" lon="5.86068">
        <ele>1030</ele>
        <time>2022-08-27T13:11:49Z</time>
      </trkpt>
      <trkpt lat="46.54685" lon="5.86063">
        <ele>1029.8</ele>
        <time>2022-08-27T13:11:50Z</time>
      </trkpt>
      <trkpt lat="46.54679" lon="5.86052">
        <ele>1029.4</ele>
        <time>2022-08-27T13:11:52Z</time>
      </trkpt>
      <trkpt lat="46.54677" lon="5.86046">
        <ele>1029.4</ele>
        <time>2022-08-27T13:11:53Z</time>
      </trkpt>
      <trkpt lat="46.54671" lon="5.86028">
        <ele>1029.4</ele>
        <time>2022-08-27T13:11:57Z</time>
      </trkpt>
      <trkpt lat="46.54669" lon="5.86016">
        <ele>1029.2</ele>
        <time>2022-08-27T13:11:59Z</time>
      </trkpt>
      <trkpt lat="46.54664" lon="5.86">
        <ele>1029.4</ele>
        <time>2022-08-27T13:12:02Z</time>
      </trkpt>
      <trkpt lat="46.54659" lon="5.85988">
        <ele>1029.4</ele>
        <time>2022-08-27T13:12:04Z</time>
      </trkpt>
      <trkpt lat="46.54654" lon="5.85976">
        <ele>1029.2</ele>
        <time>2022-08-27T13:12:06Z</time>
      </trkpt>
      <trkpt lat="46.54647" lon="5.85966">
        <ele>1029</ele>
        <time>2022-08-27T13:12:08Z</time>
      </trkpt>
      <trkpt lat="46.5464" lon="5.85953">
        <ele>1028.8</ele>
        <time>2022-08-27T13:12:10Z</time>
      </trkpt>
      <trkpt lat="46.54636" lon="5.85946">
        <ele>1028.4</ele>
        <time>2022-08-27T13:12:11Z</time>
      </trkpt>
      <trkpt lat="46.54632" lon="5.85941">
        <ele>1027.8</ele>
        <time>2022-08-27T13:12:12Z</time>
      </trkpt>
      <trkpt lat="46.54623" lon="5.85939">
        <ele>1027.6</ele>
        <time>2022-08-27T13:12:14Z</time>
      </trkpt>
      <trkpt lat="46.54619" lon="5.85938">
        <ele>1027.6</ele>
        <time>2022-08-27T13:12:15Z</time>
      </trkpt>
      <trkpt lat="46.54602" lon="5.85942">
        <ele>1026.6</ele>
        <time>2022-08-27T13:12:19Z</time>
      </trkpt>
      <trkpt lat="46.54598" lon="5.85943">
        <ele>1026.4</ele>
        <time>2022-08-27T13:12:20Z</time>
      </trkpt>
      <trkpt lat="46.54573" lon="5.85947">
        <ele>1026.4</ele>
        <time>2022-08-27T13:12:26Z</time>
      </trkpt>
      <trkpt lat="46.5455" lon="5.85933">
        <ele>1026.4</ele>
        <time>2022-08-27T13:12:31Z</time>
      </trkpt>
      <trkpt lat="46.54525" lon="5.85913">
        <ele>1025.8</ele>
        <time>2022-08-27T13:12:36Z</time>
      </trkpt>
      <trkpt lat="46.5452" lon="5.85909">
        <ele>1025.6</ele>
        <time>2022-08-27T13:12:37Z</time>
      </trkpt>
      <trkpt lat="46.54515" lon="5.85905">
        <ele>1025.4</ele>
        <time>2022-08-27T13:12:38Z</time>
      </trkpt>
      <trkpt lat="46.54506" lon="5.85897">
        <ele>1025.4</ele>
        <time>2022-08-27T13:12:40Z</time>
      </trkpt>
      <trkpt lat="46.54501" lon="5.85893">
        <ele>1025.4</ele>
        <time>2022-08-27T13:12:41Z</time>
      </trkpt>
      <trkpt lat="46.54478" lon="5.85868">
        <ele>1025.2</ele>
        <time>2022-08-27T13:12:46Z</time>
      </trkpt>
      <trkpt lat="46.54454" lon="5.85836">
        <ele>1025</ele>
        <time>2022-08-27T13:12:52Z</time>
      </trkpt>
      <trkpt lat="46.5445" lon="5.85832">
        <ele>1024.8</ele>
        <time>2022-08-27T13:12:53Z</time>
      </trkpt>
      <trkpt lat="46.54441" lon="5.85823">
        <ele>1024.6</ele>
        <time>2022-08-27T13:12:55Z</time>
      </trkpt>
      <trkpt lat="46.54429" lon="5.85807">
        <ele>1024.4</ele>
        <time>2022-08-27T13:12:58Z</time>
      </trkpt>
      <trkpt lat="46.5442" lon="5.85778">
        <ele>1024.4</ele>
        <time>2022-08-27T13:13:02Z</time>
      </trkpt>
      <trkpt lat="46.54415" lon="5.85763">
        <ele>1024.4</ele>
        <time>2022-08-27T13:13:04Z</time>
      </trkpt>
      <trkpt lat="46.54412" lon="5.85754">
        <ele>1024.2</ele>
        <time>2022-08-27T13:13:06Z</time>
      </trkpt>
      <trkpt lat="46.5441" lon="5.8575">
        <ele>1024.2</ele>
        <time>2022-08-27T13:13:07Z</time>
      </trkpt>
      <trkpt lat="46.54406" lon="5.85746">
        <ele>1024</ele>
        <time>2022-08-27T13:13:08Z</time>
      </trkpt>
      <trkpt lat="46.54398" lon="5.85738">
        <ele>1023.4</ele>
        <time>2022-08-27T13:13:10Z</time>
      </trkpt>
      <trkpt lat="46.54394" lon="5.85733">
        <ele>1023.4</ele>
        <time>2022-08-27T13:13:11Z</time>
      </trkpt>
      <trkpt lat="46.5439" lon="5.85729">
        <ele>1023.2</ele>
        <time>2022-08-27T13:13:12Z</time>
      </trkpt>
      <trkpt lat="46.54381" lon="5.85717">
        <ele>1023</ele>
        <time>2022-08-27T13:13:15Z</time>
      </trkpt>
      <trkpt lat="46.54378" lon="5.85713">
        <ele>1022.6</ele>
        <time>2022-08-27T13:13:16Z</time>
      </trkpt>
      <trkpt lat="46.54374" lon="5.8571">
        <ele>1022.4</ele>
        <time>2022-08-27T13:13:17Z</time>
      </trkpt>
      <trkpt lat="46.54367" lon="5.85701">
        <ele>1022</ele>
        <time>2022-08-27T13:13:19Z</time>
      </trkpt>
      <trkpt lat="46.54364" lon="5.85697">
        <ele>1022</ele>
        <time>2022-08-27T13:13:20Z</time>
      </trkpt>
      <trkpt lat="46.5436" lon="5.85693">
        <ele>1022.2</ele>
        <time>2022-08-27T13:13:21Z</time>
      </trkpt>
      <trkpt lat="46.5435" lon="5.85685">
        <ele>1022</ele>
        <time>2022-08-27T13:13:24Z</time>
      </trkpt>
      <trkpt lat="46.5434" lon="5.85673">
        <ele>1022</ele>
        <time>2022-08-27T13:13:27Z</time>
      </trkpt>
      <trkpt lat="46.54317" lon="5.85653">
        <ele>1022.4</ele>
        <time>2022-08-27T13:13:32Z</time>
      </trkpt>
      <trkpt lat="46.54308" lon="5.85648">
        <ele>1022.2</ele>
        <time>2022-08-27T13:13:34Z</time>
      </trkpt>
      <trkpt lat="46.54298" lon="5.85644">
        <ele>1022</ele>
        <time>2022-08-27T13:13:36Z</time>
      </trkpt>
      <trkpt lat="46.54291" lon="5.85638">
        <ele>1021.8</ele>
        <time>2022-08-27T13:13:38Z</time>
      </trkpt>
      <trkpt lat="46.54287" lon="5.85634">
        <ele>1021.8</ele>
        <time>2022-08-27T13:13:39Z</time>
      </trkpt>
      <trkpt lat="46.54271" lon="5.85615">
        <ele>1021.2</ele>
        <time>2022-08-27T13:13:43Z</time>
      </trkpt>
      <trkpt lat="46.54262" lon="5.85606">
        <ele>1020.6</ele>
        <time>2022-08-27T13:13:45Z</time>
      </trkpt>
      <trkpt lat="46.54247" lon="5.85587">
        <ele>1020</ele>
        <time>2022-08-27T13:13:50Z</time>
      </trkpt>
      <trkpt lat="46.54235" lon="5.85568">
        <ele>1019.6</ele>
        <time>2022-08-27T13:13:54Z</time>
      </trkpt>
      <trkpt lat="46.54231" lon="5.85559">
        <ele>1019.4</ele>
        <time>2022-08-27T13:13:56Z</time>
      </trkpt>
      <trkpt lat="46.54225" lon="5.85539">
        <ele>1018.4</ele>
        <time>2022-08-27T13:14:01Z</time>
      </trkpt>
      <trkpt lat="46.54231" lon="5.85533">
        <ele>1018</ele>
        <time>2022-08-27T13:14:04Z</time>
      </trkpt>
      <trkpt lat="46.54233" lon="5.85527">
        <ele>1017.6</ele>
        <time>2022-08-27T13:14:06Z</time>
      </trkpt>
      <trkpt lat="46.54232" lon="5.85517">
        <ele>1017.6</ele>
        <time>2022-08-27T13:14:08Z</time>
      </trkpt>
      <trkpt lat="46.54231" lon="5.85512">
        <ele>1017.4</ele>
        <time>2022-08-27T13:14:09Z</time>
      </trkpt>
      <trkpt lat="46.54226" lon="5.85502">
        <ele>1017.4</ele>
        <time>2022-08-27T13:14:11Z</time>
      </trkpt>
      <trkpt lat="46.54211" lon="5.85481">
        <ele>1018.2</ele>
        <time>2022-08-27T13:14:16Z</time>
      </trkpt>
      <trkpt lat="46.54192" lon="5.85455">
        <ele>1019.8</ele>
        <time>2022-08-27T13:14:22Z</time>
      </trkpt>
      <trkpt lat="46.54186" lon="5.85448">
        <ele>1020.2</ele>
        <time>2022-08-27T13:14:24Z</time>
      </trkpt>
      <trkpt lat="46.54175" lon="5.85434">
        <ele>1021</ele>
        <time>2022-08-27T13:14:28Z</time>
      </trkpt>
      <trkpt lat="46.5417" lon="5.85427">
        <ele>1021.8</ele>
        <time>2022-08-27T13:14:30Z</time>
      </trkpt>
      <trkpt lat="46.54165" lon="5.85422">
        <ele>1022.2</ele>
        <time>2022-08-27T13:14:32Z</time>
      </trkpt>
      <trkpt lat="46.54155" lon="5.85409">
        <ele>1022.6</ele>
        <time>2022-08-27T13:14:36Z</time>
      </trkpt>
      <trkpt lat="46.54147" lon="5.85392">
        <ele>1023.2</ele>
        <time>2022-08-27T13:14:40Z</time>
      </trkpt>
      <trkpt lat="46.54146" lon="5.85388">
        <ele>1023.2</ele>
        <time>2022-08-27T13:14:41Z</time>
      </trkpt>
      <trkpt lat="46.54146" lon="5.85379">
        <ele>1024.2</ele>
        <time>2022-08-27T13:14:43Z</time>
      </trkpt>
      <trkpt lat="46.54149" lon="5.85371">
        <ele>1025.4</ele>
        <time>2022-08-27T13:14:45Z</time>
      </trkpt>
      <trkpt lat="46.54155" lon="5.85352">
        <ele>1026.4</ele>
        <time>2022-08-27T13:14:50Z</time>
      </trkpt>
      <trkpt lat="46.54155" lon="5.85349">
        <ele>1026.4</ele>
        <time>2022-08-27T13:14:51Z</time>
      </trkpt>
      <trkpt lat="46.54148" lon="5.85328">
        <ele>1027.4</ele>
        <time>2022-08-27T13:14:56Z</time>
      </trkpt>
      <trkpt lat="46.54145" lon="5.85325">
        <ele>1027.6</ele>
        <time>2022-08-27T13:14:57Z</time>
      </trkpt>
      <trkpt lat="46.54134" lon="5.85317">
        <ele>1028.6</ele>
        <time>2022-08-27T13:15:01Z</time>
      </trkpt>
      <trkpt lat="46.54128" lon="5.85315">
        <ele>1029.2</ele>
        <time>2022-08-27T13:15:03Z</time>
      </trkpt>
      <trkpt lat="46.54119" lon="5.8531">
        <ele>1030</ele>
        <time>2022-08-27T13:15:06Z</time>
      </trkpt>
      <trkpt lat="46.54112" lon="5.85305">
        <ele>1030.4</ele>
        <time>2022-08-27T13:15:08Z</time>
      </trkpt>
      <trkpt lat="46.54104" lon="5.85289">
        <ele>1030.8</ele>
        <time>2022-08-27T13:15:12Z</time>
      </trkpt>
      <trkpt lat="46.54104" lon="5.85284">
        <ele>1031</ele>
        <time>2022-08-27T13:15:13Z</time>
      </trkpt>
      <trkpt lat="46.54106" lon="5.8527">
        <ele>1031.2</ele>
        <time>2022-08-27T13:15:16Z</time>
      </trkpt>
      <trkpt lat="46.54107" lon="5.85259">
        <ele>1031.4</ele>
        <time>2022-08-27T13:15:18Z</time>
      </trkpt>
      <trkpt lat="46.54111" lon="5.85243">
        <ele>1032</ele>
        <time>2022-08-27T13:15:21Z</time>
      </trkpt>
      <trkpt lat="46.54113" lon="5.8524">
        <ele>1032.2</ele>
        <time>2022-08-27T13:15:22Z</time>
      </trkpt>
      <trkpt lat="46.54119" lon="5.85224">
        <ele>1033.2</ele>
        <time>2022-08-27T13:15:26Z</time>
      </trkpt>
      <trkpt lat="46.54121" lon="5.8522">
        <ele>1033.4</ele>
        <time>2022-08-27T13:15:27Z</time>
      </trkpt>
      <trkpt lat="46.54129" lon="5.85191">
        <ele>1034.2</ele>
        <time>2022-08-27T13:15:32Z</time>
      </trkpt>
      <trkpt lat="46.54129" lon="5.85186">
        <ele>1034.6</ele>
        <time>2022-08-27T13:15:33Z</time>
      </trkpt>
      <trkpt lat="46.54131" lon="5.85161">
        <ele>1035.4</ele>
        <time>2022-08-27T13:15:37Z</time>
      </trkpt>
      <trkpt lat="46.54132" lon="5.85158">
        <ele>1035.6</ele>
        <time>2022-08-27T13:15:38Z</time>
      </trkpt>
      <trkpt lat="46.54137" lon="5.8513">
        <ele>1036.4</ele>
        <time>2022-08-27T13:15:43Z</time>
      </trkpt>
      <trkpt lat="46.54138" lon="5.85123">
        <ele>1036.6</ele>
        <time>2022-08-27T13:15:44Z</time>
      </trkpt>
      <trkpt lat="46.54143" lon="5.8511">
        <ele>1037.6</ele>
        <time>2022-08-27T13:15:47Z</time>
      </trkpt>
      <trkpt lat="46.54146" lon="5.85106">
        <ele>1037.8</ele>
        <time>2022-08-27T13:15:48Z</time>
      </trkpt>
      <trkpt lat="46.54158" lon="5.85094">
        <ele>1039</ele>
        <time>2022-08-27T13:15:52Z</time>
      </trkpt>
      <trkpt lat="46.54172" lon="5.85083">
        <ele>1039.4</ele>
        <time>2022-08-27T13:15:56Z</time>
      </trkpt>
      <trkpt lat="46.54185" lon="5.85072">
        <ele>1039.8</ele>
        <time>2022-08-27T13:16:00Z</time>
      </trkpt>
      <trkpt lat="46.54192" lon="5.85068">
        <ele>1040.2</ele>
        <time>2022-08-27T13:16:02Z</time>
      </trkpt>
      <trkpt lat="46.54195" lon="5.85068">
        <ele>1041</ele>
        <time>2022-08-27T13:16:03Z</time>
      </trkpt>
      <trkpt lat="46.54208" lon="5.85072">
        <ele>1041.6</ele>
        <time>2022-08-27T13:16:07Z</time>
      </trkpt>
      <trkpt lat="46.54215" lon="5.85077">
        <ele>1042</ele>
        <time>2022-08-27T13:16:09Z</time>
      </trkpt>
      <trkpt lat="46.54222" lon="5.85082">
        <ele>1042.8</ele>
        <time>2022-08-27T13:16:11Z</time>
      </trkpt>
      <trkpt lat="46.5423" lon="5.85086">
        <ele>1043.2</ele>
        <time>2022-08-27T13:16:13Z</time>
      </trkpt>
      <trkpt lat="46.54241" lon="5.85093">
        <ele>1044</ele>
        <time>2022-08-27T13:16:16Z</time>
      </trkpt>
      <trkpt lat="46.54245" lon="5.85096">
        <ele>1044.2</ele>
        <time>2022-08-27T13:16:17Z</time>
      </trkpt>
      <trkpt lat="46.54262" lon="5.85105">
        <ele>1045</ele>
        <time>2022-08-27T13:16:22Z</time>
      </trkpt>
      <trkpt lat="46.54288" lon="5.85118">
        <ele>1045.2</ele>
        <time>2022-08-27T13:16:28Z</time>
      </trkpt>
      <trkpt lat="46.54297" lon="5.85119">
        <ele>1045</ele>
        <time>2022-08-27T13:16:30Z</time>
      </trkpt>
      <trkpt lat="46.54301" lon="5.85117">
        <ele>1045</ele>
        <time>2022-08-27T13:16:31Z</time>
      </trkpt>
      <trkpt lat="46.54315" lon="5.85113">
        <ele>1044.4</ele>
        <time>2022-08-27T13:16:33Z</time>
      </trkpt>
      <trkpt lat="46.54321" lon="5.8511">
        <ele>1044</ele>
        <time>2022-08-27T13:16:34Z</time>
      </trkpt>
      <trkpt lat="46.54332" lon="5.851">
        <ele>1043.2</ele>
        <time>2022-08-27T13:16:36Z</time>
      </trkpt>
      <trkpt lat="46.54338" lon="5.85097">
        <ele>1042.8</ele>
        <time>2022-08-27T13:16:37Z</time>
      </trkpt>
      <trkpt lat="46.54344" lon="5.85097">
        <ele>1041.6</ele>
        <time>2022-08-27T13:16:38Z</time>
      </trkpt>
      <trkpt lat="46.5436" lon="5.85098">
        <ele>1041</ele>
        <time>2022-08-27T13:16:40Z</time>
      </trkpt>
      <trkpt lat="46.54368" lon="5.851">
        <ele>1040.6</ele>
        <time>2022-08-27T13:16:41Z</time>
      </trkpt>
      <trkpt lat="46.54376" lon="5.85104">
        <ele>1040.6</ele>
        <time>2022-08-27T13:16:42Z</time>
      </trkpt>
      <trkpt lat="46.5441" lon="5.85117">
        <ele>1039.2</ele>
        <time>2022-08-27T13:16:46Z</time>
      </trkpt>
      <trkpt lat="46.54418" lon="5.85121">
        <ele>1038.6</ele>
        <time>2022-08-27T13:16:47Z</time>
      </trkpt>
      <trkpt lat="46.54427" lon="5.85128">
        <ele>1038.2</ele>
        <time>2022-08-27T13:16:48Z</time>
      </trkpt>
      <trkpt lat="46.54445" lon="5.8514">
        <ele>1037.8</ele>
        <time>2022-08-27T13:16:50Z</time>
      </trkpt>
      <trkpt lat="46.54476" lon="5.85151">
        <ele>1037.2</ele>
        <time>2022-08-27T13:16:53Z</time>
      </trkpt>
      <trkpt lat="46.54494" lon="5.85157">
        <ele>1035.8</ele>
        <time>2022-08-27T13:16:55Z</time>
      </trkpt>
      <trkpt lat="46.54519" lon="5.85171">
        <ele>1035.2</ele>
        <time>2022-08-27T13:16:58Z</time>
      </trkpt>
      <trkpt lat="46.5454" lon="5.85174">
        <ele>1035.2</ele>
        <time>2022-08-27T13:17:00Z</time>
      </trkpt>
      <trkpt lat="46.54549" lon="5.85173">
        <ele>1034.8</ele>
        <time>2022-08-27T13:17:01Z</time>
      </trkpt>
      <trkpt lat="46.54558" lon="5.85172">
        <ele>1034.4</ele>
        <time>2022-08-27T13:17:02Z</time>
      </trkpt>
      <trkpt lat="46.54585" lon="5.85169">
        <ele>1033.8</ele>
        <time>2022-08-27T13:17:05Z</time>
      </trkpt>
      <trkpt lat="46.54596" lon="5.85169">
        <ele>1033.2</ele>
        <time>2022-08-27T13:17:06Z</time>
      </trkpt>
      <trkpt lat="46.54614" lon="5.85172">
        <ele>1032.2</ele>
        <time>2022-08-27T13:17:08Z</time>
      </trkpt>
      <trkpt lat="46.54624" lon="5.85173">
        <ele>1031.6</ele>
        <time>2022-08-27T13:17:09Z</time>
      </trkpt>
      <trkpt lat="46.54647" lon="5.8517">
        <ele>1031</ele>
        <time>2022-08-27T13:17:11Z</time>
      </trkpt>
      <trkpt lat="46.54654" lon="5.85166">
        <ele>1030.6</ele>
        <time>2022-08-27T13:17:12Z</time>
      </trkpt>
      <trkpt lat="46.54662" lon="5.85159">
        <ele>1030.2</ele>
        <time>2022-08-27T13:17:13Z</time>
      </trkpt>
      <trkpt lat="46.54672" lon="5.85149">
        <ele>1029.8</ele>
        <time>2022-08-27T13:17:14Z</time>
      </trkpt>
      <trkpt lat="46.54678" lon="5.85141">
        <ele>1029.4</ele>
        <time>2022-08-27T13:17:15Z</time>
      </trkpt>
      <trkpt lat="46.54692" lon="5.85121">
        <ele>1028.6</ele>
        <time>2022-08-27T13:17:17Z</time>
      </trkpt>
      <trkpt lat="46.54699" lon="5.85111">
        <ele>1028.2</ele>
        <time>2022-08-27T13:17:18Z</time>
      </trkpt>
      <trkpt lat="46.54707" lon="5.85103">
        <ele>1028</ele>
        <time>2022-08-27T13:17:19Z</time>
      </trkpt>
      <trkpt lat="46.54726" lon="5.8509">
        <ele>1027.6</ele>
        <time>2022-08-27T13:17:21Z</time>
      </trkpt>
      <trkpt lat="46.5475" lon="5.85079">
        <ele>1026.6</ele>
        <time>2022-08-27T13:17:23Z</time>
      </trkpt>
      <trkpt lat="46.5476" lon="5.85079">
        <ele>1026.4</ele>
        <time>2022-08-27T13:17:24Z</time>
      </trkpt>
      <trkpt lat="46.54781" lon="5.85081">
        <ele>1025.6</ele>
        <time>2022-08-27T13:17:26Z</time>
      </trkpt>
      <trkpt lat="46.54789" lon="5.85079">
        <ele>1025.2</ele>
        <time>2022-08-27T13:17:27Z</time>
      </trkpt>
      <trkpt lat="46.54807" lon="5.85068">
        <ele>1024.4</ele>
        <time>2022-08-27T13:17:29Z</time>
      </trkpt>
      <trkpt lat="46.54826" lon="5.85054">
        <ele>1024</ele>
        <time>2022-08-27T13:17:31Z</time>
      </trkpt>
      <trkpt lat="46.54856" lon="5.85038">
        <ele>1023.2</ele>
        <time>2022-08-27T13:17:34Z</time>
      </trkpt>
      <trkpt lat="46.54866" lon="5.85035">
        <ele>1023</ele>
        <time>2022-08-27T13:17:35Z</time>
      </trkpt>
      <trkpt lat="46.54904" lon="5.85025">
        <ele>1022.2</ele>
        <time>2022-08-27T13:17:39Z</time>
      </trkpt>
      <trkpt lat="46.54922" lon="5.85019">
        <ele>1022.2</ele>
        <time>2022-08-27T13:17:41Z</time>
      </trkpt>
      <trkpt lat="46.54939" lon="5.8501">
        <ele>1022.2</ele>
        <time>2022-08-27T13:17:43Z</time>
      </trkpt>
      <trkpt lat="46.54967" lon="5.84998">
        <ele>1021.8</ele>
        <time>2022-08-27T13:17:46Z</time>
      </trkpt>
      <trkpt lat="46.54985" lon="5.84995">
        <ele>1021.8</ele>
        <time>2022-08-27T13:17:48Z</time>
      </trkpt>
      <trkpt lat="46.55003" lon="5.84997">
        <ele>1020.8</ele>
        <time>2022-08-27T13:17:50Z</time>
      </trkpt>
      <trkpt lat="46.5502" lon="5.85">
        <ele>1019.8</ele>
        <time>2022-08-27T13:17:52Z</time>
      </trkpt>
      <trkpt lat="46.55037" lon="5.85008">
        <ele>1019</ele>
        <time>2022-08-27T13:17:54Z</time>
      </trkpt>
      <trkpt lat="46.55045" lon="5.85011">
        <ele>1018.4</ele>
        <time>2022-08-27T13:17:55Z</time>
      </trkpt>
      <trkpt lat="46.55062" lon="5.85011">
        <ele>1016.4</ele>
        <time>2022-08-27T13:17:57Z</time>
      </trkpt>
      <trkpt lat="46.55075" lon="5.85009">
        <ele>1015.6</ele>
        <time>2022-08-27T13:17:59Z</time>
      </trkpt>
      <trkpt lat="46.55082" lon="5.85005">
        <ele>1015.2</ele>
        <time>2022-08-27T13:18:00Z</time>
      </trkpt>
      <trkpt lat="46.55098" lon="5.84993">
        <ele>1014.8</ele>
        <time>2022-08-27T13:18:02Z</time>
      </trkpt>
      <trkpt lat="46.55112" lon="5.84986">
        <ele>1013.4</ele>
        <time>2022-08-27T13:18:04Z</time>
      </trkpt>
      <trkpt lat="46.55117" lon="5.84973">
        <ele>1012.2</ele>
        <time>2022-08-27T13:18:06Z</time>
      </trkpt>
      <trkpt lat="46.55099" lon="5.8495">
        <ele>1010.6</ele>
        <time>2022-08-27T13:18:09Z</time>
      </trkpt>
      <trkpt lat="46.55111" lon="5.84942">
        <ele>1010.2</ele>
        <time>2022-08-27T13:18:10Z</time>
      </trkpt>
      <trkpt lat="46.55125" lon="5.84933">
        <ele>1009.4</ele>
        <time>2022-08-27T13:18:11Z</time>
      </trkpt>
      <trkpt lat="46.55157" lon="5.84907">
        <ele>1008.6</ele>
        <time>2022-08-27T13:18:13Z</time>
      </trkpt>
      <trkpt lat="46.55174" lon="5.84891">
        <ele>1007.8</ele>
        <time>2022-08-27T13:18:14Z</time>
      </trkpt>
      <trkpt lat="46.55192" lon="5.84872">
        <ele>1007</ele>
        <time>2022-08-27T13:18:15Z</time>
      </trkpt>
      <trkpt lat="46.5521" lon="5.84853">
        <ele>1006.4</ele>
        <time>2022-08-27T13:18:16Z</time>
      </trkpt>
      <trkpt lat="46.55264" lon="5.84805">
        <ele>1005.4</ele>
        <time>2022-08-27T13:18:19Z</time>
      </trkpt>
      <trkpt lat="46.55277" lon="5.84792">
        <ele>1004.6</ele>
        <time>2022-08-27T13:18:20Z</time>
      </trkpt>
      <trkpt lat="46.55293" lon="5.84777">
        <ele>1004.4</ele>
        <time>2022-08-27T13:18:21Z</time>
      </trkpt>
      <trkpt lat="46.55322" lon="5.84754">
        <ele>1003.4</ele>
        <time>2022-08-27T13:18:23Z</time>
      </trkpt>
      <trkpt lat="46.55333" lon="5.84746">
        <ele>1003</ele>
        <time>2022-08-27T13:18:24Z</time>
      </trkpt>
      <trkpt lat="46.55344" lon="5.84737">
        <ele>1002.6</ele>
        <time>2022-08-27T13:18:26Z</time>
      </trkpt>
      <trkpt lat="46.55351" lon="5.84731">
        <ele>1002.2</ele>
        <time>2022-08-27T13:18:27Z</time>
      </trkpt>
      <trkpt lat="46.55363" lon="5.84725">
        <ele>1001.8</ele>
        <time>2022-08-27T13:18:29Z</time>
      </trkpt>
      <trkpt lat="46.55372" lon="5.84722">
        <ele>1000.8</ele>
        <time>2022-08-27T13:18:30Z</time>
      </trkpt>
      <trkpt lat="46.55386" lon="5.84718">
        <ele>999.6</ele>
        <time>2022-08-27T13:18:32Z</time>
      </trkpt>
      <trkpt lat="46.55395" lon="5.84716">
        <ele>998</ele>
        <time>2022-08-27T13:18:34Z</time>
      </trkpt>
      <trkpt lat="46.55394" lon="5.84713">
        <ele>997.6</ele>
        <time>2022-08-27T13:18:35Z</time>
      </trkpt>
      <trkpt lat="46.55398" lon="5.84703">
        <ele>996.6</ele>
        <time>2022-08-27T13:18:37Z</time>
      </trkpt>
      <trkpt lat="46.554" lon="5.84695">
        <ele>995.2</ele>
        <time>2022-08-27T13:18:39Z</time>
      </trkpt>
      <trkpt lat="46.55401" lon="5.84688">
        <ele>994.4</ele>
        <time>2022-08-27T13:18:40Z</time>
      </trkpt>
      <trkpt lat="46.55402" lon="5.84679">
        <ele>992.6</ele>
        <time>2022-08-27T13:18:41Z</time>
      </trkpt>
      <trkpt lat="46.55403" lon="5.8467">
        <ele>991.6</ele>
        <time>2022-08-27T13:18:42Z</time>
      </trkpt>
      <trkpt lat="46.55405" lon="5.8466">
        <ele>990.4</ele>
        <time>2022-08-27T13:18:43Z</time>
      </trkpt>
      <trkpt lat="46.55406" lon="5.84648">
        <ele>989.2</ele>
        <time>2022-08-27T13:18:44Z</time>
      </trkpt>
      <trkpt lat="46.55407" lon="5.84639">
        <ele>988.8</ele>
        <time>2022-08-27T13:18:45Z</time>
      </trkpt>
      <trkpt lat="46.55409" lon="5.84632">
        <ele>987.8</ele>
        <time>2022-08-27T13:18:46Z</time>
      </trkpt>
      <trkpt lat="46.55416" lon="5.84625">
        <ele>986.4</ele>
        <time>2022-08-27T13:18:48Z</time>
      </trkpt>
      <trkpt lat="46.5542" lon="5.84622">
        <ele>985.2</ele>
        <time>2022-08-27T13:18:49Z</time>
      </trkpt>
      <trkpt lat="46.55426" lon="5.84622">
        <ele>983.6</ele>
        <time>2022-08-27T13:18:50Z</time>
      </trkpt>
      <trkpt lat="46.55438" lon="5.84623">
        <ele>982</ele>
        <time>2022-08-27T13:18:52Z</time>
      </trkpt>
      <trkpt lat="46.55442" lon="5.84625">
        <ele>980.8</ele>
        <time>2022-08-27T13:18:53Z</time>
      </trkpt>
      <trkpt lat="46.55454" lon="5.84631">
        <ele>979.6</ele>
        <time>2022-08-27T13:18:55Z</time>
      </trkpt>
      <trkpt lat="46.55461" lon="5.84632">
        <ele>978.2</ele>
        <time>2022-08-27T13:18:57Z</time>
      </trkpt>
      <trkpt lat="46.55466" lon="5.84627">
        <ele>977.8</ele>
        <time>2022-08-27T13:18:58Z</time>
      </trkpt>
      <trkpt lat="46.55467" lon="5.84621">
        <ele>976.4</ele>
        <time>2022-08-27T13:18:59Z</time>
      </trkpt>
      <trkpt lat="46.55469" lon="5.84612">
        <ele>975</ele>
        <time>2022-08-27T13:19:00Z</time>
      </trkpt>
      <trkpt lat="46.55469" lon="5.84601">
        <ele>973.8</ele>
        <time>2022-08-27T13:19:01Z</time>
      </trkpt>
      <trkpt lat="46.5547" lon="5.84589">
        <ele>972</ele>
        <time>2022-08-27T13:19:02Z</time>
      </trkpt>
      <trkpt lat="46.55304" lon="5.84571">
        <ele>970</ele>
        <time>2022-08-27T13:19:04Z</time>
      </trkpt>
      <trkpt lat="46.55316" lon="5.84547">
        <ele>968.8</ele>
        <time>2022-08-27T13:19:06Z</time>
      </trkpt>
      <trkpt lat="46.55322" lon="5.84533">
        <ele>967.6</ele>
        <time>2022-08-27T13:19:07Z</time>
      </trkpt>
      <trkpt lat="46.5533" lon="5.84521">
        <ele>967</ele>
        <time>2022-08-27T13:19:08Z</time>
      </trkpt>
      <trkpt lat="46.55341" lon="5.84508">
        <ele>965.8</ele>
        <time>2022-08-27T13:19:09Z</time>
      </trkpt>
      <trkpt lat="46.55351" lon="5.845">
        <ele>965.4</ele>
        <time>2022-08-27T13:19:10Z</time>
      </trkpt>
      <trkpt lat="46.55361" lon="5.84494">
        <ele>964.6</ele>
        <time>2022-08-27T13:19:11Z</time>
      </trkpt>
      <trkpt lat="46.55371" lon="5.8449">
        <ele>964.2</ele>
        <time>2022-08-27T13:19:12Z</time>
      </trkpt>
      <trkpt lat="46.55381" lon="5.84488">
        <ele>963.8</ele>
        <time>2022-08-27T13:19:13Z</time>
      </trkpt>
      <trkpt lat="46.5539" lon="5.84488">
        <ele>963</ele>
        <time>2022-08-27T13:19:14Z</time>
      </trkpt>
      <trkpt lat="46.55414" lon="5.8449">
        <ele>961.2</ele>
        <time>2022-08-27T13:19:16Z</time>
      </trkpt>
      <trkpt lat="46.55423" lon="5.84492">
        <ele>960.6</ele>
        <time>2022-08-27T13:19:17Z</time>
      </trkpt>
      <trkpt lat="46.55436" lon="5.84496">
        <ele>959.6</ele>
        <time>2022-08-27T13:19:18Z</time>
      </trkpt>
      <trkpt lat="46.55457" lon="5.84508">
        <ele>958.4</ele>
        <time>2022-08-27T13:19:20Z</time>
      </trkpt>
      <trkpt lat="46.5547" lon="5.84515">
        <ele>956.8</ele>
        <time>2022-08-27T13:19:21Z</time>
      </trkpt>
      <trkpt lat="46.5548" lon="5.84522">
        <ele>956.2</ele>
        <time>2022-08-27T13:19:22Z</time>
      </trkpt>
      <trkpt lat="46.55492" lon="5.84532">
        <ele>954.8</ele>
        <time>2022-08-27T13:19:23Z</time>
      </trkpt>
      <trkpt lat="46.55518" lon="5.84553">
        <ele>953.4</ele>
        <time>2022-08-27T13:19:25Z</time>
      </trkpt>
      <trkpt lat="46.55528" lon="5.84559">
        <ele>952.8</ele>
        <time>2022-08-27T13:19:26Z</time>
      </trkpt>
      <trkpt lat="46.55537" lon="5.84561">
        <ele>952.2</ele>
        <time>2022-08-27T13:19:27Z</time>
      </trkpt>
      <trkpt lat="46.55544" lon="5.84559">
        <ele>951.6</ele>
        <time>2022-08-27T13:19:28Z</time>
      </trkpt>
      <trkpt lat="46.55549" lon="5.84554">
        <ele>951.2</ele>
        <time>2022-08-27T13:19:29Z</time>
      </trkpt>
      <trkpt lat="46.55549" lon="5.84547">
        <ele>950.4</ele>
        <time>2022-08-27T13:19:30Z</time>
      </trkpt>
      <trkpt lat="46.55545" lon="5.84537">
        <ele>950</ele>
        <time>2022-08-27T13:19:31Z</time>
      </trkpt>
      <trkpt lat="46.55539" lon="5.84525">
        <ele>949.4</ele>
        <time>2022-08-27T13:19:32Z</time>
      </trkpt>
      <trkpt lat="46.55533" lon="5.84519">
        <ele>949</ele>
        <time>2022-08-27T13:19:33Z</time>
      </trkpt>
      <trkpt lat="46.55516" lon="5.84506">
        <ele>947.6</ele>
        <time>2022-08-27T13:19:35Z</time>
      </trkpt>
      <trkpt lat="46.55494" lon="5.84491">
        <ele>947</ele>
        <time>2022-08-27T13:19:38Z</time>
      </trkpt>
      <trkpt lat="46.55487" lon="5.84487">
        <ele>946.4</ele>
        <time>2022-08-27T13:19:39Z</time>
      </trkpt>
      <trkpt lat="46.5548" lon="5.84484">
        <ele>946</ele>
        <time>2022-08-27T13:19:40Z</time>
      </trkpt>
      <trkpt lat="46.55464" lon="5.84475">
        <ele>944.6</ele>
        <time>2022-08-27T13:19:42Z</time>
      </trkpt>
      <trkpt lat="46.55457" lon="5.84467">
        <ele>944.2</ele>
        <time>2022-08-27T13:19:43Z</time>
      </trkpt>
      <trkpt lat="46.55448" lon="5.84464">
        <ele>943.2</ele>
        <time>2022-08-27T13:19:44Z</time>
      </trkpt>
      <trkpt lat="46.55437" lon="5.84458">
        <ele>942.6</ele>
        <time>2022-08-27T13:19:45Z</time>
      </trkpt>
      <trkpt lat="46.55427" lon="5.84445">
        <ele>942</ele>
        <time>2022-08-27T13:19:46Z</time>
      </trkpt>
      <trkpt lat="46.55419" lon="5.8442">
        <ele>941.6</ele>
        <time>2022-08-27T13:19:47Z</time>
      </trkpt>
      <trkpt lat="46.55414" lon="5.84395">
        <ele>940.4</ele>
        <time>2022-08-27T13:19:48Z</time>
      </trkpt>
      <trkpt lat="46.55407" lon="5.84349">
        <ele>939.2</ele>
        <time>2022-08-27T13:19:50Z</time>
      </trkpt>
      <trkpt lat="46.55411" lon="5.84311">
        <ele>938</ele>
        <time>2022-08-27T13:19:52Z</time>
      </trkpt>
      <trkpt lat="46.55416" lon="5.84299">
        <ele>937.2</ele>
        <time>2022-08-27T13:19:53Z</time>
      </trkpt>
      <trkpt lat="46.55423" lon="5.84287">
        <ele>936.8</ele>
        <time>2022-08-27T13:19:54Z</time>
      </trkpt>
      <trkpt lat="46.55439" lon="5.84276">
        <ele>936</ele>
        <time>2022-08-27T13:19:55Z</time>
      </trkpt>
      <trkpt lat="46.5545" lon="5.84269">
        <ele>935.6</ele>
        <time>2022-08-27T13:19:56Z</time>
      </trkpt>
      <trkpt lat="46.55461" lon="5.84262">
        <ele>934.6</ele>
        <time>2022-08-27T13:19:57Z</time>
      </trkpt>
      <trkpt lat="46.55473" lon="5.84254">
        <ele>932.8</ele>
        <time>2022-08-27T13:19:58Z</time>
      </trkpt>
      <trkpt lat="46.55497" lon="5.84241">
        <ele>930.8</ele>
        <time>2022-08-27T13:20:00Z</time>
      </trkpt>
      <trkpt lat="46.55508" lon="5.84233">
        <ele>930.4</ele>
        <time>2022-08-27T13:20:01Z</time>
      </trkpt>
      <trkpt lat="46.55519" lon="5.84224">
        <ele>929.4</ele>
        <time>2022-08-27T13:20:02Z</time>
      </trkpt>
      <trkpt lat="46.55542" lon="5.84206">
        <ele>928</ele>
        <time>2022-08-27T13:20:04Z</time>
      </trkpt>
      <trkpt lat="46.55576" lon="5.84179">
        <ele>926.8</ele>
        <time>2022-08-27T13:20:07Z</time>
      </trkpt>
      <trkpt lat="46.55596" lon="5.84163">
        <ele>925.4</ele>
        <time>2022-08-27T13:20:09Z</time>
      </trkpt>
      <trkpt lat="46.55617" lon="5.84153">
        <ele>924.2</ele>
        <time>2022-08-27T13:20:11Z</time>
      </trkpt>
      <trkpt lat="46.55643" lon="5.84149">
        <ele>923.2</ele>
        <time>2022-08-27T13:20:13Z</time>
      </trkpt>
      <trkpt lat="46.55658" lon="5.84151">
        <ele>921.4</ele>
        <time>2022-08-27T13:20:14Z</time>
      </trkpt>
      <trkpt lat="46.55671" lon="5.84155">
        <ele>920.4</ele>
        <time>2022-08-27T13:20:15Z</time>
      </trkpt>
      <trkpt lat="46.55683" lon="5.84161">
        <ele>919.2</ele>
        <time>2022-08-27T13:20:16Z</time>
      </trkpt>
      <trkpt lat="46.55695" lon="5.84168">
        <ele>918.8</ele>
        <time>2022-08-27T13:20:17Z</time>
      </trkpt>
      <trkpt lat="46.55707" lon="5.84174">
        <ele>917.6</ele>
        <time>2022-08-27T13:20:18Z</time>
      </trkpt>
      <trkpt lat="46.55721" lon="5.84181">
        <ele>916.4</ele>
        <time>2022-08-27T13:20:19Z</time>
      </trkpt>
      <trkpt lat="46.5575" lon="5.84193">
        <ele>915.2</ele>
        <time>2022-08-27T13:20:21Z</time>
      </trkpt>
      <trkpt lat="46.55778" lon="5.84204">
        <ele>913.2</ele>
        <time>2022-08-27T13:20:23Z</time>
      </trkpt>
      <trkpt lat="46.55793" lon="5.8421">
        <ele>911.8</ele>
        <time>2022-08-27T13:20:24Z</time>
      </trkpt>
      <trkpt lat="46.55803" lon="5.84214">
        <ele>909.6</ele>
        <time>2022-08-27T13:20:25Z</time>
      </trkpt>
      <trkpt lat="46.55816" lon="5.84218">
        <ele>908.2</ele>
        <time>2022-08-27T13:20:26Z</time>
      </trkpt>
      <trkpt lat="46.55827" lon="5.84223">
        <ele>906.8</ele>
        <time>2022-08-27T13:20:27Z</time>
      </trkpt>
      <trkpt lat="46.55841" lon="5.84231">
        <ele>904.6</ele>
        <time>2022-08-27T13:20:28Z</time>
      </trkpt>
      <trkpt lat="46.55851" lon="5.84238">
        <ele>904</ele>
        <time>2022-08-27T13:20:29Z</time>
      </trkpt>
      <trkpt lat="46.55859" lon="5.84245">
        <ele>902.8</ele>
        <time>2022-08-27T13:20:30Z</time>
      </trkpt>
      <trkpt lat="46.55869" lon="5.84255">
        <ele>902.2</ele>
        <time>2022-08-27T13:20:31Z</time>
      </trkpt>
      <trkpt lat="46.5588" lon="5.84268">
        <ele>901.2</ele>
        <time>2022-08-27T13:20:32Z</time>
      </trkpt>
      <trkpt lat="46.55887" lon="5.84278">
        <ele>900</ele>
        <time>2022-08-27T13:20:33Z</time>
      </trkpt>
      <trkpt lat="46.55896" lon="5.84289">
        <ele>899.2</ele>
        <time>2022-08-27T13:20:34Z</time>
      </trkpt>
      <trkpt lat="46.55906" lon="5.84297">
        <ele>897.8</ele>
        <time>2022-08-27T13:20:35Z</time>
      </trkpt>
      <trkpt lat="46.55919" lon="5.84303">
        <ele>897.2</ele>
        <time>2022-08-27T13:20:36Z</time>
      </trkpt>
      <trkpt lat="46.5593" lon="5.84306">
        <ele>896.2</ele>
        <time>2022-08-27T13:20:37Z</time>
      </trkpt>
      <trkpt lat="46.55953" lon="5.84314">
        <ele>894.8</ele>
        <time>2022-08-27T13:20:39Z</time>
      </trkpt>
      <trkpt lat="46.55977" lon="5.84322">
        <ele>893.4</ele>
        <time>2022-08-27T13:20:41Z</time>
      </trkpt>
      <trkpt lat="46.5599" lon="5.84323">
        <ele>892.6</ele>
        <time>2022-08-27T13:20:42Z</time>
      </trkpt>
      <trkpt lat="46.56003" lon="5.84322">
        <ele>892</ele>
        <time>2022-08-27T13:20:43Z</time>
      </trkpt>
      <trkpt lat="46.56016" lon="5.8432">
        <ele>891</ele>
        <time>2022-08-27T13:20:44Z</time>
      </trkpt>
      <trkpt lat="46.56029" lon="5.84316">
        <ele>890.6</ele>
        <time>2022-08-27T13:20:45Z</time>
      </trkpt>
      <trkpt lat="46.56042" lon="5.84314">
        <ele>889</ele>
        <time>2022-08-27T13:20:46Z</time>
      </trkpt>
      <trkpt lat="46.56067" lon="5.84306">
        <ele>887.8</ele>
        <time>2022-08-27T13:20:48Z</time>
      </trkpt>
      <trkpt lat="46.56078" lon="5.843">
        <ele>886.4</ele>
        <time>2022-08-27T13:20:49Z</time>
      </trkpt>
      <trkpt lat="46.561" lon="5.84284">
        <ele>884.4</ele>
        <time>2022-08-27T13:20:51Z</time>
      </trkpt>
      <trkpt lat="46.56111" lon="5.84278">
        <ele>884</ele>
        <time>2022-08-27T13:20:52Z</time>
      </trkpt>
      <trkpt lat="46.56122" lon="5.84273">
        <ele>883</ele>
        <time>2022-08-27T13:20:53Z</time>
      </trkpt>
      <trkpt lat="46.5613" lon="5.8427">
        <ele>882</ele>
        <time>2022-08-27T13:20:54Z</time>
      </trkpt>
      <trkpt lat="46.56141" lon="5.84261">
        <ele>880.8</ele>
        <time>2022-08-27T13:20:55Z</time>
      </trkpt>
      <trkpt lat="46.56148" lon="5.8425">
        <ele>880</ele>
        <time>2022-08-27T13:20:56Z</time>
      </trkpt>
      <trkpt lat="46.56153" lon="5.84236">
        <ele>879.2</ele>
        <time>2022-08-27T13:20:57Z</time>
      </trkpt>
      <trkpt lat="46.56155" lon="5.84219">
        <ele>878</ele>
        <time>2022-08-27T13:20:58Z</time>
      </trkpt>
      <trkpt lat="46.56148" lon="5.84187">
        <ele>877</ele>
        <time>2022-08-27T13:21:00Z</time>
      </trkpt>
      <trkpt lat="46.56139" lon="5.84174">
        <ele>876.8</ele>
        <time>2022-08-27T13:21:01Z</time>
      </trkpt>
      <trkpt lat="46.56131" lon="5.84164">
        <ele>876.2</ele>
        <time>2022-08-27T13:21:02Z</time>
      </trkpt>
      <trkpt lat="46.56117" lon="5.84148">
        <ele>875.8</ele>
        <time>2022-08-27T13:21:04Z</time>
      </trkpt>
      <trkpt lat="46.5609" lon="5.84128">
        <ele>875</ele>
        <time>2022-08-27T13:21:07Z</time>
      </trkpt>
      <trkpt lat="46.5608" lon="5.84121">
        <ele>874.4</ele>
        <time>2022-08-27T13:21:08Z</time>
      </trkpt>
      <trkpt lat="46.56035" lon="5.84076">
        <ele>873.4</ele>
        <time>2022-08-27T13:21:13Z</time>
      </trkpt>
      <trkpt lat="46.56026" lon="5.84066">
        <ele>873</ele>
        <time>2022-08-27T13:21:14Z</time>
      </trkpt>
      <trkpt lat="46.56001" lon="5.84038">
        <ele>871.8</ele>
        <time>2022-08-27T13:21:17Z</time>
      </trkpt>
      <trkpt lat="46.55992" lon="5.84028">
        <ele>871.8</ele>
        <time>2022-08-27T13:21:18Z</time>
      </trkpt>
      <trkpt lat="46.55974" lon="5.84005">
        <ele>871.4</ele>
        <time>2022-08-27T13:21:20Z</time>
      </trkpt>
      <trkpt lat="46.55959" lon="5.83989">
        <ele>870.8</ele>
        <time>2022-08-27T13:21:22Z</time>
      </trkpt>
      <trkpt lat="46.5595" lon="5.83982">
        <ele>870.4</ele>
        <time>2022-08-27T13:21:23Z</time>
      </trkpt>
      <trkpt lat="46.55931" lon="5.83972">
        <ele>869.8</ele>
        <time>2022-08-27T13:21:25Z</time>
      </trkpt>
      <trkpt lat="46.55899" lon="5.83969">
        <ele>868.8</ele>
        <time>2022-08-27T13:21:28Z</time>
      </trkpt>
      <trkpt lat="46.55888" lon="5.8397">
        <ele>868.6</ele>
        <time>2022-08-27T13:21:29Z</time>
      </trkpt>
      <trkpt lat="46.55867" lon="5.83971">
        <ele>867.2</ele>
        <time>2022-08-27T13:21:31Z</time>
      </trkpt>
      <trkpt lat="46.55846" lon="5.83973">
        <ele>866.2</ele>
        <time>2022-08-27T13:21:33Z</time>
      </trkpt>
      <trkpt lat="46.55825" lon="5.83975">
        <ele>865.6</ele>
        <time>2022-08-27T13:21:35Z</time>
      </trkpt>
      <trkpt lat="46.55792" lon="5.83976">
        <ele>864.8</ele>
        <time>2022-08-27T13:21:38Z</time>
      </trkpt>
      <trkpt lat="46.55771" lon="5.83976">
        <ele>863.4</ele>
        <time>2022-08-27T13:21:40Z</time>
      </trkpt>
      <trkpt lat="46.5576" lon="5.83975">
        <ele>863.2</ele>
        <time>2022-08-27T13:21:41Z</time>
      </trkpt>
      <trkpt lat="46.5572" lon="5.8396">
        <ele>862.4</ele>
        <time>2022-08-27T13:21:45Z</time>
      </trkpt>
      <trkpt lat="46.55705" lon="5.83941">
        <ele>861.8</ele>
        <time>2022-08-27T13:21:47Z</time>
      </trkpt>
      <trkpt lat="46.55699" lon="5.8393">
        <ele>861.6</ele>
        <time>2022-08-27T13:21:48Z</time>
      </trkpt>
      <trkpt lat="46.55694" lon="5.83916">
        <ele>861.6</ele>
        <time>2022-08-27T13:21:49Z</time>
      </trkpt>
      <trkpt lat="46.55692" lon="5.83902">
        <ele>861.4</ele>
        <time>2022-08-27T13:21:50Z</time>
      </trkpt>
      <trkpt lat="46.55692" lon="5.83886">
        <ele>860.8</ele>
        <time>2022-08-27T13:21:51Z</time>
      </trkpt>
      <trkpt lat="46.55695" lon="5.83871">
        <ele>860.4</ele>
        <time>2022-08-27T13:21:52Z</time>
      </trkpt>
      <trkpt lat="46.557" lon="5.83858">
        <ele>859.8</ele>
        <time>2022-08-27T13:21:53Z</time>
      </trkpt>
      <trkpt lat="46.55712" lon="5.83834">
        <ele>859</ele>
        <time>2022-08-27T13:21:55Z</time>
      </trkpt>
      <trkpt lat="46.55719" lon="5.83823">
        <ele>858.6</ele>
        <time>2022-08-27T13:21:56Z</time>
      </trkpt>
      <trkpt lat="46.55735" lon="5.83801">
        <ele>858.2</ele>
        <time>2022-08-27T13:21:58Z</time>
      </trkpt>
      <trkpt lat="46.55751" lon="5.83781">
        <ele>858</ele>
        <time>2022-08-27T13:22:00Z</time>
      </trkpt>
      <trkpt lat="46.5576" lon="5.83772">
        <ele>858</ele>
        <time>2022-08-27T13:22:01Z</time>
      </trkpt>
      <trkpt lat="46.55795" lon="5.83728">
        <ele>857.6</ele>
        <time>2022-08-27T13:22:05Z</time>
      </trkpt>
      <trkpt lat="46.55819" lon="5.83701">
        <ele>855.8</ele>
        <time>2022-08-27T13:22:08Z</time>
      </trkpt>
      <trkpt lat="46.55828" lon="5.83693">
        <ele>855.4</ele>
        <time>2022-08-27T13:22:09Z</time>
      </trkpt>
      <trkpt lat="46.55838" lon="5.83687">
        <ele>854.2</ele>
        <time>2022-08-27T13:22:10Z</time>
      </trkpt>
      <trkpt lat="46.55847" lon="5.83682">
        <ele>853.8</ele>
        <time>2022-08-27T13:22:11Z</time>
      </trkpt>
      <trkpt lat="46.55858" lon="5.83678">
        <ele>853.2</ele>
        <time>2022-08-27T13:22:12Z</time>
      </trkpt>
      <trkpt lat="46.55868" lon="5.83678">
        <ele>853</ele>
        <time>2022-08-27T13:22:13Z</time>
      </trkpt>
      <trkpt lat="46.55902" lon="5.83683">
        <ele>852</ele>
        <time>2022-08-27T13:22:16Z</time>
      </trkpt>
      <trkpt lat="46.55945" lon="5.83686">
        <ele>851</ele>
        <time>2022-08-27T13:22:20Z</time>
      </trkpt>
      <trkpt lat="46.55956" lon="5.83686">
        <ele>850.6</ele>
        <time>2022-08-27T13:22:21Z</time>
      </trkpt>
      <trkpt lat="46.55967" lon="5.83685">
        <ele>849.4</ele>
        <time>2022-08-27T13:22:22Z</time>
      </trkpt>
      <trkpt lat="46.55988" lon="5.83684">
        <ele>848.2</ele>
        <time>2022-08-27T13:22:24Z</time>
      </trkpt>
      <trkpt lat="46.55998" lon="5.83682">
        <ele>848</ele>
        <time>2022-08-27T13:22:25Z</time>
      </trkpt>
      <trkpt lat="46.5603" lon="5.83664">
        <ele>847.4</ele>
        <time>2022-08-27T13:22:28Z</time>
      </trkpt>
      <trkpt lat="46.56037" lon="5.83658">
        <ele>847</ele>
        <time>2022-08-27T13:22:29Z</time>
      </trkpt>
      <trkpt lat="46.56072" lon="5.83625">
        <ele>845.6</ele>
        <time>2022-08-27T13:22:33Z</time>
      </trkpt>
      <trkpt lat="46.56081" lon="5.83621">
        <ele>845.2</ele>
        <time>2022-08-27T13:22:34Z</time>
      </trkpt>
      <trkpt lat="46.56091" lon="5.83618">
        <ele>844.6</ele>
        <time>2022-08-27T13:22:35Z</time>
      </trkpt>
      <trkpt lat="46.561" lon="5.83617">
        <ele>844.4</ele>
        <time>2022-08-27T13:22:36Z</time>
      </trkpt>
      <trkpt lat="46.56119" lon="5.83623">
        <ele>843.6</ele>
        <time>2022-08-27T13:22:38Z</time>
      </trkpt>
      <trkpt lat="46.5614" lon="5.83631">
        <ele>843.2</ele>
        <time>2022-08-27T13:22:40Z</time>
      </trkpt>
      <trkpt lat="46.56183" lon="5.83652">
        <ele>842</ele>
        <time>2022-08-27T13:22:44Z</time>
      </trkpt>
      <trkpt lat="46.56205" lon="5.83659">
        <ele>841.4</ele>
        <time>2022-08-27T13:22:46Z</time>
      </trkpt>
      <trkpt lat="46.56216" lon="5.8366">
        <ele>840.4</ele>
        <time>2022-08-27T13:22:47Z</time>
      </trkpt>
      <trkpt lat="46.56226" lon="5.8366">
        <ele>840</ele>
        <time>2022-08-27T13:22:48Z</time>
      </trkpt>
      <trkpt lat="46.56258" lon="5.8365">
        <ele>838.6</ele>
        <time>2022-08-27T13:22:51Z</time>
      </trkpt>
      <trkpt lat="46.56268" lon="5.83646">
        <ele>837.8</ele>
        <time>2022-08-27T13:22:52Z</time>
      </trkpt>
      <trkpt lat="46.56278" lon="5.83641">
        <ele>837.6</ele>
        <time>2022-08-27T13:22:53Z</time>
      </trkpt>
      <trkpt lat="46.56297" lon="5.83632">
        <ele>836.4</ele>
        <time>2022-08-27T13:22:55Z</time>
      </trkpt>
      <trkpt lat="46.56337" lon="5.83613">
        <ele>835.4</ele>
        <time>2022-08-27T13:22:59Z</time>
      </trkpt>
      <trkpt lat="46.56367" lon="5.83596">
        <ele>834.4</ele>
        <time>2022-08-27T13:23:02Z</time>
      </trkpt>
      <trkpt lat="46.56407" lon="5.8357">
        <ele>832.8</ele>
        <time>2022-08-27T13:23:06Z</time>
      </trkpt>
      <trkpt lat="46.56457" lon="5.83535">
        <ele>831.8</ele>
        <time>2022-08-27T13:23:11Z</time>
      </trkpt>
      <trkpt lat="46.56486" lon="5.83511">
        <ele>830.8</ele>
        <time>2022-08-27T13:23:14Z</time>
      </trkpt>
      <trkpt lat="46.56495" lon="5.83502">
        <ele>830.6</ele>
        <time>2022-08-27T13:23:15Z</time>
      </trkpt>
      <trkpt lat="46.56512" lon="5.83483">
        <ele>829.2</ele>
        <time>2022-08-27T13:23:17Z</time>
      </trkpt>
      <trkpt lat="46.56529" lon="5.83464">
        <ele>828</ele>
        <time>2022-08-27T13:23:19Z</time>
      </trkpt>
      <trkpt lat="46.56537" lon="5.83454">
        <ele>827.4</ele>
        <time>2022-08-27T13:23:20Z</time>
      </trkpt>
      <trkpt lat="46.56546" lon="5.83444">
        <ele>826.6</ele>
        <time>2022-08-27T13:23:21Z</time>
      </trkpt>
      <trkpt lat="46.56574" lon="5.83417">
        <ele>825</ele>
        <time>2022-08-27T13:23:24Z</time>
      </trkpt>
      <trkpt lat="46.56604" lon="5.83393">
        <ele>823.8</ele>
        <time>2022-08-27T13:23:27Z</time>
      </trkpt>
      <trkpt lat="46.56624" lon="5.83376">
        <ele>822.2</ele>
        <time>2022-08-27T13:23:29Z</time>
      </trkpt>
      <trkpt lat="46.56643" lon="5.83359">
        <ele>821.4</ele>
        <time>2022-08-27T13:23:31Z</time>
      </trkpt>
      <trkpt lat="46.56653" lon="5.83351">
        <ele>821.2</ele>
        <time>2022-08-27T13:23:32Z</time>
      </trkpt>
      <trkpt lat="46.56691" lon="5.83321">
        <ele>820.2</ele>
        <time>2022-08-27T13:23:36Z</time>
      </trkpt>
      <trkpt lat="46.56701" lon="5.83314">
        <ele>820</ele>
        <time>2022-08-27T13:23:37Z</time>
      </trkpt>
      <trkpt lat="46.56729" lon="5.83295">
        <ele>819.2</ele>
        <time>2022-08-27T13:23:40Z</time>
      </trkpt>
      <trkpt lat="46.5677" lon="5.83278">
        <ele>818.4</ele>
        <time>2022-08-27T13:23:44Z</time>
      </trkpt>
      <trkpt lat="46.5678" lon="5.83275">
        <ele>817.8</ele>
        <time>2022-08-27T13:23:45Z</time>
      </trkpt>
      <trkpt lat="46.56821" lon="5.83267">
        <ele>816.6</ele>
        <time>2022-08-27T13:23:49Z</time>
      </trkpt>
      <trkpt lat="46.56851" lon="5.83262">
        <ele>816</ele>
        <time>2022-08-27T13:23:52Z</time>
      </trkpt>
      <trkpt lat="46.56881" lon="5.83256">
        <ele>815.4</ele>
        <time>2022-08-27T13:23:55Z</time>
      </trkpt>
      <trkpt lat="46.56891" lon="5.83253">
        <ele>815</ele>
        <time>2022-08-27T13:23:56Z</time>
      </trkpt>
      <trkpt lat="46.56902" lon="5.83247">
        <ele>814.4</ele>
        <time>2022-08-27T13:23:57Z</time>
      </trkpt>
      <trkpt lat="46.56922" lon="5.83235">
        <ele>813.2</ele>
        <time>2022-08-27T13:23:59Z</time>
      </trkpt>
      <trkpt lat="46.56948" lon="5.83222">
        <ele>812</ele>
        <time>2022-08-27T13:24:02Z</time>
      </trkpt>
      <trkpt lat="46.56957" lon="5.83218">
        <ele>811.6</ele>
        <time>2022-08-27T13:24:03Z</time>
      </trkpt>
      <trkpt lat="46.56966" lon="5.83214">
        <ele>810.8</ele>
        <time>2022-08-27T13:24:04Z</time>
      </trkpt>
      <trkpt lat="46.56975" lon="5.83209">
        <ele>810.4</ele>
        <time>2022-08-27T13:24:05Z</time>
      </trkpt>
      <trkpt lat="46.56983" lon="5.83202">
        <ele>809.6</ele>
        <time>2022-08-27T13:24:06Z</time>
      </trkpt>
      <trkpt lat="46.56991" lon="5.83194">
        <ele>809.2</ele>
        <time>2022-08-27T13:24:07Z</time>
      </trkpt>
      <trkpt lat="46.56998" lon="5.83185">
        <ele>808.4</ele>
        <time>2022-08-27T13:24:08Z</time>
      </trkpt>
      <trkpt lat="46.57012" lon="5.83165">
        <ele>807.2</ele>
        <time>2022-08-27T13:24:10Z</time>
      </trkpt>
      <trkpt lat="46.57026" lon="5.83143">
        <ele>805.8</ele>
        <time>2022-08-27T13:24:12Z</time>
      </trkpt>
      <trkpt lat="46.57039" lon="5.83122">
        <ele>804.4</ele>
        <time>2022-08-27T13:24:14Z</time>
      </trkpt>
      <trkpt lat="46.57047" lon="5.83113">
        <ele>802.8</ele>
        <time>2022-08-27T13:24:15Z</time>
      </trkpt>
      <trkpt lat="46.57056" lon="5.83105">
        <ele>802.4</ele>
        <time>2022-08-27T13:24:16Z</time>
      </trkpt>
      <trkpt lat="46.57064" lon="5.831">
        <ele>801.8</ele>
        <time>2022-08-27T13:24:17Z</time>
      </trkpt>
      <trkpt lat="46.57078" lon="5.83093">
        <ele>800.4</ele>
        <time>2022-08-27T13:24:19Z</time>
      </trkpt>
      <trkpt lat="46.57087" lon="5.8309">
        <ele>799.8</ele>
        <time>2022-08-27T13:24:20Z</time>
      </trkpt>
      <trkpt lat="46.57107" lon="5.83088">
        <ele>798.8</ele>
        <time>2022-08-27T13:24:22Z</time>
      </trkpt>
      <trkpt lat="46.57116" lon="5.83085">
        <ele>798.6</ele>
        <time>2022-08-27T13:24:23Z</time>
      </trkpt>
      <trkpt lat="46.57144" lon="5.83072">
        <ele>797.8</ele>
        <time>2022-08-27T13:24:26Z</time>
      </trkpt>
      <trkpt lat="46.57158" lon="5.8306">
        <ele>797.6</ele>
        <time>2022-08-27T13:24:28Z</time>
      </trkpt>
      <trkpt lat="46.57166" lon="5.83053">
        <ele>797.4</ele>
        <time>2022-08-27T13:24:29Z</time>
      </trkpt>
      <trkpt lat="46.5718" lon="5.83035">
        <ele>796.8</ele>
        <time>2022-08-27T13:24:31Z</time>
      </trkpt>
      <trkpt lat="46.57186" lon="5.83025">
        <ele>796.6</ele>
        <time>2022-08-27T13:24:32Z</time>
      </trkpt>
      <trkpt lat="46.57197" lon="5.83">
        <ele>795.2</ele>
        <time>2022-08-27T13:24:34Z</time>
      </trkpt>
      <trkpt lat="46.572" lon="5.82985">
        <ele>794.8</ele>
        <time>2022-08-27T13:24:35Z</time>
      </trkpt>
      <trkpt lat="46.57202" lon="5.82969">
        <ele>793.4</ele>
        <time>2022-08-27T13:24:36Z</time>
      </trkpt>
      <trkpt lat="46.57204" lon="5.82937">
        <ele>792.2</ele>
        <time>2022-08-27T13:24:38Z</time>
      </trkpt>
      <trkpt lat="46.57205" lon="5.82917">
        <ele>792.2</ele>
        <time>2022-08-27T13:24:39Z</time>
      </trkpt>
      <trkpt lat="46.57204" lon="5.82882">
        <ele>790.6</ele>
        <time>2022-08-27T13:24:41Z</time>
      </trkpt>
      <trkpt lat="46.57202" lon="5.82869">
        <ele>790</ele>
        <time>2022-08-27T13:24:42Z</time>
      </trkpt>
      <trkpt lat="46.572" lon="5.82854">
        <ele>789</ele>
        <time>2022-08-27T13:24:43Z</time>
      </trkpt>
      <trkpt lat="46.57198" lon="5.82841">
        <ele>787.6</ele>
        <time>2022-08-27T13:24:44Z</time>
      </trkpt>
      <trkpt lat="46.57198" lon="5.82827">
        <ele>786</ele>
        <time>2022-08-27T13:24:45Z</time>
      </trkpt>
      <trkpt lat="46.57199" lon="5.82811">
        <ele>785.6</ele>
        <time>2022-08-27T13:24:46Z</time>
      </trkpt>
      <trkpt lat="46.57201" lon="5.82801">
        <ele>784.8</ele>
        <time>2022-08-27T13:24:47Z</time>
      </trkpt>
      <trkpt lat="46.5721" lon="5.82777">
        <ele>783.6</ele>
        <time>2022-08-27T13:24:49Z</time>
      </trkpt>
      <trkpt lat="46.57215" lon="5.82761">
        <ele>783</ele>
        <time>2022-08-27T13:24:50Z</time>
      </trkpt>
      <trkpt lat="46.57219" lon="5.82733">
        <ele>781.6</ele>
        <time>2022-08-27T13:24:52Z</time>
      </trkpt>
      <trkpt lat="46.57214" lon="5.82705">
        <ele>779.8</ele>
        <time>2022-08-27T13:24:54Z</time>
      </trkpt>
      <trkpt lat="46.57211" lon="5.82689">
        <ele>779</ele>
        <time>2022-08-27T13:24:55Z</time>
      </trkpt>
      <trkpt lat="46.57208" lon="5.82671">
        <ele>778.8</ele>
        <time>2022-08-27T13:24:56Z</time>
      </trkpt>
      <trkpt lat="46.57199" lon="5.82618">
        <ele>777.2</ele>
        <time>2022-08-27T13:24:59Z</time>
      </trkpt>
      <trkpt lat="46.57198" lon="5.826">
        <ele>777</ele>
        <time>2022-08-27T13:25:00Z</time>
      </trkpt>
      <trkpt lat="46.57199" lon="5.82582">
        <ele>775.4</ele>
        <time>2022-08-27T13:25:01Z</time>
      </trkpt>
      <trkpt lat="46.57203" lon="5.82544">
        <ele>774.2</ele>
        <time>2022-08-27T13:25:03Z</time>
      </trkpt>
      <trkpt lat="46.57204" lon="5.82526">
        <ele>773.2</ele>
        <time>2022-08-27T13:25:04Z</time>
      </trkpt>
      <trkpt lat="46.57205" lon="5.82507">
        <ele>773</ele>
        <time>2022-08-27T13:25:05Z</time>
      </trkpt>
      <trkpt lat="46.57204" lon="5.82488">
        <ele>772</ele>
        <time>2022-08-27T13:25:06Z</time>
      </trkpt>
      <trkpt lat="46.57202" lon="5.82469">
        <ele>771</ele>
        <time>2022-08-27T13:25:07Z</time>
      </trkpt>
      <trkpt lat="46.572" lon="5.8245">
        <ele>769.8</ele>
        <time>2022-08-27T13:25:08Z</time>
      </trkpt>
      <trkpt lat="46.57194" lon="5.82397">
        <ele>768.4</ele>
        <time>2022-08-27T13:25:11Z</time>
      </trkpt>
      <trkpt lat="46.5719" lon="5.82363">
        <ele>767.2</ele>
        <time>2022-08-27T13:25:13Z</time>
      </trkpt>
      <trkpt lat="46.57188" lon="5.82346">
        <ele>766.8</ele>
        <time>2022-08-27T13:25:14Z</time>
      </trkpt>
      <trkpt lat="46.57186" lon="5.82329">
        <ele>766</ele>
        <time>2022-08-27T13:25:15Z</time>
      </trkpt>
      <trkpt lat="46.57184" lon="5.82313">
        <ele>765.8</ele>
        <time>2022-08-27T13:25:16Z</time>
      </trkpt>
      <trkpt lat="46.5718" lon="5.8228">
        <ele>764.8</ele>
        <time>2022-08-27T13:25:18Z</time>
      </trkpt>
      <trkpt lat="46.57172" lon="5.82217">
        <ele>763.4</ele>
        <time>2022-08-27T13:25:22Z</time>
      </trkpt>
      <trkpt lat="46.57161" lon="5.82129">
        <ele>762.8</ele>
        <time>2022-08-27T13:25:28Z</time>
      </trkpt>
      <trkpt lat="46.57159" lon="5.82115">
        <ele>762.6</ele>
        <time>2022-08-27T13:25:29Z</time>
      </trkpt>
      <trkpt lat="46.57156" lon="5.82088">
        <ele>762.4</ele>
        <time>2022-08-27T13:25:31Z</time>
      </trkpt>
      <trkpt lat="46.57151" lon="5.82049">
        <ele>762</ele>
        <time>2022-08-27T13:25:34Z</time>
      </trkpt>
      <trkpt lat="46.57144" lon="5.81979">
        <ele>762</ele>
        <time>2022-08-27T13:25:40Z</time>
      </trkpt>
      <trkpt lat="46.57142" lon="5.81902">
        <ele>762.2</ele>
        <time>2022-08-27T13:25:47Z</time>
      </trkpt>
      <trkpt lat="46.57142" lon="5.81819">
        <ele>762</ele>
        <time>2022-08-27T13:25:54Z</time>
      </trkpt>
      <trkpt lat="46.57141" lon="5.81807">
        <ele>762</ele>
        <time>2022-08-27T13:25:55Z</time>
      </trkpt>
      <trkpt lat="46.57135" lon="5.81761">
        <ele>762.2</ele>
        <time>2022-08-27T13:25:59Z</time>
      </trkpt>
      <trkpt lat="46.57112" lon="5.81679">
        <ele>761.6</ele>
        <time>2022-08-27T13:26:07Z</time>
      </trkpt>
      <trkpt lat="46.57088" lon="5.81623">
        <ele>760.8</ele>
        <time>2022-08-27T13:26:13Z</time>
      </trkpt>
      <trkpt lat="46.57074" lon="5.81595">
        <ele>760.4</ele>
        <time>2022-08-27T13:26:16Z</time>
      </trkpt>
      <trkpt lat="46.5707" lon="5.81585">
        <ele>760.2</ele>
        <time>2022-08-27T13:26:17Z</time>
      </trkpt>
      <trkpt lat="46.57059" lon="5.81564">
        <ele>759.4</ele>
        <time>2022-08-27T13:26:19Z</time>
      </trkpt>
      <trkpt lat="46.5705" lon="5.81546">
        <ele>758.4</ele>
        <time>2022-08-27T13:26:21Z</time>
      </trkpt>
      <trkpt lat="46.57045" lon="5.81536">
        <ele>758.2</ele>
        <time>2022-08-27T13:26:22Z</time>
      </trkpt>
      <trkpt lat="46.57024" lon="5.81493">
        <ele>757.4</ele>
        <time>2022-08-27T13:26:26Z</time>
      </trkpt>
      <trkpt lat="46.57018" lon="5.81481">
        <ele>757</ele>
        <time>2022-08-27T13:26:27Z</time>
      </trkpt>
      <trkpt lat="46.57012" lon="5.8147">
        <ele>756</ele>
        <time>2022-08-27T13:26:28Z</time>
      </trkpt>
      <trkpt lat="46.56992" lon="5.81435">
        <ele>754.8</ele>
        <time>2022-08-27T13:26:31Z</time>
      </trkpt>
      <trkpt lat="46.56984" lon="5.81423">
        <ele>754.2</ele>
        <time>2022-08-27T13:26:32Z</time>
      </trkpt>
      <trkpt lat="46.56968" lon="5.814">
        <ele>753.2</ele>
        <time>2022-08-27T13:26:34Z</time>
      </trkpt>
      <trkpt lat="46.56961" lon="5.81387">
        <ele>752.8</ele>
        <time>2022-08-27T13:26:35Z</time>
      </trkpt>
      <trkpt lat="46.56956" lon="5.81372">
        <ele>751.6</ele>
        <time>2022-08-27T13:26:36Z</time>
      </trkpt>
      <trkpt lat="46.56952" lon="5.81356">
        <ele>751</ele>
        <time>2022-08-27T13:26:37Z</time>
      </trkpt>
      <trkpt lat="46.56947" lon="5.81321">
        <ele>749.8</ele>
        <time>2022-08-27T13:26:39Z</time>
      </trkpt>
      <trkpt lat="46.56947" lon="5.81285">
        <ele>747.4</ele>
        <time>2022-08-27T13:26:41Z</time>
      </trkpt>
      <trkpt lat="46.5695" lon="5.81248">
        <ele>744.8</ele>
        <time>2022-08-27T13:26:43Z</time>
      </trkpt>
      <trkpt lat="46.56952" lon="5.8123">
        <ele>743.4</ele>
        <time>2022-08-27T13:26:44Z</time>
      </trkpt>
      <trkpt lat="46.56955" lon="5.81212">
        <ele>743</ele>
        <time>2022-08-27T13:26:45Z</time>
      </trkpt>
      <trkpt lat="46.5696" lon="5.81193">
        <ele>742</ele>
        <time>2022-08-27T13:26:46Z</time>
      </trkpt>
      <trkpt lat="46.56974" lon="5.81161">
        <ele>740.2</ele>
        <time>2022-08-27T13:26:48Z</time>
      </trkpt>
      <trkpt lat="46.56983" lon="5.81147">
        <ele>739.6</ele>
        <time>2022-08-27T13:26:49Z</time>
      </trkpt>
      <trkpt lat="46.56992" lon="5.81133">
        <ele>738</ele>
        <time>2022-08-27T13:26:50Z</time>
      </trkpt>
      <trkpt lat="46.57002" lon="5.81119">
        <ele>737</ele>
        <time>2022-08-27T13:26:51Z</time>
      </trkpt>
      <trkpt lat="46.57021" lon="5.81091">
        <ele>735.4</ele>
        <time>2022-08-27T13:26:53Z</time>
      </trkpt>
      <trkpt lat="46.5704" lon="5.81063">
        <ele>732.4</ele>
        <time>2022-08-27T13:26:55Z</time>
      </trkpt>
      <trkpt lat="46.57059" lon="5.81034">
        <ele>729.6</ele>
        <time>2022-08-27T13:26:57Z</time>
      </trkpt>
      <trkpt lat="46.57067" lon="5.81019">
        <ele>728.4</ele>
        <time>2022-08-27T13:26:58Z</time>
      </trkpt>
      <trkpt lat="46.57083" lon="5.80988">
        <ele>727.2</ele>
        <time>2022-08-27T13:27:00Z</time>
      </trkpt>
      <trkpt lat="46.57091" lon="5.80972">
        <ele>726</ele>
        <time>2022-08-27T13:27:01Z</time>
      </trkpt>
      <trkpt lat="46.57099" lon="5.80957">
        <ele>724.6</ele>
        <time>2022-08-27T13:27:02Z</time>
      </trkpt>
      <trkpt lat="46.57118" lon="5.80931">
        <ele>723.4</ele>
        <time>2022-08-27T13:27:04Z</time>
      </trkpt>
      <trkpt lat="46.57138" lon="5.80908">
        <ele>722</ele>
        <time>2022-08-27T13:27:06Z</time>
      </trkpt>
      <trkpt lat="46.57147" lon="5.80896">
        <ele>720.8</ele>
        <time>2022-08-27T13:27:07Z</time>
      </trkpt>
      <trkpt lat="46.57156" lon="5.80884">
        <ele>720.4</ele>
        <time>2022-08-27T13:27:08Z</time>
      </trkpt>
      <trkpt lat="46.57165" lon="5.80871">
        <ele>719.8</ele>
        <time>2022-08-27T13:27:09Z</time>
      </trkpt>
      <trkpt lat="46.5718" lon="5.80842">
        <ele>719</ele>
        <time>2022-08-27T13:27:11Z</time>
      </trkpt>
      <trkpt lat="46.57188" lon="5.80827">
        <ele>718.4</ele>
        <time>2022-08-27T13:27:12Z</time>
      </trkpt>
      <trkpt lat="46.57202" lon="5.80797">
        <ele>717.4</ele>
        <time>2022-08-27T13:27:14Z</time>
      </trkpt>
      <trkpt lat="46.57215" lon="5.80769">
        <ele>715.6</ele>
        <time>2022-08-27T13:27:16Z</time>
      </trkpt>
      <trkpt lat="46.57229" lon="5.8074">
        <ele>714.6</ele>
        <time>2022-08-27T13:27:18Z</time>
      </trkpt>
      <trkpt lat="46.57237" lon="5.80726">
        <ele>713.6</ele>
        <time>2022-08-27T13:27:19Z</time>
      </trkpt>
      <trkpt lat="46.57251" lon="5.80697">
        <ele>712.4</ele>
        <time>2022-08-27T13:27:21Z</time>
      </trkpt>
      <trkpt lat="46.57269" lon="5.80669">
        <ele>711.2</ele>
        <time>2022-08-27T13:27:23Z</time>
      </trkpt>
      <trkpt lat="46.57278" lon="5.80656">
        <ele>710.6</ele>
        <time>2022-08-27T13:27:24Z</time>
      </trkpt>
      <trkpt lat="46.57287" lon="5.80645">
        <ele>709.8</ele>
        <time>2022-08-27T13:27:25Z</time>
      </trkpt>
      <trkpt lat="46.57306" lon="5.80623">
        <ele>708.8</ele>
        <time>2022-08-27T13:27:27Z</time>
      </trkpt>
      <trkpt lat="46.57325" lon="5.806">
        <ele>707.4</ele>
        <time>2022-08-27T13:27:29Z</time>
      </trkpt>
      <trkpt lat="46.57334" lon="5.80589">
        <ele>706.4</ele>
        <time>2022-08-27T13:27:30Z</time>
      </trkpt>
      <trkpt lat="46.57342" lon="5.80576">
        <ele>706</ele>
        <time>2022-08-27T13:27:31Z</time>
      </trkpt>
      <trkpt lat="46.57349" lon="5.80562">
        <ele>705.4</ele>
        <time>2022-08-27T13:27:32Z</time>
      </trkpt>
      <trkpt lat="46.57353" lon="5.80546">
        <ele>704.8</ele>
        <time>2022-08-27T13:27:33Z</time>
      </trkpt>
      <trkpt lat="46.57356" lon="5.8053">
        <ele>704.8</ele>
        <time>2022-08-27T13:27:34Z</time>
      </trkpt>
      <trkpt lat="46.57358" lon="5.80513">
        <ele>703.8</ele>
        <time>2022-08-27T13:27:35Z</time>
      </trkpt>
      <trkpt lat="46.5736" lon="5.80496">
        <ele>703.6</ele>
        <time>2022-08-27T13:27:36Z</time>
      </trkpt>
      <trkpt lat="46.57362" lon="5.80478">
        <ele>703</ele>
        <time>2022-08-27T13:27:37Z</time>
      </trkpt>
      <trkpt lat="46.57367" lon="5.80427">
        <ele>701.6</ele>
        <time>2022-08-27T13:27:40Z</time>
      </trkpt>
      <trkpt lat="46.57371" lon="5.80394">
        <ele>700.4</ele>
        <time>2022-08-27T13:27:42Z</time>
      </trkpt>
      <trkpt lat="46.57375" lon="5.8036">
        <ele>699.4</ele>
        <time>2022-08-27T13:27:44Z</time>
      </trkpt>
      <trkpt lat="46.57379" lon="5.80325">
        <ele>697.4</ele>
        <time>2022-08-27T13:27:46Z</time>
      </trkpt>
      <trkpt lat="46.57381" lon="5.80309">
        <ele>696.4</ele>
        <time>2022-08-27T13:27:47Z</time>
      </trkpt>
      <trkpt lat="46.57385" lon="5.80277">
        <ele>695.2</ele>
        <time>2022-08-27T13:27:49Z</time>
      </trkpt>
      <trkpt lat="46.57388" lon="5.80249">
        <ele>693.4</ele>
        <time>2022-08-27T13:27:51Z</time>
      </trkpt>
      <trkpt lat="46.57391" lon="5.80234">
        <ele>693.2</ele>
        <time>2022-08-27T13:27:52Z</time>
      </trkpt>
      <trkpt lat="46.57399" lon="5.80213">
        <ele>692.2</ele>
        <time>2022-08-27T13:27:54Z</time>
      </trkpt>
      <trkpt lat="46.57411" lon="5.8019">
        <ele>691.2</ele>
        <time>2022-08-27T13:27:56Z</time>
      </trkpt>
      <trkpt lat="46.57424" lon="5.80171">
        <ele>690.2</ele>
        <time>2022-08-27T13:27:58Z</time>
      </trkpt>
      <trkpt lat="46.5744" lon="5.80158">
        <ele>689.6</ele>
        <time>2022-08-27T13:28:00Z</time>
      </trkpt>
      <trkpt lat="46.57447" lon="5.80151">
        <ele>689.4</ele>
        <time>2022-08-27T13:28:01Z</time>
      </trkpt>
      <trkpt lat="46.57455" lon="5.80144">
        <ele>689.4</ele>
        <time>2022-08-27T13:28:02Z</time>
      </trkpt>
      <trkpt lat="46.57472" lon="5.80133">
        <ele>689.2</ele>
        <time>2022-08-27T13:28:04Z</time>
      </trkpt>
      <trkpt lat="46.57481" lon="5.8013">
        <ele>689.2</ele>
        <time>2022-08-27T13:28:05Z</time>
      </trkpt>
      <trkpt lat="46.57509" lon="5.80123">
        <ele>688.6</ele>
        <time>2022-08-27T13:28:08Z</time>
      </trkpt>
      <trkpt lat="46.57526" lon="5.8011">
        <ele>688</ele>
        <time>2022-08-27T13:28:10Z</time>
      </trkpt>
      <trkpt lat="46.57546" lon="5.80073">
        <ele>687</ele>
        <time>2022-08-27T13:28:13Z</time>
      </trkpt>
      <trkpt lat="46.57564" lon="5.80048">
        <ele>686.4</ele>
        <time>2022-08-27T13:28:15Z</time>
      </trkpt>
      <trkpt lat="46.57571" lon="5.8004">
        <ele>685.8</ele>
        <time>2022-08-27T13:28:16Z</time>
      </trkpt>
      <trkpt lat="46.57581" lon="5.80027">
        <ele>685.4</ele>
        <time>2022-08-27T13:28:17Z</time>
      </trkpt>
      <trkpt lat="46.57598" lon="5.80005">
        <ele>684.4</ele>
        <time>2022-08-27T13:28:19Z</time>
      </trkpt>
      <trkpt lat="46.57612" lon="5.79984">
        <ele>683</ele>
        <time>2022-08-27T13:28:21Z</time>
      </trkpt>
      <trkpt lat="46.57626" lon="5.79961">
        <ele>680.8</ele>
        <time>2022-08-27T13:28:23Z</time>
      </trkpt>
      <trkpt lat="46.57633" lon="5.79949">
        <ele>679.2</ele>
        <time>2022-08-27T13:28:24Z</time>
      </trkpt>
      <trkpt lat="46.57648" lon="5.79924">
        <ele>678.2</ele>
        <time>2022-08-27T13:28:26Z</time>
      </trkpt>
      <trkpt lat="46.5766" lon="5.79897">
        <ele>676.2</ele>
        <time>2022-08-27T13:28:28Z</time>
      </trkpt>
      <trkpt lat="46.57663" lon="5.79884">
        <ele>675.8</ele>
        <time>2022-08-27T13:28:29Z</time>
      </trkpt>
      <trkpt lat="46.57664" lon="5.79869">
        <ele>674.8</ele>
        <time>2022-08-27T13:28:30Z</time>
      </trkpt>
      <trkpt lat="46.57663" lon="5.79854">
        <ele>674</ele>
        <time>2022-08-27T13:28:31Z</time>
      </trkpt>
      <trkpt lat="46.57661" lon="5.79837">
        <ele>673.4</ele>
        <time>2022-08-27T13:28:32Z</time>
      </trkpt>
      <trkpt lat="46.57659" lon="5.79818">
        <ele>671.8</ele>
        <time>2022-08-27T13:28:33Z</time>
      </trkpt>
      <trkpt lat="46.57657" lon="5.79798">
        <ele>671.4</ele>
        <time>2022-08-27T13:28:34Z</time>
      </trkpt>
      <trkpt lat="46.57658" lon="5.79778">
        <ele>670.2</ele>
        <time>2022-08-27T13:28:35Z</time>
      </trkpt>
      <trkpt lat="46.5766" lon="5.79733">
        <ele>668.2</ele>
        <time>2022-08-27T13:28:37Z</time>
      </trkpt>
      <trkpt lat="46.57656" lon="5.79713">
        <ele>666.6</ele>
        <time>2022-08-27T13:28:38Z</time>
      </trkpt>
      <trkpt lat="46.57649" lon="5.79694">
        <ele>666</ele>
        <time>2022-08-27T13:28:39Z</time>
      </trkpt>
      <trkpt lat="46.57642" lon="5.79678">
        <ele>664.6</ele>
        <time>2022-08-27T13:28:40Z</time>
      </trkpt>
      <trkpt lat="46.57636" lon="5.79661">
        <ele>663.4</ele>
        <time>2022-08-27T13:28:41Z</time>
      </trkpt>
      <trkpt lat="46.5763" lon="5.79643">
        <ele>662</ele>
        <time>2022-08-27T13:28:42Z</time>
      </trkpt>
      <trkpt lat="46.57626" lon="5.79623">
        <ele>661.6</ele>
        <time>2022-08-27T13:28:43Z</time>
      </trkpt>
      <trkpt lat="46.57626" lon="5.79607">
        <ele>660.6</ele>
        <time>2022-08-27T13:28:44Z</time>
      </trkpt>
      <trkpt lat="46.57632" lon="5.79591">
        <ele>659.8</ele>
        <time>2022-08-27T13:28:45Z</time>
      </trkpt>
      <trkpt lat="46.57638" lon="5.79572">
        <ele>659.4</ele>
        <time>2022-08-27T13:28:46Z</time>
      </trkpt>
      <trkpt lat="46.57645" lon="5.79555">
        <ele>658.6</ele>
        <time>2022-08-27T13:28:47Z</time>
      </trkpt>
      <trkpt lat="46.57653" lon="5.7954">
        <ele>658</ele>
        <time>2022-08-27T13:28:48Z</time>
      </trkpt>
      <trkpt lat="46.57661" lon="5.79526">
        <ele>656.4</ele>
        <time>2022-08-27T13:28:49Z</time>
      </trkpt>
      <trkpt lat="46.57667" lon="5.79508">
        <ele>655.4</ele>
        <time>2022-08-27T13:28:50Z</time>
      </trkpt>
      <trkpt lat="46.57671" lon="5.79489">
        <ele>654.4</ele>
        <time>2022-08-27T13:28:51Z</time>
      </trkpt>
      <trkpt lat="46.57672" lon="5.79463">
        <ele>653.4</ele>
        <time>2022-08-27T13:28:52Z</time>
      </trkpt>
      <trkpt lat="46.57673" lon="5.79439">
        <ele>653</ele>
        <time>2022-08-27T13:28:53Z</time>
      </trkpt>
      <trkpt lat="46.57672" lon="5.7942">
        <ele>651.4</ele>
        <time>2022-08-27T13:28:54Z</time>
      </trkpt>
      <trkpt lat="46.57672" lon="5.79401">
        <ele>650.6</ele>
        <time>2022-08-27T13:28:55Z</time>
      </trkpt>
      <trkpt lat="46.57674" lon="5.79383">
        <ele>649.2</ele>
        <time>2022-08-27T13:28:56Z</time>
      </trkpt>
      <trkpt lat="46.57676" lon="5.79364">
        <ele>648.6</ele>
        <time>2022-08-27T13:28:57Z</time>
      </trkpt>
      <trkpt lat="46.57678" lon="5.79342">
        <ele>647.4</ele>
        <time>2022-08-27T13:28:58Z</time>
      </trkpt>
      <trkpt lat="46.57684" lon="5.79324">
        <ele>646</ele>
        <time>2022-08-27T13:28:59Z</time>
      </trkpt>
      <trkpt lat="46.57688" lon="5.79306">
        <ele>645.4</ele>
        <time>2022-08-27T13:29:00Z</time>
      </trkpt>
      <trkpt lat="46.57696" lon="5.79289">
        <ele>643.2</ele>
        <time>2022-08-27T13:29:01Z</time>
      </trkpt>
      <trkpt lat="46.57712" lon="5.79256">
        <ele>641.4</ele>
        <time>2022-08-27T13:29:03Z</time>
      </trkpt>
      <trkpt lat="46.57721" lon="5.79239">
        <ele>640.6</ele>
        <time>2022-08-27T13:29:04Z</time>
      </trkpt>
      <trkpt lat="46.57728" lon="5.79221">
        <ele>639</ele>
        <time>2022-08-27T13:29:05Z</time>
      </trkpt>
      <trkpt lat="46.57735" lon="5.79202">
        <ele>638</ele>
        <time>2022-08-27T13:29:06Z</time>
      </trkpt>
      <trkpt lat="46.5774" lon="5.7918">
        <ele>637.4</ele>
        <time>2022-08-27T13:29:07Z</time>
      </trkpt>
      <trkpt lat="46.57745" lon="5.79159">
        <ele>636.6</ele>
        <time>2022-08-27T13:29:08Z</time>
      </trkpt>
      <trkpt lat="46.57754" lon="5.79116">
        <ele>634.2</ele>
        <time>2022-08-27T13:29:10Z</time>
      </trkpt>
      <trkpt lat="46.57759" lon="5.79096">
        <ele>632.6</ele>
        <time>2022-08-27T13:29:11Z</time>
      </trkpt>
      <trkpt lat="46.57763" lon="5.79075">
        <ele>630.6</ele>
        <time>2022-08-27T13:29:12Z</time>
      </trkpt>
      <trkpt lat="46.57767" lon="5.79051">
        <ele>629.4</ele>
        <time>2022-08-27T13:29:13Z</time>
      </trkpt>
      <trkpt lat="46.57775" lon="5.79007">
        <ele>627.6</ele>
        <time>2022-08-27T13:29:15Z</time>
      </trkpt>
      <trkpt lat="46.57777" lon="5.78986">
        <ele>627</ele>
        <time>2022-08-27T13:29:16Z</time>
      </trkpt>
      <trkpt lat="46.5778" lon="5.78965">
        <ele>624.8</ele>
        <time>2022-08-27T13:29:17Z</time>
      </trkpt>
      <trkpt lat="46.57784" lon="5.78919">
        <ele>622.8</ele>
        <time>2022-08-27T13:29:19Z</time>
      </trkpt>
      <trkpt lat="46.57785" lon="5.78897">
        <ele>622.2</ele>
        <time>2022-08-27T13:29:20Z</time>
      </trkpt>
      <trkpt lat="46.57784" lon="5.7885">
        <ele>621.2</ele>
        <time>2022-08-27T13:29:22Z</time>
      </trkpt>
      <trkpt lat="46.57784" lon="5.78828">
        <ele>619.8</ele>
        <time>2022-08-27T13:29:23Z</time>
      </trkpt>
      <trkpt lat="46.57783" lon="5.78806">
        <ele>618.2</ele>
        <time>2022-08-27T13:29:24Z</time>
      </trkpt>
      <trkpt lat="46.5778" lon="5.78756">
        <ele>616.2</ele>
        <time>2022-08-27T13:29:26Z</time>
      </trkpt>
      <trkpt lat="46.57779" lon="5.78738">
        <ele>615.2</ele>
        <time>2022-08-27T13:29:27Z</time>
      </trkpt>
      <trkpt lat="46.57775" lon="5.78693">
        <ele>613.6</ele>
        <time>2022-08-27T13:29:29Z</time>
      </trkpt>
      <trkpt lat="46.57774" lon="5.78672">
        <ele>612.6</ele>
        <time>2022-08-27T13:29:30Z</time>
      </trkpt>
      <trkpt lat="46.57774" lon="5.78645">
        <ele>610.4</ele>
        <time>2022-08-27T13:29:31Z</time>
      </trkpt>
      <trkpt lat="46.57775" lon="5.78625">
        <ele>610</ele>
        <time>2022-08-27T13:29:32Z</time>
      </trkpt>
      <trkpt lat="46.57776" lon="5.78605">
        <ele>608.8</ele>
        <time>2022-08-27T13:29:33Z</time>
      </trkpt>
      <trkpt lat="46.57779" lon="5.78585">
        <ele>607.6</ele>
        <time>2022-08-27T13:29:34Z</time>
      </trkpt>
      <trkpt lat="46.57782" lon="5.78544">
        <ele>605.8</ele>
        <time>2022-08-27T13:29:36Z</time>
      </trkpt>
      <trkpt lat="46.57789" lon="5.78504">
        <ele>604.6</ele>
        <time>2022-08-27T13:29:38Z</time>
      </trkpt>
      <trkpt lat="46.57792" lon="5.78489">
        <ele>604.4</ele>
        <time>2022-08-27T13:29:39Z</time>
      </trkpt>
      <trkpt lat="46.57803" lon="5.78447">
        <ele>603.2</ele>
        <time>2022-08-27T13:29:41Z</time>
      </trkpt>
      <trkpt lat="46.57808" lon="5.78428">
        <ele>602</ele>
        <time>2022-08-27T13:29:42Z</time>
      </trkpt>
      <trkpt lat="46.57813" lon="5.78409">
        <ele>600</ele>
        <time>2022-08-27T13:29:43Z</time>
      </trkpt>
      <trkpt lat="46.57822" lon="5.78369">
        <ele>598.2</ele>
        <time>2022-08-27T13:29:45Z</time>
      </trkpt>
      <trkpt lat="46.57827" lon="5.7835">
        <ele>597.8</ele>
        <time>2022-08-27T13:29:46Z</time>
      </trkpt>
      <trkpt lat="46.57832" lon="5.78331">
        <ele>596.8</ele>
        <time>2022-08-27T13:29:47Z</time>
      </trkpt>
      <trkpt lat="46.57836" lon="5.78315">
        <ele>595.2</ele>
        <time>2022-08-27T13:29:48Z</time>
      </trkpt>
      <trkpt lat="46.57844" lon="5.78271">
        <ele>592.8</ele>
        <time>2022-08-27T13:29:50Z</time>
      </trkpt>
      <trkpt lat="46.57851" lon="5.78233">
        <ele>590.8</ele>
        <time>2022-08-27T13:29:52Z</time>
      </trkpt>
      <trkpt lat="46.57856" lon="5.78194">
        <ele>589.2</ele>
        <time>2022-08-27T13:29:54Z</time>
      </trkpt>
      <trkpt lat="46.57859" lon="5.78155">
        <ele>588.2</ele>
        <time>2022-08-27T13:29:56Z</time>
      </trkpt>
      <trkpt lat="46.57854" lon="5.78119">
        <ele>587</ele>
        <time>2022-08-27T13:29:58Z</time>
      </trkpt>
      <trkpt lat="46.57849" lon="5.78101">
        <ele>585.8</ele>
        <time>2022-08-27T13:29:59Z</time>
      </trkpt>
      <trkpt lat="46.57838" lon="5.78066">
        <ele>583.8</ele>
        <time>2022-08-27T13:30:01Z</time>
      </trkpt>
      <trkpt lat="46.57833" lon="5.78049">
        <ele>583</ele>
        <time>2022-08-27T13:30:02Z</time>
      </trkpt>
      <trkpt lat="46.57823" lon="5.78016">
        <ele>582</ele>
        <time>2022-08-27T13:30:04Z</time>
      </trkpt>
      <trkpt lat="46.57817" lon="5.78">
        <ele>581.8</ele>
        <time>2022-08-27T13:30:05Z</time>
      </trkpt>
      <trkpt lat="46.57808" lon="5.77968">
        <ele>580</ele>
        <time>2022-08-27T13:30:07Z</time>
      </trkpt>
      <trkpt lat="46.57803" lon="5.77952">
        <ele>578.2</ele>
        <time>2022-08-27T13:30:08Z</time>
      </trkpt>
      <trkpt lat="46.57793" lon="5.77922">
        <ele>576.8</ele>
        <time>2022-08-27T13:30:10Z</time>
      </trkpt>
      <trkpt lat="46.57779" lon="5.77877">
        <ele>575.4</ele>
        <time>2022-08-27T13:30:13Z</time>
      </trkpt>
      <trkpt lat="46.57765" lon="5.77835">
        <ele>574.2</ele>
        <time>2022-08-27T13:30:16Z</time>
      </trkpt>
      <trkpt lat="46.5776" lon="5.77821">
        <ele>574</ele>
        <time>2022-08-27T13:30:17Z</time>
      </trkpt>
      <trkpt lat="46.57754" lon="5.77811">
        <ele>573.8</ele>
        <time>2022-08-27T13:30:18Z</time>
      </trkpt>
      <trkpt lat="46.57739" lon="5.77785">
        <ele>573.4</ele>
        <time>2022-08-27T13:30:20Z</time>
      </trkpt>
      <trkpt lat="46.5772" lon="5.77761">
        <ele>572.8</ele>
        <time>2022-08-27T13:30:22Z</time>
      </trkpt>
      <trkpt lat="46.57703" lon="5.77745">
        <ele>572</ele>
        <time>2022-08-27T13:30:24Z</time>
      </trkpt>
      <trkpt lat="46.57693" lon="5.77738">
        <ele>571.6</ele>
        <time>2022-08-27T13:30:25Z</time>
      </trkpt>
      <trkpt lat="46.57647" lon="5.777">
        <ele>570.8</ele>
        <time>2022-08-27T13:30:30Z</time>
      </trkpt>
      <trkpt lat="46.57635" lon="5.77681">
        <ele>570.6</ele>
        <time>2022-08-27T13:30:32Z</time>
      </trkpt>
      <trkpt lat="46.57633" lon="5.77671">
        <ele>570.6</ele>
        <time>2022-08-27T13:30:33Z</time>
      </trkpt>
      <trkpt lat="46.57632" lon="5.7765">
        <ele>570.6</ele>
        <time>2022-08-27T13:30:35Z</time>
      </trkpt>
      <trkpt lat="46.57631" lon="5.77628">
        <ele>570.2</ele>
        <time>2022-08-27T13:30:37Z</time>
      </trkpt>
      <trkpt lat="46.5763" lon="5.77618">
        <ele>570.4</ele>
        <time>2022-08-27T13:30:38Z</time>
      </trkpt>
      <trkpt lat="46.57627" lon="5.77588">
        <ele>571.2</ele>
        <time>2022-08-27T13:30:41Z</time>
      </trkpt>
      <trkpt lat="46.57625" lon="5.77556">
        <ele>571.6</ele>
        <time>2022-08-27T13:30:44Z</time>
      </trkpt>
      <trkpt lat="46.57622" lon="5.77504">
        <ele>572.8</ele>
        <time>2022-08-27T13:30:49Z</time>
      </trkpt>
      <trkpt lat="46.57618" lon="5.77472">
        <ele>572.8</ele>
        <time>2022-08-27T13:30:52Z</time>
      </trkpt>
      <trkpt lat="46.57613" lon="5.77441">
        <ele>572.6</ele>
        <time>2022-08-27T13:30:55Z</time>
      </trkpt>
      <trkpt lat="46.57599" lon="5.77357">
        <ele>572</ele>
        <time>2022-08-27T13:31:03Z</time>
      </trkpt>
      <trkpt lat="46.57587" lon="5.7728">
        <ele>572</ele>
        <time>2022-08-27T13:31:10Z</time>
      </trkpt>
      <trkpt lat="46.57584" lon="5.77258">
        <ele>571.8</ele>
        <time>2022-08-27T13:31:12Z</time>
      </trkpt>
      <trkpt lat="46.57572" lon="5.7718">
        <ele>571.4</ele>
        <time>2022-08-27T13:31:19Z</time>
      </trkpt>
      <trkpt lat="46.57571" lon="5.77169">
        <ele>571.2</ele>
        <time>2022-08-27T13:31:20Z</time>
      </trkpt>
      <trkpt lat="46.57557" lon="5.77086">
        <ele>571.2</ele>
        <time>2022-08-27T13:31:28Z</time>
      </trkpt>
      <trkpt lat="46.57545" lon="5.77008">
        <ele>571.8</ele>
        <time>2022-08-27T13:31:36Z</time>
      </trkpt>
      <trkpt lat="46.57544" lon="5.76997">
        <ele>571.8</ele>
        <time>2022-08-27T13:31:37Z</time>
      </trkpt>
      <trkpt lat="46.57534" lon="5.76937">
        <ele>573</ele>
        <time>2022-08-27T13:31:44Z</time>
      </trkpt>
      <trkpt lat="46.5753" lon="5.76909">
        <ele>573.2</ele>
        <time>2022-08-27T13:31:47Z</time>
      </trkpt>
      <trkpt lat="46.57523" lon="5.76876">
        <ele>573.8</ele>
        <time>2022-08-27T13:31:51Z</time>
      </trkpt>
      <trkpt lat="46.57518" lon="5.76846">
        <ele>574.4</ele>
        <time>2022-08-27T13:31:55Z</time>
      </trkpt>
      <trkpt lat="46.57515" lon="5.76829">
        <ele>574.6</ele>
        <time>2022-08-27T13:31:57Z</time>
      </trkpt>
      <trkpt lat="46.57509" lon="5.76804">
        <ele>575.4</ele>
        <time>2022-08-27T13:32:00Z</time>
      </trkpt>
      <trkpt lat="46.57508" lon="5.76795">
        <ele>575.4</ele>
        <time>2022-08-27T13:32:01Z</time>
      </trkpt>
      <trkpt lat="46.57505" lon="5.76779">
        <ele>576.2</ele>
        <time>2022-08-27T13:32:03Z</time>
      </trkpt>
      <trkpt lat="46.57493" lon="5.76722">
        <ele>576.4</ele>
        <time>2022-08-27T13:32:10Z</time>
      </trkpt>
      <trkpt lat="46.57491" lon="5.76707">
        <ele>576.6</ele>
        <time>2022-08-27T13:32:12Z</time>
      </trkpt>
      <trkpt lat="46.57488" lon="5.76683">
        <ele>576.8</ele>
        <time>2022-08-27T13:32:15Z</time>
      </trkpt>
      <trkpt lat="46.5749" lon="5.7663">
        <ele>577.4</ele>
        <time>2022-08-27T13:32:21Z</time>
      </trkpt>
      <trkpt lat="46.57489" lon="5.76596">
        <ele>577.6</ele>
        <time>2022-08-27T13:32:25Z</time>
      </trkpt>
      <trkpt lat="46.57489" lon="5.76566">
        <ele>577.6</ele>
        <time>2022-08-27T13:32:28Z</time>
      </trkpt>
      <trkpt lat="46.57489" lon="5.76548">
        <ele>577.6</ele>
        <time>2022-08-27T13:32:30Z</time>
      </trkpt>
      <trkpt lat="46.57486" lon="5.76514">
        <ele>577.2</ele>
        <time>2022-08-27T13:32:33Z</time>
      </trkpt>
      <trkpt lat="46.57484" lon="5.76502">
        <ele>577</ele>
        <time>2022-08-27T13:32:34Z</time>
      </trkpt>
      <trkpt lat="46.57476" lon="5.7647">
        <ele>576.4</ele>
        <time>2022-08-27T13:32:37Z</time>
      </trkpt>
      <trkpt lat="46.57473" lon="5.76461">
        <ele>576.2</ele>
        <time>2022-08-27T13:32:38Z</time>
      </trkpt>
      <trkpt lat="46.57462" lon="5.76431">
        <ele>575.6</ele>
        <time>2022-08-27T13:32:41Z</time>
      </trkpt>
      <trkpt lat="46.57458" lon="5.76421">
        <ele>575.6</ele>
        <time>2022-08-27T13:32:42Z</time>
      </trkpt>
      <trkpt lat="46.57455" lon="5.76411">
        <ele>575.4</ele>
        <time>2022-08-27T13:32:43Z</time>
      </trkpt>
      <trkpt lat="46.57444" lon="5.76371">
        <ele>575.4</ele>
        <time>2022-08-27T13:32:47Z</time>
      </trkpt>
      <trkpt lat="46.57435" lon="5.76325">
        <ele>575.6</ele>
        <time>2022-08-27T13:32:51Z</time>
      </trkpt>
      <trkpt lat="46.57432" lon="5.76315">
        <ele>575.8</ele>
        <time>2022-08-27T13:32:52Z</time>
      </trkpt>
      <trkpt lat="46.57412" lon="5.76258">
        <ele>576.4</ele>
        <time>2022-08-27T13:32:58Z</time>
      </trkpt>
      <trkpt lat="46.57395" lon="5.7622">
        <ele>576.6</ele>
        <time>2022-08-27T13:33:02Z</time>
      </trkpt>
      <trkpt lat="46.57387" lon="5.762">
        <ele>576.8</ele>
        <time>2022-08-27T13:33:04Z</time>
      </trkpt>
      <trkpt lat="46.57379" lon="5.76168">
        <ele>576.6</ele>
        <time>2022-08-27T13:33:07Z</time>
      </trkpt>
      <trkpt lat="46.57376" lon="5.76146">
        <ele>576.6</ele>
        <time>2022-08-27T13:33:09Z</time>
      </trkpt>
      <trkpt lat="46.57377" lon="5.76095">
        <ele>576.8</ele>
        <time>2022-08-27T13:33:14Z</time>
      </trkpt>
      <trkpt lat="46.57377" lon="5.76085">
        <ele>576.8</ele>
        <time>2022-08-27T13:33:15Z</time>
      </trkpt>
      <trkpt lat="46.57374" lon="5.76063">
        <ele>577.2</ele>
        <time>2022-08-27T13:33:17Z</time>
      </trkpt>
      <trkpt lat="46.57371" lon="5.76052">
        <ele>577.4</ele>
        <time>2022-08-27T13:33:18Z</time>
      </trkpt>
      <trkpt lat="46.57366" lon="5.76031">
        <ele>577.2</ele>
        <time>2022-08-27T13:33:20Z</time>
      </trkpt>
      <trkpt lat="46.57356" lon="5.7599">
        <ele>577</ele>
        <time>2022-08-27T13:33:24Z</time>
      </trkpt>
      <trkpt lat="46.57351" lon="5.75943">
        <ele>576.8</ele>
        <time>2022-08-27T13:33:28Z</time>
      </trkpt>
      <trkpt lat="46.57352" lon="5.7592">
        <ele>576.6</ele>
        <time>2022-08-27T13:33:30Z</time>
      </trkpt>
      <trkpt lat="46.57353" lon="5.75911">
        <ele>576.6</ele>
        <time>2022-08-27T13:33:31Z</time>
      </trkpt>
      <trkpt lat="46.57359" lon="5.75878">
        <ele>576.4</ele>
        <time>2022-08-27T13:33:34Z</time>
      </trkpt>
      <trkpt lat="46.57361" lon="5.75832">
        <ele>576.4</ele>
        <time>2022-08-27T13:33:38Z</time>
      </trkpt>
      <trkpt lat="46.57357" lon="5.75804">
        <ele>576.6</ele>
        <time>2022-08-27T13:33:41Z</time>
      </trkpt>
      <trkpt lat="46.57351" lon="5.75784">
        <ele>576.6</ele>
        <time>2022-08-27T13:33:43Z</time>
      </trkpt>
      <trkpt lat="46.57336" lon="5.75742">
        <ele>576.4</ele>
        <time>2022-08-27T13:33:48Z</time>
      </trkpt>
      <trkpt lat="46.57332" lon="5.75725">
        <ele>576.4</ele>
        <time>2022-08-27T13:33:50Z</time>
      </trkpt>
      <trkpt lat="46.57329" lon="5.75697">
        <ele>576.4</ele>
        <time>2022-08-27T13:33:53Z</time>
      </trkpt>
      <trkpt lat="46.5733" lon="5.75662">
        <ele>576.4</ele>
        <time>2022-08-27T13:33:57Z</time>
      </trkpt>
      <trkpt lat="46.57332" lon="5.75643">
        <ele>576.4</ele>
        <time>2022-08-27T13:33:59Z</time>
      </trkpt>
      <trkpt lat="46.57335" lon="5.75582">
        <ele>576.4</ele>
        <time>2022-08-27T13:34:06Z</time>
      </trkpt>
      <trkpt lat="46.57327" lon="5.75532">
        <ele>576.6</ele>
        <time>2022-08-27T13:34:12Z</time>
      </trkpt>
      <trkpt lat="46.57316" lon="5.75471">
        <ele>577.2</ele>
        <time>2022-08-27T13:34:19Z</time>
      </trkpt>
      <trkpt lat="46.57317" lon="5.75445">
        <ele>577.6</ele>
        <time>2022-08-27T13:34:22Z</time>
      </trkpt>
      <trkpt lat="46.5732" lon="5.75427">
        <ele>578</ele>
        <time>2022-08-27T13:34:24Z</time>
      </trkpt>
      <trkpt lat="46.57327" lon="5.75402">
        <ele>578.4</ele>
        <time>2022-08-27T13:34:27Z</time>
      </trkpt>
      <trkpt lat="46.57329" lon="5.75393">
        <ele>578.4</ele>
        <time>2022-08-27T13:34:28Z</time>
      </trkpt>
      <trkpt lat="46.57329" lon="5.75384">
        <ele>578.4</ele>
        <time>2022-08-27T13:34:29Z</time>
      </trkpt>
      <trkpt lat="46.57329" lon="5.75375">
        <ele>578.4</ele>
        <time>2022-08-27T13:34:30Z</time>
      </trkpt>
      <trkpt lat="46.57325" lon="5.75354">
        <ele>578.4</ele>
        <time>2022-08-27T13:34:33Z</time>
      </trkpt>
      <trkpt lat="46.57322" lon="5.75331">
        <ele>578.2</ele>
        <time>2022-08-27T13:34:38Z</time>
      </trkpt>
      <trkpt lat="46.57321" lon="5.75328">
        <ele>578.2</ele>
        <time>2022-08-27T13:34:40Z</time>
      </trkpt>
      <trkpt lat="46.57329" lon="5.75316">
        <ele>578.2</ele>
        <time>2022-08-27T13:34:44Z</time>
      </trkpt>
      <trkpt lat="46.57347" lon="5.75295">
        <ele>578</ele>
        <time>2022-08-27T13:34:48Z</time>
      </trkpt>
      <trkpt lat="46.57363" lon="5.75278">
        <ele>577.6</ele>
        <time>2022-08-27T13:34:51Z</time>
      </trkpt>
      <trkpt lat="46.5738" lon="5.75258">
        <ele>577</ele>
        <time>2022-08-27T13:34:54Z</time>
      </trkpt>
      <trkpt lat="46.57397" lon="5.75237">
        <ele>576.4</ele>
        <time>2022-08-27T13:34:57Z</time>
      </trkpt>
      <trkpt lat="46.5742" lon="5.75209">
        <ele>575.4</ele>
        <time>2022-08-27T13:35:01Z</time>
      </trkpt>
      <trkpt lat="46.57426" lon="5.75203">
        <ele>575.2</ele>
        <time>2022-08-27T13:35:02Z</time>
      </trkpt>
      <trkpt lat="46.57465" lon="5.75152">
        <ele>574.4</ele>
        <time>2022-08-27T13:35:09Z</time>
      </trkpt>
      <trkpt lat="46.57475" lon="5.75138">
        <ele>573.8</ele>
        <time>2022-08-27T13:35:11Z</time>
      </trkpt>
      <trkpt lat="46.57493" lon="5.75118">
        <ele>573.2</ele>
        <time>2022-08-27T13:35:14Z</time>
      </trkpt>
      <trkpt lat="46.57502" lon="5.75105">
        <ele>572.8</ele>
        <time>2022-08-27T13:35:16Z</time>
      </trkpt>
      <trkpt lat="46.57507" lon="5.751">
        <ele>572.8</ele>
        <time>2022-08-27T13:35:17Z</time>
      </trkpt>
      <trkpt lat="46.57514" lon="5.75093">
        <ele>572.6</ele>
        <time>2022-08-27T13:35:19Z</time>
      </trkpt>
      <trkpt lat="46.57518" lon="5.75089">
        <ele>572.6</ele>
        <time>2022-08-27T13:35:21Z</time>
      </trkpt>
      <trkpt lat="46.57519" lon="5.75088">
        <ele>572.6</ele>
        <time>2022-08-27T13:35:22Z</time>
      </trkpt>
      <trkpt lat="46.5752" lon="5.75082">
        <ele>572.6</ele>
        <time>2022-08-27T13:35:24Z</time>
      </trkpt>
      <trkpt lat="46.57518" lon="5.75079">
        <ele>572.8</ele>
        <time>2022-08-27T13:35:25Z</time>
      </trkpt>
      <trkpt lat="46.57509" lon="5.75072">
        <ele>572.8</ele>
        <time>2022-08-27T13:35:27Z</time>
      </trkpt>
      <trkpt lat="46.57504" lon="5.75067">
        <ele>572.8</ele>
        <time>2022-08-27T13:35:28Z</time>
      </trkpt>
      <trkpt lat="46.57497" lon="5.7506">
        <ele>572.8</ele>
        <time>2022-08-27T13:35:29Z</time>
      </trkpt>
      <trkpt lat="46.57481" lon="5.75044">
        <ele>572.4</ele>
        <time>2022-08-27T13:35:31Z</time>
      </trkpt>
      <trkpt lat="46.5746" lon="5.75011">
        <ele>570.6</ele>
        <time>2022-08-27T13:35:34Z</time>
      </trkpt>
      <trkpt lat="46.57448" lon="5.74992">
        <ele>569.2</ele>
        <time>2022-08-27T13:35:36Z</time>
      </trkpt>
      <trkpt lat="46.57442" lon="5.74983">
        <ele>567.8</ele>
        <time>2022-08-27T13:35:37Z</time>
      </trkpt>
      <trkpt lat="46.57432" lon="5.74964">
        <ele>565.4</ele>
        <time>2022-08-27T13:35:39Z</time>
      </trkpt>
      <trkpt lat="46.57422" lon="5.74945">
        <ele>563.4</ele>
        <time>2022-08-27T13:35:41Z</time>
      </trkpt>
      <trkpt lat="46.57417" lon="5.74931">
        <ele>562.4</ele>
        <time>2022-08-27T13:35:43Z</time>
      </trkpt>
      <trkpt lat="46.57416" lon="5.74925">
        <ele>561.8</ele>
        <time>2022-08-27T13:35:44Z</time>
      </trkpt>
      <trkpt lat="46.57414" lon="5.74917">
        <ele>561.2</ele>
        <time>2022-08-27T13:35:46Z</time>
      </trkpt>
      <trkpt lat="46.57413" lon="5.74911">
        <ele>560.6</ele>
        <time>2022-08-27T13:35:48Z</time>
      </trkpt>
      <trkpt lat="46.57413" lon="5.74898">
        <ele>560</ele>
        <time>2022-08-27T13:35:51Z</time>
      </trkpt>
      <trkpt lat="46.57414" lon="5.74883">
        <ele>559.8</ele>
        <time>2022-08-27T13:35:53Z</time>
      </trkpt>
      <trkpt lat="46.57414" lon="5.74877">
        <ele>559.6</ele>
        <time>2022-08-27T13:35:54Z</time>
      </trkpt>
      <trkpt lat="46.5742" lon="5.74861">
        <ele>559.4</ele>
        <time>2022-08-27T13:35:58Z</time>
      </trkpt>
      <trkpt lat="46.57423" lon="5.74841">
        <ele>559.6</ele>
        <time>2022-08-27T13:36:03Z</time>
      </trkpt>
      <trkpt lat="46.57424" lon="5.74838">
        <ele>560</ele>
        <time>2022-08-27T13:36:06Z</time>
      </trkpt>
      <trkpt lat="46.57424" lon="5.74839">
        <ele>560.2</ele>
        <time>2022-08-27T13:36:07Z</time>
      </trkpt>
      <trkpt lat="46.57425" lon="5.74837">
        <ele>560.4</ele>
        <time>2022-08-27T13:36:10Z</time>
      </trkpt>
      <trkpt lat="46.57426" lon="5.74832">
        <ele>560.6</ele>
        <time>2022-08-27T13:36:12Z</time>
      </trkpt>
      <trkpt lat="46.57427" lon="5.74823">
        <ele>560.6</ele>
        <time>2022-08-27T13:36:14Z</time>
      </trkpt>
      <trkpt lat="46.57425" lon="5.74809">
        <ele>560.6</ele>
        <time>2022-08-27T13:36:16Z</time>
      </trkpt>
      <trkpt lat="46.57423" lon="5.74788">
        <ele>560.6</ele>
        <time>2022-08-27T13:36:19Z</time>
      </trkpt>
      <trkpt lat="46.57425" lon="5.74776">
        <ele>560.8</ele>
        <time>2022-08-27T13:36:21Z</time>
      </trkpt>
      <trkpt lat="46.57432" lon="5.74744">
        <ele>561</ele>
        <time>2022-08-27T13:36:26Z</time>
      </trkpt>
      <trkpt lat="46.5743" lon="5.74737">
        <ele>561</ele>
        <time>2022-08-27T13:36:27Z</time>
      </trkpt>
      <trkpt lat="46.57428" lon="5.74731">
        <ele>561</ele>
        <time>2022-08-27T13:36:28Z</time>
      </trkpt>
      <trkpt lat="46.5742" lon="5.74724">
        <ele>561.4</ele>
        <time>2022-08-27T13:36:30Z</time>
      </trkpt>
      <trkpt lat="46.57404" lon="5.74718">
        <ele>561.6</ele>
        <time>2022-08-27T13:36:33Z</time>
      </trkpt>
      <trkpt lat="46.574" lon="5.74715">
        <ele>561.6</ele>
        <time>2022-08-27T13:36:34Z</time>
      </trkpt>
      <trkpt lat="46.57395" lon="5.74709">
        <ele>561.6</ele>
        <time>2022-08-27T13:36:35Z</time>
      </trkpt>
      <trkpt lat="46.57392" lon="5.74696">
        <ele>561.6</ele>
        <time>2022-08-27T13:36:37Z</time>
      </trkpt>
      <trkpt lat="46.57389" lon="5.74676">
        <ele>561.6</ele>
        <time>2022-08-27T13:36:40Z</time>
      </trkpt>
      <trkpt lat="46.57383" lon="5.74657">
        <ele>561.6</ele>
        <time>2022-08-27T13:36:43Z</time>
      </trkpt>
      <trkpt lat="46.57379" lon="5.74634">
        <ele>562.6</ele>
        <time>2022-08-27T13:36:47Z</time>
      </trkpt>
      <trkpt lat="46.57378" lon="5.74629">
        <ele>563</ele>
        <time>2022-08-27T13:36:48Z</time>
      </trkpt>
      <trkpt lat="46.57377" lon="5.74624">
        <ele>563.4</ele>
        <time>2022-08-27T13:36:49Z</time>
      </trkpt>
      <trkpt lat="46.57374" lon="5.74613">
        <ele>563.8</ele>
        <time>2022-08-27T13:36:51Z</time>
      </trkpt>
      <trkpt lat="46.57371" lon="5.74599">
        <ele>565</ele>
        <time>2022-08-27T13:36:54Z</time>
      </trkpt>
      <trkpt lat="46.57371" lon="5.74595">
        <ele>565</ele>
        <time>2022-08-27T13:36:55Z</time>
      </trkpt>
      <trkpt lat="46.5737" lon="5.74582">
        <ele>566.4</ele>
        <time>2022-08-27T13:36:58Z</time>
      </trkpt>
      <trkpt lat="46.57371" lon="5.74574">
        <ele>567.2</ele>
        <time>2022-08-27T13:37:00Z</time>
      </trkpt>
      <trkpt lat="46.57372" lon="5.74565">
        <ele>568</ele>
        <time>2022-08-27T13:37:02Z</time>
      </trkpt>
      <trkpt lat="46.57375" lon="5.74556">
        <ele>569</ele>
        <time>2022-08-27T13:37:05Z</time>
      </trkpt>
      <trkpt lat="46.57377" lon="5.74553">
        <ele>569.6</ele>
        <time>2022-08-27T13:37:06Z</time>
      </trkpt>
      <trkpt lat="46.57379" lon="5.74547">
        <ele>570.4</ele>
        <time>2022-08-27T13:37:08Z</time>
      </trkpt>
      <trkpt lat="46.57383" lon="5.74535">
        <ele>571.4</ele>
        <time>2022-08-27T13:37:11Z</time>
      </trkpt>
      <trkpt lat="46.57384" lon="5.74525">
        <ele>572.2</ele>
        <time>2022-08-27T13:37:13Z</time>
      </trkpt>
      <trkpt lat="46.57385" lon="5.74516">
        <ele>572.8</ele>
        <time>2022-08-27T13:37:15Z</time>
      </trkpt>
      <trkpt lat="46.57387" lon="5.74508">
        <ele>573.6</ele>
        <time>2022-08-27T13:37:17Z</time>
      </trkpt>
      <trkpt lat="46.57388" lon="5.74504">
        <ele>573.8</ele>
        <time>2022-08-27T13:37:18Z</time>
      </trkpt>
      <trkpt lat="46.57389" lon="5.74501">
        <ele>574.4</ele>
        <time>2022-08-27T13:37:19Z</time>
      </trkpt>
      <trkpt lat="46.57391" lon="5.74483">
        <ele>575.4</ele>
        <time>2022-08-27T13:37:23Z</time>
      </trkpt>
      <trkpt lat="46.57391" lon="5.7448">
        <ele>575.8</ele>
        <time>2022-08-27T13:37:24Z</time>
      </trkpt>
      <trkpt lat="46.57392" lon="5.74467">
        <ele>576.8</ele>
        <time>2022-08-27T13:37:27Z</time>
      </trkpt>
      <trkpt lat="46.57396" lon="5.7446">
        <ele>577.2</ele>
        <time>2022-08-27T13:37:29Z</time>
      </trkpt>
      <trkpt lat="46.57395" lon="5.74436">
        <ele>578.4</ele>
        <time>2022-08-27T13:37:33Z</time>
      </trkpt>
      <trkpt lat="46.57394" lon="5.74431">
        <ele>578.6</ele>
        <time>2022-08-27T13:37:34Z</time>
      </trkpt>
      <trkpt lat="46.57395" lon="5.74385">
        <ele>579.6</ele>
        <time>2022-08-27T13:37:43Z</time>
      </trkpt>
      <trkpt lat="46.57395" lon="5.74344">
        <ele>580</ele>
        <time>2022-08-27T13:37:49Z</time>
      </trkpt>
      <trkpt lat="46.57395" lon="5.74326">
        <ele>580.2</ele>
        <time>2022-08-27T13:37:52Z</time>
      </trkpt>
      <trkpt lat="46.57398" lon="5.74304">
        <ele>580.4</ele>
        <time>2022-08-27T13:37:56Z</time>
      </trkpt>
      <trkpt lat="46.57399" lon="5.74293">
        <ele>580.6</ele>
        <time>2022-08-27T13:37:58Z</time>
      </trkpt>
      <trkpt lat="46.574" lon="5.74272">
        <ele>582.2</ele>
        <time>2022-08-27T13:38:02Z</time>
      </trkpt>
      <trkpt lat="46.57401" lon="5.74267">
        <ele>582.6</ele>
        <time>2022-08-27T13:38:03Z</time>
      </trkpt>
      <trkpt lat="46.57402" lon="5.74257">
        <ele>583.2</ele>
        <time>2022-08-27T13:38:05Z</time>
      </trkpt>
      <trkpt lat="46.57405" lon="5.74235">
        <ele>584.4</ele>
        <time>2022-08-27T13:38:09Z</time>
      </trkpt>
      <trkpt lat="46.57409" lon="5.74202">
        <ele>585.6</ele>
        <time>2022-08-27T13:38:15Z</time>
      </trkpt>
      <trkpt lat="46.5741" lon="5.74197">
        <ele>585.8</ele>
        <time>2022-08-27T13:38:16Z</time>
      </trkpt>
      <trkpt lat="46.57419" lon="5.74161">
        <ele>586.6</ele>
        <time>2022-08-27T13:38:23Z</time>
      </trkpt>
      <trkpt lat="46.57422" lon="5.7415">
        <ele>587.2</ele>
        <time>2022-08-27T13:38:25Z</time>
      </trkpt>
      <trkpt lat="46.5744" lon="5.74114">
        <ele>587.8</ele>
        <time>2022-08-27T13:38:33Z</time>
      </trkpt>
      <trkpt lat="46.57443" lon="5.7411">
        <ele>588.4</ele>
        <time>2022-08-27T13:38:34Z</time>
      </trkpt>
      <trkpt lat="46.57448" lon="5.74102">
        <ele>589</ele>
        <time>2022-08-27T13:38:36Z</time>
      </trkpt>
      <trkpt lat="46.57462" lon="5.74081">
        <ele>589.8</ele>
        <time>2022-08-27T13:38:41Z</time>
      </trkpt>
      <trkpt lat="46.57471" lon="5.7407">
        <ele>590.4</ele>
        <time>2022-08-27T13:38:44Z</time>
      </trkpt>
      <trkpt lat="46.57489" lon="5.7405">
        <ele>591.6</ele>
        <time>2022-08-27T13:38:50Z</time>
      </trkpt>
      <trkpt lat="46.57499" lon="5.74038">
        <ele>592.2</ele>
        <time>2022-08-27T13:38:53Z</time>
      </trkpt>
      <trkpt lat="46.57509" lon="5.74026">
        <ele>592.6</ele>
        <time>2022-08-27T13:38:56Z</time>
      </trkpt>
      <trkpt lat="46.5752" lon="5.74014">
        <ele>593.2</ele>
        <time>2022-08-27T13:38:59Z</time>
      </trkpt>
      <trkpt lat="46.57526" lon="5.74006">
        <ele>593.6</ele>
        <time>2022-08-27T13:39:01Z</time>
      </trkpt>
      <trkpt lat="46.57532" lon="5.73998">
        <ele>593.8</ele>
        <time>2022-08-27T13:39:03Z</time>
      </trkpt>
      <trkpt lat="46.57553" lon="5.73975">
        <ele>594.2</ele>
        <time>2022-08-27T13:39:08Z</time>
      </trkpt>
      <trkpt lat="46.57578" lon="5.73941">
        <ele>593.6</ele>
        <time>2022-08-27T13:39:13Z</time>
      </trkpt>
      <trkpt lat="46.5759" lon="5.73926">
        <ele>592.8</ele>
        <time>2022-08-27T13:39:15Z</time>
      </trkpt>
      <trkpt lat="46.57604" lon="5.73907">
        <ele>591.6</ele>
        <time>2022-08-27T13:39:17Z</time>
      </trkpt>
      <trkpt lat="46.5761" lon="5.73898">
        <ele>591</ele>
        <time>2022-08-27T13:39:18Z</time>
      </trkpt>
      <trkpt lat="46.57617" lon="5.73889">
        <ele>590.6</ele>
        <time>2022-08-27T13:39:19Z</time>
      </trkpt>
      <trkpt lat="46.5763" lon="5.73873">
        <ele>589.4</ele>
        <time>2022-08-27T13:39:21Z</time>
      </trkpt>
      <trkpt lat="46.57644" lon="5.73855">
        <ele>588.6</ele>
        <time>2022-08-27T13:39:23Z</time>
      </trkpt>
      <trkpt lat="46.57651" lon="5.73846">
        <ele>588.2</ele>
        <time>2022-08-27T13:39:24Z</time>
      </trkpt>
      <trkpt lat="46.57658" lon="5.73837">
        <ele>587.4</ele>
        <time>2022-08-27T13:39:25Z</time>
      </trkpt>
      <trkpt lat="46.5769" lon="5.73803">
        <ele>585.8</ele>
        <time>2022-08-27T13:39:29Z</time>
      </trkpt>
      <trkpt lat="46.57699" lon="5.73795">
        <ele>584.6</ele>
        <time>2022-08-27T13:39:30Z</time>
      </trkpt>
      <trkpt lat="46.57719" lon="5.73779">
        <ele>583.2</ele>
        <time>2022-08-27T13:39:32Z</time>
      </trkpt>
      <trkpt lat="46.57728" lon="5.7377">
        <ele>582.2</ele>
        <time>2022-08-27T13:39:33Z</time>
      </trkpt>
      <trkpt lat="46.57739" lon="5.73758">
        <ele>581.4</ele>
        <time>2022-08-27T13:39:34Z</time>
      </trkpt>
      <trkpt lat="46.57746" lon="5.73748">
        <ele>580.6</ele>
        <time>2022-08-27T13:39:35Z</time>
      </trkpt>
      <trkpt lat="46.57761" lon="5.73719">
        <ele>579.8</ele>
        <time>2022-08-27T13:39:37Z</time>
      </trkpt>
      <trkpt lat="46.57765" lon="5.73706">
        <ele>579.4</ele>
        <time>2022-08-27T13:39:38Z</time>
      </trkpt>
      <trkpt lat="46.57776" lon="5.73676">
        <ele>577.8</ele>
        <time>2022-08-27T13:39:40Z</time>
      </trkpt>
      <trkpt lat="46.57782" lon="5.7366">
        <ele>577.4</ele>
        <time>2022-08-27T13:39:41Z</time>
      </trkpt>
      <trkpt lat="46.57787" lon="5.73643">
        <ele>576.6</ele>
        <time>2022-08-27T13:39:42Z</time>
      </trkpt>
      <trkpt lat="46.57797" lon="5.73608">
        <ele>574.2</ele>
        <time>2022-08-27T13:39:44Z</time>
      </trkpt>
      <trkpt lat="46.57804" lon="5.7359">
        <ele>573.6</ele>
        <time>2022-08-27T13:39:45Z</time>
      </trkpt>
      <trkpt lat="46.5781" lon="5.73573">
        <ele>572.2</ele>
        <time>2022-08-27T13:39:46Z</time>
      </trkpt>
      <trkpt lat="46.57818" lon="5.73558">
        <ele>570.6</ele>
        <time>2022-08-27T13:39:47Z</time>
      </trkpt>
      <trkpt lat="46.57837" lon="5.73524">
        <ele>568.4</ele>
        <time>2022-08-27T13:39:49Z</time>
      </trkpt>
      <trkpt lat="46.57854" lon="5.73497">
        <ele>566</ele>
        <time>2022-08-27T13:39:51Z</time>
      </trkpt>
      <trkpt lat="46.57872" lon="5.73465">
        <ele>563.8</ele>
        <time>2022-08-27T13:39:53Z</time>
      </trkpt>
      <trkpt lat="46.57884" lon="5.73446">
        <ele>561.4</ele>
        <time>2022-08-27T13:39:54Z</time>
      </trkpt>
      <trkpt lat="46.57893" lon="5.7343">
        <ele>560.6</ele>
        <time>2022-08-27T13:39:55Z</time>
      </trkpt>
      <trkpt lat="46.57901" lon="5.73417">
        <ele>558.8</ele>
        <time>2022-08-27T13:39:56Z</time>
      </trkpt>
      <trkpt lat="46.5791" lon="5.73401">
        <ele>557.4</ele>
        <time>2022-08-27T13:39:57Z</time>
      </trkpt>
      <trkpt lat="46.57919" lon="5.73384">
        <ele>555.2</ele>
        <time>2022-08-27T13:39:58Z</time>
      </trkpt>
      <trkpt lat="46.57928" lon="5.73367">
        <ele>554</ele>
        <time>2022-08-27T13:39:59Z</time>
      </trkpt>
      <trkpt lat="46.57937" lon="5.73351">
        <ele>551.2</ele>
        <time>2022-08-27T13:40:00Z</time>
      </trkpt>
      <trkpt lat="46.57947" lon="5.73332">
        <ele>549.8</ele>
        <time>2022-08-27T13:40:01Z</time>
      </trkpt>
      <trkpt lat="46.57954" lon="5.7332">
        <ele>549.2</ele>
        <time>2022-08-27T13:40:02Z</time>
      </trkpt>
      <trkpt lat="46.57962" lon="5.73304">
        <ele>548.2</ele>
        <time>2022-08-27T13:40:03Z</time>
      </trkpt>
      <trkpt lat="46.57978" lon="5.73274">
        <ele>547</ele>
        <time>2022-08-27T13:40:05Z</time>
      </trkpt>
      <trkpt lat="46.57993" lon="5.73241">
        <ele>544.8</ele>
        <time>2022-08-27T13:40:07Z</time>
      </trkpt>
      <trkpt lat="46.57998" lon="5.73228">
        <ele>543.8</ele>
        <time>2022-08-27T13:40:08Z</time>
      </trkpt>
      <trkpt lat="46.58012" lon="5.73193">
        <ele>542.6</ele>
        <time>2022-08-27T13:40:10Z</time>
      </trkpt>
      <trkpt lat="46.58034" lon="5.7313">
        <ele>540.8</ele>
        <time>2022-08-27T13:40:14Z</time>
      </trkpt>
      <trkpt lat="46.58046" lon="5.73096">
        <ele>540</ele>
        <time>2022-08-27T13:40:16Z</time>
      </trkpt>
      <trkpt lat="46.58056" lon="5.73061">
        <ele>539</ele>
        <time>2022-08-27T13:40:18Z</time>
      </trkpt>
      <trkpt lat="46.5806" lon="5.73043">
        <ele>538.4</ele>
        <time>2022-08-27T13:40:19Z</time>
      </trkpt>
      <trkpt lat="46.58068" lon="5.73008">
        <ele>536.8</ele>
        <time>2022-08-27T13:40:21Z</time>
      </trkpt>
      <trkpt lat="46.58072" lon="5.7299">
        <ele>535.6</ele>
        <time>2022-08-27T13:40:22Z</time>
      </trkpt>
      <trkpt lat="46.58079" lon="5.72956">
        <ele>534.6</ele>
        <time>2022-08-27T13:40:24Z</time>
      </trkpt>
      <trkpt lat="46.58087" lon="5.72922">
        <ele>532.8</ele>
        <time>2022-08-27T13:40:26Z</time>
      </trkpt>
      <trkpt lat="46.58094" lon="5.72888">
        <ele>531.8</ele>
        <time>2022-08-27T13:40:28Z</time>
      </trkpt>
      <trkpt lat="46.58105" lon="5.72838">
        <ele>530.2</ele>
        <time>2022-08-27T13:40:31Z</time>
      </trkpt>
      <trkpt lat="46.58112" lon="5.72805">
        <ele>529.2</ele>
        <time>2022-08-27T13:40:33Z</time>
      </trkpt>
      <trkpt lat="46.58116" lon="5.72789">
        <ele>528.8</ele>
        <time>2022-08-27T13:40:34Z</time>
      </trkpt>
      <trkpt lat="46.5812" lon="5.72773">
        <ele>527.8</ele>
        <time>2022-08-27T13:40:35Z</time>
      </trkpt>
      <trkpt lat="46.58127" lon="5.72741">
        <ele>526.6</ele>
        <time>2022-08-27T13:40:37Z</time>
      </trkpt>
      <trkpt lat="46.58135" lon="5.72709">
        <ele>525.6</ele>
        <time>2022-08-27T13:40:39Z</time>
      </trkpt>
      <trkpt lat="46.58146" lon="5.72663">
        <ele>524</ele>
        <time>2022-08-27T13:40:42Z</time>
      </trkpt>
      <trkpt lat="46.58154" lon="5.72633">
        <ele>522.8</ele>
        <time>2022-08-27T13:40:44Z</time>
      </trkpt>
      <trkpt lat="46.58164" lon="5.72591">
        <ele>521.2</ele>
        <time>2022-08-27T13:40:47Z</time>
      </trkpt>
      <trkpt lat="46.58183" lon="5.7251">
        <ele>520.6</ele>
        <time>2022-08-27T13:40:53Z</time>
      </trkpt>
      <trkpt lat="46.58187" lon="5.72497">
        <ele>520.6</ele>
        <time>2022-08-27T13:40:54Z</time>
      </trkpt>
      <trkpt lat="46.58206" lon="5.72423">
        <ele>520.8</ele>
        <time>2022-08-27T13:41:00Z</time>
      </trkpt>
      <trkpt lat="46.58209" lon="5.72408">
        <ele>521</ele>
        <time>2022-08-27T13:41:01Z</time>
      </trkpt>
      <trkpt lat="46.58224" lon="5.72345">
        <ele>521.6</ele>
        <time>2022-08-27T13:41:07Z</time>
      </trkpt>
      <trkpt lat="46.58243" lon="5.72262">
        <ele>521.6</ele>
        <time>2022-08-27T13:41:14Z</time>
      </trkpt>
      <trkpt lat="46.58252" lon="5.72223">
        <ele>520</ele>
        <time>2022-08-27T13:41:17Z</time>
      </trkpt>
      <trkpt lat="46.58258" lon="5.72195">
        <ele>519</ele>
        <time>2022-08-27T13:41:19Z</time>
      </trkpt>
      <trkpt lat="46.58262" lon="5.72181">
        <ele>518.2</ele>
        <time>2022-08-27T13:41:20Z</time>
      </trkpt>
      <trkpt lat="46.58269" lon="5.72152">
        <ele>516.6</ele>
        <time>2022-08-27T13:41:22Z</time>
      </trkpt>
      <trkpt lat="46.58277" lon="5.72119">
        <ele>515</ele>
        <time>2022-08-27T13:41:24Z</time>
      </trkpt>
      <trkpt lat="46.58283" lon="5.72089">
        <ele>513.8</ele>
        <time>2022-08-27T13:41:26Z</time>
      </trkpt>
      <trkpt lat="46.58287" lon="5.72075">
        <ele>512.8</ele>
        <time>2022-08-27T13:41:27Z</time>
      </trkpt>
      <trkpt lat="46.58293" lon="5.72046">
        <ele>511.4</ele>
        <time>2022-08-27T13:41:29Z</time>
      </trkpt>
      <trkpt lat="46.58303" lon="5.72004">
        <ele>510.4</ele>
        <time>2022-08-27T13:41:32Z</time>
      </trkpt>
      <trkpt lat="46.58317" lon="5.71953">
        <ele>509.2</ele>
        <time>2022-08-27T13:41:36Z</time>
      </trkpt>
      <trkpt lat="46.58331" lon="5.71889">
        <ele>509</ele>
        <time>2022-08-27T13:41:41Z</time>
      </trkpt>
      <trkpt lat="46.58352" lon="5.71803">
        <ele>508.8</ele>
        <time>2022-08-27T13:41:48Z</time>
      </trkpt>
      <trkpt lat="46.58355" lon="5.7179">
        <ele>508.6</ele>
        <time>2022-08-27T13:41:49Z</time>
      </trkpt>
      <trkpt lat="46.58361" lon="5.71766">
        <ele>508.6</ele>
        <time>2022-08-27T13:41:51Z</time>
      </trkpt>
      <trkpt lat="46.58374" lon="5.71706">
        <ele>508.4</ele>
        <time>2022-08-27T13:41:56Z</time>
      </trkpt>
      <trkpt lat="46.58394" lon="5.71623">
        <ele>507.8</ele>
        <time>2022-08-27T13:42:03Z</time>
      </trkpt>
      <trkpt lat="46.58397" lon="5.71608">
        <ele>507.4</ele>
        <time>2022-08-27T13:42:04Z</time>
      </trkpt>
      <trkpt lat="46.58412" lon="5.71538">
        <ele>506.4</ele>
        <time>2022-08-27T13:42:10Z</time>
      </trkpt>
      <trkpt lat="46.58415" lon="5.71529">
        <ele>506.4</ele>
        <time>2022-08-27T13:42:11Z</time>
      </trkpt>
      <trkpt lat="46.58425" lon="5.71485">
        <ele>506.2</ele>
        <time>2022-08-27T13:42:15Z</time>
      </trkpt>
      <trkpt lat="46.58433" lon="5.71452">
        <ele>506</ele>
        <time>2022-08-27T13:42:18Z</time>
      </trkpt>
      <trkpt lat="46.58452" lon="5.71375">
        <ele>505.6</ele>
        <time>2022-08-27T13:42:25Z</time>
      </trkpt>
      <trkpt lat="46.58462" lon="5.71332">
        <ele>505.2</ele>
        <time>2022-08-27T13:42:29Z</time>
      </trkpt>
      <trkpt lat="46.58483" lon="5.71248">
        <ele>504.4</ele>
        <time>2022-08-27T13:42:37Z</time>
      </trkpt>
      <trkpt lat="46.58491" lon="5.71213">
        <ele>504</ele>
        <time>2022-08-27T13:42:40Z</time>
      </trkpt>
      <trkpt lat="46.585" lon="5.71173">
        <ele>503.4</ele>
        <time>2022-08-27T13:42:43Z</time>
      </trkpt>
      <trkpt lat="46.58504" lon="5.7115">
        <ele>502.8</ele>
        <time>2022-08-27T13:42:45Z</time>
      </trkpt>
      <trkpt lat="46.58507" lon="5.71137">
        <ele>502</ele>
        <time>2022-08-27T13:42:46Z</time>
      </trkpt>
      <trkpt lat="46.58518" lon="5.71089">
        <ele>500.4</ele>
        <time>2022-08-27T13:42:50Z</time>
      </trkpt>
      <trkpt lat="46.58533" lon="5.71022">
        <ele>499.6</ele>
        <time>2022-08-27T13:42:56Z</time>
      </trkpt>
      <trkpt lat="46.58548" lon="5.70952">
        <ele>500.4</ele>
        <time>2022-08-27T13:43:03Z</time>
      </trkpt>
      <trkpt lat="46.58565" lon="5.70875">
        <ele>501.2</ele>
        <time>2022-08-27T13:43:10Z</time>
      </trkpt>
      <trkpt lat="46.58569" lon="5.70852">
        <ele>501</ele>
        <time>2022-08-27T13:43:12Z</time>
      </trkpt>
      <trkpt lat="46.58579" lon="5.70808">
        <ele>499.6</ele>
        <time>2022-08-27T13:43:16Z</time>
      </trkpt>
      <trkpt lat="46.58588" lon="5.70759">
        <ele>498.6</ele>
        <time>2022-08-27T13:43:20Z</time>
      </trkpt>
      <trkpt lat="46.58597" lon="5.70716">
        <ele>498.4</ele>
        <time>2022-08-27T13:43:24Z</time>
      </trkpt>
      <trkpt lat="46.58609" lon="5.70661">
        <ele>497.4</ele>
        <time>2022-08-27T13:43:29Z</time>
      </trkpt>
      <trkpt lat="46.58612" lon="5.70649">
        <ele>496.8</ele>
        <time>2022-08-27T13:43:30Z</time>
      </trkpt>
      <trkpt lat="46.58623" lon="5.70585">
        <ele>496.2</ele>
        <time>2022-08-27T13:43:36Z</time>
      </trkpt>
      <trkpt lat="46.58623" lon="5.70574">
        <ele>496.4</ele>
        <time>2022-08-27T13:43:37Z</time>
      </trkpt>
      <trkpt lat="46.58624" lon="5.70542">
        <ele>496</ele>
        <time>2022-08-27T13:43:40Z</time>
      </trkpt>
      <trkpt lat="46.58624" lon="5.70517">
        <ele>495.2</ele>
        <time>2022-08-27T13:43:42Z</time>
      </trkpt>
      <trkpt lat="46.58623" lon="5.70505">
        <ele>495</ele>
        <time>2022-08-27T13:43:43Z</time>
      </trkpt>
      <trkpt lat="46.5862" lon="5.7048">
        <ele>494.2</ele>
        <time>2022-08-27T13:43:45Z</time>
      </trkpt>
      <trkpt lat="46.58616" lon="5.70458">
        <ele>493</ele>
        <time>2022-08-27T13:43:47Z</time>
      </trkpt>
      <trkpt lat="46.58613" lon="5.70447">
        <ele>492.8</ele>
        <time>2022-08-27T13:43:48Z</time>
      </trkpt>
      <trkpt lat="46.58608" lon="5.70436">
        <ele>492.4</ele>
        <time>2022-08-27T13:43:49Z</time>
      </trkpt>
      <trkpt lat="46.58598" lon="5.70414">
        <ele>491.8</ele>
        <time>2022-08-27T13:43:51Z</time>
      </trkpt>
      <trkpt lat="46.58592" lon="5.70403">
        <ele>491.6</ele>
        <time>2022-08-27T13:43:52Z</time>
      </trkpt>
      <trkpt lat="46.58581" lon="5.70378">
        <ele>490.6</ele>
        <time>2022-08-27T13:43:54Z</time>
      </trkpt>
      <trkpt lat="46.5857" lon="5.70355">
        <ele>489</ele>
        <time>2022-08-27T13:43:56Z</time>
      </trkpt>
      <trkpt lat="46.58567" lon="5.70345">
        <ele>488.8</ele>
        <time>2022-08-27T13:43:57Z</time>
      </trkpt>
      <trkpt lat="46.58563" lon="5.70335">
        <ele>487.8</ele>
        <time>2022-08-27T13:43:58Z</time>
      </trkpt>
      <trkpt lat="46.58556" lon="5.70314">
        <ele>486.4</ele>
        <time>2022-08-27T13:44:00Z</time>
      </trkpt>
      <trkpt lat="46.58551" lon="5.70293">
        <ele>485.2</ele>
        <time>2022-08-27T13:44:02Z</time>
      </trkpt>
      <trkpt lat="46.58548" lon="5.70285">
        <ele>484.6</ele>
        <time>2022-08-27T13:44:03Z</time>
      </trkpt>
      <trkpt lat="46.58546" lon="5.70276">
        <ele>483.6</ele>
        <time>2022-08-27T13:44:05Z</time>
      </trkpt>
      <trkpt lat="46.58545" lon="5.70275">
        <ele>482.6</ele>
        <time>2022-08-27T13:44:09Z</time>
      </trkpt>
      <trkpt lat="46.58544" lon="5.7027">
        <ele>482</ele>
        <time>2022-08-27T13:44:13Z</time>
      </trkpt>
      <trkpt lat="46.58543" lon="5.70264">
        <ele>481.8</ele>
        <time>2022-08-27T13:44:15Z</time>
      </trkpt>
      <trkpt lat="46.58539" lon="5.7024">
        <ele>481.6</ele>
        <time>2022-08-27T13:44:19Z</time>
      </trkpt>
      <trkpt lat="46.58537" lon="5.70234">
        <ele>481.4</ele>
        <time>2022-08-27T13:44:20Z</time>
      </trkpt>
      <trkpt lat="46.58531" lon="5.70211">
        <ele>480.2</ele>
        <time>2022-08-27T13:44:23Z</time>
      </trkpt>
      <trkpt lat="46.58528" lon="5.70199">
        <ele>479</ele>
        <time>2022-08-27T13:44:25Z</time>
      </trkpt>
      <trkpt lat="46.58526" lon="5.70193">
        <ele>478</ele>
        <time>2022-08-27T13:44:27Z</time>
      </trkpt>
      <trkpt lat="46.58526" lon="5.70192">
        <ele>477.8</ele>
        <time>2022-08-27T13:44:28Z</time>
      </trkpt>
      <trkpt lat="46.58526" lon="5.7019">
        <ele>477.6</ele>
        <time>2022-08-27T13:44:30Z</time>
      </trkpt>
      <trkpt lat="46.58527" lon="5.70185">
        <ele>477.2</ele>
        <time>2022-08-27T13:44:33Z</time>
      </trkpt>
      <trkpt lat="46.58527" lon="5.70185">
        <ele>477.2</ele>
        <time>2022-08-27T13:44:34Z</time>
      </trkpt>
      <trkpt lat="46.58527" lon="5.70175">
        <ele>476.8</ele>
        <time>2022-08-27T13:44:41Z</time>
      </trkpt>
      <trkpt lat="46.58523" lon="5.70163">
        <ele>476.6</ele>
        <time>2022-08-27T13:44:43Z</time>
      </trkpt>
      <trkpt lat="46.58517" lon="5.70144">
        <ele>476.2</ele>
        <time>2022-08-27T13:44:45Z</time>
      </trkpt>
      <trkpt lat="46.58515" lon="5.70136">
        <ele>476.2</ele>
        <time>2022-08-27T13:44:46Z</time>
      </trkpt>
      <trkpt lat="46.58512" lon="5.70106">
        <ele>475.4</ele>
        <time>2022-08-27T13:44:49Z</time>
      </trkpt>
      <trkpt lat="46.58509" lon="5.70077">
        <ele>474.8</ele>
        <time>2022-08-27T13:44:52Z</time>
      </trkpt>
      <trkpt lat="46.58502" lon="5.69997">
        <ele>474.8</ele>
        <time>2022-08-27T13:45:00Z</time>
      </trkpt>
      <trkpt lat="46.58501" lon="5.69986">
        <ele>474.8</ele>
        <time>2022-08-27T13:45:01Z</time>
      </trkpt>
      <trkpt lat="46.58501" lon="5.69952">
        <ele>474.4</ele>
        <time>2022-08-27T13:45:04Z</time>
      </trkpt>
      <trkpt lat="46.58503" lon="5.69942">
        <ele>474.2</ele>
        <time>2022-08-27T13:45:05Z</time>
      </trkpt>
      <trkpt lat="46.58505" lon="5.69931">
        <ele>473.4</ele>
        <time>2022-08-27T13:45:06Z</time>
      </trkpt>
      <trkpt lat="46.58515" lon="5.699">
        <ele>472.4</ele>
        <time>2022-08-27T13:45:09Z</time>
      </trkpt>
      <trkpt lat="46.58518" lon="5.69892">
        <ele>472</ele>
        <time>2022-08-27T13:45:10Z</time>
      </trkpt>
      <trkpt lat="46.58527" lon="5.69861">
        <ele>471.8</ele>
        <time>2022-08-27T13:45:13Z</time>
      </trkpt>
      <trkpt lat="46.58531" lon="5.69851">
        <ele>471.6</ele>
        <time>2022-08-27T13:45:14Z</time>
      </trkpt>
      <trkpt lat="46.58549" lon="5.69794">
        <ele>471.8</ele>
        <time>2022-08-27T13:45:20Z</time>
      </trkpt>
      <trkpt lat="46.58556" lon="5.69766">
        <ele>471.8</ele>
        <time>2022-08-27T13:45:23Z</time>
      </trkpt>
      <trkpt lat="46.58561" lon="5.69749">
        <ele>471.8</ele>
        <time>2022-08-27T13:45:25Z</time>
      </trkpt>
      <trkpt lat="46.58565" lon="5.69734">
        <ele>472</ele>
        <time>2022-08-27T13:45:27Z</time>
      </trkpt>
      <trkpt lat="46.58563" lon="5.69726">
        <ele>472</ele>
        <time>2022-08-27T13:45:28Z</time>
      </trkpt>
      <trkpt lat="46.58553" lon="5.69711">
        <ele>472.2</ele>
        <time>2022-08-27T13:45:30Z</time>
      </trkpt>
      <trkpt lat="46.5855" lon="5.69706">
        <ele>472.4</ele>
        <time>2022-08-27T13:45:31Z</time>
      </trkpt>
      <trkpt lat="46.58503" lon="5.69652">
        <ele>473.2</ele>
        <time>2022-08-27T13:45:40Z</time>
      </trkpt>
      <trkpt lat="46.58498" lon="5.69647">
        <ele>473.4</ele>
        <time>2022-08-27T13:45:41Z</time>
      </trkpt>
      <trkpt lat="46.58493" lon="5.69641">
        <ele>473.4</ele>
        <time>2022-08-27T13:45:42Z</time>
      </trkpt>
      <trkpt lat="46.58462" lon="5.69605">
        <ele>474.2</ele>
        <time>2022-08-27T13:45:49Z</time>
      </trkpt>
      <trkpt lat="46.58454" lon="5.69596">
        <ele>474.6</ele>
        <time>2022-08-27T13:45:51Z</time>
      </trkpt>
      <trkpt lat="46.58437" lon="5.69577">
        <ele>475.8</ele>
        <time>2022-08-27T13:45:55Z</time>
      </trkpt>
      <trkpt lat="46.58428" lon="5.69566">
        <ele>476</ele>
        <time>2022-08-27T13:45:57Z</time>
      </trkpt>
      <trkpt lat="46.58421" lon="5.69557">
        <ele>476.6</ele>
        <time>2022-08-27T13:45:59Z</time>
      </trkpt>
      <trkpt lat="46.58407" lon="5.69542">
        <ele>477.2</ele>
        <time>2022-08-27T13:46:02Z</time>
      </trkpt>
      <trkpt lat="46.58388" lon="5.69519">
        <ele>477.8</ele>
        <time>2022-08-27T13:46:07Z</time>
      </trkpt>
      <trkpt lat="46.5838" lon="5.69509">
        <ele>478.2</ele>
        <time>2022-08-27T13:46:09Z</time>
      </trkpt>
      <trkpt lat="46.58356" lon="5.69478">
        <ele>479.4</ele>
        <time>2022-08-27T13:46:15Z</time>
      </trkpt>
      <trkpt lat="46.58352" lon="5.69474">
        <ele>479.8</ele>
        <time>2022-08-27T13:46:16Z</time>
      </trkpt>
      <trkpt lat="46.58337" lon="5.69457">
        <ele>480.6</ele>
        <time>2022-08-27T13:46:20Z</time>
      </trkpt>
      <trkpt lat="46.58326" lon="5.69442">
        <ele>481.4</ele>
        <time>2022-08-27T13:46:23Z</time>
      </trkpt>
      <trkpt lat="46.58323" lon="5.69438">
        <ele>481.6</ele>
        <time>2022-08-27T13:46:24Z</time>
      </trkpt>
      <trkpt lat="46.58304" lon="5.69417">
        <ele>482.8</ele>
        <time>2022-08-27T13:46:29Z</time>
      </trkpt>
      <trkpt lat="46.58297" lon="5.69408">
        <ele>483.2</ele>
        <time>2022-08-27T13:46:31Z</time>
      </trkpt>
      <trkpt lat="46.58281" lon="5.69391">
        <ele>483.8</ele>
        <time>2022-08-27T13:46:35Z</time>
      </trkpt>
      <trkpt lat="46.5826" lon="5.69366">
        <ele>485</ele>
        <time>2022-08-27T13:46:41Z</time>
      </trkpt>
      <trkpt lat="46.58256" lon="5.69362">
        <ele>485.4</ele>
        <time>2022-08-27T13:46:42Z</time>
      </trkpt>
      <trkpt lat="46.58242" lon="5.69345">
        <ele>486.4</ele>
        <time>2022-08-27T13:46:46Z</time>
      </trkpt>
      <trkpt lat="46.58222" lon="5.69323">
        <ele>487.6</ele>
        <time>2022-08-27T13:46:51Z</time>
      </trkpt>
      <trkpt lat="46.58214" lon="5.69315">
        <ele>488</ele>
        <time>2022-08-27T13:46:53Z</time>
      </trkpt>
      <trkpt lat="46.58202" lon="5.69301">
        <ele>488.6</ele>
        <time>2022-08-27T13:46:56Z</time>
      </trkpt>
      <trkpt lat="46.58198" lon="5.69295">
        <ele>488.6</ele>
        <time>2022-08-27T13:46:57Z</time>
      </trkpt>
      <trkpt lat="46.58191" lon="5.69284">
        <ele>489</ele>
        <time>2022-08-27T13:46:59Z</time>
      </trkpt>
      <trkpt lat="46.58172" lon="5.6926">
        <ele>489.8</ele>
        <time>2022-08-27T13:47:04Z</time>
      </trkpt>
      <trkpt lat="46.58158" lon="5.69245">
        <ele>490.6</ele>
        <time>2022-08-27T13:47:08Z</time>
      </trkpt>
      <trkpt lat="46.58151" lon="5.69236">
        <ele>491</ele>
        <time>2022-08-27T13:47:10Z</time>
      </trkpt>
      <trkpt lat="46.58126" lon="5.69205">
        <ele>492</ele>
        <time>2022-08-27T13:47:17Z</time>
      </trkpt>
      <trkpt lat="46.58122" lon="5.692">
        <ele>492</ele>
        <time>2022-08-27T13:47:18Z</time>
      </trkpt>
      <trkpt lat="46.58098" lon="5.69167">
        <ele>493.4</ele>
        <time>2022-08-27T13:47:24Z</time>
      </trkpt>
      <trkpt lat="46.58093" lon="5.69162">
        <ele>493.4</ele>
        <time>2022-08-27T13:47:25Z</time>
      </trkpt>
      <trkpt lat="46.58088" lon="5.69157">
        <ele>493.6</ele>
        <time>2022-08-27T13:47:26Z</time>
      </trkpt>
      <trkpt lat="46.58053" lon="5.69113">
        <ele>493.8</ele>
        <time>2022-08-27T13:47:34Z</time>
      </trkpt>
      <trkpt lat="46.58026" lon="5.6908">
        <ele>494.6</ele>
        <time>2022-08-27T13:47:40Z</time>
      </trkpt>
      <trkpt lat="46.58014" lon="5.69065">
        <ele>494.8</ele>
        <time>2022-08-27T13:47:43Z</time>
      </trkpt>
      <trkpt lat="46.57974" lon="5.69015">
        <ele>496</ele>
        <time>2022-08-27T13:47:52Z</time>
      </trkpt>
      <trkpt lat="46.57937" lon="5.6897">
        <ele>497.2</ele>
        <time>2022-08-27T13:48:01Z</time>
      </trkpt>
      <trkpt lat="46.57927" lon="5.68958">
        <ele>497.8</ele>
        <time>2022-08-27T13:48:03Z</time>
      </trkpt>
      <trkpt lat="46.57898" lon="5.68921">
        <ele>498.2</ele>
        <time>2022-08-27T13:48:09Z</time>
      </trkpt>
      <trkpt lat="46.57859" lon="5.68873">
        <ele>498.2</ele>
        <time>2022-08-27T13:48:16Z</time>
      </trkpt>
      <trkpt lat="46.57812" lon="5.68814">
        <ele>497.8</ele>
        <time>2022-08-27T13:48:24Z</time>
      </trkpt>
      <trkpt lat="46.57801" lon="5.68801">
        <ele>497.6</ele>
        <time>2022-08-27T13:48:26Z</time>
      </trkpt>
      <trkpt lat="46.5776" lon="5.68749">
        <ele>497.4</ele>
        <time>2022-08-27T13:48:33Z</time>
      </trkpt>
      <trkpt lat="46.57716" lon="5.68695">
        <ele>498.2</ele>
        <time>2022-08-27T13:48:41Z</time>
      </trkpt>
      <trkpt lat="46.57674" lon="5.6864">
        <ele>498.4</ele>
        <time>2022-08-27T13:48:49Z</time>
      </trkpt>
      <trkpt lat="46.57656" lon="5.68618">
        <ele>498.4</ele>
        <time>2022-08-27T13:48:52Z</time>
      </trkpt>
      <trkpt lat="46.57612" lon="5.68563">
        <ele>498.4</ele>
        <time>2022-08-27T13:48:59Z</time>
      </trkpt>
      <trkpt lat="46.57607" lon="5.68557">
        <ele>498.4</ele>
        <time>2022-08-27T13:49:00Z</time>
      </trkpt>
      <trkpt lat="46.5756" lon="5.68498">
        <ele>498</ele>
        <time>2022-08-27T13:49:07Z</time>
      </trkpt>
      <trkpt lat="46.57554" lon="5.6849">
        <ele>498</ele>
        <time>2022-08-27T13:49:08Z</time>
      </trkpt>
      <trkpt lat="46.57512" lon="5.68438">
        <ele>497.4</ele>
        <time>2022-08-27T13:49:15Z</time>
      </trkpt>
      <trkpt lat="46.57476" lon="5.68393">
        <ele>498.6</ele>
        <time>2022-08-27T13:49:22Z</time>
      </trkpt>
      <trkpt lat="46.57462" lon="5.68376">
        <ele>499.2</ele>
        <time>2022-08-27T13:49:25Z</time>
      </trkpt>
      <trkpt lat="46.5744" lon="5.68348">
        <ele>500.4</ele>
        <time>2022-08-27T13:49:30Z</time>
      </trkpt>
      <trkpt lat="46.57418" lon="5.6832">
        <ele>501.4</ele>
        <time>2022-08-27T13:49:35Z</time>
      </trkpt>
      <trkpt lat="46.57396" lon="5.68291">
        <ele>501.8</ele>
        <time>2022-08-27T13:49:40Z</time>
      </trkpt>
      <trkpt lat="46.57377" lon="5.68268">
        <ele>503</ele>
        <time>2022-08-27T13:49:44Z</time>
      </trkpt>
      <trkpt lat="46.5736" lon="5.68248">
        <ele>503.8</ele>
        <time>2022-08-27T13:49:48Z</time>
      </trkpt>
      <trkpt lat="46.57355" lon="5.68242">
        <ele>504.2</ele>
        <time>2022-08-27T13:49:49Z</time>
      </trkpt>
      <trkpt lat="46.5733" lon="5.68211">
        <ele>505.6</ele>
        <time>2022-08-27T13:49:55Z</time>
      </trkpt>
      <trkpt lat="46.57323" lon="5.68201">
        <ele>506.2</ele>
        <time>2022-08-27T13:49:57Z</time>
      </trkpt>
      <trkpt lat="46.57319" lon="5.68196">
        <ele>506.6</ele>
        <time>2022-08-27T13:49:58Z</time>
      </trkpt>
      <trkpt lat="46.57306" lon="5.68178">
        <ele>507.6</ele>
        <time>2022-08-27T13:50:02Z</time>
      </trkpt>
      <trkpt lat="46.57295" lon="5.68164">
        <ele>508.2</ele>
        <time>2022-08-27T13:50:05Z</time>
      </trkpt>
      <trkpt lat="46.57277" lon="5.6814">
        <ele>509</ele>
        <time>2022-08-27T13:50:10Z</time>
      </trkpt>
      <trkpt lat="46.57261" lon="5.68119">
        <ele>509.4</ele>
        <time>2022-08-27T13:50:14Z</time>
      </trkpt>
      <trkpt lat="46.57236" lon="5.68085">
        <ele>509.6</ele>
        <time>2022-08-27T13:50:20Z</time>
      </trkpt>
      <trkpt lat="46.57199" lon="5.68034">
        <ele>508.8</ele>
        <time>2022-08-27T13:50:28Z</time>
      </trkpt>
      <trkpt lat="46.57162" lon="5.67984">
        <ele>508.2</ele>
        <time>2022-08-27T13:50:35Z</time>
      </trkpt>
      <trkpt lat="46.57153" lon="5.67971">
        <ele>507.8</ele>
        <time>2022-08-27T13:50:37Z</time>
      </trkpt>
      <trkpt lat="46.57119" lon="5.67926">
        <ele>507.4</ele>
        <time>2022-08-27T13:50:43Z</time>
      </trkpt>
      <trkpt lat="46.57078" lon="5.6787">
        <ele>507.6</ele>
        <time>2022-08-27T13:50:51Z</time>
      </trkpt>
      <trkpt lat="46.57036" lon="5.67813">
        <ele>507.6</ele>
        <time>2022-08-27T13:50:59Z</time>
      </trkpt>
      <trkpt lat="46.57031" lon="5.67806">
        <ele>507.8</ele>
        <time>2022-08-27T13:51:00Z</time>
      </trkpt>
      <trkpt lat="46.57007" lon="5.67772">
        <ele>508</ele>
        <time>2022-08-27T13:51:05Z</time>
      </trkpt>
      <trkpt lat="46.56986" lon="5.67744">
        <ele>508.2</ele>
        <time>2022-08-27T13:51:09Z</time>
      </trkpt>
      <trkpt lat="46.56943" lon="5.67685">
        <ele>509</ele>
        <time>2022-08-27T13:51:18Z</time>
      </trkpt>
      <trkpt lat="46.5691" lon="5.67641">
        <ele>509.6</ele>
        <time>2022-08-27T13:51:25Z</time>
      </trkpt>
      <trkpt lat="46.56905" lon="5.67634">
        <ele>509.6</ele>
        <time>2022-08-27T13:51:26Z</time>
      </trkpt>
      <trkpt lat="46.56863" lon="5.67576">
        <ele>510.2</ele>
        <time>2022-08-27T13:51:35Z</time>
      </trkpt>
      <trkpt lat="46.56853" lon="5.67562">
        <ele>510.2</ele>
        <time>2022-08-27T13:51:37Z</time>
      </trkpt>
      <trkpt lat="46.56848" lon="5.67556">
        <ele>510.4</ele>
        <time>2022-08-27T13:51:38Z</time>
      </trkpt>
      <trkpt lat="46.56816" lon="5.67511">
        <ele>510.8</ele>
        <time>2022-08-27T13:51:45Z</time>
      </trkpt>
      <trkpt lat="46.56797" lon="5.67484">
        <ele>511.2</ele>
        <time>2022-08-27T13:51:49Z</time>
      </trkpt>
      <trkpt lat="46.56755" lon="5.67428">
        <ele>511.8</ele>
        <time>2022-08-27T13:51:57Z</time>
      </trkpt>
      <trkpt lat="46.56749" lon="5.6742">
        <ele>511.8</ele>
        <time>2022-08-27T13:51:58Z</time>
      </trkpt>
      <trkpt lat="46.56703" lon="5.67366">
        <ele>511.4</ele>
        <time>2022-08-27T13:52:06Z</time>
      </trkpt>
      <trkpt lat="46.56654" lon="5.6732">
        <ele>511.4</ele>
        <time>2022-08-27T13:52:14Z</time>
      </trkpt>
      <trkpt lat="46.56641" lon="5.67307">
        <ele>511.2</ele>
        <time>2022-08-27T13:52:16Z</time>
      </trkpt>
      <trkpt lat="46.56594" lon="5.6726">
        <ele>511.8</ele>
        <time>2022-08-27T13:52:24Z</time>
      </trkpt>
      <trkpt lat="46.5658" lon="5.67242">
        <ele>512.4</ele>
        <time>2022-08-27T13:52:27Z</time>
      </trkpt>
      <trkpt lat="46.56546" lon="5.67197">
        <ele>513</ele>
        <time>2022-08-27T13:52:33Z</time>
      </trkpt>
      <trkpt lat="46.56502" lon="5.67135">
        <ele>512.6</ele>
        <time>2022-08-27T13:52:41Z</time>
      </trkpt>
      <trkpt lat="46.56497" lon="5.67128">
        <ele>512.4</ele>
        <time>2022-08-27T13:52:42Z</time>
      </trkpt>
      <trkpt lat="46.56458" lon="5.67074">
        <ele>512</ele>
        <time>2022-08-27T13:52:49Z</time>
      </trkpt>
      <trkpt lat="46.56441" lon="5.6705">
        <ele>511.8</ele>
        <time>2022-08-27T13:52:52Z</time>
      </trkpt>
      <trkpt lat="46.56401" lon="5.66994">
        <ele>512.2</ele>
        <time>2022-08-27T13:52:59Z</time>
      </trkpt>
      <trkpt lat="46.56391" lon="5.6698">
        <ele>512.2</ele>
        <time>2022-08-27T13:53:01Z</time>
      </trkpt>
      <trkpt lat="46.56351" lon="5.66925">
        <ele>512.4</ele>
        <time>2022-08-27T13:53:08Z</time>
      </trkpt>
      <trkpt lat="46.5634" lon="5.6691">
        <ele>512.6</ele>
        <time>2022-08-27T13:53:10Z</time>
      </trkpt>
      <trkpt lat="46.56329" lon="5.66896">
        <ele>512.6</ele>
        <time>2022-08-27T13:53:12Z</time>
      </trkpt>
      <trkpt lat="46.56282" lon="5.66846">
        <ele>513.2</ele>
        <time>2022-08-27T13:53:20Z</time>
      </trkpt>
      <trkpt lat="46.56266" lon="5.66836">
        <ele>513.4</ele>
        <time>2022-08-27T13:53:22Z</time>
      </trkpt>
      <trkpt lat="46.56239" lon="5.66819">
        <ele>513.6</ele>
        <time>2022-08-27T13:53:26Z</time>
      </trkpt>
      <trkpt lat="46.56233" lon="5.66815">
        <ele>513.8</ele>
        <time>2022-08-27T13:53:27Z</time>
      </trkpt>
      <trkpt lat="46.56194" lon="5.66796">
        <ele>514.8</ele>
        <time>2022-08-27T13:53:33Z</time>
      </trkpt>
      <trkpt lat="46.56188" lon="5.66792">
        <ele>514.8</ele>
        <time>2022-08-27T13:53:34Z</time>
      </trkpt>
      <trkpt lat="46.56155" lon="5.66774">
        <ele>515.8</ele>
        <time>2022-08-27T13:53:39Z</time>
      </trkpt>
      <trkpt lat="46.56142" lon="5.66766">
        <ele>516.4</ele>
        <time>2022-08-27T13:53:41Z</time>
      </trkpt>
      <trkpt lat="46.56104" lon="5.66738">
        <ele>517</ele>
        <time>2022-08-27T13:53:47Z</time>
      </trkpt>
      <trkpt lat="46.56097" lon="5.66733">
        <ele>517</ele>
        <time>2022-08-27T13:53:48Z</time>
      </trkpt>
      <trkpt lat="46.56064" lon="5.66693">
        <ele>517.4</ele>
        <time>2022-08-27T13:53:54Z</time>
      </trkpt>
      <trkpt lat="46.5604" lon="5.6664">
        <ele>517.2</ele>
        <time>2022-08-27T13:54:00Z</time>
      </trkpt>
      <trkpt lat="46.56013" lon="5.66579">
        <ele>517.2</ele>
        <time>2022-08-27T13:54:07Z</time>
      </trkpt>
      <trkpt lat="46.55988" lon="5.66529">
        <ele>518.2</ele>
        <time>2022-08-27T13:54:13Z</time>
      </trkpt>
      <trkpt lat="46.55977" lon="5.66502">
        <ele>518.8</ele>
        <time>2022-08-27T13:54:16Z</time>
      </trkpt>
      <trkpt lat="46.55948" lon="5.66428">
        <ele>518.8</ele>
        <time>2022-08-27T13:54:24Z</time>
      </trkpt>
      <trkpt lat="46.55944" lon="5.66419">
        <ele>518.8</ele>
        <time>2022-08-27T13:54:25Z</time>
      </trkpt>
      <trkpt lat="46.55918" lon="5.66381">
        <ele>517.6</ele>
        <time>2022-08-27T13:54:30Z</time>
      </trkpt>
      <trkpt lat="46.55911" lon="5.66373">
        <ele>517.4</ele>
        <time>2022-08-27T13:54:31Z</time>
      </trkpt>
      <trkpt lat="46.55874" lon="5.66336">
        <ele>517.2</ele>
        <time>2022-08-27T13:54:37Z</time>
      </trkpt>
      <trkpt lat="46.55825" lon="5.66286">
        <ele>517.4</ele>
        <time>2022-08-27T13:54:45Z</time>
      </trkpt>
      <trkpt lat="46.55818" lon="5.6628">
        <ele>517.4</ele>
        <time>2022-08-27T13:54:46Z</time>
      </trkpt>
      <trkpt lat="46.5577" lon="5.66231">
        <ele>517.6</ele>
        <time>2022-08-27T13:54:54Z</time>
      </trkpt>
      <trkpt lat="46.55745" lon="5.66203">
        <ele>518.2</ele>
        <time>2022-08-27T13:54:59Z</time>
      </trkpt>
      <trkpt lat="46.55726" lon="5.66184">
        <ele>518.6</ele>
        <time>2022-08-27T13:55:03Z</time>
      </trkpt>
      <trkpt lat="46.55709" lon="5.66167">
        <ele>520</ele>
        <time>2022-08-27T13:55:07Z</time>
      </trkpt>
      <trkpt lat="46.55693" lon="5.66149">
        <ele>521</ele>
        <time>2022-08-27T13:55:11Z</time>
      </trkpt>
      <trkpt lat="46.55676" lon="5.66131">
        <ele>522.2</ele>
        <time>2022-08-27T13:55:15Z</time>
      </trkpt>
      <trkpt lat="46.55673" lon="5.66127">
        <ele>522.2</ele>
        <time>2022-08-27T13:55:16Z</time>
      </trkpt>
      <trkpt lat="46.55652" lon="5.66089">
        <ele>522.8</ele>
        <time>2022-08-27T13:55:22Z</time>
      </trkpt>
      <trkpt lat="46.55648" lon="5.66075">
        <ele>522.8</ele>
        <time>2022-08-27T13:55:24Z</time>
      </trkpt>
      <trkpt lat="46.55646" lon="5.66053">
        <ele>523</ele>
        <time>2022-08-27T13:55:27Z</time>
      </trkpt>
      <trkpt lat="46.55647" lon="5.6604">
        <ele>523.2</ele>
        <time>2022-08-27T13:55:29Z</time>
      </trkpt>
      <trkpt lat="46.55648" lon="5.66025">
        <ele>523.4</ele>
        <time>2022-08-27T13:55:31Z</time>
      </trkpt>
      <trkpt lat="46.5565" lon="5.66012">
        <ele>523.6</ele>
        <time>2022-08-27T13:55:33Z</time>
      </trkpt>
      <trkpt lat="46.55651" lon="5.66006">
        <ele>523.8</ele>
        <time>2022-08-27T13:55:34Z</time>
      </trkpt>
      <trkpt lat="46.55654" lon="5.65995">
        <ele>524.6</ele>
        <time>2022-08-27T13:55:36Z</time>
      </trkpt>
      <trkpt lat="46.5566" lon="5.6598">
        <ele>525</ele>
        <time>2022-08-27T13:55:39Z</time>
      </trkpt>
      <trkpt lat="46.55667" lon="5.65965">
        <ele>525.8</ele>
        <time>2022-08-27T13:55:42Z</time>
      </trkpt>
      <trkpt lat="46.55673" lon="5.6595">
        <ele>527.4</ele>
        <time>2022-08-27T13:55:45Z</time>
      </trkpt>
      <trkpt lat="46.55675" lon="5.65945">
        <ele>527.6</ele>
        <time>2022-08-27T13:55:46Z</time>
      </trkpt>
      <trkpt lat="46.55682" lon="5.65925">
        <ele>528.8</ele>
        <time>2022-08-27T13:55:50Z</time>
      </trkpt>
      <trkpt lat="46.55685" lon="5.65908">
        <ele>529.6</ele>
        <time>2022-08-27T13:55:53Z</time>
      </trkpt>
      <trkpt lat="46.55685" lon="5.65902">
        <ele>529.8</ele>
        <time>2022-08-27T13:55:54Z</time>
      </trkpt>
      <trkpt lat="46.55683" lon="5.65875">
        <ele>531</ele>
        <time>2022-08-27T13:55:59Z</time>
      </trkpt>
      <trkpt lat="46.55677" lon="5.65853">
        <ele>532.4</ele>
        <time>2022-08-27T13:56:04Z</time>
      </trkpt>
      <trkpt lat="46.55675" lon="5.65849">
        <ele>532.4</ele>
        <time>2022-08-27T13:56:05Z</time>
      </trkpt>
      <trkpt lat="46.55666" lon="5.65836">
        <ele>533.8</ele>
        <time>2022-08-27T13:56:09Z</time>
      </trkpt>
      <trkpt lat="46.55664" lon="5.65833">
        <ele>534</ele>
        <time>2022-08-27T13:56:10Z</time>
      </trkpt>
      <trkpt lat="46.55658" lon="5.65827">
        <ele>534.2</ele>
        <time>2022-08-27T13:56:12Z</time>
      </trkpt>
      <trkpt lat="46.5565" lon="5.65821">
        <ele>534.8</ele>
        <time>2022-08-27T13:56:15Z</time>
      </trkpt>
      <trkpt lat="46.55637" lon="5.65813">
        <ele>535.8</ele>
        <time>2022-08-27T13:56:19Z</time>
      </trkpt>
      <trkpt lat="46.55627" lon="5.65807">
        <ele>536.4</ele>
        <time>2022-08-27T13:56:22Z</time>
      </trkpt>
      <trkpt lat="46.5561" lon="5.65797">
        <ele>537</ele>
        <time>2022-08-27T13:56:27Z</time>
      </trkpt>
      <trkpt lat="46.55586" lon="5.65782">
        <ele>538.2</ele>
        <time>2022-08-27T13:56:34Z</time>
      </trkpt>
      <trkpt lat="46.55569" lon="5.65771">
        <ele>539.4</ele>
        <time>2022-08-27T13:56:39Z</time>
      </trkpt>
      <trkpt lat="46.5556" lon="5.65766">
        <ele>539.8</ele>
        <time>2022-08-27T13:56:42Z</time>
      </trkpt>
      <trkpt lat="46.55546" lon="5.65757">
        <ele>540.4</ele>
        <time>2022-08-27T13:56:46Z</time>
      </trkpt>
      <trkpt lat="46.5553" lon="5.65745">
        <ele>541.4</ele>
        <time>2022-08-27T13:56:51Z</time>
      </trkpt>
      <trkpt lat="46.5552" lon="5.65738">
        <ele>541.8</ele>
        <time>2022-08-27T13:56:54Z</time>
      </trkpt>
      <trkpt lat="46.55507" lon="5.65729">
        <ele>542.8</ele>
        <time>2022-08-27T13:56:58Z</time>
      </trkpt>
      <trkpt lat="46.55486" lon="5.65715">
        <ele>543.4</ele>
        <time>2022-08-27T13:57:04Z</time>
      </trkpt>
      <trkpt lat="46.5548" lon="5.6571">
        <ele>543.8</ele>
        <time>2022-08-27T13:57:06Z</time>
      </trkpt>
      <trkpt lat="46.55458" lon="5.65694">
        <ele>545.2</ele>
        <time>2022-08-27T13:57:12Z</time>
      </trkpt>
      <trkpt lat="46.55448" lon="5.65687">
        <ele>545.6</ele>
        <time>2022-08-27T13:57:15Z</time>
      </trkpt>
      <trkpt lat="46.55426" lon="5.65672">
        <ele>546.4</ele>
        <time>2022-08-27T13:57:21Z</time>
      </trkpt>
      <trkpt lat="46.55411" lon="5.65662">
        <ele>547.2</ele>
        <time>2022-08-27T13:57:25Z</time>
      </trkpt>
      <trkpt lat="46.55399" lon="5.65655">
        <ele>547.6</ele>
        <time>2022-08-27T13:57:28Z</time>
      </trkpt>
      <trkpt lat="46.55383" lon="5.65644">
        <ele>548.4</ele>
        <time>2022-08-27T13:57:32Z</time>
      </trkpt>
      <trkpt lat="46.55379" lon="5.65642">
        <ele>548.6</ele>
        <time>2022-08-27T13:57:33Z</time>
      </trkpt>
      <trkpt lat="46.55345" lon="5.65624">
        <ele>549.4</ele>
        <time>2022-08-27T13:57:41Z</time>
      </trkpt>
      <trkpt lat="46.55335" lon="5.65619">
        <ele>549.6</ele>
        <time>2022-08-27T13:57:43Z</time>
      </trkpt>
      <trkpt lat="46.55309" lon="5.65602">
        <ele>550.6</ele>
        <time>2022-08-27T13:57:49Z</time>
      </trkpt>
      <trkpt lat="46.55304" lon="5.65599">
        <ele>551</ele>
        <time>2022-08-27T13:57:50Z</time>
      </trkpt>
      <trkpt lat="46.55287" lon="5.65588">
        <ele>552</ele>
        <time>2022-08-27T13:57:54Z</time>
      </trkpt>
      <trkpt lat="46.55278" lon="5.65582">
        <ele>552.4</ele>
        <time>2022-08-27T13:57:56Z</time>
      </trkpt>
      <trkpt lat="46.55261" lon="5.6557">
        <ele>553.2</ele>
        <time>2022-08-27T13:58:00Z</time>
      </trkpt>
      <trkpt lat="46.55235" lon="5.65553">
        <ele>554.4</ele>
        <time>2022-08-27T13:58:06Z</time>
      </trkpt>
      <trkpt lat="46.55213" lon="5.65537">
        <ele>555.6</ele>
        <time>2022-08-27T13:58:11Z</time>
      </trkpt>
      <trkpt lat="46.5519" lon="5.65523">
        <ele>556.6</ele>
        <time>2022-08-27T13:58:16Z</time>
      </trkpt>
      <trkpt lat="46.55185" lon="5.65521">
        <ele>556.8</ele>
        <time>2022-08-27T13:58:17Z</time>
      </trkpt>
      <trkpt lat="46.55176" lon="5.65516">
        <ele>557.2</ele>
        <time>2022-08-27T13:58:19Z</time>
      </trkpt>
      <trkpt lat="46.5516" lon="5.65509">
        <ele>557.8</ele>
        <time>2022-08-27T13:58:22Z</time>
      </trkpt>
      <trkpt lat="46.55154" lon="5.65507">
        <ele>557.8</ele>
        <time>2022-08-27T13:58:23Z</time>
      </trkpt>
      <trkpt lat="46.55124" lon="5.65502">
        <ele>558.8</ele>
        <time>2022-08-27T13:58:28Z</time>
      </trkpt>
      <trkpt lat="46.55111" lon="5.655">
        <ele>559</ele>
        <time>2022-08-27T13:58:30Z</time>
      </trkpt>
      <trkpt lat="46.5507" lon="5.65493">
        <ele>559.6</ele>
        <time>2022-08-27T13:58:37Z</time>
      </trkpt>
      <trkpt lat="46.55051" lon="5.6549">
        <ele>560.2</ele>
        <time>2022-08-27T13:58:40Z</time>
      </trkpt>
      <trkpt lat="46.55016" lon="5.65483">
        <ele>560.6</ele>
        <time>2022-08-27T13:58:46Z</time>
      </trkpt>
      <trkpt lat="46.54992" lon="5.65479">
        <ele>561.4</ele>
        <time>2022-08-27T13:58:50Z</time>
      </trkpt>
      <trkpt lat="46.54961" lon="5.65478">
        <ele>562.2</ele>
        <time>2022-08-27T13:58:55Z</time>
      </trkpt>
      <trkpt lat="46.54948" lon="5.65478">
        <ele>562.4</ele>
        <time>2022-08-27T13:58:57Z</time>
      </trkpt>
      <trkpt lat="46.54908" lon="5.6548">
        <ele>563.2</ele>
        <time>2022-08-27T13:59:03Z</time>
      </trkpt>
      <trkpt lat="46.54881" lon="5.65481">
        <ele>563.6</ele>
        <time>2022-08-27T13:59:07Z</time>
      </trkpt>
      <trkpt lat="46.54847" lon="5.65482">
        <ele>564</ele>
        <time>2022-08-27T13:59:12Z</time>
      </trkpt>
      <trkpt lat="46.54794" lon="5.65483">
        <ele>564.8</ele>
        <time>2022-08-27T13:59:20Z</time>
      </trkpt>
      <trkpt lat="46.54788" lon="5.65484">
        <ele>565</ele>
        <time>2022-08-27T13:59:21Z</time>
      </trkpt>
      <trkpt lat="46.54732" lon="5.65496">
        <ele>565.4</ele>
        <time>2022-08-27T13:59:29Z</time>
      </trkpt>
      <trkpt lat="46.54676" lon="5.65513">
        <ele>566</ele>
        <time>2022-08-27T13:59:36Z</time>
      </trkpt>
      <trkpt lat="46.54661" lon="5.65517">
        <ele>566</ele>
        <time>2022-08-27T13:59:38Z</time>
      </trkpt>
      <trkpt lat="46.54613" lon="5.65523">
        <ele>565.8</ele>
        <time>2022-08-27T13:59:44Z</time>
      </trkpt>
      <trkpt lat="46.54597" lon="5.65518">
        <ele>565.4</ele>
        <time>2022-08-27T13:59:46Z</time>
      </trkpt>
      <trkpt lat="46.5458" lon="5.65511">
        <ele>565.2</ele>
        <time>2022-08-27T13:59:48Z</time>
      </trkpt>
      <trkpt lat="46.54534" lon="5.65479">
        <ele>565.2</ele>
        <time>2022-08-27T13:59:54Z</time>
      </trkpt>
      <trkpt lat="46.54481" lon="5.6544">
        <ele>565</ele>
        <time>2022-08-27T14:00:01Z</time>
      </trkpt>
      <trkpt lat="46.54466" lon="5.65429">
        <ele>564.8</ele>
        <time>2022-08-27T14:00:03Z</time>
      </trkpt>
      <trkpt lat="46.5442" lon="5.65396">
        <ele>565.8</ele>
        <time>2022-08-27T14:00:10Z</time>
      </trkpt>
      <trkpt lat="46.54412" lon="5.6539">
        <ele>566</ele>
        <time>2022-08-27T14:00:11Z</time>
      </trkpt>
      <trkpt lat="46.54387" lon="5.6537">
        <ele>567.2</ele>
        <time>2022-08-27T14:00:15Z</time>
      </trkpt>
      <trkpt lat="46.54383" lon="5.65366">
        <ele>567.6</ele>
        <time>2022-08-27T14:00:16Z</time>
      </trkpt>
      <trkpt lat="46.54363" lon="5.65343">
        <ele>568.6</ele>
        <time>2022-08-27T14:00:20Z</time>
      </trkpt>
      <trkpt lat="46.54348" lon="5.65325">
        <ele>570.2</ele>
        <time>2022-08-27T14:00:23Z</time>
      </trkpt>
      <trkpt lat="46.54333" lon="5.65308">
        <ele>571.4</ele>
        <time>2022-08-27T14:00:26Z</time>
      </trkpt>
      <trkpt lat="46.54308" lon="5.6528">
        <ele>572.4</ele>
        <time>2022-08-27T14:00:31Z</time>
      </trkpt>
      <trkpt lat="46.54299" lon="5.6527">
        <ele>573</ele>
        <time>2022-08-27T14:00:33Z</time>
      </trkpt>
      <trkpt lat="46.54281" lon="5.65249">
        <ele>573.6</ele>
        <time>2022-08-27T14:00:37Z</time>
      </trkpt>
      <trkpt lat="46.54259" lon="5.65223">
        <ele>574.4</ele>
        <time>2022-08-27T14:00:42Z</time>
      </trkpt>
      <trkpt lat="46.54251" lon="5.65213">
        <ele>574.8</ele>
        <time>2022-08-27T14:00:44Z</time>
      </trkpt>
      <trkpt lat="46.5423" lon="5.65185">
        <ele>576</ele>
        <time>2022-08-27T14:00:49Z</time>
      </trkpt>
      <trkpt lat="46.54221" lon="5.65172">
        <ele>576.2</ele>
        <time>2022-08-27T14:00:51Z</time>
      </trkpt>
      <trkpt lat="46.54185" lon="5.65124">
        <ele>576.4</ele>
        <time>2022-08-27T14:00:58Z</time>
      </trkpt>
      <trkpt lat="46.54148" lon="5.65079">
        <ele>575.8</ele>
        <time>2022-08-27T14:01:04Z</time>
      </trkpt>
      <trkpt lat="46.54126" lon="5.65059">
        <ele>574.6</ele>
        <time>2022-08-27T14:01:07Z</time>
      </trkpt>
      <trkpt lat="46.54097" lon="5.65034">
        <ele>573.8</ele>
        <time>2022-08-27T14:01:11Z</time>
      </trkpt>
      <trkpt lat="46.54089" lon="5.65029">
        <ele>573.2</ele>
        <time>2022-08-27T14:01:12Z</time>
      </trkpt>
      <trkpt lat="46.54038" lon="5.64987">
        <ele>573.2</ele>
        <time>2022-08-27T14:01:19Z</time>
      </trkpt>
      <trkpt lat="46.54016" lon="5.64968">
        <ele>573.4</ele>
        <time>2022-08-27T14:01:22Z</time>
      </trkpt>
      <trkpt lat="46.53989" lon="5.64944">
        <ele>573.4</ele>
        <time>2022-08-27T14:01:25Z</time>
      </trkpt>
      <trkpt lat="46.53942" lon="5.64903">
        <ele>572.4</ele>
        <time>2022-08-27T14:01:30Z</time>
      </trkpt>
      <trkpt lat="46.53932" lon="5.64895">
        <ele>571.6</ele>
        <time>2022-08-27T14:01:31Z</time>
      </trkpt>
      <trkpt lat="46.53912" lon="5.64877">
        <ele>570.2</ele>
        <time>2022-08-27T14:01:33Z</time>
      </trkpt>
      <trkpt lat="46.53894" lon="5.64861">
        <ele>568.8</ele>
        <time>2022-08-27T14:01:35Z</time>
      </trkpt>
      <trkpt lat="46.53868" lon="5.64839">
        <ele>567.4</ele>
        <time>2022-08-27T14:01:38Z</time>
      </trkpt>
      <trkpt lat="46.53826" lon="5.64801">
        <ele>567.2</ele>
        <time>2022-08-27T14:01:43Z</time>
      </trkpt>
      <trkpt lat="46.53776" lon="5.64757">
        <ele>569</ele>
        <time>2022-08-27T14:01:49Z</time>
      </trkpt>
      <trkpt lat="46.5376" lon="5.64743">
        <ele>570.2</ele>
        <time>2022-08-27T14:01:51Z</time>
      </trkpt>
      <trkpt lat="46.53711" lon="5.64701">
        <ele>571</ele>
        <time>2022-08-27T14:01:57Z</time>
      </trkpt>
      <trkpt lat="46.53687" lon="5.6468">
        <ele>571</ele>
        <time>2022-08-27T14:02:00Z</time>
      </trkpt>
      <trkpt lat="46.53646" lon="5.64644">
        <ele>570.8</ele>
        <time>2022-08-27T14:02:06Z</time>
      </trkpt>
      <trkpt lat="46.5363" lon="5.6463">
        <ele>570.8</ele>
        <time>2022-08-27T14:02:08Z</time>
      </trkpt>
      <trkpt lat="46.53584" lon="5.6459">
        <ele>570.8</ele>
        <time>2022-08-27T14:02:14Z</time>
      </trkpt>
      <trkpt lat="46.53554" lon="5.64564">
        <ele>570.8</ele>
        <time>2022-08-27T14:02:18Z</time>
      </trkpt>
      <trkpt lat="46.53504" lon="5.64522">
        <ele>571</ele>
        <time>2022-08-27T14:02:25Z</time>
      </trkpt>
      <trkpt lat="46.53498" lon="5.64516">
        <ele>571.4</ele>
        <time>2022-08-27T14:02:26Z</time>
      </trkpt>
      <trkpt lat="46.53457" lon="5.64482">
        <ele>572.4</ele>
        <time>2022-08-27T14:02:32Z</time>
      </trkpt>
      <trkpt lat="46.53436" lon="5.64465">
        <ele>572.6</ele>
        <time>2022-08-27T14:02:35Z</time>
      </trkpt>
      <trkpt lat="46.53384" lon="5.64421">
        <ele>571.6</ele>
        <time>2022-08-27T14:02:42Z</time>
      </trkpt>
      <trkpt lat="46.53376" lon="5.64415">
        <ele>571.6</ele>
        <time>2022-08-27T14:02:43Z</time>
      </trkpt>
      <trkpt lat="46.53361" lon="5.64402">
        <ele>571.4</ele>
        <time>2022-08-27T14:02:45Z</time>
      </trkpt>
      <trkpt lat="46.53308" lon="5.64359">
        <ele>570.4</ele>
        <time>2022-08-27T14:02:52Z</time>
      </trkpt>
      <trkpt lat="46.53258" lon="5.64318">
        <ele>570.4</ele>
        <time>2022-08-27T14:02:59Z</time>
      </trkpt>
      <trkpt lat="46.5323" lon="5.64296">
        <ele>570.8</ele>
        <time>2022-08-27T14:03:03Z</time>
      </trkpt>
      <trkpt lat="46.53176" lon="5.64252">
        <ele>571.2</ele>
        <time>2022-08-27T14:03:11Z</time>
      </trkpt>
      <trkpt lat="46.53169" lon="5.64247">
        <ele>571.2</ele>
        <time>2022-08-27T14:03:12Z</time>
      </trkpt>
      <trkpt lat="46.53119" lon="5.64207">
        <ele>570.8</ele>
        <time>2022-08-27T14:03:19Z</time>
      </trkpt>
      <trkpt lat="46.53104" lon="5.64196">
        <ele>570.8</ele>
        <time>2022-08-27T14:03:21Z</time>
      </trkpt>
      <trkpt lat="46.53089" lon="5.64185">
        <ele>570.6</ele>
        <time>2022-08-27T14:03:23Z</time>
      </trkpt>
      <trkpt lat="46.53055" lon="5.64166">
        <ele>570.2</ele>
        <time>2022-08-27T14:03:27Z</time>
      </trkpt>
      <trkpt lat="46.53037" lon="5.64156">
        <ele>569.6</ele>
        <time>2022-08-27T14:03:29Z</time>
      </trkpt>
      <trkpt lat="46.5301" lon="5.64141">
        <ele>568.4</ele>
        <time>2022-08-27T14:03:32Z</time>
      </trkpt>
      <trkpt lat="46.52973" lon="5.64122">
        <ele>567.8</ele>
        <time>2022-08-27T14:03:36Z</time>
      </trkpt>
      <trkpt lat="46.52925" lon="5.64095">
        <ele>567.4</ele>
        <time>2022-08-27T14:03:42Z</time>
      </trkpt>
      <trkpt lat="46.52906" lon="5.64085">
        <ele>567.2</ele>
        <time>2022-08-27T14:03:44Z</time>
      </trkpt>
      <trkpt lat="46.5287" lon="5.64063">
        <ele>565.6</ele>
        <time>2022-08-27T14:03:48Z</time>
      </trkpt>
      <trkpt lat="46.52852" lon="5.64052">
        <ele>563.6</ele>
        <time>2022-08-27T14:03:50Z</time>
      </trkpt>
      <trkpt lat="46.52832" lon="5.64038">
        <ele>562.4</ele>
        <time>2022-08-27T14:03:52Z</time>
      </trkpt>
      <trkpt lat="46.528" lon="5.6402">
        <ele>560.4</ele>
        <time>2022-08-27T14:03:55Z</time>
      </trkpt>
      <trkpt lat="46.52778" lon="5.64018">
        <ele>558.6</ele>
        <time>2022-08-27T14:03:57Z</time>
      </trkpt>
      <trkpt lat="46.52768" lon="5.64021">
        <ele>558.2</ele>
        <time>2022-08-27T14:03:58Z</time>
      </trkpt>
      <trkpt lat="46.52759" lon="5.64024">
        <ele>556.8</ele>
        <time>2022-08-27T14:03:59Z</time>
      </trkpt>
      <trkpt lat="46.5274" lon="5.64018">
        <ele>555.2</ele>
        <time>2022-08-27T14:04:01Z</time>
      </trkpt>
      <trkpt lat="46.52728" lon="5.64">
        <ele>554.2</ele>
        <time>2022-08-27T14:04:03Z</time>
      </trkpt>
      <trkpt lat="46.52722" lon="5.6399">
        <ele>553.6</ele>
        <time>2022-08-27T14:04:04Z</time>
      </trkpt>
      <trkpt lat="46.52685" lon="5.63938">
        <ele>553.6</ele>
        <time>2022-08-27T14:04:10Z</time>
      </trkpt>
      <trkpt lat="46.52669" lon="5.63907">
        <ele>554</ele>
        <time>2022-08-27T14:04:13Z</time>
      </trkpt>
      <trkpt lat="46.52661" lon="5.63886">
        <ele>554.4</ele>
        <time>2022-08-27T14:04:15Z</time>
      </trkpt>
      <trkpt lat="46.52654" lon="5.63782">
        <ele>555.4</ele>
        <time>2022-08-27T14:04:25Z</time>
      </trkpt>
      <trkpt lat="46.52652" lon="5.63766">
        <ele>555.2</ele>
        <time>2022-08-27T14:04:26Z</time>
      </trkpt>
      <trkpt lat="46.52656" lon="5.63718">
        <ele>555.4</ele>
        <time>2022-08-27T14:04:30Z</time>
      </trkpt>
      <trkpt lat="46.52676" lon="5.6364">
        <ele>554.4</ele>
        <time>2022-08-27T14:04:37Z</time>
      </trkpt>
      <trkpt lat="46.52681" lon="5.63617">
        <ele>553.8</ele>
        <time>2022-08-27T14:04:39Z</time>
      </trkpt>
      <trkpt lat="46.5269" lon="5.63554">
        <ele>552.8</ele>
        <time>2022-08-27T14:04:44Z</time>
      </trkpt>
      <trkpt lat="46.52693" lon="5.63527">
        <ele>552.4</ele>
        <time>2022-08-27T14:04:46Z</time>
      </trkpt>
      <trkpt lat="46.52693" lon="5.6347">
        <ele>551.4</ele>
        <time>2022-08-27T14:04:50Z</time>
      </trkpt>
      <trkpt lat="46.52692" lon="5.63456">
        <ele>551</ele>
        <time>2022-08-27T14:04:51Z</time>
      </trkpt>
      <trkpt lat="46.52689" lon="5.63426">
        <ele>550.4</ele>
        <time>2022-08-27T14:04:53Z</time>
      </trkpt>
      <trkpt lat="46.52683" lon="5.63381">
        <ele>549.2</ele>
        <time>2022-08-27T14:04:56Z</time>
      </trkpt>
      <trkpt lat="46.52679" lon="5.63352">
        <ele>547.8</ele>
        <time>2022-08-27T14:04:58Z</time>
      </trkpt>
      <trkpt lat="46.52675" lon="5.63324">
        <ele>546.2</ele>
        <time>2022-08-27T14:05:00Z</time>
      </trkpt>
      <trkpt lat="46.52669" lon="5.63282">
        <ele>545.2</ele>
        <time>2022-08-27T14:05:03Z</time>
      </trkpt>
      <trkpt lat="46.52665" lon="5.63255">
        <ele>544.4</ele>
        <time>2022-08-27T14:05:05Z</time>
      </trkpt>
      <trkpt lat="46.5266" lon="5.6323">
        <ele>544</ele>
        <time>2022-08-27T14:05:07Z</time>
      </trkpt>
      <trkpt lat="46.52652" lon="5.63194">
        <ele>543.8</ele>
        <time>2022-08-27T14:05:10Z</time>
      </trkpt>
      <trkpt lat="46.52632" lon="5.63114">
        <ele>544.2</ele>
        <time>2022-08-27T14:05:17Z</time>
      </trkpt>
      <trkpt lat="46.52627" lon="5.63094">
        <ele>544.4</ele>
        <time>2022-08-27T14:05:19Z</time>
      </trkpt>
      <trkpt lat="46.52608" lon="5.63019">
        <ele>544.8</ele>
        <time>2022-08-27T14:05:26Z</time>
      </trkpt>
      <trkpt lat="46.52605" lon="5.63008">
        <ele>544.8</ele>
        <time>2022-08-27T14:05:27Z</time>
      </trkpt>
      <trkpt lat="46.52602" lon="5.62998">
        <ele>544.8</ele>
        <time>2022-08-27T14:05:28Z</time>
      </trkpt>
      <trkpt lat="46.52583" lon="5.62921">
        <ele>544.2</ele>
        <time>2022-08-27T14:05:35Z</time>
      </trkpt>
      <trkpt lat="46.52561" lon="5.62841">
        <ele>543.8</ele>
        <time>2022-08-27T14:05:42Z</time>
      </trkpt>
      <trkpt lat="46.52557" lon="5.62829">
        <ele>543.8</ele>
        <time>2022-08-27T14:05:43Z</time>
      </trkpt>
      <trkpt lat="46.52543" lon="5.62779">
        <ele>542.6</ele>
        <time>2022-08-27T14:05:47Z</time>
      </trkpt>
      <trkpt lat="46.52535" lon="5.62754">
        <ele>542.4</ele>
        <time>2022-08-27T14:05:49Z</time>
      </trkpt>
      <trkpt lat="46.52527" lon="5.62728">
        <ele>541.8</ele>
        <time>2022-08-27T14:05:51Z</time>
      </trkpt>
      <trkpt lat="46.52519" lon="5.62701">
        <ele>540.6</ele>
        <time>2022-08-27T14:05:53Z</time>
      </trkpt>
      <trkpt lat="46.52511" lon="5.62673">
        <ele>539.8</ele>
        <time>2022-08-27T14:05:55Z</time>
      </trkpt>
      <trkpt lat="46.52507" lon="5.62659">
        <ele>539.4</ele>
        <time>2022-08-27T14:05:56Z</time>
      </trkpt>
      <trkpt lat="46.52488" lon="5.62601">
        <ele>537.6</ele>
        <time>2022-08-27T14:06:00Z</time>
      </trkpt>
      <trkpt lat="46.52483" lon="5.62587">
        <ele>536.6</ele>
        <time>2022-08-27T14:06:01Z</time>
      </trkpt>
      <trkpt lat="46.52469" lon="5.62562">
        <ele>535.2</ele>
        <time>2022-08-27T14:06:03Z</time>
      </trkpt>
      <trkpt lat="46.52455" lon="5.62537">
        <ele>534</ele>
        <time>2022-08-27T14:06:05Z</time>
      </trkpt>
      <trkpt lat="46.52445" lon="5.62522">
        <ele>533.4</ele>
        <time>2022-08-27T14:06:06Z</time>
      </trkpt>
      <trkpt lat="46.52439" lon="5.62512">
        <ele>532.8</ele>
        <time>2022-08-27T14:06:07Z</time>
      </trkpt>
      <trkpt lat="46.52423" lon="5.62487">
        <ele>531.2</ele>
        <time>2022-08-27T14:06:09Z</time>
      </trkpt>
      <trkpt lat="46.52415" lon="5.62474">
        <ele>530.2</ele>
        <time>2022-08-27T14:06:10Z</time>
      </trkpt>
      <trkpt lat="46.52407" lon="5.6246">
        <ele>529.6</ele>
        <time>2022-08-27T14:06:11Z</time>
      </trkpt>
      <trkpt lat="46.524" lon="5.62445">
        <ele>528.4</ele>
        <time>2022-08-27T14:06:12Z</time>
      </trkpt>
      <trkpt lat="46.52389" lon="5.62414">
        <ele>526.4</ele>
        <time>2022-08-27T14:06:14Z</time>
      </trkpt>
      <trkpt lat="46.52385" lon="5.62397">
        <ele>525.2</ele>
        <time>2022-08-27T14:06:15Z</time>
      </trkpt>
      <trkpt lat="46.52378" lon="5.62361">
        <ele>523</ele>
        <time>2022-08-27T14:06:17Z</time>
      </trkpt>
      <trkpt lat="46.52376" lon="5.62343">
        <ele>522</ele>
        <time>2022-08-27T14:06:18Z</time>
      </trkpt>
      <trkpt lat="46.52375" lon="5.62324">
        <ele>520.4</ele>
        <time>2022-08-27T14:06:19Z</time>
      </trkpt>
      <trkpt lat="46.52375" lon="5.62287">
        <ele>519</ele>
        <time>2022-08-27T14:06:21Z</time>
      </trkpt>
      <trkpt lat="46.52376" lon="5.62268">
        <ele>518.6</ele>
        <time>2022-08-27T14:06:22Z</time>
      </trkpt>
      <trkpt lat="46.52377" lon="5.6225">
        <ele>518.4</ele>
        <time>2022-08-27T14:06:23Z</time>
      </trkpt>
      <trkpt lat="46.52378" lon="5.62231">
        <ele>517.6</ele>
        <time>2022-08-27T14:06:24Z</time>
      </trkpt>
      <trkpt lat="46.52381" lon="5.62196">
        <ele>516.2</ele>
        <time>2022-08-27T14:06:26Z</time>
      </trkpt>
      <trkpt lat="46.52383" lon="5.62161">
        <ele>515</ele>
        <time>2022-08-27T14:06:28Z</time>
      </trkpt>
      <trkpt lat="46.52385" lon="5.6213">
        <ele>514</ele>
        <time>2022-08-27T14:06:30Z</time>
      </trkpt>
      <trkpt lat="46.52388" lon="5.62072">
        <ele>513.4</ele>
        <time>2022-08-27T14:06:34Z</time>
      </trkpt>
      <trkpt lat="46.52389" lon="5.62055">
        <ele>513.4</ele>
        <time>2022-08-27T14:06:35Z</time>
      </trkpt>
      <trkpt lat="46.52395" lon="5.61966">
        <ele>514.6</ele>
        <time>2022-08-27T14:06:42Z</time>
      </trkpt>
      <trkpt lat="46.52396" lon="5.61954">
        <ele>514.8</ele>
        <time>2022-08-27T14:06:43Z</time>
      </trkpt>
      <trkpt lat="46.52397" lon="5.6193">
        <ele>515</ele>
        <time>2022-08-27T14:06:45Z</time>
      </trkpt>
      <trkpt lat="46.52399" lon="5.61897">
        <ele>515.4</ele>
        <time>2022-08-27T14:06:48Z</time>
      </trkpt>
      <trkpt lat="46.52399" lon="5.61857">
        <ele>516.4</ele>
        <time>2022-08-27T14:06:52Z</time>
      </trkpt>
      <trkpt lat="46.52398" lon="5.61848">
        <ele>516.6</ele>
        <time>2022-08-27T14:06:53Z</time>
      </trkpt>
      <trkpt lat="46.52397" lon="5.61839">
        <ele>517</ele>
        <time>2022-08-27T14:06:54Z</time>
      </trkpt>
      <trkpt lat="46.52393" lon="5.6182">
        <ele>517.4</ele>
        <time>2022-08-27T14:06:56Z</time>
      </trkpt>
      <trkpt lat="46.5239" lon="5.61805">
        <ele>518.4</ele>
        <time>2022-08-27T14:06:58Z</time>
      </trkpt>
      <trkpt lat="46.52389" lon="5.61798">
        <ele>518.8</ele>
        <time>2022-08-27T14:06:59Z</time>
      </trkpt>
      <trkpt lat="46.52385" lon="5.61774">
        <ele>520</ele>
        <time>2022-08-27T14:07:02Z</time>
      </trkpt>
      <trkpt lat="46.52382" lon="5.61762">
        <ele>521</ele>
        <time>2022-08-27T14:07:04Z</time>
      </trkpt>
      <trkpt lat="46.52376" lon="5.61733">
        <ele>522.2</ele>
        <time>2022-08-27T14:07:08Z</time>
      </trkpt>
      <trkpt lat="46.52374" lon="5.6172">
        <ele>522.6</ele>
        <time>2022-08-27T14:07:10Z</time>
      </trkpt>
      <trkpt lat="46.52372" lon="5.61708">
        <ele>523.4</ele>
        <time>2022-08-27T14:07:12Z</time>
      </trkpt>
      <trkpt lat="46.52368" lon="5.61688">
        <ele>524.6</ele>
        <time>2022-08-27T14:07:15Z</time>
      </trkpt>
      <trkpt lat="46.52364" lon="5.61671">
        <ele>525.6</ele>
        <time>2022-08-27T14:07:18Z</time>
      </trkpt>
      <trkpt lat="46.52362" lon="5.61664">
        <ele>525.8</ele>
        <time>2022-08-27T14:07:19Z</time>
      </trkpt>
      <trkpt lat="46.52359" lon="5.61654">
        <ele>526.4</ele>
        <time>2022-08-27T14:07:21Z</time>
      </trkpt>
      <trkpt lat="46.52357" lon="5.61649">
        <ele>526.6</ele>
        <time>2022-08-27T14:07:22Z</time>
      </trkpt>
      <trkpt lat="46.52354" lon="5.61644">
        <ele>527</ele>
        <time>2022-08-27T14:07:23Z</time>
      </trkpt>
      <trkpt lat="46.52352" lon="5.61639">
        <ele>527.2</ele>
        <time>2022-08-27T14:07:24Z</time>
      </trkpt>
      <trkpt lat="46.52341" lon="5.61627">
        <ele>528</ele>
        <time>2022-08-27T14:07:27Z</time>
      </trkpt>
      <trkpt lat="46.52323" lon="5.61612">
        <ele>529.2</ele>
        <time>2022-08-27T14:07:31Z</time>
      </trkpt>
      <trkpt lat="46.52305" lon="5.61597">
        <ele>529.8</ele>
        <time>2022-08-27T14:07:35Z</time>
      </trkpt>
      <trkpt lat="46.52285" lon="5.6158">
        <ele>530.4</ele>
        <time>2022-08-27T14:07:39Z</time>
      </trkpt>
      <trkpt lat="46.52275" lon="5.61569">
        <ele>530.4</ele>
        <time>2022-08-27T14:07:41Z</time>
      </trkpt>
      <trkpt lat="46.52237" lon="5.61528">
        <ele>530</ele>
        <time>2022-08-27T14:07:48Z</time>
      </trkpt>
      <trkpt lat="46.52204" lon="5.61493">
        <ele>529.8</ele>
        <time>2022-08-27T14:07:54Z</time>
      </trkpt>
      <trkpt lat="46.52199" lon="5.6149">
        <ele>529.8</ele>
        <time>2022-08-27T14:07:55Z</time>
      </trkpt>
      <trkpt lat="46.52162" lon="5.6145">
        <ele>530.2</ele>
        <time>2022-08-27T14:08:02Z</time>
      </trkpt>
      <trkpt lat="46.52128" lon="5.61409">
        <ele>530.6</ele>
        <time>2022-08-27T14:08:09Z</time>
      </trkpt>
      <trkpt lat="46.5212" lon="5.61394">
        <ele>530.8</ele>
        <time>2022-08-27T14:08:11Z</time>
      </trkpt>
      <trkpt lat="46.52116" lon="5.61378">
        <ele>530.8</ele>
        <time>2022-08-27T14:08:13Z</time>
      </trkpt>
      <trkpt lat="46.52108" lon="5.61334">
        <ele>531.4</ele>
        <time>2022-08-27T14:08:18Z</time>
      </trkpt>
      <trkpt lat="46.52103" lon="5.61299">
        <ele>532.2</ele>
        <time>2022-08-27T14:08:22Z</time>
      </trkpt>
      <trkpt lat="46.52103" lon="5.61265">
        <ele>532.6</ele>
        <time>2022-08-27T14:08:26Z</time>
      </trkpt>
      <trkpt lat="46.52103" lon="5.61257">
        <ele>532.8</ele>
        <time>2022-08-27T14:08:27Z</time>
      </trkpt>
      <trkpt lat="46.52104" lon="5.61209">
        <ele>533.6</ele>
        <time>2022-08-27T14:08:33Z</time>
      </trkpt>
      <trkpt lat="46.52104" lon="5.61201">
        <ele>534</ele>
        <time>2022-08-27T14:08:34Z</time>
      </trkpt>
      <trkpt lat="46.52101" lon="5.61161">
        <ele>535.2</ele>
        <time>2022-08-27T14:08:39Z</time>
      </trkpt>
      <trkpt lat="46.52099" lon="5.61137">
        <ele>535.4</ele>
        <time>2022-08-27T14:08:42Z</time>
      </trkpt>
      <trkpt lat="46.52099" lon="5.61129">
        <ele>535.4</ele>
        <time>2022-08-27T14:08:43Z</time>
      </trkpt>
      <trkpt lat="46.52099" lon="5.61113">
        <ele>535.6</ele>
        <time>2022-08-27T14:08:45Z</time>
      </trkpt>
      <trkpt lat="46.52101" lon="5.61098">
        <ele>535.6</ele>
        <time>2022-08-27T14:08:47Z</time>
      </trkpt>
      <trkpt lat="46.52106" lon="5.61068">
        <ele>536</ele>
        <time>2022-08-27T14:08:51Z</time>
      </trkpt>
      <trkpt lat="46.52106" lon="5.6106">
        <ele>536</ele>
        <time>2022-08-27T14:08:52Z</time>
      </trkpt>
      <trkpt lat="46.52105" lon="5.61052">
        <ele>536.2</ele>
        <time>2022-08-27T14:08:53Z</time>
      </trkpt>
      <trkpt lat="46.52104" lon="5.61043">
        <ele>536.4</ele>
        <time>2022-08-27T14:08:54Z</time>
      </trkpt>
      <trkpt lat="46.52107" lon="5.61026">
        <ele>536.6</ele>
        <time>2022-08-27T14:08:56Z</time>
      </trkpt>
      <trkpt lat="46.52124" lon="5.61003">
        <ele>536.6</ele>
        <time>2022-08-27T14:09:00Z</time>
      </trkpt>
      <trkpt lat="46.52136" lon="5.60983">
        <ele>536.8</ele>
        <time>2022-08-27T14:09:03Z</time>
      </trkpt>
      <trkpt lat="46.52142" lon="5.60968">
        <ele>536.8</ele>
        <time>2022-08-27T14:09:05Z</time>
      </trkpt>
      <trkpt lat="46.52144" lon="5.6096">
        <ele>536.8</ele>
        <time>2022-08-27T14:09:06Z</time>
      </trkpt>
      <trkpt lat="46.52148" lon="5.60929">
        <ele>537.4</ele>
        <time>2022-08-27T14:09:10Z</time>
      </trkpt>
      <trkpt lat="46.52151" lon="5.60898">
        <ele>538.2</ele>
        <time>2022-08-27T14:09:14Z</time>
      </trkpt>
      <trkpt lat="46.52153" lon="5.60882">
        <ele>538.6</ele>
        <time>2022-08-27T14:09:16Z</time>
      </trkpt>
      <trkpt lat="46.52162" lon="5.60829">
        <ele>539.4</ele>
        <time>2022-08-27T14:09:23Z</time>
      </trkpt>
      <trkpt lat="46.52164" lon="5.60807">
        <ele>539.6</ele>
        <time>2022-08-27T14:09:26Z</time>
      </trkpt>
      <trkpt lat="46.52163" lon="5.60776">
        <ele>540.6</ele>
        <time>2022-08-27T14:09:30Z</time>
      </trkpt>
      <trkpt lat="46.52163" lon="5.60751">
        <ele>540.6</ele>
        <time>2022-08-27T14:09:33Z</time>
      </trkpt>
      <trkpt lat="46.52166" lon="5.60733">
        <ele>540.6</ele>
        <time>2022-08-27T14:09:35Z</time>
      </trkpt>
      <trkpt lat="46.52172" lon="5.60726">
        <ele>540.6</ele>
        <time>2022-08-27T14:09:36Z</time>
      </trkpt>
      <trkpt lat="46.52179" lon="5.60721">
        <ele>540.6</ele>
        <time>2022-08-27T14:09:37Z</time>
      </trkpt>
      <trkpt lat="46.52187" lon="5.60718">
        <ele>540.6</ele>
        <time>2022-08-27T14:09:38Z</time>
      </trkpt>
      <trkpt lat="46.52205" lon="5.60715">
        <ele>540</ele>
        <time>2022-08-27T14:09:40Z</time>
      </trkpt>
      <trkpt lat="46.52222" lon="5.60712">
        <ele>538</ele>
        <time>2022-08-27T14:09:42Z</time>
      </trkpt>
      <trkpt lat="46.52239" lon="5.60704">
        <ele>537.2</ele>
        <time>2022-08-27T14:09:44Z</time>
      </trkpt>
      <trkpt lat="46.52246" lon="5.60698">
        <ele>536.8</ele>
        <time>2022-08-27T14:09:45Z</time>
      </trkpt>
      <trkpt lat="46.52252" lon="5.6069">
        <ele>536.6</ele>
        <time>2022-08-27T14:09:46Z</time>
      </trkpt>
      <trkpt lat="46.52258" lon="5.60679">
        <ele>536.2</ele>
        <time>2022-08-27T14:09:47Z</time>
      </trkpt>
      <trkpt lat="46.52262" lon="5.60668">
        <ele>536.2</ele>
        <time>2022-08-27T14:09:48Z</time>
      </trkpt>
      <trkpt lat="46.52266" lon="5.60642">
        <ele>535.6</ele>
        <time>2022-08-27T14:09:50Z</time>
      </trkpt>
      <trkpt lat="46.52274" lon="5.60561">
        <ele>534.6</ele>
        <time>2022-08-27T14:09:56Z</time>
      </trkpt>
      <trkpt lat="46.52278" lon="5.60521">
        <ele>533.4</ele>
        <time>2022-08-27T14:09:59Z</time>
      </trkpt>
      <trkpt lat="46.52282" lon="5.60463">
        <ele>532.2</ele>
        <time>2022-08-27T14:10:03Z</time>
      </trkpt>
      <trkpt lat="46.52282" lon="5.60453">
        <ele>532</ele>
        <time>2022-08-27T14:10:04Z</time>
      </trkpt>
      <trkpt lat="46.52289" lon="5.60374">
        <ele>531.6</ele>
        <time>2022-08-27T14:10:10Z</time>
      </trkpt>
      <trkpt lat="46.5229" lon="5.60361">
        <ele>531.4</ele>
        <time>2022-08-27T14:10:11Z</time>
      </trkpt>
      <trkpt lat="46.52297" lon="5.60275">
        <ele>531.8</ele>
        <time>2022-08-27T14:10:18Z</time>
      </trkpt>
      <trkpt lat="46.523" lon="5.60238">
        <ele>532</ele>
        <time>2022-08-27T14:10:21Z</time>
      </trkpt>
      <trkpt lat="46.52305" lon="5.60164">
        <ele>531.4</ele>
        <time>2022-08-27T14:10:27Z</time>
      </trkpt>
      <trkpt lat="46.5231" lon="5.60115">
        <ele>530.8</ele>
        <time>2022-08-27T14:10:31Z</time>
      </trkpt>
      <trkpt lat="46.52316" lon="5.60032">
        <ele>530.4</ele>
        <time>2022-08-27T14:10:38Z</time>
      </trkpt>
      <trkpt lat="46.52318" lon="5.60008">
        <ele>530.2</ele>
        <time>2022-08-27T14:10:40Z</time>
      </trkpt>
      <trkpt lat="46.52324" lon="5.59932">
        <ele>529.4</ele>
        <time>2022-08-27T14:10:46Z</time>
      </trkpt>
      <trkpt lat="46.52328" lon="5.59883">
        <ele>529</ele>
        <time>2022-08-27T14:10:50Z</time>
      </trkpt>
      <trkpt lat="46.52334" lon="5.59799">
        <ele>528.4</ele>
        <time>2022-08-27T14:10:57Z</time>
      </trkpt>
      <trkpt lat="46.52336" lon="5.59787">
        <ele>528.4</ele>
        <time>2022-08-27T14:10:58Z</time>
      </trkpt>
      <trkpt lat="46.52337" lon="5.59775">
        <ele>528.2</ele>
        <time>2022-08-27T14:10:59Z</time>
      </trkpt>
      <trkpt lat="46.52343" lon="5.59691">
        <ele>527.8</ele>
        <time>2022-08-27T14:11:06Z</time>
      </trkpt>
      <trkpt lat="46.52343" lon="5.59679">
        <ele>527.4</ele>
        <time>2022-08-27T14:11:07Z</time>
      </trkpt>
      <trkpt lat="46.52344" lon="5.59667">
        <ele>527.2</ele>
        <time>2022-08-27T14:11:08Z</time>
      </trkpt>
      <trkpt lat="46.5235" lon="5.59586">
        <ele>526.6</ele>
        <time>2022-08-27T14:11:15Z</time>
      </trkpt>
      <trkpt lat="46.52351" lon="5.59574">
        <ele>526.6</ele>
        <time>2022-08-27T14:11:16Z</time>
      </trkpt>
      <trkpt lat="46.52354" lon="5.59527">
        <ele>526.2</ele>
        <time>2022-08-27T14:11:20Z</time>
      </trkpt>
      <trkpt lat="46.5236" lon="5.59452">
        <ele>525.2</ele>
        <time>2022-08-27T14:11:26Z</time>
      </trkpt>
      <trkpt lat="46.52361" lon="5.59439">
        <ele>525</ele>
        <time>2022-08-27T14:11:27Z</time>
      </trkpt>
      <trkpt lat="46.52365" lon="5.594">
        <ele>524</ele>
        <time>2022-08-27T14:11:30Z</time>
      </trkpt>
      <trkpt lat="46.52368" lon="5.59359">
        <ele>523</ele>
        <time>2022-08-27T14:11:33Z</time>
      </trkpt>
      <trkpt lat="46.52371" lon="5.59318">
        <ele>522.2</ele>
        <time>2022-08-27T14:11:36Z</time>
      </trkpt>
      <trkpt lat="46.52372" lon="5.59304">
        <ele>521.6</ele>
        <time>2022-08-27T14:11:37Z</time>
      </trkpt>
      <trkpt lat="46.52376" lon="5.5926">
        <ele>520.6</ele>
        <time>2022-08-27T14:11:40Z</time>
      </trkpt>
      <trkpt lat="46.5238" lon="5.59208">
        <ele>519.6</ele>
        <time>2022-08-27T14:11:44Z</time>
      </trkpt>
      <trkpt lat="46.52381" lon="5.59195">
        <ele>519.4</ele>
        <time>2022-08-27T14:11:45Z</time>
      </trkpt>
      <trkpt lat="46.52387" lon="5.59116">
        <ele>518.6</ele>
        <time>2022-08-27T14:11:51Z</time>
      </trkpt>
      <trkpt lat="46.5239" lon="5.59076">
        <ele>518.4</ele>
        <time>2022-08-27T14:11:54Z</time>
      </trkpt>
      <trkpt lat="46.52396" lon="5.58995">
        <ele>517.8</ele>
        <time>2022-08-27T14:12:00Z</time>
      </trkpt>
      <trkpt lat="46.52398" lon="5.58969">
        <ele>517.2</ele>
        <time>2022-08-27T14:12:02Z</time>
      </trkpt>
      <trkpt lat="46.52405" lon="5.58881">
        <ele>516.8</ele>
        <time>2022-08-27T14:12:09Z</time>
      </trkpt>
      <trkpt lat="46.52411" lon="5.58794">
        <ele>516.8</ele>
        <time>2022-08-27T14:12:16Z</time>
      </trkpt>
      <trkpt lat="46.52412" lon="5.58773">
        <ele>516.6</ele>
        <time>2022-08-27T14:12:18Z</time>
      </trkpt>
      <trkpt lat="46.52413" lon="5.58762">
        <ele>516.2</ele>
        <time>2022-08-27T14:12:19Z</time>
      </trkpt>
      <trkpt lat="46.52417" lon="5.58719">
        <ele>515.8</ele>
        <time>2022-08-27T14:12:23Z</time>
      </trkpt>
      <trkpt lat="46.52424" lon="5.58635">
        <ele>515.8</ele>
        <time>2022-08-27T14:12:31Z</time>
      </trkpt>
      <trkpt lat="46.52424" lon="5.58628">
        <ele>515.8</ele>
        <time>2022-08-27T14:12:32Z</time>
      </trkpt>
      <trkpt lat="46.5243" lon="5.58549">
        <ele>516</ele>
        <time>2022-08-27T14:12:40Z</time>
      </trkpt>
      <trkpt lat="46.52431" lon="5.58529">
        <ele>516.2</ele>
        <time>2022-08-27T14:12:42Z</time>
      </trkpt>
      <trkpt lat="46.52437" lon="5.5845">
        <ele>516.4</ele>
        <time>2022-08-27T14:12:50Z</time>
      </trkpt>
      <trkpt lat="46.52439" lon="5.58419">
        <ele>517</ele>
        <time>2022-08-27T14:12:53Z</time>
      </trkpt>
      <trkpt lat="46.52446" lon="5.58336">
        <ele>517</ele>
        <time>2022-08-27T14:13:01Z</time>
      </trkpt>
      <trkpt lat="46.52449" lon="5.58305">
        <ele>516.8</ele>
        <time>2022-08-27T14:13:04Z</time>
      </trkpt>
      <trkpt lat="46.52456" lon="5.58219">
        <ele>516</ele>
        <time>2022-08-27T14:13:12Z</time>
      </trkpt>
      <trkpt lat="46.52456" lon="5.58208">
        <ele>516</ele>
        <time>2022-08-27T14:13:13Z</time>
      </trkpt>
      <trkpt lat="46.52462" lon="5.58128">
        <ele>515.6</ele>
        <time>2022-08-27T14:13:20Z</time>
      </trkpt>
      <trkpt lat="46.52463" lon="5.58119">
        <ele>515.6</ele>
        <time>2022-08-27T14:13:21Z</time>
      </trkpt>
      <trkpt lat="46.52468" lon="5.58038">
        <ele>515.4</ele>
        <time>2022-08-27T14:13:28Z</time>
      </trkpt>
      <trkpt lat="46.52471" lon="5.58008">
        <ele>515.4</ele>
        <time>2022-08-27T14:13:31Z</time>
      </trkpt>
      <trkpt lat="46.52477" lon="5.57919">
        <ele>515.2</ele>
        <time>2022-08-27T14:13:39Z</time>
      </trkpt>
      <trkpt lat="46.52479" lon="5.579">
        <ele>515.2</ele>
        <time>2022-08-27T14:13:41Z</time>
      </trkpt>
      <trkpt lat="46.52486" lon="5.57817">
        <ele>515</ele>
        <time>2022-08-27T14:13:49Z</time>
      </trkpt>
      <trkpt lat="46.52492" lon="5.57732">
        <ele>514.8</ele>
        <time>2022-08-27T14:13:57Z</time>
      </trkpt>
      <trkpt lat="46.52492" lon="5.57722">
        <ele>514.6</ele>
        <time>2022-08-27T14:13:58Z</time>
      </trkpt>
      <trkpt lat="46.52499" lon="5.57639">
        <ele>514.4</ele>
        <time>2022-08-27T14:14:06Z</time>
      </trkpt>
      <trkpt lat="46.525" lon="5.57629">
        <ele>514.4</ele>
        <time>2022-08-27T14:14:07Z</time>
      </trkpt>
      <trkpt lat="46.52506" lon="5.57546">
        <ele>514.8</ele>
        <time>2022-08-27T14:14:15Z</time>
      </trkpt>
      <trkpt lat="46.52507" lon="5.57536">
        <ele>514.8</ele>
        <time>2022-08-27T14:14:16Z</time>
      </trkpt>
      <trkpt lat="46.52512" lon="5.57461">
        <ele>515.8</ele>
        <time>2022-08-27T14:14:23Z</time>
      </trkpt>
      <trkpt lat="46.52516" lon="5.57409">
        <ele>516</ele>
        <time>2022-08-27T14:14:28Z</time>
      </trkpt>
      <trkpt lat="46.52523" lon="5.57324">
        <ele>515.8</ele>
        <time>2022-08-27T14:14:36Z</time>
      </trkpt>
      <trkpt lat="46.52526" lon="5.57281">
        <ele>515.6</ele>
        <time>2022-08-27T14:14:40Z</time>
      </trkpt>
      <trkpt lat="46.52532" lon="5.57199">
        <ele>515.4</ele>
        <time>2022-08-27T14:14:48Z</time>
      </trkpt>
      <trkpt lat="46.52534" lon="5.57178">
        <ele>515.2</ele>
        <time>2022-08-27T14:14:50Z</time>
      </trkpt>
      <trkpt lat="46.52541" lon="5.57097">
        <ele>515.8</ele>
        <time>2022-08-27T14:14:58Z</time>
      </trkpt>
      <trkpt lat="46.52542" lon="5.57076">
        <ele>515.8</ele>
        <time>2022-08-27T14:15:00Z</time>
      </trkpt>
      <trkpt lat="46.52549" lon="5.56991">
        <ele>515.2</ele>
        <time>2022-08-27T14:15:08Z</time>
      </trkpt>
      <trkpt lat="46.5255" lon="5.5698">
        <ele>515.2</ele>
        <time>2022-08-27T14:15:09Z</time>
      </trkpt>
      <trkpt lat="46.52557" lon="5.56893">
        <ele>515.2</ele>
        <time>2022-08-27T14:15:17Z</time>
      </trkpt>
      <trkpt lat="46.52558" lon="5.56871">
        <ele>515.2</ele>
        <time>2022-08-27T14:15:19Z</time>
      </trkpt>
      <trkpt lat="46.52561" lon="5.56839">
        <ele>515.2</ele>
        <time>2022-08-27T14:15:22Z</time>
      </trkpt>
      <trkpt lat="46.52566" lon="5.56765">
        <ele>515.2</ele>
        <time>2022-08-27T14:15:29Z</time>
      </trkpt>
      <trkpt lat="46.52573" lon="5.56682">
        <ele>515.8</ele>
        <time>2022-08-27T14:15:37Z</time>
      </trkpt>
      <trkpt lat="46.52574" lon="5.56673">
        <ele>515.8</ele>
        <time>2022-08-27T14:15:38Z</time>
      </trkpt>
      <trkpt lat="46.5258" lon="5.56594">
        <ele>516</ele>
        <time>2022-08-27T14:15:46Z</time>
      </trkpt>
      <trkpt lat="46.52586" lon="5.56507">
        <ele>517</ele>
        <time>2022-08-27T14:15:55Z</time>
      </trkpt>
      <trkpt lat="46.52588" lon="5.56488">
        <ele>517.2</ele>
        <time>2022-08-27T14:15:57Z</time>
      </trkpt>
      <trkpt lat="46.52591" lon="5.5643">
        <ele>518.2</ele>
        <time>2022-08-27T14:16:03Z</time>
      </trkpt>
      <trkpt lat="46.52593" lon="5.56409">
        <ele>518.4</ele>
        <time>2022-08-27T14:16:05Z</time>
      </trkpt>
      <trkpt lat="46.52595" lon="5.56377">
        <ele>518.8</ele>
        <time>2022-08-27T14:16:08Z</time>
      </trkpt>
      <trkpt lat="46.52601" lon="5.56298">
        <ele>518.8</ele>
        <time>2022-08-27T14:16:15Z</time>
      </trkpt>
      <trkpt lat="46.52602" lon="5.56287">
        <ele>518.8</ele>
        <time>2022-08-27T14:16:16Z</time>
      </trkpt>
      <trkpt lat="46.52608" lon="5.56213">
        <ele>517.4</ele>
        <time>2022-08-27T14:16:22Z</time>
      </trkpt>
      <trkpt lat="46.52611" lon="5.56175">
        <ele>516.6</ele>
        <time>2022-08-27T14:16:25Z</time>
      </trkpt>
      <trkpt lat="46.52612" lon="5.56162">
        <ele>516</ele>
        <time>2022-08-27T14:16:26Z</time>
      </trkpt>
      <trkpt lat="46.52616" lon="5.56113">
        <ele>514.8</ele>
        <time>2022-08-27T14:16:30Z</time>
      </trkpt>
      <trkpt lat="46.5262" lon="5.56063">
        <ele>514.2</ele>
        <time>2022-08-27T14:16:34Z</time>
      </trkpt>
      <trkpt lat="46.52627" lon="5.55992">
        <ele>513.8</ele>
        <time>2022-08-27T14:16:40Z</time>
      </trkpt>
      <trkpt lat="46.52627" lon="5.5598">
        <ele>513.8</ele>
        <time>2022-08-27T14:16:41Z</time>
      </trkpt>
      <trkpt lat="46.52633" lon="5.5591">
        <ele>513.6</ele>
        <time>2022-08-27T14:16:47Z</time>
      </trkpt>
      <trkpt lat="46.5264" lon="5.55821">
        <ele>513.8</ele>
        <time>2022-08-27T14:16:55Z</time>
      </trkpt>
      <trkpt lat="46.5264" lon="5.5581">
        <ele>514</ele>
        <time>2022-08-27T14:16:56Z</time>
      </trkpt>
      <trkpt lat="46.52647" lon="5.55725">
        <ele>514.6</ele>
        <time>2022-08-27T14:17:04Z</time>
      </trkpt>
      <trkpt lat="46.52653" lon="5.55638">
        <ele>514</ele>
        <time>2022-08-27T14:17:12Z</time>
      </trkpt>
      <trkpt lat="46.52659" lon="5.55555">
        <ele>514</ele>
        <time>2022-08-27T14:17:20Z</time>
      </trkpt>
      <trkpt lat="46.52662" lon="5.55524">
        <ele>514</ele>
        <time>2022-08-27T14:17:23Z</time>
      </trkpt>
      <trkpt lat="46.52669" lon="5.55437">
        <ele>514</ele>
        <time>2022-08-27T14:17:32Z</time>
      </trkpt>
      <trkpt lat="46.5267" lon="5.55419">
        <ele>514.2</ele>
        <time>2022-08-27T14:17:34Z</time>
      </trkpt>
      <trkpt lat="46.52674" lon="5.55373">
        <ele>515.2</ele>
        <time>2022-08-27T14:17:39Z</time>
      </trkpt>
      <trkpt lat="46.52678" lon="5.5532">
        <ele>516</ele>
        <time>2022-08-27T14:17:45Z</time>
      </trkpt>
      <trkpt lat="46.52678" lon="5.5531">
        <ele>516.4</ele>
        <time>2022-08-27T14:17:46Z</time>
      </trkpt>
      <trkpt lat="46.52679" lon="5.55295">
        <ele>516.8</ele>
        <time>2022-08-27T14:17:48Z</time>
      </trkpt>
    </trkseg>
  </trk>
</gpx>